<?xml version='1.0' encoding='UTF-8'?><gpx version="1.1" creator="JPX - https://github.com/jenetics/jpx" xmlns="http://www.topografix.com/GPX/1/1"><trk><trkseg><trkpt lat="47.72782794694253" lon="-1.7295105824400028"><ele>57.0</ele><time>2026-04-11T15:02:07.999Z</time></trkpt><trkpt lat="47.72783993897407" lon="-1.729623283435748"><ele>57.0</ele><time>2026-04-11T15:02:12.999Z</time></trkpt><trkpt lat="47.727961211246964" lon="-1.7295556757905355"><ele>57.0</ele><time>2026-04-11T15:02:24.999Z</time></trkpt><trkpt lat="47.72806589906921" lon="-1.7295418538625458"><ele>57.0</ele><time>2026-04-11T15:02:26.999Z</time></trkpt><trkpt lat="47.72823625863559" lon="-1.7296128091281395"><ele>57.0</ele><time>2026-04-11T15:02:28.999Z</time></trkpt><trkpt lat="47.72830447935253" lon="-1.7295866534104165"><ele>57.0</ele><time>2026-04-11T15:02:30.999Z</time></trkpt><trkpt lat="47.72840038372637" lon="-1.7298415550956805"><ele>57.0</ele><time>2026-04-11T15:02:37.999Z</time></trkpt><trkpt lat="47.72839065821851" lon="-1.7299651291070408"><ele>57.0</ele><time>2026-04-11T15:02:39.999Z</time></trkpt><trkpt lat="47.72831296491048" lon="-1.7300493224068605"><ele>57.0</ele><time>2026-04-11T15:02:41.999Z</time></trkpt><trkpt lat="47.728252213228764" lon="-1.7300996691378718"><ele>57.0</ele><time>2026-04-11T15:02:42.999Z</time></trkpt><trkpt lat="47.728169216998545" lon="-1.7301189732615465"><ele>57.0</ele><time>2026-04-11T15:02:43.999Z</time></trkpt><trkpt lat="47.72809566576853" lon="-1.7301544760420933"><ele>57.0</ele><time>2026-04-11T15:02:44.999Z</time></trkpt><trkpt lat="47.72800764571132" lon="-1.730223501158365"><ele>57.0</ele><time>2026-04-11T15:02:45.999Z</time></trkpt><trkpt lat="47.727932306008434" lon="-1.7302700801823894"><ele>57.0</ele><time>2026-04-11T15:02:46.999Z</time></trkpt><trkpt lat="47.72784015320515" lon="-1.7303380031070308"><ele>57.0</ele><time>2026-04-11T15:02:47.999Z</time></trkpt><trkpt lat="47.7277536386884" lon="-1.730386302935136"><ele>56.6</ele><time>2026-04-11T15:02:48.999Z</time></trkpt><trkpt lat="47.72765105258408" lon="-1.7304167976898606"><ele>56.2</ele><time>2026-04-11T15:02:49.999Z</time></trkpt><trkpt lat="47.727569468255" lon="-1.7304657299250472"><ele>55.8</ele><time>2026-04-11T15:02:50.999Z</time></trkpt><trkpt lat="47.72747810174149" lon="-1.7305071689033864"><ele>55.4</ele><time>2026-04-11T15:02:51.999Z</time></trkpt><trkpt lat="47.72738936682479" lon="-1.7305755574488173"><ele>55.0</ele><time>2026-04-11T15:02:52.999Z</time></trkpt><trkpt lat="47.72720354043457" lon="-1.7306692967606083"><ele>55.0</ele><time>2026-04-11T15:02:53.999Z</time></trkpt><trkpt lat="47.72705982246883" lon="-1.7307240712407346"><ele>55.0</ele><time>2026-04-11T15:02:54.999Z</time></trkpt><trkpt lat="47.7269634785738" lon="-1.7307794718855787"><ele>55.0</ele><time>2026-04-11T15:02:55.999Z</time></trkpt><trkpt lat="47.72687126166737" lon="-1.7308299828281224"><ele>55.0</ele><time>2026-04-11T15:02:57Z</time></trkpt><trkpt lat="47.72678365734417" lon="-1.7308775008179487"><ele>55.0</ele><time>2026-04-11T15:02:58Z</time></trkpt><trkpt lat="47.72669434336087" lon="-1.7309226514931735"><ele>55.166666666666664</ele><time>2026-04-11T15:03:00Z</time></trkpt><trkpt lat="47.72663002076044" lon="-1.7309659954964374"><ele>55.33333333333333</ele><time>2026-04-11T15:03:03Z</time></trkpt><trkpt lat="47.72664426872866" lon="-1.7310668876990658"><ele>55.5</ele><time>2026-04-11T15:03:04Z</time></trkpt><trkpt lat="47.72668948082017" lon="-1.7311852112369104"><ele>55.66666666666667</ele><time>2026-04-11T15:03:05Z</time></trkpt><trkpt lat="47.72667077278366" lon="-1.7313626193091025"><ele>55.833333333333336</ele><time>2026-04-11T15:03:07Z</time></trkpt><trkpt lat="47.726669854113375" lon="-1.7314739595727582"><ele>56.0</ele><time>2026-04-11T15:03:08Z</time></trkpt><trkpt lat="47.72667182293179" lon="-1.731584620145663"><ele>57.00000000000001</ele><time>2026-04-11T15:03:09Z</time></trkpt><trkpt lat="47.72666546761791" lon="-1.731725013742702"><ele>58.0</ele><time>2026-04-11T15:03:10Z</time></trkpt><trkpt lat="47.726669156623764" lon="-1.7318571535781555"><ele>59.0</ele><time>2026-04-11T15:03:11Z</time></trkpt><trkpt lat="47.72666763885059" lon="-1.7319751451841754"><ele>60.0</ele><time>2026-04-11T15:03:12Z</time></trkpt><trkpt lat="47.72666506959524" lon="-1.7320988208272665"><ele>61.00000000000001</ele><time>2026-04-11T15:03:13Z</time></trkpt><trkpt lat="47.726661472724004" lon="-1.732226527877502"><ele>62.0</ele><time>2026-04-11T15:03:14Z</time></trkpt><trkpt lat="47.72665680986639" lon="-1.7323920827950865"><ele>62.5</ele><time>2026-04-11T15:03:15Z</time></trkpt><trkpt lat="47.726651829445764" lon="-1.732574637529831"><ele>63.0</ele><time>2026-04-11T15:03:16Z</time></trkpt><trkpt lat="47.72665330747742" lon="-1.7327615062072428"><ele>63.5</ele><time>2026-04-11T15:03:17Z</time></trkpt><trkpt lat="47.72664857818141" lon="-1.732951703945991"><ele>64.0</ele><time>2026-04-11T15:03:18Z</time></trkpt><trkpt lat="47.726628114428514" lon="-1.7331531051662434"><ele>64.33333333333333</ele><time>2026-04-11T15:03:19Z</time></trkpt><trkpt lat="47.72660681887809" lon="-1.733310478685416"><ele>64.66666666666666</ele><time>2026-04-11T15:03:20Z</time></trkpt><trkpt lat="47.72658284573412" lon="-1.7334349407938998"><ele>65.0</ele><time>2026-04-11T15:03:21Z</time></trkpt><trkpt lat="47.72656561302576" lon="-1.733546675242425"><ele>65.33333333333333</ele><time>2026-04-11T15:03:22Z</time></trkpt><trkpt lat="47.72655898326145" lon="-1.733649761493618"><ele>65.66666666666667</ele><time>2026-04-11T15:03:23Z</time></trkpt><trkpt lat="47.72653861181753" lon="-1.7337604365507326"><ele>66.0</ele><time>2026-04-11T15:03:25Z</time></trkpt><trkpt lat="47.726443594585824" lon="-1.7338506250455723"><ele>66.0</ele><time>2026-04-11T15:03:29Z</time></trkpt><trkpt lat="47.72633024253271" lon="-1.7339115721412648"><ele>66.0</ele><time>2026-04-11T15:03:31Z</time></trkpt><trkpt lat="47.726204550545866" lon="-1.7339747496236857"><ele>66.0</ele><time>2026-04-11T15:03:33Z</time></trkpt><trkpt lat="47.72612098451874" lon="-1.7340127982486622"><ele>66.0</ele><time>2026-04-11T15:03:34Z</time></trkpt><trkpt lat="47.726051307408326" lon="-1.7340464320643427"><ele>66.0</ele><time>2026-04-11T15:03:35Z</time></trkpt><trkpt lat="47.72595735785895" lon="-1.7340877804638044"><ele>65.5</ele><time>2026-04-11T15:03:37Z</time></trkpt><trkpt lat="47.7258659239502" lon="-1.7341342960412327"><ele>65.0</ele><time>2026-04-11T15:03:38.999Z</time></trkpt><trkpt lat="47.725805862164975" lon="-1.7341625981874305"><ele>64.5</ele><time>2026-04-11T15:03:39.999Z</time></trkpt><trkpt lat="47.72574351032015" lon="-1.7341907134710937"><ele>64.0</ele><time>2026-04-11T15:03:40.999Z</time></trkpt><trkpt lat="47.72566718781562" lon="-1.7342496820510194"><ele>63.5</ele><time>2026-04-11T15:03:41.999Z</time></trkpt><trkpt lat="47.72559487557569" lon="-1.7342867121900003"><ele>63.0</ele><time>2026-04-11T15:03:42.999Z</time></trkpt><trkpt lat="47.72551280745057" lon="-1.7343312141440168"><ele>63.0</ele><time>2026-04-11T15:03:43.999Z</time></trkpt><trkpt lat="47.725435356017954" lon="-1.7343563609796797"><ele>63.0</ele><time>2026-04-11T15:03:44.999Z</time></trkpt><trkpt lat="47.725345382978" lon="-1.734388590611902"><ele>63.0</ele><time>2026-04-11T15:03:45.999Z</time></trkpt><trkpt lat="47.72524707175652" lon="-1.7344465500983888"><ele>63.0</ele><time>2026-04-11T15:03:46.999Z</time></trkpt><trkpt lat="47.72512441834389" lon="-1.7345135187464937"><ele>63.0</ele><time>2026-04-11T15:03:47.999Z</time></trkpt><trkpt lat="47.72497539567006" lon="-1.7345596241415253"><ele>61.5</ele><time>2026-04-11T15:03:48.999Z</time></trkpt><trkpt lat="47.72487737240636" lon="-1.7346091003458413"><ele>60.0</ele><time>2026-04-11T15:03:49.999Z</time></trkpt><trkpt lat="47.72478607698914" lon="-1.73466256529291"><ele>58.5</ele><time>2026-04-11T15:03:50.999Z</time></trkpt><trkpt lat="47.724698907594046" lon="-1.7346946855626615"><ele>57.0</ele><time>2026-04-11T15:03:51.999Z</time></trkpt><trkpt lat="47.72462779379234" lon="-1.7347146809777954"><ele>55.5</ele><time>2026-04-11T15:03:52.999Z</time></trkpt><trkpt lat="47.72457393104124" lon="-1.734768697643795"><ele>54.0</ele><time>2026-04-11T15:03:55.999Z</time></trkpt><trkpt lat="47.72462631259889" lon="-1.7349995049027318"><ele>54.0</ele><time>2026-04-11T15:04:02.999Z</time></trkpt><trkpt lat="47.72465584803896" lon="-1.7351337158807754"><ele>54.00000000000001</ele><time>2026-04-11T15:04:04.999Z</time></trkpt><trkpt lat="47.72467931241011" lon="-1.7352403399073804"><ele>54.00000000000001</ele><time>2026-04-11T15:04:05.999Z</time></trkpt><trkpt lat="47.724714349740005" lon="-1.7353995530832553"><ele>54.0</ele><time>2026-04-11T15:04:06.999Z</time></trkpt><trkpt lat="47.724747466734584" lon="-1.735559486987566"><ele>54.0</ele><time>2026-04-11T15:04:07.999Z</time></trkpt><trkpt lat="47.72479060689665" lon="-1.7357265393692447"><ele>53.6</ele><time>2026-04-11T15:04:08.999Z</time></trkpt><trkpt lat="47.724839311317744" lon="-1.7358936847771176"><ele>53.2</ele><time>2026-04-11T15:04:09.999Z</time></trkpt><trkpt lat="47.72484655812222" lon="-1.736026807645394"><ele>52.800000000000004</ele><time>2026-04-11T15:04:10.999Z</time></trkpt><trkpt lat="47.724878591068965" lon="-1.7361836496640957"><ele>52.400000000000006</ele><time>2026-04-11T15:04:11.999Z</time></trkpt><trkpt lat="47.72491235927262" lon="-1.736337363377318"><ele>52.0</ele><time>2026-04-11T15:04:12.999Z</time></trkpt><trkpt lat="47.72495067129403" lon="-1.736486137719953"><ele>52.0</ele><time>2026-04-11T15:04:13.999Z</time></trkpt><trkpt lat="47.724982898637286" lon="-1.7366711376972115"><ele>52.0</ele><time>2026-04-11T15:04:14.999Z</time></trkpt><trkpt lat="47.72502181050529" lon="-1.7368381556408772"><ele>52.0</ele><time>2026-04-11T15:04:15.999Z</time></trkpt><trkpt lat="47.72506162278882" lon="-1.7370437371374035"><ele>52.0</ele><time>2026-04-11T15:04:16.999Z</time></trkpt><trkpt lat="47.72509030648862" lon="-1.7372640893812714"><ele>52.0</ele><time>2026-04-11T15:04:17.999Z</time></trkpt><trkpt lat="47.725112863553036" lon="-1.7374712903267377"><ele>52.0</ele><time>2026-04-11T15:04:18.999Z</time></trkpt><trkpt lat="47.725140052037375" lon="-1.7376779832286817"><ele>52.0</ele><time>2026-04-11T15:04:19.999Z</time></trkpt><trkpt lat="47.72514803437577" lon="-1.7379255664829742"><ele>52.400000000000006</ele><time>2026-04-11T15:04:20.999Z</time></trkpt><trkpt lat="47.725136063768474" lon="-1.738146130932275"><ele>52.800000000000004</ele><time>2026-04-11T15:04:21.999Z</time></trkpt><trkpt lat="47.725129769377396" lon="-1.7383013286043834"><ele>53.2</ele><time>2026-04-11T15:04:22.999Z</time></trkpt><trkpt lat="47.72513794274025" lon="-1.7384221437695757"><ele>53.6</ele><time>2026-04-11T15:04:23.999Z</time></trkpt><trkpt lat="47.72514695300692" lon="-1.7385206329852023"><ele>54.0</ele><time>2026-04-11T15:04:24.999Z</time></trkpt><trkpt lat="47.72520648325" lon="-1.7385994889723786"><ele>54.6</ele><time>2026-04-11T15:04:26.999Z</time></trkpt><trkpt lat="47.72516038197588" lon="-1.738720766810182"><ele>55.2</ele><time>2026-04-11T15:04:31.999Z</time></trkpt><trkpt lat="47.72516989786973" lon="-1.7389062003262747"><ele>55.800000000000004</ele><time>2026-04-11T15:04:34Z</time></trkpt><trkpt lat="47.72517448618867" lon="-1.7390009229996106"><ele>56.400000000000006</ele><time>2026-04-11T15:04:35Z</time></trkpt><trkpt lat="47.72518158991357" lon="-1.7391475745989244"><ele>57.0</ele><time>2026-04-11T15:04:36Z</time></trkpt><trkpt lat="47.72519000364074" lon="-1.7393206553153981"><ele>57.400000000000006</ele><time>2026-04-11T15:04:37Z</time></trkpt><trkpt lat="47.72519924884952" lon="-1.739505261229732"><ele>57.800000000000004</ele><time>2026-04-11T15:04:38Z</time></trkpt><trkpt lat="47.72520647228118" lon="-1.7396494969362302"><ele>58.2</ele><time>2026-04-11T15:04:39Z</time></trkpt><trkpt lat="47.72521498357888" lon="-1.7398034616018558"><ele>58.6</ele><time>2026-04-11T15:04:40Z</time></trkpt><trkpt lat="47.725236080451744" lon="-1.7399477873381959"><ele>59.0</ele><time>2026-04-11T15:04:41Z</time></trkpt><trkpt lat="47.725259221125214" lon="-1.7401198800819675"><ele>60.5</ele><time>2026-04-11T15:04:42Z</time></trkpt><trkpt lat="47.725277792969564" lon="-1.7402956840487342"><ele>62.0</ele><time>2026-04-11T15:04:43Z</time></trkpt><trkpt lat="47.72528469465623" lon="-1.7404649141660338"><ele>63.5</ele><time>2026-04-11T15:04:44Z</time></trkpt><trkpt lat="47.72531896772232" lon="-1.7406482144365505"><ele>65.0</ele><time>2026-04-11T15:04:45Z</time></trkpt><trkpt lat="47.725344939155825" lon="-1.7408512110268923"><ele>65.25</ele><time>2026-04-11T15:04:46Z</time></trkpt><trkpt lat="47.72539932141879" lon="-1.741058212163985"><ele>65.5</ele><time>2026-04-11T15:04:47Z</time></trkpt><trkpt lat="47.72545758300815" lon="-1.7412550758093106"><ele>65.75</ele><time>2026-04-11T15:04:48Z</time></trkpt><trkpt lat="47.72549332627323" lon="-1.7414400147365745"><ele>66.0</ele><time>2026-04-11T15:04:49Z</time></trkpt><trkpt lat="47.72553273976686" lon="-1.741630719655602"><ele>66.0</ele><time>2026-04-11T15:04:50Z</time></trkpt><trkpt lat="47.72559060486253" lon="-1.7418423988852352"><ele>66.0</ele><time>2026-04-11T15:04:51Z</time></trkpt><trkpt lat="47.72565290569233" lon="-1.7420635164509666"><ele>66.0</ele><time>2026-04-11T15:04:52Z</time></trkpt><trkpt lat="47.725721292267856" lon="-1.7422890814969985"><ele>66.66666666666667</ele><time>2026-04-11T15:04:53Z</time></trkpt><trkpt lat="47.725781452962934" lon="-1.742518693285215"><ele>67.33333333333334</ele><time>2026-04-11T15:04:54Z</time></trkpt><trkpt lat="47.72583638606825" lon="-1.7427850454885259"><ele>68.0</ele><time>2026-04-11T15:04:55Z</time></trkpt><trkpt lat="47.72588874477265" lon="-1.7430240457512869"><ele>68.33333333333334</ele><time>2026-04-11T15:04:56Z</time></trkpt><trkpt lat="47.72594464738869" lon="-1.7432845492200728"><ele>68.66666666666667</ele><time>2026-04-11T15:04:57Z</time></trkpt><trkpt lat="47.72599900490793" lon="-1.7435262195186054"><ele>69.0</ele><time>2026-04-11T15:04:58Z</time></trkpt><trkpt lat="47.7260558391353" lon="-1.7437633052477948"><ele>69.0</ele><time>2026-04-11T15:04:59Z</time></trkpt><trkpt lat="47.72611366591385" lon="-1.7439932614932612"><ele>69.0</ele><time>2026-04-11T15:05:00Z</time></trkpt><trkpt lat="47.72617067489531" lon="-1.7442313304841703"><ele>69.0</ele><time>2026-04-11T15:05:01Z</time></trkpt><trkpt lat="47.72623978451149" lon="-1.7444179513935743"><ele>69.0</ele><time>2026-04-11T15:05:02Z</time></trkpt><trkpt lat="47.72628571672156" lon="-1.7445946791623426"><ele>69.0</ele><time>2026-04-11T15:05:03Z</time></trkpt><trkpt lat="47.726313655983596" lon="-1.7447674660413384"><ele>69.0</ele><time>2026-04-11T15:05:04Z</time></trkpt><trkpt lat="47.72636829883175" lon="-1.744940958058475"><ele>69.0</ele><time>2026-04-11T15:05:05Z</time></trkpt><trkpt lat="47.726415211466545" lon="-1.745140414094607"><ele>69.25</ele><time>2026-04-11T15:05:06Z</time></trkpt><trkpt lat="47.72647320027742" lon="-1.7453454115453675"><ele>69.5</ele><time>2026-04-11T15:05:07Z</time></trkpt><trkpt lat="47.72651729507075" lon="-1.7455463774374673"><ele>69.75</ele><time>2026-04-11T15:05:08Z</time></trkpt><trkpt lat="47.72656673414795" lon="-1.745765221718824"><ele>70.0</ele><time>2026-04-11T15:05:09Z</time></trkpt><trkpt lat="47.7266131270668" lon="-1.745976458138326"><ele>70.0</ele><time>2026-04-11T15:05:10Z</time></trkpt><trkpt lat="47.72666925084063" lon="-1.7461878799999768"><ele>70.0</ele><time>2026-04-11T15:05:11Z</time></trkpt><trkpt lat="47.72671501777834" lon="-1.7464396245590779"><ele>70.0</ele><time>2026-04-11T15:05:12Z</time></trkpt><trkpt lat="47.726775567299185" lon="-1.7466789685149389"><ele>70.0</ele><time>2026-04-11T15:05:13Z</time></trkpt><trkpt lat="47.7268240344085" lon="-1.7468840629417008"><ele>70.0</ele><time>2026-04-11T15:05:14Z</time></trkpt><trkpt lat="47.72688635485692" lon="-1.7471146411003036"><ele>70.0</ele><time>2026-04-11T15:05:15Z</time></trkpt><trkpt lat="47.72694965280597" lon="-1.7473391405793703"><ele>70.0</ele><time>2026-04-11T15:05:16Z</time></trkpt><trkpt lat="47.72699639319143" lon="-1.747592310724458"><ele>70.0</ele><time>2026-04-11T15:05:17Z</time></trkpt><trkpt lat="47.727065066171605" lon="-1.7478206409409895"><ele>70.0</ele><time>2026-04-11T15:05:18Z</time></trkpt><trkpt lat="47.7271219672941" lon="-1.7480697027291385"><ele>70.0</ele><time>2026-04-11T15:05:19Z</time></trkpt><trkpt lat="47.727182777652196" lon="-1.748310046264373"><ele>70.0</ele><time>2026-04-11T15:05:20Z</time></trkpt><trkpt lat="47.727249429002484" lon="-1.748538408789046"><ele>70.0</ele><time>2026-04-11T15:05:21Z</time></trkpt><trkpt lat="47.72731227175802" lon="-1.7487750588074313"><ele>70.0</ele><time>2026-04-11T15:05:22Z</time></trkpt><trkpt lat="47.72736620515572" lon="-1.749014718592597"><ele>70.0</ele><time>2026-04-11T15:05:23Z</time></trkpt><trkpt lat="47.72742419106104" lon="-1.7492614096239898"><ele>70.0</ele><time>2026-04-11T15:05:24Z</time></trkpt><trkpt lat="47.727489189769045" lon="-1.7495045984499105"><ele>70.0</ele><time>2026-04-11T15:05:25Z</time></trkpt><trkpt lat="47.727551489313875" lon="-1.7497467722740494"><ele>70.0</ele><time>2026-04-11T15:05:26Z</time></trkpt><trkpt lat="47.72763164160915" lon="-1.749983806892409"><ele>70.0</ele><time>2026-04-11T15:05:27Z</time></trkpt><trkpt lat="47.72769866481375" lon="-1.7502345721344206"><ele>69.33333333333333</ele><time>2026-04-11T15:05:28Z</time></trkpt><trkpt lat="47.72776549292273" lon="-1.7504887632570363"><ele>68.66666666666667</ele><time>2026-04-11T15:05:29Z</time></trkpt><trkpt lat="47.727831896401725" lon="-1.7507413392446105"><ele>68.0</ele><time>2026-04-11T15:05:30Z</time></trkpt><trkpt lat="47.72789986641013" lon="-1.750998702469324"><ele>67.66666666666667</ele><time>2026-04-11T15:05:31Z</time></trkpt><trkpt lat="47.72796869168498" lon="-1.7512584932797015"><ele>67.33333333333333</ele><time>2026-04-11T15:05:32Z</time></trkpt><trkpt lat="47.72803575225276" lon="-1.751511622953611"><ele>67.0</ele><time>2026-04-11T15:05:33Z</time></trkpt><trkpt lat="47.72810201246111" lon="-1.7517617315453018"><ele>67.33333333333333</ele><time>2026-04-11T15:05:34Z</time></trkpt><trkpt lat="47.72816944476028" lon="-1.7520162643926913"><ele>67.66666666666667</ele><time>2026-04-11T15:05:35Z</time></trkpt><trkpt lat="47.72824876665077" lon="-1.7523156761958245"><ele>68.0</ele><time>2026-04-11T15:05:36Z</time></trkpt><trkpt lat="47.728319348321996" lon="-1.752582096795311"><ele>68.33333333333334</ele><time>2026-04-11T15:05:37Z</time></trkpt><trkpt lat="47.728387091633245" lon="-1.752837803569458"><ele>68.66666666666667</ele><time>2026-04-11T15:05:38Z</time></trkpt><trkpt lat="47.72844629398374" lon="-1.753120831684177"><ele>69.0</ele><time>2026-04-11T15:05:39Z</time></trkpt><trkpt lat="47.728516379055044" lon="-1.7533807028309774"><ele>69.0</ele><time>2026-04-11T15:05:40Z</time></trkpt><trkpt lat="47.72859926627688" lon="-1.7536386870494731"><ele>69.0</ele><time>2026-04-11T15:05:41Z</time></trkpt><trkpt lat="47.72866484651051" lon="-1.7538862289960395"><ele>69.0</ele><time>2026-04-11T15:05:42Z</time></trkpt><trkpt lat="47.728733243636945" lon="-1.754144403696573"><ele>69.33333333333333</ele><time>2026-04-11T15:05:43Z</time></trkpt><trkpt lat="47.72880373872934" lon="-1.754410497505814"><ele>69.66666666666666</ele><time>2026-04-11T15:05:44Z</time></trkpt><trkpt lat="47.72886801256821" lon="-1.7546953717513705"><ele>70.0</ele><time>2026-04-11T15:05:45Z</time></trkpt><trkpt lat="47.72894184119966" lon="-1.7549693115022802"><ele>70.0</ele><time>2026-04-11T15:05:46Z</time></trkpt><trkpt lat="47.729016357228055" lon="-1.75523359039866"><ele>70.0</ele><time>2026-04-11T15:05:47Z</time></trkpt><trkpt lat="47.729087879812326" lon="-1.7555079123477417"><ele>70.0</ele><time>2026-04-11T15:05:48Z</time></trkpt><trkpt lat="47.72916184271304" lon="-1.755782784892128"><ele>70.0</ele><time>2026-04-11T15:05:49Z</time></trkpt><trkpt lat="47.72922751778349" lon="-1.756049181759043"><ele>70.0</ele><time>2026-04-11T15:05:50Z</time></trkpt><trkpt lat="47.72929537749305" lon="-1.756323672239422"><ele>70.0</ele><time>2026-04-11T15:05:51Z</time></trkpt><trkpt lat="47.729365523713966" lon="-1.7565880793412887"><ele>70.0</ele><time>2026-04-11T15:05:52Z</time></trkpt><trkpt lat="47.72943921824408" lon="-1.7568647155654205"><ele>70.0</ele><time>2026-04-11T15:05:53Z</time></trkpt><trkpt lat="47.72950800943331" lon="-1.7571381967556243"><ele>70.0</ele><time>2026-04-11T15:05:54Z</time></trkpt><trkpt lat="47.72958133022853" lon="-1.7574152326414259"><ele>70.0</ele><time>2026-04-11T15:05:55Z</time></trkpt><trkpt lat="47.72965742781169" lon="-1.7576958461178789"><ele>70.0</ele><time>2026-04-11T15:05:56Z</time></trkpt><trkpt lat="47.72972701664401" lon="-1.7579769656237303"><ele>70.0</ele><time>2026-04-11T15:05:57Z</time></trkpt><trkpt lat="47.72980445478002" lon="-1.7582638076049677"><ele>70.0</ele><time>2026-04-11T15:05:58Z</time></trkpt><trkpt lat="47.729882809523005" lon="-1.7585495310606976"><ele>70.0</ele><time>2026-04-11T15:05:59Z</time></trkpt><trkpt lat="47.7299553935765" lon="-1.7588325159997111"><ele>70.0</ele><time>2026-04-11T15:06:00Z</time></trkpt><trkpt lat="47.730026260704356" lon="-1.7591189463094308"><ele>70.33333333333333</ele><time>2026-04-11T15:06:01Z</time></trkpt><trkpt lat="47.73011592050874" lon="-1.7593936107875907"><ele>70.66666666666667</ele><time>2026-04-11T15:06:02Z</time></trkpt><trkpt lat="47.73019155568253" lon="-1.7596771710980317"><ele>71.0</ele><time>2026-04-11T15:06:03Z</time></trkpt><trkpt lat="47.730263742698405" lon="-1.7599478040454848"><ele>71.0</ele><time>2026-04-11T15:06:04Z</time></trkpt><trkpt lat="47.73032113712375" lon="-1.760162978753386"><ele>71.0</ele><time>2026-04-11T15:06:05Z</time></trkpt><trkpt lat="47.730380669084184" lon="-1.760388321629967"><ele>71.0</ele><time>2026-04-11T15:06:06Z</time></trkpt><trkpt lat="47.73042852649684" lon="-1.7605696949130551"><ele>71.2</ele><time>2026-04-11T15:06:07Z</time></trkpt><trkpt lat="47.73047468227005" lon="-1.760744619166078"><ele>71.39999999999999</ele><time>2026-04-11T15:06:08Z</time></trkpt><trkpt lat="47.73051724109501" lon="-1.7609059114940036"><ele>71.6</ele><time>2026-04-11T15:06:09Z</time></trkpt><trkpt lat="47.73055048109857" lon="-1.7610318866615848"><ele>71.8</ele><time>2026-04-11T15:06:10Z</time></trkpt><trkpt lat="47.73056211315216" lon="-1.7611345431045757"><ele>72.0</ele><time>2026-04-11T15:06:11Z</time></trkpt><trkpt lat="47.730649384356624" lon="-1.7612237178658325"><ele>72.16666666666667</ele><time>2026-04-11T15:06:13Z</time></trkpt><trkpt lat="47.730752736757054" lon="-1.7612034384726107"><ele>72.33333333333333</ele><time>2026-04-11T15:06:15Z</time></trkpt><trkpt lat="47.730816270929715" lon="-1.761166575044687"><ele>72.5</ele><time>2026-04-11T15:06:16Z</time></trkpt><trkpt lat="47.730900274668166" lon="-1.7611178349164927"><ele>72.66666666666666</ele><time>2026-04-11T15:06:17Z</time></trkpt><trkpt lat="47.73097220478162" lon="-1.7610761000792783"><ele>72.83333333333333</ele><time>2026-04-11T15:06:18Z</time></trkpt><trkpt lat="47.73106904264132" lon="-1.7610199133495423"><ele>73.0</ele><time>2026-04-11T15:06:19Z</time></trkpt><trkpt lat="47.731178548263195" lon="-1.7609557666763627"><ele>73.0</ele><time>2026-04-11T15:06:20Z</time></trkpt><trkpt lat="47.73127921822299" lon="-1.7608956917110528"><ele>73.0</ele><time>2026-04-11T15:06:21Z</time></trkpt><trkpt lat="47.731386025084404" lon="-1.7608275152137278"><ele>73.0</ele><time>2026-04-11T15:06:22Z</time></trkpt><trkpt lat="47.7315011248998" lon="-1.760759456433393"><ele>73.0</ele><time>2026-04-11T15:06:23Z</time></trkpt><trkpt lat="47.73162213652587" lon="-1.760673700796006"><ele>73.0</ele><time>2026-04-11T15:06:24Z</time></trkpt><trkpt lat="47.73175374177898" lon="-1.7605890061900864"><ele>73.0</ele><time>2026-04-11T15:06:25Z</time></trkpt><trkpt lat="47.7318994912174" lon="-1.760490711082139"><ele>73.0</ele><time>2026-04-11T15:06:26Z</time></trkpt><trkpt lat="47.73202431134472" lon="-1.7603923030140143"><ele>73.0</ele><time>2026-04-11T15:06:27Z</time></trkpt><trkpt lat="47.73214937881086" lon="-1.7602840843794827"><ele>73.66666666666666</ele><time>2026-04-11T15:06:28Z</time></trkpt><trkpt lat="47.7322626007917" lon="-1.7601317989836827"><ele>74.33333333333333</ele><time>2026-04-11T15:06:29Z</time></trkpt><trkpt lat="47.73239545469952" lon="-1.7600160186158005"><ele>75.0</ele><time>2026-04-11T15:06:30Z</time></trkpt><trkpt lat="47.73251188031352" lon="-1.7598923558132111"><ele>75.0</ele><time>2026-04-11T15:06:31Z</time></trkpt><trkpt lat="47.732612281636484" lon="-1.7597862240012965"><ele>75.0</ele><time>2026-04-11T15:06:32Z</time></trkpt><trkpt lat="47.732706778540525" lon="-1.7597127664442846"><ele>75.0</ele><time>2026-04-11T15:06:33Z</time></trkpt><trkpt lat="47.732801266157786" lon="-1.7596539649517848"><ele>75.0</ele><time>2026-04-11T15:06:34Z</time></trkpt><trkpt lat="47.73292244106371" lon="-1.7596070629792555"><ele>75.75</ele><time>2026-04-11T15:06:35.001Z</time></trkpt><trkpt lat="47.73304503317444" lon="-1.7595553853790862"><ele>76.5</ele><time>2026-04-11T15:06:36.001Z</time></trkpt><trkpt lat="47.733187061933876" lon="-1.759498936027841"><ele>77.25</ele><time>2026-04-11T15:06:37.001Z</time></trkpt><trkpt lat="47.73331125085531" lon="-1.7594332583280459"><ele>78.0</ele><time>2026-04-11T15:06:38.001Z</time></trkpt><trkpt lat="47.7334182744414" lon="-1.7593719756842836"><ele>78.0</ele><time>2026-04-11T15:06:39.001Z</time></trkpt><trkpt lat="47.7334873990572" lon="-1.7593104726964526"><ele>78.0</ele><time>2026-04-11T15:06:40.001Z</time></trkpt><trkpt lat="47.73357780483649" lon="-1.7592921676156226"><ele>78.0</ele><time>2026-04-11T15:06:42.001Z</time></trkpt><trkpt lat="47.73365884760291" lon="-1.75925186482929"><ele>78.0</ele><time>2026-04-11T15:06:43.001Z</time></trkpt><trkpt lat="47.73377843584336" lon="-1.759253014732443"><ele>78.0</ele><time>2026-04-11T15:06:45.001Z</time></trkpt><trkpt lat="47.73401477552182" lon="-1.7598380342587532"><ele>78.0</ele><time>2026-04-11T15:06:46.001Z</time></trkpt><trkpt lat="47.734151441275046" lon="-1.7599929422760614"><ele>78.0</ele><time>2026-04-11T15:06:47.001Z</time></trkpt><trkpt lat="47.734279755504645" lon="-1.7601557638307426"><ele>78.0</ele><time>2026-04-11T15:06:48.001Z</time></trkpt><trkpt lat="47.73442165332949" lon="-1.7603269331528777"><ele>77.0</ele><time>2026-04-11T15:06:49.001Z</time></trkpt><trkpt lat="47.73454663626955" lon="-1.7604686531079325"><ele>76.0</ele><time>2026-04-11T15:06:50.001Z</time></trkpt><trkpt lat="47.73465865418525" lon="-1.7606245026584946"><ele>75.0</ele><time>2026-04-11T15:06:51.001Z</time></trkpt><trkpt lat="47.73476447093007" lon="-1.7607916428931971"><ele>75.0</ele><time>2026-04-11T15:06:52.001Z</time></trkpt><trkpt lat="47.73486834206128" lon="-1.7609723311042982"><ele>75.0</ele><time>2026-04-11T15:06:53.001Z</time></trkpt><trkpt lat="47.73499746402813" lon="-1.7611452706164255"><ele>75.0</ele><time>2026-04-11T15:06:54.001Z</time></trkpt><trkpt lat="47.73513644549527" lon="-1.7612822242645874"><ele>75.25</ele><time>2026-04-11T15:06:55.001Z</time></trkpt><trkpt lat="47.735256209727225" lon="-1.7614168875866698"><ele>75.5</ele><time>2026-04-11T15:06:56.001Z</time></trkpt><trkpt lat="47.735357855491394" lon="-1.7615418971334973"><ele>75.75</ele><time>2026-04-11T15:06:57.001Z</time></trkpt><trkpt lat="47.73544677856739" lon="-1.76166391428853"><ele>76.0</ele><time>2026-04-11T15:06:58.001Z</time></trkpt><trkpt lat="47.735525234143516" lon="-1.7617795165767927"><ele>76.0</ele><time>2026-04-11T15:06:59.001Z</time></trkpt><trkpt lat="47.73558983797797" lon="-1.7618873023666206"><ele>76.0</ele><time>2026-04-11T15:07:00.001Z</time></trkpt><trkpt lat="47.73563631811802" lon="-1.76196167969612"><ele>76.0</ele><time>2026-04-11T15:07:01Z</time></trkpt><trkpt lat="47.735718434225674" lon="-1.7620421818880214"><ele>76.0</ele><time>2026-04-11T15:07:03Z</time></trkpt><trkpt lat="47.73579126037426" lon="-1.762074775659015"><ele>76.0</ele><time>2026-04-11T15:07:06Z</time></trkpt><trkpt lat="47.735857456041394" lon="-1.7620755614075057"><ele>76.0</ele><time>2026-04-11T15:07:13Z</time></trkpt><trkpt lat="47.735794895528144" lon="-1.7620182995234064"><ele>76.0</ele><time>2026-04-11T15:07:17Z</time></trkpt><trkpt lat="47.73568201106217" lon="-1.762009599264503"><ele>76.0</ele><time>2026-04-11T15:07:19Z</time></trkpt><trkpt lat="47.735613994767185" lon="-1.761960983754579"><ele>76.0</ele><time>2026-04-11T15:07:20Z</time></trkpt><trkpt lat="47.73556391535771" lon="-1.7619025551439882"><ele>76.0</ele><time>2026-04-11T15:07:21Z</time></trkpt><trkpt lat="47.73550385488462" lon="-1.7618131483660535"><ele>76.0</ele><time>2026-04-11T15:07:22Z</time></trkpt><trkpt lat="47.73543727732054" lon="-1.7617273972719631"><ele>76.0</ele><time>2026-04-11T15:07:23Z</time></trkpt><trkpt lat="47.73536290478893" lon="-1.7616045411946177"><ele>76.0</ele><time>2026-04-11T15:07:24Z</time></trkpt><trkpt lat="47.735253846110886" lon="-1.7614346135967798"><ele>76.0</ele><time>2026-04-11T15:07:25Z</time></trkpt><trkpt lat="47.73513882640379" lon="-1.7612939752101329"><ele>76.0</ele><time>2026-04-11T15:07:26Z</time></trkpt><trkpt lat="47.73500109305579" lon="-1.7611086301632108"><ele>75.66666666666666</ele><time>2026-04-11T15:07:27Z</time></trkpt><trkpt lat="47.734845091078775" lon="-1.760913054396243"><ele>75.33333333333333</ele><time>2026-04-11T15:07:28Z</time></trkpt><trkpt lat="47.734691084478875" lon="-1.7607138657264498"><ele>75.0</ele><time>2026-04-11T15:07:29Z</time></trkpt><trkpt lat="47.73453610537676" lon="-1.760499019823987"><ele>75.66666666666667</ele><time>2026-04-11T15:07:30Z</time></trkpt><trkpt lat="47.73438550028561" lon="-1.7602877166156954"><ele>76.33333333333334</ele><time>2026-04-11T15:07:31Z</time></trkpt><trkpt lat="47.73422721050733" lon="-1.7601050564735135"><ele>77.0</ele><time>2026-04-11T15:07:32Z</time></trkpt><trkpt lat="47.734093654674034" lon="-1.7599727099462175"><ele>77.25</ele><time>2026-04-11T15:07:33Z</time></trkpt><trkpt lat="47.73398109036179" lon="-1.7598371450757182"><ele>77.5</ele><time>2026-04-11T15:07:34Z</time></trkpt><trkpt lat="47.73388841551904" lon="-1.7597266187390104"><ele>77.75</ele><time>2026-04-11T15:07:35Z</time></trkpt><trkpt lat="47.733792483918" lon="-1.7596050590930485"><ele>78.0</ele><time>2026-04-11T15:07:36Z</time></trkpt><trkpt lat="47.733715020716076" lon="-1.7595203914185744"><ele>78.0</ele><time>2026-04-11T15:07:37Z</time></trkpt><trkpt lat="47.73366114356917" lon="-1.7594648219441746"><ele>78.0</ele><time>2026-04-11T15:07:38Z</time></trkpt><trkpt lat="47.733596331182525" lon="-1.7593744707830783"><ele>78.0</ele><time>2026-04-11T15:07:40Z</time></trkpt><trkpt lat="47.73345775286044" lon="-1.7593662202910798"><ele>78.0</ele><time>2026-04-11T15:07:42Z</time></trkpt><trkpt lat="47.73337390841839" lon="-1.7594503839357976"><ele>78.0</ele><time>2026-04-11T15:07:43Z</time></trkpt><trkpt lat="47.733261936066874" lon="-1.7595105724556028"><ele>78.0</ele><time>2026-04-11T15:07:44Z</time></trkpt><trkpt lat="47.73316969652681" lon="-1.7595601540067494"><ele>78.0</ele><time>2026-04-11T15:07:45Z</time></trkpt><trkpt lat="47.73305519169006" lon="-1.759616290726153"><ele>78.0</ele><time>2026-04-11T15:07:46Z</time></trkpt><trkpt lat="47.73290040883787" lon="-1.7596495834328867"><ele>78.0</ele><time>2026-04-11T15:07:47Z</time></trkpt><trkpt lat="47.732749785649304" lon="-1.7597433663461055"><ele>77.0</ele><time>2026-04-11T15:07:48Z</time></trkpt><trkpt lat="47.7325962101943" lon="-1.7598246449584394"><ele>76.0</ele><time>2026-04-11T15:07:49Z</time></trkpt><trkpt lat="47.732472765862724" lon="-1.7599634809341518"><ele>75.0</ele><time>2026-04-11T15:07:50Z</time></trkpt><trkpt lat="47.73231872372162" lon="-1.7601308336965737"><ele>74.66666666666667</ele><time>2026-04-11T15:07:51Z</time></trkpt><trkpt lat="47.73215855481747" lon="-1.760307117258115"><ele>74.33333333333334</ele><time>2026-04-11T15:07:52Z</time></trkpt><trkpt lat="47.73199249710485" lon="-1.7604596033264142"><ele>74.0</ele><time>2026-04-11T15:07:53Z</time></trkpt><trkpt lat="47.73181564131514" lon="-1.760588396728464"><ele>73.66666666666667</ele><time>2026-04-11T15:07:54Z</time></trkpt><trkpt lat="47.731627654621235" lon="-1.760718926783269"><ele>73.33333333333333</ele><time>2026-04-11T15:07:55Z</time></trkpt><trkpt lat="47.73145690611087" lon="-1.7608357459752237"><ele>73.0</ele><time>2026-04-11T15:07:56Z</time></trkpt><trkpt lat="47.73130335070156" lon="-1.7609341362532551"><ele>73.0</ele><time>2026-04-11T15:07:57Z</time></trkpt><trkpt lat="47.73116013311327" lon="-1.7610199265210709"><ele>73.0</ele><time>2026-04-11T15:07:58Z</time></trkpt><trkpt lat="47.731039083830524" lon="-1.761090263425027"><ele>73.0</ele><time>2026-04-11T15:07:59Z</time></trkpt><trkpt lat="47.73092611876467" lon="-1.7611366394465957"><ele>73.0</ele><time>2026-04-11T15:08:00Z</time></trkpt><trkpt lat="47.730847135498664" lon="-1.761203676628353"><ele>73.0</ele><time>2026-04-11T15:08:01Z</time></trkpt><trkpt lat="47.73078009841537" lon="-1.7612408996787279"><ele>73.0</ele><time>2026-04-11T15:08:02Z</time></trkpt><trkpt lat="47.73067670963081" lon="-1.7612987870441774"><ele>73.0</ele><time>2026-04-11T15:08:04Z</time></trkpt><trkpt lat="47.7306319144275" lon="-1.7613715850699516"><ele>73.0</ele><time>2026-04-11T15:08:07Z</time></trkpt><trkpt lat="47.730595053873074" lon="-1.7615662456161818"><ele>73.0</ele><time>2026-04-11T15:08:10Z</time></trkpt><trkpt lat="47.73049816941653" lon="-1.7616966235568412"><ele>73.0</ele><time>2026-04-11T15:08:12Z</time></trkpt><trkpt lat="47.73043252625051" lon="-1.761785695593474"><ele>73.0</ele><time>2026-04-11T15:08:13Z</time></trkpt><trkpt lat="47.73035216292698" lon="-1.761865741926041"><ele>73.0</ele><time>2026-04-11T15:08:14Z</time></trkpt><trkpt lat="47.73026996703422" lon="-1.7619691462598088"><ele>73.0</ele><time>2026-04-11T15:08:15Z</time></trkpt><trkpt lat="47.73018509291148" lon="-1.762060010947899"><ele>73.0</ele><time>2026-04-11T15:08:16Z</time></trkpt><trkpt lat="47.73011013281644" lon="-1.7621421393082206"><ele>72.25</ele><time>2026-04-11T15:08:17Z</time></trkpt><trkpt lat="47.73004160893485" lon="-1.7622657306653084"><ele>71.5</ele><time>2026-04-11T15:08:18Z</time></trkpt><trkpt lat="47.7299598061886" lon="-1.7623801596243354"><ele>70.75</ele><time>2026-04-11T15:08:19Z</time></trkpt><trkpt lat="47.72987105761366" lon="-1.7624982306303976"><ele>70.0</ele><time>2026-04-11T15:08:20Z</time></trkpt><trkpt lat="47.72977695218111" lon="-1.7626044203544997"><ele>70.25</ele><time>2026-04-11T15:08:21Z</time></trkpt><trkpt lat="47.72967478033907" lon="-1.7627270461191"><ele>70.5</ele><time>2026-04-11T15:08:22Z</time></trkpt><trkpt lat="47.72955362659435" lon="-1.7628731401526563"><ele>70.75</ele><time>2026-04-11T15:08:23Z</time></trkpt><trkpt lat="47.7294366874607" lon="-1.763022853698651"><ele>71.0</ele><time>2026-04-11T15:08:24Z</time></trkpt><trkpt lat="47.72931504483038" lon="-1.7631898621916913"><ele>70.33333333333334</ele><time>2026-04-11T15:08:25Z</time></trkpt><trkpt lat="47.72920720749976" lon="-1.7633411100619845"><ele>69.66666666666667</ele><time>2026-04-11T15:08:26Z</time></trkpt><trkpt lat="47.72909065793368" lon="-1.763499463706868"><ele>69.0</ele><time>2026-04-11T15:08:27Z</time></trkpt><trkpt lat="47.72899446683041" lon="-1.7636886510563725"><ele>69.0</ele><time>2026-04-11T15:08:28Z</time></trkpt><trkpt lat="47.728887027055244" lon="-1.763871307760658"><ele>69.0</ele><time>2026-04-11T15:08:29Z</time></trkpt><trkpt lat="47.72876766375382" lon="-1.7640836433594436"><ele>69.0</ele><time>2026-04-11T15:08:30Z</time></trkpt><trkpt lat="47.72864877071511" lon="-1.7643023904723913"><ele>68.33333333333333</ele><time>2026-04-11T15:08:31Z</time></trkpt><trkpt lat="47.72853583449683" lon="-1.7645208933463492"><ele>67.66666666666666</ele><time>2026-04-11T15:08:32Z</time></trkpt><trkpt lat="47.72841108046813" lon="-1.7647745501440484"><ele>67.0</ele><time>2026-04-11T15:08:33Z</time></trkpt><trkpt lat="47.72828896376767" lon="-1.765027116900713"><ele>67.33333333333333</ele><time>2026-04-11T15:08:34Z</time></trkpt><trkpt lat="47.72818351410414" lon="-1.7652403458806285"><ele>67.66666666666667</ele><time>2026-04-11T15:08:35Z</time></trkpt><trkpt lat="47.7280825528073" lon="-1.7654486769752062"><ele>68.0</ele><time>2026-04-11T15:08:36Z</time></trkpt><trkpt lat="47.72797025419645" lon="-1.7656794915145988"><ele>68.0</ele><time>2026-04-11T15:08:37Z</time></trkpt><trkpt lat="47.72785293854258" lon="-1.7659180928610039"><ele>68.0</ele><time>2026-04-11T15:08:38Z</time></trkpt><trkpt lat="47.72772369994205" lon="-1.766164957386738"><ele>68.0</ele><time>2026-04-11T15:08:39Z</time></trkpt><trkpt lat="47.72758579610494" lon="-1.7663954501167696"><ele>68.33333333333334</ele><time>2026-04-11T15:08:40Z</time></trkpt><trkpt lat="47.727420513048756" lon="-1.7665947970444476"><ele>68.66666666666667</ele><time>2026-04-11T15:08:41.001Z</time></trkpt><trkpt lat="47.72726547107611" lon="-1.7668253448383087"><ele>69.0</ele><time>2026-04-11T15:08:42.001Z</time></trkpt><trkpt lat="47.72713385081693" lon="-1.767002006679255"><ele>69.0</ele><time>2026-04-11T15:08:43.001Z</time></trkpt><trkpt lat="47.72702074927536" lon="-1.76715303018128"><ele>69.0</ele><time>2026-04-11T15:08:44.001Z</time></trkpt><trkpt lat="47.72692475097616" lon="-1.7672812157613715"><ele>69.0</ele><time>2026-04-11T15:08:45.001Z</time></trkpt><trkpt lat="47.726829614971244" lon="-1.7674082499140995"><ele>69.0</ele><time>2026-04-11T15:08:46.001Z</time></trkpt><trkpt lat="47.72673976393527" lon="-1.7675250423357856"><ele>69.0</ele><time>2026-04-11T15:08:47.001Z</time></trkpt><trkpt lat="47.726655119658915" lon="-1.7676000513469794"><ele>69.0</ele><time>2026-04-11T15:08:48.001Z</time></trkpt><trkpt lat="47.726614697420864" lon="-1.7676896114801242"><ele>69.0</ele><time>2026-04-11T15:08:49.001Z</time></trkpt><trkpt lat="47.726556385884635" lon="-1.7677378092457314"><ele>69.0</ele><time>2026-04-11T15:08:50.001Z</time></trkpt><trkpt lat="47.726521428680556" lon="-1.7678288011960632"><ele>69.0</ele><time>2026-04-11T15:08:51.001Z</time></trkpt><trkpt lat="47.726470684488405" lon="-1.7678986607362153"><ele>69.0</ele><time>2026-04-11T15:08:52.001Z</time></trkpt><trkpt lat="47.72639661250397" lon="-1.767974216303898"><ele>68.8</ele><time>2026-04-11T15:08:54.001Z</time></trkpt><trkpt lat="47.726339460103205" lon="-1.7680449748424831"><ele>68.60000000000001</ele><time>2026-04-11T15:08:56.001Z</time></trkpt><trkpt lat="47.726233137623026" lon="-1.7680533413028696"><ele>68.4</ele><time>2026-04-11T15:09:06.001Z</time></trkpt><trkpt lat="47.726249063752896" lon="-1.7682600435730007"><ele>68.2</ele><time>2026-04-11T15:09:07.001Z</time></trkpt><trkpt lat="47.72623863796697" lon="-1.7683694745213414"><ele>68.0</ele><time>2026-04-11T15:09:08.001Z</time></trkpt><trkpt lat="47.72622999190667" lon="-1.7684672687715286"><ele>67.6</ele><time>2026-04-11T15:09:09.001Z</time></trkpt><trkpt lat="47.72621862829743" lon="-1.7685958007605826"><ele>67.19999999999999</ele><time>2026-04-11T15:09:10.001Z</time></trkpt><trkpt lat="47.726192190256256" lon="-1.7687317680577412"><ele>66.8</ele><time>2026-04-11T15:09:11.001Z</time></trkpt><trkpt lat="47.726192871952605" lon="-1.7688847076997005"><ele>66.39999999999999</ele><time>2026-04-11T15:09:12.001Z</time></trkpt><trkpt lat="47.726184250102285" lon="-1.7690622208440447"><ele>66.0</ele><time>2026-04-11T15:09:13.001Z</time></trkpt><trkpt lat="47.726175238877744" lon="-1.7692545362917993"><ele>66.0</ele><time>2026-04-11T15:09:14.001Z</time></trkpt><trkpt lat="47.726168748656185" lon="-1.7694160619369956"><ele>66.0</ele><time>2026-04-11T15:09:15.001Z</time></trkpt><trkpt lat="47.72615534017845" lon="-1.7695547784672334"><ele>66.0</ele><time>2026-04-11T15:09:16.001Z</time></trkpt><trkpt lat="47.72613189309659" lon="-1.769723671511812"><ele>66.0</ele><time>2026-04-11T15:09:17.001Z</time></trkpt><trkpt lat="47.72610982349233" lon="-1.7699295395557872"><ele>66.0</ele><time>2026-04-11T15:09:18Z</time></trkpt><trkpt lat="47.726094989080394" lon="-1.7701205841925685"><ele>66.0</ele><time>2026-04-11T15:09:19Z</time></trkpt><trkpt lat="47.726096807428675" lon="-1.7702850735140936"><ele>66.0</ele><time>2026-04-11T15:09:20Z</time></trkpt><trkpt lat="47.72609000891409" lon="-1.7703981479114852"><ele>66.0</ele><time>2026-04-11T15:09:21Z</time></trkpt><trkpt lat="47.72608946694643" lon="-1.7704929713569029"><ele>66.0</ele><time>2026-04-11T15:09:22Z</time></trkpt><trkpt lat="47.72606350661733" lon="-1.7706352178899558"><ele>65.6</ele><time>2026-04-11T15:09:23Z</time></trkpt><trkpt lat="47.72607124741261" lon="-1.770728463075193"><ele>65.19999999999999</ele><time>2026-04-11T15:09:24Z</time></trkpt><trkpt lat="47.72606154250247" lon="-1.770871607528026"><ele>64.80000000000001</ele><time>2026-04-11T15:09:26Z</time></trkpt><trkpt lat="47.72591525603465" lon="-1.771017431873299"><ele>64.4</ele><time>2026-04-11T15:09:27Z</time></trkpt><trkpt lat="47.72582503370277" lon="-1.7710171965500636"><ele>64.0</ele><time>2026-04-11T15:09:28Z</time></trkpt><trkpt lat="47.72571646376317" lon="-1.7710124603424562"><ele>64.4</ele><time>2026-04-11T15:09:29Z</time></trkpt><trkpt lat="47.72558436641409" lon="-1.771046645007982"><ele>64.80000000000001</ele><time>2026-04-11T15:09:30Z</time></trkpt><trkpt lat="47.72548848742833" lon="-1.7711476539540922"><ele>65.19999999999999</ele><time>2026-04-11T15:09:31Z</time></trkpt><trkpt lat="47.725411204221395" lon="-1.7712386828852196"><ele>65.6</ele><time>2026-04-11T15:09:32Z</time></trkpt><trkpt lat="47.72534532449989" lon="-1.7713435303507183"><ele>66.0</ele><time>2026-04-11T15:09:33Z</time></trkpt><trkpt lat="47.72525648868259" lon="-1.7714318207049442"><ele>65.0</ele><time>2026-04-11T15:09:34Z</time></trkpt><trkpt lat="47.72517092766121" lon="-1.7714918136666766"><ele>64.0</ele><time>2026-04-11T15:09:35Z</time></trkpt><trkpt lat="47.72507974322135" lon="-1.7715354907264966"><ele>63.0</ele><time>2026-04-11T15:09:36Z</time></trkpt><trkpt lat="47.72494504126537" lon="-1.771514410644564"><ele>62.0</ele><time>2026-04-11T15:09:37Z</time></trkpt><trkpt lat="47.7247973575191" lon="-1.7714901370328315"><ele>62.0</ele><time>2026-04-11T15:09:38Z</time></trkpt><trkpt lat="47.72464530920897" lon="-1.7714489280713799"><ele>62.0</ele><time>2026-04-11T15:09:39Z</time></trkpt><trkpt lat="47.72450892321444" lon="-1.7714101663210475"><ele>62.0</ele><time>2026-04-11T15:09:40Z</time></trkpt><trkpt lat="47.72435387379218" lon="-1.771382455028408"><ele>60.333333333333336</ele><time>2026-04-11T15:09:41Z</time></trkpt><trkpt lat="47.72419739739117" lon="-1.771342133066999"><ele>58.66666666666667</ele><time>2026-04-11T15:09:42Z</time></trkpt><trkpt lat="47.72400521051185" lon="-1.7712945900485797"><ele>57.0</ele><time>2026-04-11T15:09:43Z</time></trkpt><trkpt lat="47.72384913650388" lon="-1.7712522200922651"><ele>57.0</ele><time>2026-04-11T15:09:44Z</time></trkpt><trkpt lat="47.7237039280044" lon="-1.7712216889255574"><ele>57.0</ele><time>2026-04-11T15:09:45Z</time></trkpt><trkpt lat="47.72357225047782" lon="-1.771183545379402"><ele>57.0</ele><time>2026-04-11T15:09:46Z</time></trkpt><trkpt lat="47.72346952984162" lon="-1.7711629718154651"><ele>57.0</ele><time>2026-04-11T15:09:47Z</time></trkpt><trkpt lat="47.72335936882782" lon="-1.7711422386258469"><ele>56.2</ele><time>2026-04-11T15:09:48Z</time></trkpt><trkpt lat="47.723263895440105" lon="-1.7711219272256014"><ele>55.400000000000006</ele><time>2026-04-11T15:09:49Z</time></trkpt><trkpt lat="47.72317858891184" lon="-1.7710985698288024"><ele>54.599999999999994</ele><time>2026-04-11T15:09:50Z</time></trkpt><trkpt lat="47.723091161467075" lon="-1.7711025594344527"><ele>53.8</ele><time>2026-04-11T15:09:51Z</time></trkpt><trkpt lat="47.722999522297634" lon="-1.7710783488850252"><ele>53.0</ele><time>2026-04-11T15:09:53Z</time></trkpt><trkpt lat="47.72289684341417" lon="-1.771056591784432"><ele>52.8</ele><time>2026-04-11T15:09:55Z</time></trkpt><trkpt lat="47.72278493605537" lon="-1.7709828682009865"><ele>52.599999999999994</ele><time>2026-04-11T15:09:57Z</time></trkpt><trkpt lat="47.72271227481958" lon="-1.7709677530185601"><ele>52.400000000000006</ele><time>2026-04-11T15:09:58Z</time></trkpt><trkpt lat="47.72263324300644" lon="-1.7709158880354545"><ele>52.2</ele><time>2026-04-11T15:09:59Z</time></trkpt><trkpt lat="47.72254314923447" lon="-1.7708914757091168"><ele>52.0</ele><time>2026-04-11T15:10:00Z</time></trkpt><trkpt lat="47.72243485371416" lon="-1.7708843726878631"><ele>51.25</ele><time>2026-04-11T15:10:01Z</time></trkpt><trkpt lat="47.722328157508386" lon="-1.770874526649746"><ele>50.5</ele><time>2026-04-11T15:10:02Z</time></trkpt><trkpt lat="47.722196755428875" lon="-1.7708701829940745"><ele>49.75</ele><time>2026-04-11T15:10:03Z</time></trkpt><trkpt lat="47.72205392585315" lon="-1.770864329066433"><ele>49.0</ele><time>2026-04-11T15:10:04Z</time></trkpt><trkpt lat="47.721927500020826" lon="-1.7708769581577393"><ele>47.75</ele><time>2026-04-11T15:10:05Z</time></trkpt><trkpt lat="47.721769152055224" lon="-1.7708746411361376"><ele>46.5</ele><time>2026-04-11T15:10:06Z</time></trkpt><trkpt lat="47.72163430115144" lon="-1.7708751138052699"><ele>45.25</ele><time>2026-04-11T15:10:07Z</time></trkpt><trkpt lat="47.721516929681606" lon="-1.7708863524033762"><ele>44.0</ele><time>2026-04-11T15:10:08Z</time></trkpt><trkpt lat="47.72143655354144" lon="-1.770875384350483"><ele>44.0</ele><time>2026-04-11T15:10:09Z</time></trkpt><trkpt lat="47.72137076776743" lon="-1.7708683010927675"><ele>44.0</ele><time>2026-04-11T15:10:10Z</time></trkpt><trkpt lat="47.72128250549251" lon="-1.7708492516550964"><ele>44.0</ele><time>2026-04-11T15:10:12Z</time></trkpt><trkpt lat="47.72120306538328" lon="-1.770858852660244"><ele>44.0</ele><time>2026-04-11T15:10:21Z</time></trkpt><trkpt lat="47.72112021408382" lon="-1.7707257052021457"><ele>44.0</ele><time>2026-04-11T15:10:23Z</time></trkpt><trkpt lat="47.72105904534131" lon="-1.7706697637423088"><ele>44.0</ele><time>2026-04-11T15:10:24Z</time></trkpt><trkpt lat="47.720905111492385" lon="-1.770789443282285"><ele>43.83333333333333</ele><time>2026-04-11T15:10:25Z</time></trkpt><trkpt lat="47.720799628640805" lon="-1.7707429879754744"><ele>43.666666666666664</ele><time>2026-04-11T15:10:26Z</time></trkpt><trkpt lat="47.72071911870035" lon="-1.7707076235692094"><ele>43.5</ele><time>2026-04-11T15:10:27Z</time></trkpt><trkpt lat="47.72065814905868" lon="-1.7706716214726916"><ele>43.333333333333336</ele><time>2026-04-11T15:10:28Z</time></trkpt><trkpt lat="47.720563439234475" lon="-1.7706176643167182"><ele>43.16666666666667</ele><time>2026-04-11T15:10:30Z</time></trkpt><trkpt lat="47.72049104834644" lon="-1.7706645250043946"><ele>43.0</ele><time>2026-04-11T15:10:32Z</time></trkpt><trkpt lat="47.72045142957807" lon="-1.7707383697317458"><ele>43.00000000000001</ele><time>2026-04-11T15:10:33Z</time></trkpt><trkpt lat="47.720440866609145" lon="-1.7708735424461244"><ele>43.0</ele><time>2026-04-11T15:10:34Z</time></trkpt><trkpt lat="47.72040516027425" lon="-1.770982545222566"><ele>43.0</ele><time>2026-04-11T15:10:35Z</time></trkpt><trkpt lat="47.72036894264371" lon="-1.7710611152714733"><ele>43.0</ele><time>2026-04-11T15:10:36Z</time></trkpt><trkpt lat="47.720388923034484" lon="-1.7711754146482832"><ele>43.0</ele><time>2026-04-11T15:10:37Z</time></trkpt><trkpt lat="47.72042622597489" lon="-1.7712537246473976"><ele>43.00000000000001</ele><time>2026-04-11T15:10:39Z</time></trkpt><trkpt lat="47.72036326182012" lon="-1.7712616442098574"><ele>43.0</ele><time>2026-04-11T15:10:47.001Z</time></trkpt><trkpt lat="47.720344384065825" lon="-1.7711570370225111"><ele>43.0</ele><time>2026-04-11T15:10:50.001Z</time></trkpt><trkpt lat="47.72037874591359" lon="-1.771066560034348"><ele>43.0</ele><time>2026-04-11T15:10:52.001Z</time></trkpt><trkpt lat="47.72043365837487" lon="-1.7710114452163346"><ele>43.0</ele><time>2026-04-11T15:10:53.001Z</time></trkpt><trkpt lat="47.72046817823316" lon="-1.770887686176371"><ele>43.0</ele><time>2026-04-11T15:10:54.001Z</time></trkpt><trkpt lat="47.720502477324416" lon="-1.7707365570010534"><ele>43.0</ele><time>2026-04-11T15:10:56.001Z</time></trkpt><trkpt lat="47.72052617304959" lon="-1.7706326306843059"><ele>43.0</ele><time>2026-04-11T15:10:57.001Z</time></trkpt><trkpt lat="47.720583093099265" lon="-1.7705554380338828"><ele>43.0</ele><time>2026-04-11T15:10:58.001Z</time></trkpt><trkpt lat="47.720647662149126" lon="-1.7705505619571895"><ele>43.0</ele><time>2026-04-11T15:10:59.001Z</time></trkpt><trkpt lat="47.72075364933149" lon="-1.7705889021207832"><ele>43.0</ele><time>2026-04-11T15:11:01.001Z</time></trkpt><trkpt lat="47.72084668291239" lon="-1.7707187677728904"><ele>43.0</ele><time>2026-04-11T15:11:02.001Z</time></trkpt><trkpt lat="47.720926021308756" lon="-1.7707480501140354"><ele>43.0</ele><time>2026-04-11T15:11:03.001Z</time></trkpt><trkpt lat="47.72105896355797" lon="-1.7707830659474184"><ele>43.16666666666667</ele><time>2026-04-11T15:11:05.001Z</time></trkpt><trkpt lat="47.721128856233996" lon="-1.770799256895799"><ele>43.333333333333336</ele><time>2026-04-11T15:11:06.001Z</time></trkpt><trkpt lat="47.72120936203954" lon="-1.7707946563308845"><ele>43.5</ele><time>2026-04-11T15:11:08.001Z</time></trkpt><trkpt lat="47.72126326236681" lon="-1.7708742257614392"><ele>43.666666666666664</ele><time>2026-04-11T15:11:11.001Z</time></trkpt><trkpt lat="47.721282109327426" lon="-1.7709777068199979"><ele>43.83333333333333</ele><time>2026-04-11T15:11:16Z</time></trkpt><trkpt lat="47.721294726821256" lon="-1.7711401238700462"><ele>44.0</ele><time>2026-04-11T15:11:18Z</time></trkpt><trkpt lat="47.72126226904622" lon="-1.7712604311319085"><ele>44.0</ele><time>2026-04-11T15:11:20Z</time></trkpt><trkpt lat="47.72123341278505" lon="-1.771403176386555"><ele>44.0</ele><time>2026-04-11T15:11:22Z</time></trkpt><trkpt lat="47.72120287602904" lon="-1.7715564049875352"><ele>44.0</ele><time>2026-04-11T15:11:24Z</time></trkpt><trkpt lat="47.72116862057519" lon="-1.7716813050077862"><ele>44.0</ele><time>2026-04-11T15:11:26Z</time></trkpt><trkpt lat="47.72114448412371" lon="-1.7717768013762887"><ele>44.0</ele><time>2026-04-11T15:11:28Z</time></trkpt><trkpt lat="47.7211751977027" lon="-1.7718626910437816"><ele>44.0</ele><time>2026-04-11T15:11:29Z</time></trkpt><trkpt lat="47.72118971163607" lon="-1.7719797276207878"><ele>44.0</ele><time>2026-04-11T15:11:31Z</time></trkpt><trkpt lat="47.721200816695664" lon="-1.7721205862102745"><ele>44.0</ele><time>2026-04-11T15:11:33Z</time></trkpt><trkpt lat="47.72118681722004" lon="-1.7722379562610928"><ele>44.0</ele><time>2026-04-11T15:11:35Z</time></trkpt><trkpt lat="47.721174349025894" lon="-1.7723635208403388"><ele>44.0</ele><time>2026-04-11T15:11:37Z</time></trkpt><trkpt lat="47.72116155145247" lon="-1.7725592368334286"><ele>44.0</ele><time>2026-04-11T15:11:39Z</time></trkpt><trkpt lat="47.72113171068905" lon="-1.772690725081812"><ele>44.0</ele><time>2026-04-11T15:11:41Z</time></trkpt><trkpt lat="47.721128272908594" lon="-1.772786125334113"><ele>44.0</ele><time>2026-04-11T15:11:43Z</time></trkpt><trkpt lat="47.72114363738477" lon="-1.7728900666667171"><ele>44.0</ele><time>2026-04-11T15:11:45Z</time></trkpt><trkpt lat="47.721125540281434" lon="-1.773000734257373"><ele>44.0</ele><time>2026-04-11T15:11:47Z</time></trkpt><trkpt lat="47.721089938911256" lon="-1.7731352015120816"><ele>44.0</ele><time>2026-04-11T15:11:49Z</time></trkpt><trkpt lat="47.72107463998973" lon="-1.7732703665879317"><ele>44.0</ele><time>2026-04-11T15:11:51Z</time></trkpt><trkpt lat="47.72106976395149" lon="-1.7733960913475493"><ele>44.0</ele><time>2026-04-11T15:11:53Z</time></trkpt><trkpt lat="47.721060906132415" lon="-1.773518307266735"><ele>44.0</ele><time>2026-04-11T15:11:55Z</time></trkpt><trkpt lat="47.721029494273125" lon="-1.7736720005030093"><ele>44.0</ele><time>2026-04-11T15:11:57Z</time></trkpt><trkpt lat="47.721042813063995" lon="-1.7738128563145183"><ele>44.0</ele><time>2026-04-11T15:11:58Z</time></trkpt><trkpt lat="47.72104234211603" lon="-1.7739102180603343"><ele>44.0</ele><time>2026-04-11T15:11:59Z</time></trkpt><trkpt lat="47.72104228371545" lon="-1.7740580264431747"><ele>44.0</ele><time>2026-04-11T15:12:01Z</time></trkpt><trkpt lat="47.721038497532" lon="-1.77420868462116"><ele>44.0</ele><time>2026-04-11T15:12:03Z</time></trkpt><trkpt lat="47.7210056588916" lon="-1.774351130569823"><ele>44.0</ele><time>2026-04-11T15:12:05Z</time></trkpt><trkpt lat="47.72099964892446" lon="-1.77447483685562"><ele>44.0</ele><time>2026-04-11T15:12:07Z</time></trkpt><trkpt lat="47.720978082900515" lon="-1.7746510983667225"><ele>44.0</ele><time>2026-04-11T15:12:09Z</time></trkpt><trkpt lat="47.72090069447396" lon="-1.7748507652182368"><ele>44.666666666666664</ele><time>2026-04-11T15:12:11Z</time></trkpt><trkpt lat="47.72087433613795" lon="-1.774987306940122"><ele>45.333333333333336</ele><time>2026-04-11T15:12:13Z</time></trkpt><trkpt lat="47.720777088301666" lon="-1.7753537848443541"><ele>46.0</ele><time>2026-04-11T15:12:14Z</time></trkpt><trkpt lat="47.72074613929162" lon="-1.7755618408117746"><ele>46.0</ele><time>2026-04-11T15:12:16Z</time></trkpt><trkpt lat="47.72069166760211" lon="-1.7757210497478033"><ele>46.0</ele><time>2026-04-11T15:12:17.999Z</time></trkpt><trkpt lat="47.72065568057049" lon="-1.7757999404953198"><ele>46.0</ele><time>2026-04-11T15:12:18.999Z</time></trkpt><trkpt lat="47.72062721247723" lon="-1.7758956666976162"><ele>46.0</ele><time>2026-04-11T15:12:19.999Z</time></trkpt><trkpt lat="47.72059114623822" lon="-1.776060324931585"><ele>46.0</ele><time>2026-04-11T15:12:20.999Z</time></trkpt><trkpt lat="47.72058834960585" lon="-1.7761895262283562"><ele>46.16666666666667</ele><time>2026-04-11T15:12:21.999Z</time></trkpt><trkpt lat="47.72055366883819" lon="-1.7763394971014899"><ele>46.333333333333336</ele><time>2026-04-11T15:12:22.999Z</time></trkpt><trkpt lat="47.72055295203337" lon="-1.776477389365141"><ele>46.5</ele><time>2026-04-11T15:12:23.999Z</time></trkpt><trkpt lat="47.72054623156887" lon="-1.776592354611664"><ele>46.666666666666664</ele><time>2026-04-11T15:12:24.999Z</time></trkpt><trkpt lat="47.720516176981015" lon="-1.7766896798056215"><ele>46.83333333333333</ele><time>2026-04-11T15:12:25.999Z</time></trkpt><trkpt lat="47.72050200782424" lon="-1.776786142147666"><ele>47.0</ele><time>2026-04-11T15:12:26.999Z</time></trkpt><trkpt lat="47.72047830960781" lon="-1.7768962520863938"><ele>47.6</ele><time>2026-04-11T15:12:27.999Z</time></trkpt><trkpt lat="47.72047775599552" lon="-1.7769905957234124"><ele>48.2</ele><time>2026-04-11T15:12:28.999Z</time></trkpt><trkpt lat="47.72047277257705" lon="-1.7770853598922587"><ele>48.8</ele><time>2026-04-11T15:12:29.999Z</time></trkpt><trkpt lat="47.72043428363994" lon="-1.7772194433898032"><ele>49.4</ele><time>2026-04-11T15:12:31.999Z</time></trkpt><trkpt lat="47.720404755324296" lon="-1.7774029369603421"><ele>50.0</ele><time>2026-04-11T15:12:34.999Z</time></trkpt><trkpt lat="47.72035240889747" lon="-1.777570518314193"><ele>50.00000000000001</ele><time>2026-04-11T15:12:36.999Z</time></trkpt><trkpt lat="47.720301532513645" lon="-1.7776536289795462"><ele>50.0</ele><time>2026-04-11T15:12:37.999Z</time></trkpt><trkpt lat="47.72024742798841" lon="-1.7777121256830746"><ele>50.0</ele><time>2026-04-11T15:12:38.999Z</time></trkpt><trkpt lat="47.72020229887642" lon="-1.7777873205223635"><ele>50.0</ele><time>2026-04-11T15:12:39.999Z</time></trkpt><trkpt lat="47.72015147599709" lon="-1.7778853470047722"><ele>50.00000000000001</ele><time>2026-04-11T15:12:40.999Z</time></trkpt><trkpt lat="47.72011015043386" lon="-1.7779871050868095"><ele>50.0</ele><time>2026-04-11T15:12:41.999Z</time></trkpt><trkpt lat="47.720060989063086" lon="-1.7781119163177141"><ele>49.00000000000001</ele><time>2026-04-11T15:12:42.999Z</time></trkpt><trkpt lat="47.72000316705797" lon="-1.7782187030968388"><ele>48.0</ele><time>2026-04-11T15:12:43.999Z</time></trkpt><trkpt lat="47.719954239951285" lon="-1.7783438433187697"><ele>47.0</ele><time>2026-04-11T15:12:44.999Z</time></trkpt><trkpt lat="47.7199090089243" lon="-1.7784430942098088"><ele>46.0</ele><time>2026-04-11T15:12:45.999Z</time></trkpt><trkpt lat="47.71987555591038" lon="-1.7785258443563452"><ele>45.0</ele><time>2026-04-11T15:12:46.999Z</time></trkpt><trkpt lat="47.71984919099471" lon="-1.7786137255943182"><ele>44.0</ele><time>2026-04-11T15:12:47.999Z</time></trkpt><trkpt lat="47.719822763846956" lon="-1.7787242329618167"><ele>44.0</ele><time>2026-04-11T15:12:48.999Z</time></trkpt><trkpt lat="47.719811905018936" lon="-1.7788538082054004"><ele>44.0</ele><time>2026-04-11T15:12:49.999Z</time></trkpt><trkpt lat="47.719781755798095" lon="-1.778970178007593"><ele>44.0</ele><time>2026-04-11T15:12:50.999Z</time></trkpt><trkpt lat="47.71976331525215" lon="-1.779092768006671"><ele>44.0</ele><time>2026-04-11T15:12:51.999Z</time></trkpt><trkpt lat="47.719733235179454" lon="-1.7792158085283993"><ele>44.0</ele><time>2026-04-11T15:12:53.001Z</time></trkpt><trkpt lat="47.71970981489784" lon="-1.7793418525047955"><ele>44.0</ele><time>2026-04-11T15:12:54.001Z</time></trkpt><trkpt lat="47.71969088630761" lon="-1.7794647518331914"><ele>43.6</ele><time>2026-04-11T15:12:55.001Z</time></trkpt><trkpt lat="47.719673676930114" lon="-1.7796054198036322"><ele>43.2</ele><time>2026-04-11T15:12:56.001Z</time></trkpt><trkpt lat="47.71966127057287" lon="-1.779746180296126"><ele>42.800000000000004</ele><time>2026-04-11T15:12:57.001Z</time></trkpt><trkpt lat="47.719641633946935" lon="-1.779866962789671"><ele>42.400000000000006</ele><time>2026-04-11T15:12:58.001Z</time></trkpt><trkpt lat="47.71963457076414" lon="-1.7799619781485705"><ele>42.0</ele><time>2026-04-11T15:12:59.001Z</time></trkpt><trkpt lat="47.71960428596167" lon="-1.7801202697344276"><ele>41.6</ele><time>2026-04-11T15:13:01.001Z</time></trkpt><trkpt lat="47.71959465116582" lon="-1.7802858739701855"><ele>41.2</ele><time>2026-04-11T15:13:03.001Z</time></trkpt><trkpt lat="47.719653377165585" lon="-1.78039668732327"><ele>40.8</ele><time>2026-04-11T15:13:04.001Z</time></trkpt><trkpt lat="47.71968178403737" lon="-1.7805557804382426"><ele>40.4</ele><time>2026-04-11T15:13:05.001Z</time></trkpt><trkpt lat="47.719692922736286" lon="-1.7807025342239833"><ele>40.0</ele><time>2026-04-11T15:13:06.001Z</time></trkpt><trkpt lat="47.71973095337564" lon="-1.7808406402708639"><ele>40.0</ele><time>2026-04-11T15:13:07.001Z</time></trkpt><trkpt lat="47.71975971727562" lon="-1.7809934579901707"><ele>40.0</ele><time>2026-04-11T15:13:08.001Z</time></trkpt><trkpt lat="47.71980654937691" lon="-1.7811730871348985"><ele>40.0</ele><time>2026-04-11T15:13:09.001Z</time></trkpt><trkpt lat="47.719876054349015" lon="-1.7813594349875668"><ele>40.0</ele><time>2026-04-11T15:13:10.001Z</time></trkpt><trkpt lat="47.71998381119591" lon="-1.7815160957940648"><ele>40.0</ele><time>2026-04-11T15:13:11.001Z</time></trkpt><trkpt lat="47.72008062840403" lon="-1.7816652184945012"><ele>40.0</ele><time>2026-04-11T15:13:12Z</time></trkpt><trkpt lat="47.72016977288914" lon="-1.7818204277964373"><ele>40.0</ele><time>2026-04-11T15:13:13Z</time></trkpt><trkpt lat="47.720289574991455" lon="-1.781955913889097"><ele>40.0</ele><time>2026-04-11T15:13:14Z</time></trkpt><trkpt lat="47.72040553505485" lon="-1.7821292491758358"><ele>41.25</ele><time>2026-04-11T15:13:15Z</time></trkpt><trkpt lat="47.72051866270278" lon="-1.782288266901552"><ele>42.5</ele><time>2026-04-11T15:13:16Z</time></trkpt><trkpt lat="47.72060031217127" lon="-1.782481348519042"><ele>43.75</ele><time>2026-04-11T15:13:17Z</time></trkpt><trkpt lat="47.72064816986733" lon="-1.782668660594554"><ele>45.0</ele><time>2026-04-11T15:13:18Z</time></trkpt><trkpt lat="47.72068534536226" lon="-1.7828855518714557"><ele>45.0</ele><time>2026-04-11T15:13:19Z</time></trkpt><trkpt lat="47.72073329506926" lon="-1.7831166837226946"><ele>45.0</ele><time>2026-04-11T15:13:20Z</time></trkpt><trkpt lat="47.72078100590352" lon="-1.783367468278565"><ele>45.0</ele><time>2026-04-11T15:13:21Z</time></trkpt><trkpt lat="47.72082457864002" lon="-1.783618808422419"><ele>44.5</ele><time>2026-04-11T15:13:22Z</time></trkpt><trkpt lat="47.72086640369361" lon="-1.7838463438818994"><ele>44.0</ele><time>2026-04-11T15:13:23Z</time></trkpt><trkpt lat="47.72092716068566" lon="-1.7840169135943398"><ele>43.5</ele><time>2026-04-11T15:13:24Z</time></trkpt><trkpt lat="47.72097365415569" lon="-1.784186566337324"><ele>43.0</ele><time>2026-04-11T15:13:25Z</time></trkpt><trkpt lat="47.7210020709467" lon="-1.7843185126192114"><ele>43.0</ele><time>2026-04-11T15:13:26Z</time></trkpt><trkpt lat="47.721037339518986" lon="-1.7844361342973314"><ele>43.0</ele><time>2026-04-11T15:13:27Z</time></trkpt><trkpt lat="47.72108746715642" lon="-1.7845936469928039"><ele>43.0</ele><time>2026-04-11T15:13:29Z</time></trkpt><trkpt lat="47.720967704094996" lon="-1.7847572502052256"><ele>43.0</ele><time>2026-04-11T15:13:31Z</time></trkpt><trkpt lat="47.72092855252843" lon="-1.7848501924193028"><ele>43.0</ele><time>2026-04-11T15:13:32Z</time></trkpt><trkpt lat="47.72085670757283" lon="-1.7850060501037508"><ele>43.0</ele><time>2026-04-11T15:13:34Z</time></trkpt><trkpt lat="47.720799279506785" lon="-1.7851206929227377"><ele>43.0</ele><time>2026-04-11T15:13:36Z</time></trkpt><trkpt lat="47.720700935007955" lon="-1.7852299632539812"><ele>43.0</ele><time>2026-04-11T15:13:38Z</time></trkpt><trkpt lat="47.720608385785646" lon="-1.7852441557477585"><ele>43.0</ele><time>2026-04-11T15:13:39Z</time></trkpt><trkpt lat="47.72049970893779" lon="-1.7852601873877982"><ele>43.0</ele><time>2026-04-11T15:13:40Z</time></trkpt><trkpt lat="47.72038585542341" lon="-1.785210910552752"><ele>43.0</ele><time>2026-04-11T15:13:41Z</time></trkpt><trkpt lat="47.72025978903009" lon="-1.785160855666691"><ele>43.0</ele><time>2026-04-11T15:13:42Z</time></trkpt><trkpt lat="47.7201506814352" lon="-1.7851082400475362"><ele>43.0</ele><time>2026-04-11T15:13:43Z</time></trkpt><trkpt lat="47.72005440187835" lon="-1.7850959507687283"><ele>43.0</ele><time>2026-04-11T15:13:44Z</time></trkpt><trkpt lat="47.719960325787575" lon="-1.785053319867155"><ele>43.0</ele><time>2026-04-11T15:13:45Z</time></trkpt><trkpt lat="47.719874875182164" lon="-1.7850143302142185"><ele>42.16666666666667</ele><time>2026-04-11T15:13:46Z</time></trkpt><trkpt lat="47.71978448787174" lon="-1.7849945528672437"><ele>41.333333333333336</ele><time>2026-04-11T15:13:47Z</time></trkpt><trkpt lat="47.71969614883373" lon="-1.7849877643237573"><ele>40.5</ele><time>2026-04-11T15:13:48Z</time></trkpt><trkpt lat="47.7196151819074" lon="-1.7850151305113349"><ele>39.666666666666664</ele><time>2026-04-11T15:13:49Z</time></trkpt><trkpt lat="47.71954479662302" lon="-1.7850628312886285"><ele>38.83333333333333</ele><time>2026-04-11T15:13:50Z</time></trkpt><trkpt lat="47.719482453742806" lon="-1.785117658434765"><ele>38.0</ele><time>2026-04-11T15:13:51Z</time></trkpt><trkpt lat="47.7194481602382" lon="-1.78520392214817"><ele>37.4</ele><time>2026-04-11T15:13:52Z</time></trkpt><trkpt lat="47.719375817256264" lon="-1.7853562976960347"><ele>36.8</ele><time>2026-04-11T15:13:54Z</time></trkpt><trkpt lat="47.719332240106105" lon="-1.7854717522389925"><ele>36.2</ele><time>2026-04-11T15:13:55Z</time></trkpt><trkpt lat="47.7192773738416" lon="-1.7855952776192512"><ele>35.6</ele><time>2026-04-11T15:13:56Z</time></trkpt><trkpt lat="47.719225227283644" lon="-1.7857394331304897"><ele>35.0</ele><time>2026-04-11T15:13:57Z</time></trkpt><trkpt lat="47.719176987562776" lon="-1.785909412579812"><ele>34.5</ele><time>2026-04-11T15:13:58Z</time></trkpt><trkpt lat="47.71911639386422" lon="-1.7860965793048895"><ele>34.0</ele><time>2026-04-11T15:13:59Z</time></trkpt><trkpt lat="47.719064452018756" lon="-1.7862647906710234"><ele>33.5</ele><time>2026-04-11T15:14:00Z</time></trkpt><trkpt lat="47.7190286197596" lon="-1.7864364468453278"><ele>33.0</ele><time>2026-04-11T15:14:01Z</time></trkpt><trkpt lat="47.71898542117237" lon="-1.7866527337875182"><ele>33.0</ele><time>2026-04-11T15:14:02Z</time></trkpt><trkpt lat="47.71896300088905" lon="-1.7868970957897525"><ele>33.0</ele><time>2026-04-11T15:14:03Z</time></trkpt><trkpt lat="47.71893333665022" lon="-1.7871651410612477"><ele>33.0</ele><time>2026-04-11T15:14:04Z</time></trkpt><trkpt lat="47.71888680875665" lon="-1.7874472767091858"><ele>32.666666666666664</ele><time>2026-04-11T15:14:05Z</time></trkpt><trkpt lat="47.718821198201965" lon="-1.7877178509155445"><ele>32.33333333333333</ele><time>2026-04-11T15:14:05.999Z</time></trkpt><trkpt lat="47.71876870642945" lon="-1.7879916555449624"><ele>32.0</ele><time>2026-04-11T15:14:06.999Z</time></trkpt><trkpt lat="47.71873180082807" lon="-1.7882168823106561"><ele>32.0</ele><time>2026-04-11T15:14:07.999Z</time></trkpt><trkpt lat="47.718712653762026" lon="-1.788353124220781"><ele>32.0</ele><time>2026-04-11T15:14:08.999Z</time></trkpt><trkpt lat="47.718692116476724" lon="-1.7885326219072937"><ele>32.0</ele><time>2026-04-11T15:14:09.999Z</time></trkpt><trkpt lat="47.718674839539844" lon="-1.788726775279429"><ele>32.0</ele><time>2026-04-11T15:14:10.999Z</time></trkpt><trkpt lat="47.71865351950349" lon="-1.7889296460407786"><ele>31.8</ele><time>2026-04-11T15:14:11.999Z</time></trkpt><trkpt lat="47.718651559971676" lon="-1.7891143456379008"><ele>31.6</ele><time>2026-04-11T15:14:12.999Z</time></trkpt><trkpt lat="47.7186571324284" lon="-1.7892756783314843"><ele>31.400000000000002</ele><time>2026-04-11T15:14:13.999Z</time></trkpt><trkpt lat="47.71865129327704" lon="-1.7894117315196523"><ele>31.200000000000003</ele><time>2026-04-11T15:14:14.999Z</time></trkpt><trkpt lat="47.718641285032895" lon="-1.7895101837363263"><ele>31.0</ele><time>2026-04-11T15:14:15.999Z</time></trkpt><trkpt lat="47.71862825396547" lon="-1.7896477781314293"><ele>30.8</ele><time>2026-04-11T15:14:16.999Z</time></trkpt><trkpt lat="47.71861750409561" lon="-1.789795177927444"><ele>30.6</ele><time>2026-04-11T15:14:17.999Z</time></trkpt><trkpt lat="47.71860574855259" lon="-1.7899510885765966"><ele>30.4</ele><time>2026-04-11T15:14:18.999Z</time></trkpt><trkpt lat="47.718597937956936" lon="-1.7900774840103812"><ele>30.2</ele><time>2026-04-11T15:14:19.999Z</time></trkpt><trkpt lat="47.718590803625226" lon="-1.7901941244827626"><ele>30.0</ele><time>2026-04-11T15:14:20.999Z</time></trkpt><trkpt lat="47.71858059875702" lon="-1.790372099801769"><ele>29.833333333333332</ele><time>2026-04-11T15:14:22.999Z</time></trkpt><trkpt lat="47.71857476117124" lon="-1.7904739085990773"><ele>29.666666666666664</ele><time>2026-04-11T15:14:23.999Z</time></trkpt><trkpt lat="47.71856659695416" lon="-1.7906162944404667"><ele>29.5</ele><time>2026-04-11T15:14:24.999Z</time></trkpt><trkpt lat="47.718558519278275" lon="-1.7907571711088144"><ele>29.333333333333332</ele><time>2026-04-11T15:14:25.999Z</time></trkpt><trkpt lat="47.7185532391565" lon="-1.7908564675880085"><ele>29.166666666666664</ele><time>2026-04-11T15:14:26.999Z</time></trkpt><trkpt lat="47.71854640473509" lon="-1.7909873114654973"><ele>29.0</ele><time>2026-04-11T15:14:28.999Z</time></trkpt><trkpt lat="47.71836795248133" lon="-1.7916286708320655"><ele>28.6</ele><time>2026-04-11T15:14:30.999Z</time></trkpt><trkpt lat="47.718303256042965" lon="-1.7916347241697952"><ele>28.2</ele><time>2026-04-11T15:14:31.999Z</time></trkpt><trkpt lat="47.71822296767568" lon="-1.791630947201747"><ele>27.800000000000004</ele><time>2026-04-11T15:14:32.999Z</time></trkpt><trkpt lat="47.71813203879389" lon="-1.7916268105952247"><ele>27.400000000000002</ele><time>2026-04-11T15:14:33.999Z</time></trkpt><trkpt lat="47.71802365230092" lon="-1.7915912480970144"><ele>27.0</ele><time>2026-04-11T15:14:34.999Z</time></trkpt><trkpt lat="47.717910812411695" lon="-1.791594554426721"><ele>27.0</ele><time>2026-04-11T15:14:35.999Z</time></trkpt><trkpt lat="47.71777259474762" lon="-1.7916422115637018"><ele>27.0</ele><time>2026-04-11T15:14:36.999Z</time></trkpt><trkpt lat="47.71764465180945" lon="-1.7917176618583035"><ele>27.0</ele><time>2026-04-11T15:14:37.999Z</time></trkpt><trkpt lat="47.71754206688605" lon="-1.7918444953317865"><ele>27.0</ele><time>2026-04-11T15:14:38.999Z</time></trkpt><trkpt lat="47.717430192992374" lon="-1.7919726091170731"><ele>25.333333333333332</ele><time>2026-04-11T15:14:39.999Z</time></trkpt><trkpt lat="47.71731505429625" lon="-1.7921531849382897"><ele>23.666666666666664</ele><time>2026-04-11T15:14:40.999Z</time></trkpt><trkpt lat="47.71720957493584" lon="-1.792354997843553"><ele>22.0</ele><time>2026-04-11T15:14:41.999Z</time></trkpt><trkpt lat="47.71711660692384" lon="-1.792572428918615"><ele>22.0</ele><time>2026-04-11T15:14:42.999Z</time></trkpt><trkpt lat="47.717032194775584" lon="-1.7927788901769008"><ele>22.0</ele><time>2026-04-11T15:14:43.999Z</time></trkpt><trkpt lat="47.71695445012737" lon="-1.7929900170116102"><ele>22.0</ele><time>2026-04-11T15:14:44.999Z</time></trkpt><trkpt lat="47.71688884586132" lon="-1.7931832087943422"><ele>21.75</ele><time>2026-04-11T15:14:45.999Z</time></trkpt><trkpt lat="47.71684330586962" lon="-1.7933707841656383"><ele>21.5</ele><time>2026-04-11T15:14:46.999Z</time></trkpt><trkpt lat="47.71682810176384" lon="-1.7935590582657377"><ele>21.25</ele><time>2026-04-11T15:14:47.999Z</time></trkpt><trkpt lat="47.716830875633356" lon="-1.7937274153540577"><ele>21.0</ele><time>2026-04-11T15:14:48.999Z</time></trkpt><trkpt lat="47.71685842992265" lon="-1.7939337476760238"><ele>20.75</ele><time>2026-04-11T15:14:49.999Z</time></trkpt><trkpt lat="47.716879714910256" lon="-1.7941527470554177"><ele>20.5</ele><time>2026-04-11T15:14:50.999Z</time></trkpt><trkpt lat="47.71688813295613" lon="-1.7943720689921754"><ele>20.25</ele><time>2026-04-11T15:14:51.999Z</time></trkpt><trkpt lat="47.71688758511531" lon="-1.79458378244616"><ele>20.0</ele><time>2026-04-11T15:14:52.999Z</time></trkpt><trkpt lat="47.71686895478345" lon="-1.794776397402801"><ele>20.75</ele><time>2026-04-11T15:14:53.999Z</time></trkpt><trkpt lat="47.716845380931005" lon="-1.794965757777726"><ele>21.5</ele><time>2026-04-11T15:14:54.999Z</time></trkpt><trkpt lat="47.71682518116331" lon="-1.7951683967458554"><ele>22.25</ele><time>2026-04-11T15:14:55.999Z</time></trkpt><trkpt lat="47.71676679316782" lon="-1.7953474733906312"><ele>23.0</ele><time>2026-04-11T15:14:56.999Z</time></trkpt><trkpt lat="47.71671766187687" lon="-1.7954665228934135"><ele>23.0</ele><time>2026-04-11T15:14:57.999Z</time></trkpt><trkpt lat="47.71669879481017" lon="-1.795579147842162"><ele>23.0</ele><time>2026-04-11T15:14:59Z</time></trkpt><trkpt lat="47.71668595460531" lon="-1.7957079697456797"><ele>23.0</ele><time>2026-04-11T15:15:01Z</time></trkpt><trkpt lat="47.716690444213135" lon="-1.795821586046394"><ele>23.0</ele><time>2026-04-11T15:15:03Z</time></trkpt><trkpt lat="47.71669720565478" lon="-1.7959185001243902"><ele>23.0</ele><time>2026-04-11T15:15:06Z</time></trkpt><trkpt lat="47.71679357344773" lon="-1.7959572891178435"><ele>23.0</ele><time>2026-04-11T15:15:07Z</time></trkpt><trkpt lat="47.71684394562536" lon="-1.7960506879531024"><ele>23.0</ele><time>2026-04-11T15:15:08Z</time></trkpt><trkpt lat="47.71689329666185" lon="-1.796129457168231"><ele>23.0</ele><time>2026-04-11T15:15:09Z</time></trkpt><trkpt lat="47.71700088152012" lon="-1.7962406443699281"><ele>23.0</ele><time>2026-04-11T15:15:11Z</time></trkpt><trkpt lat="47.71707398675664" lon="-1.7963164679941122"><ele>23.0</ele><time>2026-04-11T15:15:12Z</time></trkpt><trkpt lat="47.717152433195295" lon="-1.796419393025669"><ele>23.0</ele><time>2026-04-11T15:15:13Z</time></trkpt><trkpt lat="47.7172342806422" lon="-1.7965274330989651"><ele>23.4</ele><time>2026-04-11T15:15:14Z</time></trkpt><trkpt lat="47.71730806393723" lon="-1.7966381344387115"><ele>23.799999999999997</ele><time>2026-04-11T15:15:15Z</time></trkpt><trkpt lat="47.71739738940243" lon="-1.796711966705966"><ele>24.2</ele><time>2026-04-11T15:15:16Z</time></trkpt><trkpt lat="47.717483215882496" lon="-1.7968122543421374"><ele>24.6</ele><time>2026-04-11T15:15:17Z</time></trkpt><trkpt lat="47.71757413809278" lon="-1.7969184962859848"><ele>25.0</ele><time>2026-04-11T15:15:18Z</time></trkpt><trkpt lat="47.7176762150563" lon="-1.7970386446771374"><ele>26.0</ele><time>2026-04-11T15:15:19Z</time></trkpt><trkpt lat="47.71778397495971" lon="-1.7971701070629522"><ele>27.0</ele><time>2026-04-11T15:15:20Z</time></trkpt><trkpt lat="47.717889855277406" lon="-1.7973030249137252"><ele>28.0</ele><time>2026-04-11T15:15:21Z</time></trkpt><trkpt lat="47.71799777410493" lon="-1.797427975335205"><ele>29.0</ele><time>2026-04-11T15:15:22Z</time></trkpt><trkpt lat="47.718092472389635" lon="-1.7975437581452884"><ele>29.0</ele><time>2026-04-11T15:15:23Z</time></trkpt><trkpt lat="47.71818403751851" lon="-1.7976541311275631"><ele>29.0</ele><time>2026-04-11T15:15:24Z</time></trkpt><trkpt lat="47.71830088131469" lon="-1.797756763809101"><ele>29.0</ele><time>2026-04-11T15:15:25Z</time></trkpt><trkpt lat="47.7183991567104" lon="-1.7978772718253477"><ele>29.0</ele><time>2026-04-11T15:15:26Z</time></trkpt><trkpt lat="47.71850969889891" lon="-1.7979990524629177"><ele>29.75</ele><time>2026-04-11T15:15:27Z</time></trkpt><trkpt lat="47.71861146466243" lon="-1.7981254686373287"><ele>30.5</ele><time>2026-04-11T15:15:28Z</time></trkpt><trkpt lat="47.71872019610278" lon="-1.7982491689797448"><ele>31.25</ele><time>2026-04-11T15:15:29Z</time></trkpt><trkpt lat="47.71883037740263" lon="-1.7983873557637116"><ele>32.0</ele><time>2026-04-11T15:15:30Z</time></trkpt><trkpt lat="47.71893679029119" lon="-1.798528959060069"><ele>32.33333333333333</ele><time>2026-04-11T15:15:31Z</time></trkpt><trkpt lat="47.719060819345756" lon="-1.798673269026788"><ele>32.666666666666664</ele><time>2026-04-11T15:15:32Z</time></trkpt><trkpt lat="47.71919099669892" lon="-1.798813351286015"><ele>33.0</ele><time>2026-04-11T15:15:33Z</time></trkpt><trkpt lat="47.719315337763824" lon="-1.7989399896564948"><ele>33.75</ele><time>2026-04-11T15:15:34Z</time></trkpt><trkpt lat="47.71940375152961" lon="-1.7990764438113183"><ele>34.5</ele><time>2026-04-11T15:15:35Z</time></trkpt><trkpt lat="47.71951292070034" lon="-1.7992002836848648"><ele>35.25</ele><time>2026-04-11T15:15:36Z</time></trkpt><trkpt lat="47.719624994717456" lon="-1.7993086526820907"><ele>36.0</ele><time>2026-04-11T15:15:37Z</time></trkpt><trkpt lat="47.71973334206219" lon="-1.799437006107946"><ele>37.25</ele><time>2026-04-11T15:15:38Z</time></trkpt><trkpt lat="47.7198439074356" lon="-1.7995679870902528"><ele>38.5</ele><time>2026-04-11T15:15:39Z</time></trkpt><trkpt lat="47.71996404512944" lon="-1.7997080927634233"><ele>39.75</ele><time>2026-04-11T15:15:40Z</time></trkpt><trkpt lat="47.720073857125605" lon="-1.7998345957944646"><ele>41.0</ele><time>2026-04-11T15:15:41Z</time></trkpt><trkpt lat="47.72019567980558" lon="-1.7999775541597567"><ele>42.0</ele><time>2026-04-11T15:15:42Z</time></trkpt><trkpt lat="47.72031302927464" lon="-1.8001190363057733"><ele>43.0</ele><time>2026-04-11T15:15:43Z</time></trkpt><trkpt lat="47.72042476304" lon="-1.800266813138817"><ele>44.0</ele><time>2026-04-11T15:15:44Z</time></trkpt><trkpt lat="47.72051383038559" lon="-1.8004009724777732"><ele>45.0</ele><time>2026-04-11T15:15:45Z</time></trkpt><trkpt lat="47.72059429363833" lon="-1.8005248219097767"><ele>45.4</ele><time>2026-04-11T15:15:46Z</time></trkpt><trkpt lat="47.72066941861966" lon="-1.8006531364232532"><ele>45.8</ele><time>2026-04-11T15:15:47Z</time></trkpt><trkpt lat="47.72073536114689" lon="-1.8007133868168361"><ele>46.2</ele><time>2026-04-11T15:15:48Z</time></trkpt><trkpt lat="47.720787090077756" lon="-1.8007953498719746"><ele>46.6</ele><time>2026-04-11T15:15:49Z</time></trkpt><trkpt lat="47.72085238976895" lon="-1.8009293019978359"><ele>47.0</ele><time>2026-04-11T15:15:51Z</time></trkpt><trkpt lat="47.72089412076416" lon="-1.8010194984056014"><ele>47.5</ele><time>2026-04-11T15:15:53Z</time></trkpt><trkpt lat="47.720927931383414" lon="-1.8011244013648493"><ele>48.0</ele><time>2026-04-11T15:16:10.999Z</time></trkpt><trkpt lat="47.720978641703844" lon="-1.801238857830728"><ele>48.5</ele><time>2026-04-11T15:16:12.999Z</time></trkpt><trkpt lat="47.72104577558453" lon="-1.801389408945622"><ele>49.0</ele><time>2026-04-11T15:16:14.999Z</time></trkpt><trkpt lat="47.7210866091875" lon="-1.8014836936788492"><ele>49.50000000000001</ele><time>2026-04-11T15:16:15.999Z</time></trkpt><trkpt lat="47.72112144520729" lon="-1.8015662395040237"><ele>50.0</ele><time>2026-04-11T15:16:16.999Z</time></trkpt><trkpt lat="47.72116084090663" lon="-1.8016618961344786"><ele>50.8</ele><time>2026-04-11T15:16:17.999Z</time></trkpt><trkpt lat="47.721205599469506" lon="-1.8017740797751844"><ele>51.6</ele><time>2026-04-11T15:16:18.999Z</time></trkpt><trkpt lat="47.721246985953634" lon="-1.8018789504263466"><ele>52.400000000000006</ele><time>2026-04-11T15:16:19.999Z</time></trkpt><trkpt lat="47.72128647503508" lon="-1.8020166811068332"><ele>53.2</ele><time>2026-04-11T15:16:20.999Z</time></trkpt><trkpt lat="47.72134848119743" lon="-1.8021772170339991"><ele>54.0</ele><time>2026-04-11T15:16:21.999Z</time></trkpt><trkpt lat="47.72140707410341" lon="-1.802323147385788"><ele>54.0</ele><time>2026-04-11T15:16:22.999Z</time></trkpt><trkpt lat="47.72149403653874" lon="-1.802460159013368"><ele>54.0</ele><time>2026-04-11T15:16:23.999Z</time></trkpt><trkpt lat="47.72157208416228" lon="-1.8026460532919053"><ele>54.0</ele><time>2026-04-11T15:16:24.999Z</time></trkpt><trkpt lat="47.72164074143944" lon="-1.8028038956687369"><ele>54.0</ele><time>2026-04-11T15:16:25.999Z</time></trkpt><trkpt lat="47.72169403566544" lon="-1.8029540087382108"><ele>54.0</ele><time>2026-04-11T15:16:26.999Z</time></trkpt><trkpt lat="47.721749236992125" lon="-1.8030943095479004"><ele>54.0</ele><time>2026-04-11T15:16:27.999Z</time></trkpt><trkpt lat="47.72179847872688" lon="-1.803208020154096"><ele>54.0</ele><time>2026-04-11T15:16:28.999Z</time></trkpt><trkpt lat="47.72183157091979" lon="-1.8033235538590893"><ele>54.0</ele><time>2026-04-11T15:16:29.999Z</time></trkpt><trkpt lat="47.72185901938191" lon="-1.8034340925898016"><ele>54.0</ele><time>2026-04-11T15:16:30.999Z</time></trkpt><trkpt lat="47.721896620229046" lon="-1.8035181112805319"><ele>54.0</ele><time>2026-04-11T15:16:31.999Z</time></trkpt><trkpt lat="47.72195071359372" lon="-1.8035998758704037"><ele>54.400000000000006</ele><time>2026-04-11T15:16:33.999Z</time></trkpt><trkpt lat="47.721987665569124" lon="-1.8036911519953904"><ele>54.800000000000004</ele><time>2026-04-11T15:16:35.999Z</time></trkpt><trkpt lat="47.72203386409823" lon="-1.8038117791655446"><ele>55.199999999999996</ele><time>2026-04-11T15:19:21Z</time></trkpt><trkpt lat="47.72209800810031" lon="-1.803959780597028"><ele>55.599999999999994</ele><time>2026-04-11T15:19:23Z</time></trkpt><trkpt lat="47.72216337740281" lon="-1.8041038034982375"><ele>56.0</ele><time>2026-04-11T15:19:25Z</time></trkpt><trkpt lat="47.72221620826231" lon="-1.804203753815812"><ele>56.0</ele><time>2026-04-11T15:19:26Z</time></trkpt><trkpt lat="47.72228464257616" lon="-1.8043200842309017"><ele>55.99999999999999</ele><time>2026-04-11T15:19:27Z</time></trkpt><trkpt lat="47.72235146112957" lon="-1.8044341974722355"><ele>55.99999999999999</ele><time>2026-04-11T15:19:28Z</time></trkpt><trkpt lat="47.72242518883208" lon="-1.8045601102120832"><ele>56.0</ele><time>2026-04-11T15:19:29Z</time></trkpt><trkpt lat="47.722496462025035" lon="-1.804681831129429"><ele>56.0</ele><time>2026-04-11T15:19:30Z</time></trkpt><trkpt lat="47.72256113670908" lon="-1.804813181033103"><ele>56.0</ele><time>2026-04-11T15:19:31Z</time></trkpt><trkpt lat="47.722642386747296" lon="-1.8049523254372013"><ele>56.0</ele><time>2026-04-11T15:19:32Z</time></trkpt><trkpt lat="47.72273510321776" lon="-1.8051041400376984"><ele>56.0</ele><time>2026-04-11T15:19:33Z</time></trkpt><trkpt lat="47.72283424726288" lon="-1.8052627708590945"><ele>56.0</ele><time>2026-04-11T15:19:34Z</time></trkpt><trkpt lat="47.722943399435316" lon="-1.8054367794361605"><ele>54.75</ele><time>2026-04-11T15:19:35Z</time></trkpt><trkpt lat="47.723047760904905" lon="-1.8056022534470293"><ele>53.5</ele><time>2026-04-11T15:19:36Z</time></trkpt><trkpt lat="47.723140570657556" lon="-1.8057635723428933"><ele>52.25</ele><time>2026-04-11T15:19:37Z</time></trkpt><trkpt lat="47.723235886234306" lon="-1.8059330484153546"><ele>51.0</ele><time>2026-04-11T15:19:38Z</time></trkpt><trkpt lat="47.723329672487594" lon="-1.8061032285925633"><ele>50.33333333333333</ele><time>2026-04-11T15:19:39Z</time></trkpt><trkpt lat="47.72343112136603" lon="-1.8062763971908193"><ele>49.666666666666664</ele><time>2026-04-11T15:19:40Z</time></trkpt><trkpt lat="47.723538699819656" lon="-1.806453809841157"><ele>49.0</ele><time>2026-04-11T15:19:41Z</time></trkpt><trkpt lat="47.72364592220014" lon="-1.8066286919094934"><ele>49.666666666666664</ele><time>2026-04-11T15:19:42Z</time></trkpt><trkpt lat="47.72376083469142" lon="-1.8068073828807887"><ele>50.33333333333333</ele><time>2026-04-11T15:19:43Z</time></trkpt><trkpt lat="47.72386973077513" lon="-1.806986030052674"><ele>51.0</ele><time>2026-04-11T15:19:44Z</time></trkpt><trkpt lat="47.72397582898988" lon="-1.807165389639613"><ele>51.0</ele><time>2026-04-11T15:19:45Z</time></trkpt><trkpt lat="47.72408344122716" lon="-1.8073476804570956"><ele>51.0</ele><time>2026-04-11T15:19:46Z</time></trkpt><trkpt lat="47.72417745532298" lon="-1.8075008149252982"><ele>51.0</ele><time>2026-04-11T15:19:47Z</time></trkpt><trkpt lat="47.724253618529026" lon="-1.8076358911268195"><ele>51.0</ele><time>2026-04-11T15:19:48Z</time></trkpt><trkpt lat="47.72432019478833" lon="-1.8077507176454999"><ele>51.0</ele><time>2026-04-11T15:19:49Z</time></trkpt><trkpt lat="47.72439585324277" lon="-1.8078462955902321"><ele>51.0</ele><time>2026-04-11T15:19:50Z</time></trkpt><trkpt lat="47.72445867204317" lon="-1.807929771446381"><ele>51.0</ele><time>2026-04-11T15:19:51Z</time></trkpt><trkpt lat="47.724501575186814" lon="-1.808011146491995"><ele>51.0</ele><time>2026-04-11T15:19:52Z</time></trkpt><trkpt lat="47.72459121142574" lon="-1.8081593336265929"><ele>51.0</ele><time>2026-04-11T15:19:54Z</time></trkpt><trkpt lat="47.724632561958636" lon="-1.8082361906669326"><ele>51.5</ele><time>2026-04-11T15:19:55Z</time></trkpt><trkpt lat="47.724677257363524" lon="-1.8083164449556985"><ele>52.0</ele><time>2026-04-11T15:19:56Z</time></trkpt><trkpt lat="47.724700699142595" lon="-1.8084067473548247"><ele>52.5</ele><time>2026-04-11T15:19:57Z</time></trkpt><trkpt lat="47.72475828262651" lon="-1.8084733930308012"><ele>53.0</ele><time>2026-04-11T15:19:58Z</time></trkpt><trkpt lat="47.72482408959" lon="-1.8085812388355074"><ele>53.5</ele><time>2026-04-11T15:19:59.999Z</time></trkpt><trkpt lat="47.72490849381206" lon="-1.8087189343985925"><ele>54.0</ele><time>2026-04-11T15:20:01.999Z</time></trkpt><trkpt lat="47.72496454014411" lon="-1.8088103673843419"><ele>54.0</ele><time>2026-04-11T15:20:02.999Z</time></trkpt><trkpt lat="47.725032317271385" lon="-1.8089217637602915"><ele>54.00000000000001</ele><time>2026-04-11T15:20:03.999Z</time></trkpt><trkpt lat="47.725082946461946" lon="-1.8090058608788586"><ele>54.00000000000001</ele><time>2026-04-11T15:20:04.999Z</time></trkpt><trkpt lat="47.72512655407197" lon="-1.8090782948303104"><ele>54.0</ele><time>2026-04-11T15:20:05.999Z</time></trkpt><trkpt lat="47.725189658557795" lon="-1.8091831147582227"><ele>54.0</ele><time>2026-04-11T15:20:07.999Z</time></trkpt><trkpt lat="47.72473547080847" lon="-1.8099533997571415"><ele>52.33333333333333</ele><time>2026-04-11T15:20:09.999Z</time></trkpt><trkpt lat="47.72465160163939" lon="-1.8101794778369436"><ele>50.666666666666664</ele><time>2026-04-11T15:20:10.999Z</time></trkpt><trkpt lat="47.72455461838861" lon="-1.8104097206202643"><ele>49.0</ele><time>2026-04-11T15:20:11.999Z</time></trkpt><trkpt lat="47.72445971528512" lon="-1.8106518234033546"><ele>49.0</ele><time>2026-04-11T15:20:12.999Z</time></trkpt><trkpt lat="47.72440259243445" lon="-1.8108735090034145"><ele>49.0</ele><time>2026-04-11T15:20:13.999Z</time></trkpt><trkpt lat="47.72434180806293" lon="-1.8111001960321094"><ele>49.0</ele><time>2026-04-11T15:20:14.999Z</time></trkpt><trkpt lat="47.72429123230591" lon="-1.811310996741063"><ele>47.0</ele><time>2026-04-11T15:20:15.999Z</time></trkpt><trkpt lat="47.72424440696601" lon="-1.8115280715040807"><ele>45.0</ele><time>2026-04-11T15:20:16.999Z</time></trkpt><trkpt lat="47.724192866857535" lon="-1.81170585804466"><ele>43.0</ele><time>2026-04-11T15:20:17.999Z</time></trkpt><trkpt lat="47.72415327028905" lon="-1.8119043778604491"><ele>41.0</ele><time>2026-04-11T15:20:18.999Z</time></trkpt><trkpt lat="47.7241401815801" lon="-1.8121061804305767"><ele>40.5</ele><time>2026-04-11T15:20:19.999Z</time></trkpt><trkpt lat="47.724125077883755" lon="-1.8123107966533316"><ele>40.0</ele><time>2026-04-11T15:20:20.999Z</time></trkpt><trkpt lat="47.724108384308146" lon="-1.8125268013950042"><ele>39.5</ele><time>2026-04-11T15:20:21.999Z</time></trkpt><trkpt lat="47.724089513068" lon="-1.8127639146714154"><ele>39.0</ele><time>2026-04-11T15:20:22.999Z</time></trkpt><trkpt lat="47.72407001861551" lon="-1.8129970995914075"><ele>38.0</ele><time>2026-04-11T15:20:23.999Z</time></trkpt><trkpt lat="47.724031326158624" lon="-1.813247518523806"><ele>37.0</ele><time>2026-04-11T15:20:24.999Z</time></trkpt><trkpt lat="47.72404191049377" lon="-1.8135255217880477"><ele>36.0</ele><time>2026-04-11T15:20:25.999Z</time></trkpt><trkpt lat="47.72403649659847" lon="-1.8137692349373242"><ele>35.0</ele><time>2026-04-11T15:20:26.999Z</time></trkpt><trkpt lat="47.72403684947776" lon="-1.8139958448903157"><ele>34.0</ele><time>2026-04-11T15:20:27.999Z</time></trkpt><trkpt lat="47.72402567797144" lon="-1.814227208139768"><ele>33.0</ele><time>2026-04-11T15:20:28.999Z</time></trkpt><trkpt lat="47.72403567510959" lon="-1.8144537988036067"><ele>32.75</ele><time>2026-04-11T15:20:29.999Z</time></trkpt><trkpt lat="47.724024563225505" lon="-1.8146745614938344"><ele>32.5</ele><time>2026-04-11T15:20:30.999Z</time></trkpt><trkpt lat="47.72403101905675" lon="-1.8148713509033663"><ele>32.25</ele><time>2026-04-11T15:20:31.999Z</time></trkpt><trkpt lat="47.72397409749883" lon="-1.8150890191716669"><ele>32.0</ele><time>2026-04-11T15:20:32.999Z</time></trkpt><trkpt lat="47.72396004492155" lon="-1.8152962781888908"><ele>32.0</ele><time>2026-04-11T15:20:33.999Z</time></trkpt><trkpt lat="47.72397808836336" lon="-1.8154962976129527"><ele>32.0</ele><time>2026-04-11T15:20:34.999Z</time></trkpt><trkpt lat="47.7238907565605" lon="-1.8155458591600036"><ele>32.0</ele><time>2026-04-11T15:20:35.999Z</time></trkpt><trkpt lat="47.723858282094746" lon="-1.8156596972193066"><ele>32.0</ele><time>2026-04-11T15:20:36.999Z</time></trkpt><trkpt lat="47.723827354474416" lon="-1.8158140263923317"><ele>32.0</ele><time>2026-04-11T15:20:38.999Z</time></trkpt><trkpt lat="47.72378851459983" lon="-1.8159341076936741"><ele>32.0</ele><time>2026-04-11T15:20:39.999Z</time></trkpt><trkpt lat="47.723757679951916" lon="-1.8160549957662004"><ele>32.0</ele><time>2026-04-11T15:20:40.999Z</time></trkpt><trkpt lat="47.723720650737526" lon="-1.816206010938924"><ele>32.0</ele><time>2026-04-11T15:20:41.999Z</time></trkpt><trkpt lat="47.72367624956279" lon="-1.8163616177602262"><ele>32.0</ele><time>2026-04-11T15:20:42.999Z</time></trkpt><trkpt lat="47.723644703562684" lon="-1.8165102146494558"><ele>32.0</ele><time>2026-04-11T15:20:43.999Z</time></trkpt><trkpt lat="47.72361940211273" lon="-1.8166363017972684"><ele>32.0</ele><time>2026-04-11T15:20:44.999Z</time></trkpt><trkpt lat="47.72359571680941" lon="-1.8167665603623437"><ele>32.0</ele><time>2026-04-11T15:20:45.999Z</time></trkpt><trkpt lat="47.72356898955463" lon="-1.8169070105397234"><ele>32.0</ele><time>2026-04-11T15:20:46.999Z</time></trkpt><trkpt lat="47.7235397175285" lon="-1.817031858646819"><ele>32.0</ele><time>2026-04-11T15:20:47.999Z</time></trkpt><trkpt lat="47.72338069857191" lon="-1.8168311554099534"><ele>31.0</ele><time>2026-04-11T15:20:57.999Z</time></trkpt><trkpt lat="47.72329683939916" lon="-1.8168259688063515"><ele>30.000000000000004</ele><time>2026-04-11T15:20:58.999Z</time></trkpt><trkpt lat="47.7231983757353" lon="-1.8168499321944247"><ele>29.000000000000004</ele><time>2026-04-11T15:20:59.998Z</time></trkpt><trkpt lat="47.72309770942287" lon="-1.8169172713827713"><ele>28.0</ele><time>2026-04-11T15:21:00.998Z</time></trkpt><trkpt lat="47.72296731097611" lon="-1.8170037058406059"><ele>27.0</ele><time>2026-04-11T15:21:01.998Z</time></trkpt><trkpt lat="47.72292043581161" lon="-1.8170695409280766"><ele>27.0</ele><time>2026-04-11T15:21:02.998Z</time></trkpt><trkpt lat="47.722834311945164" lon="-1.8171313161529394"><ele>27.0</ele><time>2026-04-11T15:21:03.998Z</time></trkpt><trkpt lat="47.722745402438804" lon="-1.8171898154123476"><ele>27.0</ele><time>2026-04-11T15:21:04.998Z</time></trkpt><trkpt lat="47.72258487045538" lon="-1.8173442958580062"><ele>27.0</ele><time>2026-04-11T15:21:05.998Z</time></trkpt><trkpt lat="47.72248122925574" lon="-1.8174781584326474"><ele>25.75</ele><time>2026-04-11T15:21:06.998Z</time></trkpt><trkpt lat="47.72237843567516" lon="-1.817613554296674"><ele>24.5</ele><time>2026-04-11T15:21:08.998Z</time></trkpt><trkpt lat="47.722274499505104" lon="-1.8176543617743308"><ele>23.25</ele><time>2026-04-11T15:21:10.998Z</time></trkpt><trkpt lat="47.72215720273552" lon="-1.8176395039619737"><ele>22.0</ele><time>2026-04-11T15:21:11.998Z</time></trkpt><trkpt lat="47.722063960848445" lon="-1.8176574877428002"><ele>21.75</ele><time>2026-04-11T15:21:12.998Z</time></trkpt><trkpt lat="47.72194343954161" lon="-1.817658556589637"><ele>21.5</ele><time>2026-04-11T15:21:13.998Z</time></trkpt><trkpt lat="47.72182266699858" lon="-1.817649696298872"><ele>21.25</ele><time>2026-04-11T15:21:14.998Z</time></trkpt><trkpt lat="47.72168228743359" lon="-1.8176406447598505"><ele>21.0</ele><time>2026-04-11T15:21:15.998Z</time></trkpt><trkpt lat="47.721414903676255" lon="-1.8176731443927394"><ele>20.666666666666668</ele><time>2026-04-11T15:21:16.999Z</time></trkpt><trkpt lat="47.72123959470428" lon="-1.8176723161060633"><ele>20.333333333333336</ele><time>2026-04-11T15:21:17.999Z</time></trkpt><trkpt lat="47.72105799495882" lon="-1.8176449768644074"><ele>20.0</ele><time>2026-04-11T15:21:18.999Z</time></trkpt><trkpt lat="47.72088935149814" lon="-1.8176659060892284"><ele>20.0</ele><time>2026-04-11T15:21:19.999Z</time></trkpt><trkpt lat="47.72073055633014" lon="-1.8176345827188247"><ele>20.0</ele><time>2026-04-11T15:21:20.999Z</time></trkpt><trkpt lat="47.720577787654186" lon="-1.8175993886858597"><ele>20.0</ele><time>2026-04-11T15:21:21.999Z</time></trkpt><trkpt lat="47.72045501413688" lon="-1.8176095894737028"><ele>20.0</ele><time>2026-04-11T15:21:22.999Z</time></trkpt><trkpt lat="47.720329002536374" lon="-1.8176806431101828"><ele>18.333333333333336</ele><time>2026-04-11T15:21:23.999Z</time></trkpt><trkpt lat="47.72017833813168" lon="-1.8177131372546758"><ele>16.666666666666668</ele><time>2026-04-11T15:21:24.999Z</time></trkpt><trkpt lat="47.720049260069025" lon="-1.8177692320969068"><ele>15.0</ele><time>2026-04-11T15:21:25.999Z</time></trkpt><trkpt lat="47.71988483063585" lon="-1.8177943758396555"><ele>15.0</ele><time>2026-04-11T15:21:27Z</time></trkpt><trkpt lat="47.719751554863706" lon="-1.817795667671502"><ele>15.0</ele><time>2026-04-11T15:21:27.999Z</time></trkpt><trkpt lat="47.71962862116365" lon="-1.817818670430305"><ele>15.0</ele><time>2026-04-11T15:21:29Z</time></trkpt><trkpt lat="47.71951941319913" lon="-1.817863603605485"><ele>15.0</ele><time>2026-04-11T15:21:30Z</time></trkpt><trkpt lat="47.71940500378167" lon="-1.8179019326704702"><ele>14.75</ele><time>2026-04-11T15:21:31Z</time></trkpt><trkpt lat="47.71930325217111" lon="-1.8179465972624071"><ele>14.5</ele><time>2026-04-11T15:21:32Z</time></trkpt><trkpt lat="47.71924364082801" lon="-1.8180257462380505"><ele>14.25</ele><time>2026-04-11T15:21:33Z</time></trkpt><trkpt lat="47.719120093675855" lon="-1.818114880548753"><ele>14.0</ele><time>2026-04-11T15:21:34Z</time></trkpt><trkpt lat="47.71900552147412" lon="-1.8182017970306092"><ele>14.0</ele><time>2026-04-11T15:21:34.999Z</time></trkpt><trkpt lat="47.718892323220594" lon="-1.818309324354222"><ele>14.0</ele><time>2026-04-11T15:21:35.999Z</time></trkpt><trkpt lat="47.71876496352968" lon="-1.8184056504551167"><ele>14.0</ele><time>2026-04-11T15:21:36.999Z</time></trkpt><trkpt lat="47.71867143171193" lon="-1.8184762190555908"><ele>14.0</ele><time>2026-04-11T15:21:37.999Z</time></trkpt><trkpt lat="47.718579684824626" lon="-1.8185740686695646"><ele>13.799999999999999</ele><time>2026-04-11T15:21:38.999Z</time></trkpt><trkpt lat="47.71849918822222" lon="-1.818641339467884"><ele>13.599999999999998</ele><time>2026-04-11T15:21:39.999Z</time></trkpt><trkpt lat="47.71840920683984" lon="-1.8187125768078474"><ele>13.4</ele><time>2026-04-11T15:21:40.999Z</time></trkpt><trkpt lat="47.71830888825922" lon="-1.8187147930598593"><ele>13.2</ele><time>2026-04-11T15:21:42.999Z</time></trkpt><trkpt lat="47.71818426969307" lon="-1.8187003088032898"><ele>13.0</ele><time>2026-04-11T15:21:44.999Z</time></trkpt><trkpt lat="47.718074174556556" lon="-1.8187487361525594"><ele>13.0</ele><time>2026-04-11T15:21:46.999Z</time></trkpt><trkpt lat="47.71802354748558" lon="-1.8188185259689151"><ele>13.0</ele><time>2026-04-11T15:21:49.999Z</time></trkpt><trkpt lat="47.718046905213825" lon="-1.8190060394621186"><ele>13.0</ele><time>2026-04-11T15:21:51.999Z</time></trkpt><trkpt lat="47.71804304888072" lon="-1.8191122440168572"><ele>13.0</ele><time>2026-04-11T15:21:52.999Z</time></trkpt><trkpt lat="47.71804051673872" lon="-1.8192497121175815"><ele>13.0</ele><time>2026-04-11T15:21:53.999Z</time></trkpt><trkpt lat="47.71805065175246" lon="-1.8193863688156608"><ele>12.75</ele><time>2026-04-11T15:21:54.999Z</time></trkpt><trkpt lat="47.71805731530494" lon="-1.8195511194563847"><ele>12.5</ele><time>2026-04-11T15:21:55.999Z</time></trkpt><trkpt lat="47.71805969753852" lon="-1.8197432550051522"><ele>12.25</ele><time>2026-04-11T15:21:56.999Z</time></trkpt><trkpt lat="47.71805929668063" lon="-1.819911748919354"><ele>12.0</ele><time>2026-04-11T15:21:57.999Z</time></trkpt><trkpt lat="47.718021724762636" lon="-1.8201281169646568"><ele>11.666666666666666</ele><time>2026-04-11T15:21:58.999Z</time></trkpt><trkpt lat="47.71799779113428" lon="-1.8203675553106577"><ele>11.333333333333332</ele><time>2026-04-11T15:21:59.999Z</time></trkpt><trkpt lat="47.717969966785795" lon="-1.820600509194067"><ele>11.0</ele><time>2026-04-11T15:22:00.999Z</time></trkpt><trkpt lat="47.71794647343366" lon="-1.820817116922232"><ele>10.8</ele><time>2026-04-11T15:22:01.999Z</time></trkpt><trkpt lat="47.71793787219684" lon="-1.8209947409676825"><ele>10.600000000000001</ele><time>2026-04-11T15:22:02.999Z</time></trkpt><trkpt lat="47.71792466626802" lon="-1.8211047395304396"><ele>10.4</ele><time>2026-04-11T15:22:03.999Z</time></trkpt><trkpt lat="47.71791646164925" lon="-1.8211976108453423"><ele>10.2</ele><time>2026-04-11T15:22:04.999Z</time></trkpt><trkpt lat="47.71786614124884" lon="-1.821310945739437"><ele>10.0</ele><time>2026-04-11T15:22:06.999Z</time></trkpt><trkpt lat="47.717707458144666" lon="-1.8212883237550135"><ele>10.0</ele><time>2026-04-11T15:22:09.999Z</time></trkpt><trkpt lat="47.71763234777829" lon="-1.8212179582849595"><ele>10.0</ele><time>2026-04-11T15:22:10.999Z</time></trkpt><trkpt lat="47.717550583833734" lon="-1.8211400208481423"><ele>10.0</ele><time>2026-04-11T15:22:11.999Z</time></trkpt><trkpt lat="47.717461479620724" lon="-1.8210895096479705"><ele>10.0</ele><time>2026-04-11T15:22:12.999Z</time></trkpt><trkpt lat="47.71739274834935" lon="-1.8210683907058227"><ele>10.0</ele><time>2026-04-11T15:22:13.999Z</time></trkpt><trkpt lat="47.71732732974117" lon="-1.8210619800630554"><ele>10.0</ele><time>2026-04-11T15:22:15.999Z</time></trkpt><trkpt lat="47.71730428027505" lon="-1.821292960021397"><ele>10.0</ele><time>2026-04-11T15:22:16.999Z</time></trkpt><trkpt lat="47.71730165483815" lon="-1.8214302291823208"><ele>10.0</ele><time>2026-04-11T15:22:17.999Z</time></trkpt><trkpt lat="47.71729898546275" lon="-1.8215837776558623"><ele>10.0</ele><time>2026-04-11T15:22:18.999Z</time></trkpt><trkpt lat="47.71729590551629" lon="-1.8217609431520014"><ele>10.0</ele><time>2026-04-11T15:22:19.999Z</time></trkpt><trkpt lat="47.71729222506219" lon="-1.821931277157039"><ele>10.0</ele><time>2026-04-11T15:22:20.999Z</time></trkpt><trkpt lat="47.71729071154661" lon="-1.8221195018986491"><ele>9.75</ele><time>2026-04-11T15:22:21.999Z</time></trkpt><trkpt lat="47.7172846032487" lon="-1.822321349859566"><ele>9.5</ele><time>2026-04-11T15:22:22.999Z</time></trkpt><trkpt lat="47.71727202534397" lon="-1.8225414476231194"><ele>9.25</ele><time>2026-04-11T15:22:23.999Z</time></trkpt><trkpt lat="47.717268372710606" lon="-1.822734902141837"><ele>9.0</ele><time>2026-04-11T15:22:24.999Z</time></trkpt><trkpt lat="47.71726558592721" lon="-1.8229139962574294"><ele>9.0</ele><time>2026-04-11T15:22:25.999Z</time></trkpt><trkpt lat="47.7172523235246" lon="-1.8230702876906604"><ele>9.0</ele><time>2026-04-11T15:22:26.999Z</time></trkpt><trkpt lat="47.717248644755955" lon="-1.8232486879248542"><ele>9.0</ele><time>2026-04-11T15:22:27.999Z</time></trkpt><trkpt lat="47.71724484803306" lon="-1.8234068557178218"><ele>9.0</ele><time>2026-04-11T15:22:28.999Z</time></trkpt><trkpt lat="47.717249237927916" lon="-1.8235227526224216"><ele>9.0</ele><time>2026-04-11T15:22:29.999Z</time></trkpt><trkpt lat="47.71723767192644" lon="-1.8236750376977544"><ele>8.333333333333334</ele><time>2026-04-11T15:22:30.999Z</time></trkpt><trkpt lat="47.717236500787244" lon="-1.8238289953728672"><ele>7.666666666666667</ele><time>2026-04-11T15:22:31.999Z</time></trkpt><trkpt lat="47.717250320827645" lon="-1.8239615605287907"><ele>7.0</ele><time>2026-04-11T15:22:32.999Z</time></trkpt><trkpt lat="47.71725437011221" lon="-1.8240716210268826"><ele>6.333333333333334</ele><time>2026-04-11T15:22:33.999Z</time></trkpt><trkpt lat="47.7172765205527" lon="-1.8241805555709887"><ele>5.666666666666667</ele><time>2026-04-11T15:22:34.999Z</time></trkpt><trkpt lat="47.71728808599344" lon="-1.8242830538995516"><ele>5.0</ele><time>2026-04-11T15:22:35.999Z</time></trkpt><trkpt lat="47.717287517373734" lon="-1.8244421403652697"><ele>5.0</ele><time>2026-04-11T15:22:37.999Z</time></trkpt><trkpt lat="47.71726271979473" lon="-1.824528356287171"><ele>5.0</ele><time>2026-04-11T15:22:38.999Z</time></trkpt><trkpt lat="47.71720477169081" lon="-1.8246460247248042"><ele>5.0</ele><time>2026-04-11T15:22:39.999Z</time></trkpt><trkpt lat="47.71714822236825" lon="-1.8247738799356827"><ele>5.0</ele><time>2026-04-11T15:22:40.999Z</time></trkpt><trkpt lat="47.71704522904181" lon="-1.8248733866917421"><ele>5.0</ele><time>2026-04-11T15:22:41.999Z</time></trkpt><trkpt lat="47.71697051829342" lon="-1.8250238301564585"><ele>4.8</ele><time>2026-04-11T15:22:42.999Z</time></trkpt><trkpt lat="47.71688730483807" lon="-1.825155323429333"><ele>4.6</ele><time>2026-04-11T15:22:43.999Z</time></trkpt><trkpt lat="47.716818717236364" lon="-1.8252775709390803"><ele>4.4</ele><time>2026-04-11T15:22:44.999Z</time></trkpt><trkpt lat="47.71677741639726" lon="-1.8254025281449744"><ele>4.2</ele><time>2026-04-11T15:22:45.999Z</time></trkpt><trkpt lat="47.71675022809387" lon="-1.8255200344824218"><ele>4.0</ele><time>2026-04-11T15:22:46.999Z</time></trkpt><trkpt lat="47.71672141887589" lon="-1.8256225285596936"><ele>4.0</ele><time>2026-04-11T15:22:47.999Z</time></trkpt><trkpt lat="47.71671166994838" lon="-1.8257663481459012"><ele>4.0</ele><time>2026-04-11T15:22:49.999Z</time></trkpt><trkpt lat="47.71672222265362" lon="-1.82586344962468"><ele>4.0</ele><time>2026-04-11T15:22:53.998Z</time></trkpt><trkpt lat="47.71698478056919" lon="-1.8259618602057472"><ele>4.0</ele><time>2026-04-11T15:22:57.998Z</time></trkpt><trkpt lat="47.717106589145814" lon="-1.8260052053590445"><ele>4.0</ele><time>2026-04-11T15:22:58.998Z</time></trkpt><trkpt lat="47.71725670551488" lon="-1.826071958486507"><ele>4.0</ele><time>2026-04-11T15:22:59.998Z</time></trkpt><trkpt lat="47.71739987870902" lon="-1.8261167807276362"><ele>4.0</ele><time>2026-04-11T15:23:00.998Z</time></trkpt><trkpt lat="47.71756921020128" lon="-1.8261742565298231"><ele>4.333333333333333</ele><time>2026-04-11T15:23:01.998Z</time></trkpt><trkpt lat="47.71774865600016" lon="-1.8262345228162695"><ele>4.666666666666667</ele><time>2026-04-11T15:23:02.998Z</time></trkpt><trkpt lat="47.71792104380857" lon="-1.8262943568850123"><ele>5.0</ele><time>2026-04-11T15:23:03.998Z</time></trkpt><trkpt lat="47.71809593690823" lon="-1.8263409716345054"><ele>5.0</ele><time>2026-04-11T15:23:04.998Z</time></trkpt><trkpt lat="47.71825884597629" lon="-1.8263797562890443"><ele>5.0</ele><time>2026-04-11T15:23:05.998Z</time></trkpt><trkpt lat="47.718427942114594" lon="-1.8264118685297535"><ele>5.0</ele><time>2026-04-11T15:23:06.998Z</time></trkpt><trkpt lat="47.718617238410616" lon="-1.8264267896286777"><ele>5.0</ele><time>2026-04-11T15:23:07.998Z</time></trkpt><trkpt lat="47.71879502034267" lon="-1.8264468592055958"><ele>5.0</ele><time>2026-04-11T15:23:08.998Z</time></trkpt><trkpt lat="47.71897376883132" lon="-1.8264588807979796"><ele>5.0</ele><time>2026-04-11T15:23:09.998Z</time></trkpt><trkpt lat="47.719152159680725" lon="-1.826486768806082"><ele>5.0</ele><time>2026-04-11T15:23:10.998Z</time></trkpt><trkpt lat="47.71933312670171" lon="-1.8265389741922586"><ele>5.0</ele><time>2026-04-11T15:23:11.998Z</time></trkpt><trkpt lat="47.71951531921297" lon="-1.8265321716920475"><ele>5.0</ele><time>2026-04-11T15:23:12.998Z</time></trkpt><trkpt lat="47.71967979077658" lon="-1.8265457929025373"><ele>5.0</ele><time>2026-04-11T15:23:13.998Z</time></trkpt><trkpt lat="47.719865342370504" lon="-1.8265651917261811"><ele>5.0</ele><time>2026-04-11T15:23:14.998Z</time></trkpt><trkpt lat="47.7200330842225" lon="-1.8265955413657413"><ele>5.0</ele><time>2026-04-11T15:23:15.998Z</time></trkpt><trkpt lat="47.720207707971376" lon="-1.8266321158080852"><ele>5.0</ele><time>2026-04-11T15:23:16.998Z</time></trkpt><trkpt lat="47.72040207872557" lon="-1.8266362719902833"><ele>5.0</ele><time>2026-04-11T15:23:17.998Z</time></trkpt><trkpt lat="47.720595237430665" lon="-1.8266753273821053"><ele>5.0</ele><time>2026-04-11T15:23:18.998Z</time></trkpt><trkpt lat="47.720755078302275" lon="-1.8266937770921166"><ele>5.0</ele><time>2026-04-11T15:23:19.998Z</time></trkpt><trkpt lat="47.72091784430246" lon="-1.8267240405875849"><ele>5.0</ele><time>2026-04-11T15:23:20.998Z</time></trkpt><trkpt lat="47.721057740346936" lon="-1.8267443121635432"><ele>5.0</ele><time>2026-04-11T15:23:21.998Z</time></trkpt><trkpt lat="47.72120531555265" lon="-1.8267655130904574"><ele>5.25</ele><time>2026-04-11T15:23:23Z</time></trkpt><trkpt lat="47.72134332631146" lon="-1.8268015378601328"><ele>5.5</ele><time>2026-04-11T15:23:24Z</time></trkpt><trkpt lat="47.72147493709781" lon="-1.826842509682586"><ele>5.75</ele><time>2026-04-11T15:23:25Z</time></trkpt><trkpt lat="47.72159745970192" lon="-1.8268745924258833"><ele>6.0</ele><time>2026-04-11T15:23:26Z</time></trkpt><trkpt lat="47.72171784185019" lon="-1.8269281205699102"><ele>6.0</ele><time>2026-04-11T15:23:27Z</time></trkpt><trkpt lat="47.72184001484571" lon="-1.8269810203827348"><ele>6.0</ele><time>2026-04-11T15:23:28Z</time></trkpt><trkpt lat="47.72196460019697" lon="-1.8270411963326993"><ele>6.0</ele><time>2026-04-11T15:23:29Z</time></trkpt><trkpt lat="47.72209639898466" lon="-1.827104254880149"><ele>6.0</ele><time>2026-04-11T15:23:30Z</time></trkpt><trkpt lat="47.72222765391295" lon="-1.827207954081571"><ele>5.8</ele><time>2026-04-11T15:23:31Z</time></trkpt><trkpt lat="47.72234362112515" lon="-1.8272934389073787"><ele>5.6</ele><time>2026-04-11T15:23:32Z</time></trkpt><trkpt lat="47.72242469137612" lon="-1.8273754093791859"><ele>5.4</ele><time>2026-04-11T15:23:33Z</time></trkpt><trkpt lat="47.72252174583523" lon="-1.8274308213111563"><ele>5.2</ele><time>2026-04-11T15:23:34Z</time></trkpt><trkpt lat="47.7226190663449" lon="-1.8274816617720746"><ele>5.0</ele><time>2026-04-11T15:23:35Z</time></trkpt><trkpt lat="47.722700611357034" lon="-1.8275303914131864"><ele>5.0</ele><time>2026-04-11T15:23:36Z</time></trkpt><trkpt lat="47.72275166513866" lon="-1.8275932767534875"><ele>5.0</ele><time>2026-04-11T15:23:37Z</time></trkpt><trkpt lat="47.72282099336427" lon="-1.8276608004645924"><ele>5.0</ele><time>2026-04-11T15:23:39Z</time></trkpt><trkpt lat="47.72283573716685" lon="-1.8277853896757275"><ele>5.0</ele><time>2026-04-11T15:23:45Z</time></trkpt><trkpt lat="47.72287522805911" lon="-1.8278638887404597"><ele>5.0</ele><time>2026-04-11T15:23:46Z</time></trkpt><trkpt lat="47.722924349081104" lon="-1.827933538060538"><ele>5.0</ele><time>2026-04-11T15:23:47Z</time></trkpt><trkpt lat="47.72299912389604" lon="-1.828001808978632"><ele>4.8</ele><time>2026-04-11T15:23:48Z</time></trkpt><trkpt lat="47.723083530047056" lon="-1.828057164805277"><ele>4.6</ele><time>2026-04-11T15:23:49Z</time></trkpt><trkpt lat="47.72315847265512" lon="-1.8281443665511878"><ele>4.4</ele><time>2026-04-11T15:23:50Z</time></trkpt><trkpt lat="47.72325556724855" lon="-1.8282411642395118"><ele>4.2</ele><time>2026-04-11T15:23:51Z</time></trkpt><trkpt lat="47.72336000695829" lon="-1.828344003133297"><ele>4.0</ele><time>2026-04-11T15:23:52Z</time></trkpt><trkpt lat="47.72345104861693" lon="-1.8284297168084922"><ele>3.75</ele><time>2026-04-11T15:23:53Z</time></trkpt><trkpt lat="47.72354746715574" lon="-1.8285154018636978"><ele>3.5</ele><time>2026-04-11T15:23:54Z</time></trkpt><trkpt lat="47.72365850822324" lon="-1.828635279982326"><ele>3.25</ele><time>2026-04-11T15:23:55Z</time></trkpt><trkpt lat="47.723786440290716" lon="-1.8287688985654864"><ele>3.0</ele><time>2026-04-11T15:23:55.999Z</time></trkpt><trkpt lat="47.723914113553185" lon="-1.8288779310417824"><ele>3.0</ele><time>2026-04-11T15:23:56.999Z</time></trkpt><trkpt lat="47.72400821679546" lon="-1.8289660115817359"><ele>3.0</ele><time>2026-04-11T15:23:57.999Z</time></trkpt><trkpt lat="47.72409885794161" lon="-1.8290698006201422"><ele>3.0</ele><time>2026-04-11T15:23:58.999Z</time></trkpt><trkpt lat="47.72419948149588" lon="-1.829162325060221"><ele>3.0</ele><time>2026-04-11T15:23:59.999Z</time></trkpt><trkpt lat="47.72430276859391" lon="-1.8292551267316577"><ele>3.5999999999999996</ele><time>2026-04-11T15:24:00.999Z</time></trkpt><trkpt lat="47.7244034342076" lon="-1.8293582359074927"><ele>4.199999999999999</ele><time>2026-04-11T15:24:01.999Z</time></trkpt><trkpt lat="47.72449880979034" lon="-1.829467727803924"><ele>4.8</ele><time>2026-04-11T15:24:02.999Z</time></trkpt><trkpt lat="47.7245950882319" lon="-1.8295731786693834"><ele>5.3999999999999995</ele><time>2026-04-11T15:24:03.999Z</time></trkpt><trkpt lat="47.72466848359689" lon="-1.8296371473007687"><ele>6.0</ele><time>2026-04-11T15:24:04.999Z</time></trkpt><trkpt lat="47.72475511197475" lon="-1.8296969372606928"><ele>6.0</ele><time>2026-04-11T15:24:05.999Z</time></trkpt><trkpt lat="47.72483851593637" lon="-1.829749942704685"><ele>6.0</ele><time>2026-04-11T15:24:06.999Z</time></trkpt><trkpt lat="47.72494280163105" lon="-1.8297883555330319"><ele>6.0</ele><time>2026-04-11T15:24:07.999Z</time></trkpt><trkpt lat="47.72503746454848" lon="-1.8298442462489821"><ele>6.0</ele><time>2026-04-11T15:24:08.999Z</time></trkpt><trkpt lat="47.72515058350198" lon="-1.8298924114907253"><ele>6.0</ele><time>2026-04-11T15:24:09.999Z</time></trkpt><trkpt lat="47.72530449415425" lon="-1.829931519347012"><ele>5.75</ele><time>2026-04-11T15:24:10.999Z</time></trkpt><trkpt lat="47.725414954416976" lon="-1.8300102827624134"><ele>5.5</ele><time>2026-04-11T15:24:11.999Z</time></trkpt><trkpt lat="47.72551994841025" lon="-1.8300604374399931"><ele>5.25</ele><time>2026-04-11T15:24:12.999Z</time></trkpt><trkpt lat="47.7256335512078" lon="-1.8301124145918581"><ele>5.0</ele><time>2026-04-11T15:24:13.999Z</time></trkpt><trkpt lat="47.725753859726936" lon="-1.8301548861066255"><ele>5.0</ele><time>2026-04-11T15:24:14.999Z</time></trkpt><trkpt lat="47.72580800881071" lon="-1.8302063623759384"><ele>5.0</ele><time>2026-04-11T15:24:15.999Z</time></trkpt><trkpt lat="47.725893834255444" lon="-1.8302527846311223"><ele>5.0</ele><time>2026-04-11T15:24:17.999Z</time></trkpt><trkpt lat="47.725866313608165" lon="-1.830420865826339"><ele>5.0</ele><time>2026-04-11T15:24:23.999Z</time></trkpt><trkpt lat="47.72585303580864" lon="-1.8305904498646393"><ele>5.0</ele><time>2026-04-11T15:24:25.999Z</time></trkpt><trkpt lat="47.72582266788003" lon="-1.830798735900752"><ele>5.0</ele><time>2026-04-11T15:24:27.999Z</time></trkpt><trkpt lat="47.725810411242975" lon="-1.8309561646446495"><ele>5.0</ele><time>2026-04-11T15:24:28.999Z</time></trkpt><trkpt lat="47.72577375841439" lon="-1.8311205958529964"><ele>5.0</ele><time>2026-04-11T15:24:29.999Z</time></trkpt><trkpt lat="47.72570993193048" lon="-1.8312823775164093"><ele>5.0</ele><time>2026-04-11T15:24:30.999Z</time></trkpt><trkpt lat="47.72566310678281" lon="-1.8314770208880973"><ele>4.833333333333334</ele><time>2026-04-11T15:24:31.999Z</time></trkpt><trkpt lat="47.725640647261955" lon="-1.8316206125076824"><ele>4.666666666666667</ele><time>2026-04-11T15:24:32.999Z</time></trkpt><trkpt lat="47.72562264011728" lon="-1.8317284376521832"><ele>4.5</ele><time>2026-04-11T15:24:33.999Z</time></trkpt><trkpt lat="47.72567701346802" lon="-1.8318251467406836"><ele>4.333333333333333</ele><time>2026-04-11T15:24:34.999Z</time></trkpt><trkpt lat="47.72571720418582" lon="-1.8319488860471553"><ele>4.166666666666666</ele><time>2026-04-11T15:24:35.999Z</time></trkpt><trkpt lat="47.72577047072889" lon="-1.8320401393976096"><ele>4.0</ele><time>2026-04-11T15:24:36.999Z</time></trkpt><trkpt lat="47.72583113971137" lon="-1.8321054852918386"><ele>3.9999999999999996</ele><time>2026-04-11T15:24:37.999Z</time></trkpt><trkpt lat="47.72586455906997" lon="-1.8322074040982035"><ele>4.0</ele><time>2026-04-11T15:24:38.999Z</time></trkpt><trkpt lat="47.72586739588798" lon="-1.832331037866438"><ele>4.0</ele><time>2026-04-11T15:24:39.999Z</time></trkpt><trkpt lat="47.7258669306859" lon="-1.8324734336395068"><ele>4.0</ele><time>2026-04-11T15:24:40.999Z</time></trkpt><trkpt lat="47.725868584923994" lon="-1.8326100104491139"><ele>3.9999999999999996</ele><time>2026-04-11T15:24:41.999Z</time></trkpt><trkpt lat="47.72587141726423" lon="-1.8327555225005336"><ele>4.0</ele><time>2026-04-11T15:24:42.999Z</time></trkpt><trkpt lat="47.72583239185328" lon="-1.8330136174603646"><ele>4.0</ele><time>2026-04-11T15:24:43.999Z</time></trkpt><trkpt lat="47.72581854983626" lon="-1.833206289808655"><ele>4.0</ele><time>2026-04-11T15:24:44.999Z</time></trkpt><trkpt lat="47.725786600800646" lon="-1.8333515542630148"><ele>4.0</ele><time>2026-04-11T15:24:45.999Z</time></trkpt><trkpt lat="47.72577065876347" lon="-1.8334509433593147"><ele>4.0</ele><time>2026-04-11T15:24:46.999Z</time></trkpt><trkpt lat="47.72575731674161" lon="-1.8335732578382518"><ele>4.0</ele><time>2026-04-11T15:24:47.999Z</time></trkpt><trkpt lat="47.72574101181407" lon="-1.8337001600409812"><ele>4.0</ele><time>2026-04-11T15:24:48.999Z</time></trkpt><trkpt lat="47.72573694571487" lon="-1.8338152699194379"><ele>4.0</ele><time>2026-04-11T15:24:49.999Z</time></trkpt><trkpt lat="47.725765694527844" lon="-1.83390992575226"><ele>4.0</ele><time>2026-04-11T15:24:50.999Z</time></trkpt><trkpt lat="47.725750691953884" lon="-1.8341193497208828"><ele>4.0</ele><time>2026-04-11T15:24:52.999Z</time></trkpt><trkpt lat="47.72573796174521" lon="-1.8342426280167818"><ele>4.0</ele><time>2026-04-11T15:24:53.999Z</time></trkpt><trkpt lat="47.72573229629032" lon="-1.8344092172743667"><ele>4.0</ele><time>2026-04-11T15:24:55.999Z</time></trkpt><trkpt lat="47.725784894539125" lon="-1.834462392074987"><ele>4.0</ele><time>2026-04-11T15:24:56.999Z</time></trkpt><trkpt lat="47.725923807927074" lon="-1.8344992361415555"><ele>4.0</ele><time>2026-04-11T15:24:58.999Z</time></trkpt><trkpt lat="47.72601110872391" lon="-1.834545259866939"><ele>4.0</ele><time>2026-04-11T15:24:59.999Z</time></trkpt><trkpt lat="47.726108392896876" lon="-1.834557544005303"><ele>4.0</ele><time>2026-04-11T15:25:00.999Z</time></trkpt><trkpt lat="47.726248666952934" lon="-1.8345932460899774"><ele>3.6666666666666665</ele><time>2026-04-11T15:25:01.999Z</time></trkpt><trkpt lat="47.72639184766221" lon="-1.834631723833884"><ele>3.333333333333333</ele><time>2026-04-11T15:25:02.999Z</time></trkpt><trkpt lat="47.726561449874715" lon="-1.8346405698888433"><ele>3.0</ele><time>2026-04-11T15:25:03.999Z</time></trkpt><trkpt lat="47.726706428265686" lon="-1.8346819947739499"><ele>3.0</ele><time>2026-04-11T15:25:04.999Z</time></trkpt><trkpt lat="47.72682767583148" lon="-1.834714519612673"><ele>3.0</ele><time>2026-04-11T15:25:05.999Z</time></trkpt><trkpt lat="47.726979374910236" lon="-1.8347598560043008"><ele>3.0</ele><time>2026-04-11T15:25:06.999Z</time></trkpt><trkpt lat="47.72713310341001" lon="-1.8348058342449247"><ele>3.0</ele><time>2026-04-11T15:25:07.999Z</time></trkpt><trkpt lat="47.72730399646915" lon="-1.8348598086501837"><ele>3.333333333333333</ele><time>2026-04-11T15:25:08.999Z</time></trkpt><trkpt lat="47.72747695063049" lon="-1.8349076128541058"><ele>3.6666666666666665</ele><time>2026-04-11T15:25:09.999Z</time></trkpt><trkpt lat="47.72766261802678" lon="-1.8349537358739783"><ele>4.0</ele><time>2026-04-11T15:25:10.998Z</time></trkpt><trkpt lat="47.727819916370066" lon="-1.8349918639892657"><ele>4.333333333333333</ele><time>2026-04-11T15:25:11.998Z</time></trkpt><trkpt lat="47.72797721264123" lon="-1.8350241632488242"><ele>4.666666666666667</ele><time>2026-04-11T15:25:12.998Z</time></trkpt><trkpt lat="47.72817155544352" lon="-1.8350801049231262"><ele>5.0</ele><time>2026-04-11T15:25:13.998Z</time></trkpt><trkpt lat="47.72834517738705" lon="-1.8351107111406288"><ele>4.666666666666667</ele><time>2026-04-11T15:25:14.998Z</time></trkpt><trkpt lat="47.7285155888918" lon="-1.8351540366005936"><ele>4.333333333333333</ele><time>2026-04-11T15:25:15.998Z</time></trkpt><trkpt lat="47.728699020748934" lon="-1.835200672404194"><ele>4.0</ele><time>2026-04-11T15:25:16.998Z</time></trkpt><trkpt lat="47.72886215659881" lon="-1.835242148122937"><ele>4.666666666666666</ele><time>2026-04-11T15:25:17.998Z</time></trkpt><trkpt lat="47.72903281568467" lon="-1.835285536554581"><ele>5.333333333333333</ele><time>2026-04-11T15:25:18.998Z</time></trkpt><trkpt lat="47.72921770403503" lon="-1.8353325426282001"><ele>6.0</ele><time>2026-04-11T15:25:19.998Z</time></trkpt><trkpt lat="47.729387838131366" lon="-1.835375255380526"><ele>6.0</ele><time>2026-04-11T15:25:20.998Z</time></trkpt><trkpt lat="47.72955696712052" lon="-1.835417544198248"><ele>6.0</ele><time>2026-04-11T15:25:21.998Z</time></trkpt><trkpt lat="47.72968644170832" lon="-1.83544991788036"><ele>6.0</ele><time>2026-04-11T15:25:22.998Z</time></trkpt><trkpt lat="47.729814162976396" lon="-1.8354818531592583"><ele>6.0</ele><time>2026-04-11T15:25:23.998Z</time></trkpt><trkpt lat="47.729930535761355" lon="-1.8355323424313184"><ele>6.0</ele><time>2026-04-11T15:25:24.998Z</time></trkpt><trkpt lat="47.73002890566064" lon="-1.8355555671397514"><ele>6.0</ele><time>2026-04-11T15:25:25.998Z</time></trkpt><trkpt lat="47.730121072407854" lon="-1.8355780548739762"><ele>6.0</ele><time>2026-04-11T15:25:26.998Z</time></trkpt><trkpt lat="47.730214419678674" lon="-1.8355944145149041"><ele>6.0</ele><time>2026-04-11T15:25:27.998Z</time></trkpt><trkpt lat="47.73030320348215" lon="-1.8355865431142415"><ele>6.0</ele><time>2026-04-11T15:25:29Z</time></trkpt><trkpt lat="47.73041009712102" lon="-1.8356070794172032"><ele>5.8</ele><time>2026-04-11T15:25:31Z</time></trkpt><trkpt lat="47.7305009753508" lon="-1.8356160357623097"><ele>5.6</ele><time>2026-04-11T15:25:33Z</time></trkpt><trkpt lat="47.73055906845972" lon="-1.8358290613895123"><ele>5.4</ele><time>2026-04-11T15:25:39Z</time></trkpt><trkpt lat="47.73058105096153" lon="-1.8359745008130608"><ele>5.2</ele><time>2026-04-11T15:25:41Z</time></trkpt><trkpt lat="47.730583268330705" lon="-1.836096824366357"><ele>5.0</ele><time>2026-04-11T15:25:43Z</time></trkpt><trkpt lat="47.73059899219539" lon="-1.8362192466876135"><ele>4.833333333333334</ele><time>2026-04-11T15:25:45Z</time></trkpt><trkpt lat="47.73058982994858" lon="-1.8363171308312303"><ele>4.666666666666667</ele><time>2026-04-11T15:25:47Z</time></trkpt><trkpt lat="47.730612725461995" lon="-1.8364065895926882"><ele>4.5</ele><time>2026-04-11T15:25:49Z</time></trkpt><trkpt lat="47.73062009694142" lon="-1.8365029897005063"><ele>4.333333333333333</ele><time>2026-04-11T15:25:51Z</time></trkpt><trkpt lat="47.73064469246091" lon="-1.8366143523169502"><ele>4.166666666666666</ele><time>2026-04-11T15:25:54Z</time></trkpt><trkpt lat="47.73062049027826" lon="-1.8365125138314995"><ele>4.0</ele><time>2026-04-11T15:26:07Z</time></trkpt><trkpt lat="47.73062550846438" lon="-1.8363523724773252"><ele>4.0</ele><time>2026-04-11T15:26:09Z</time></trkpt><trkpt lat="47.730619861841454" lon="-1.8362139459749371"><ele>4.0</ele><time>2026-04-11T15:26:11Z</time></trkpt><trkpt lat="47.7306490797603" lon="-1.836125136060054"><ele>4.0</ele><time>2026-04-11T15:26:12Z</time></trkpt><trkpt lat="47.730674818817384" lon="-1.8358927645655396"><ele>4.0</ele><time>2026-04-11T15:26:14Z</time></trkpt><trkpt lat="47.730680214094946" lon="-1.8357632797496275"><ele>4.0</ele><time>2026-04-11T15:26:15Z</time></trkpt><trkpt lat="47.73066634715" lon="-1.8355869811667804"><ele>4.25</ele><time>2026-04-11T15:26:16Z</time></trkpt><trkpt lat="47.73065621560507" lon="-1.8354348447373323"><ele>4.5</ele><time>2026-04-11T15:26:17Z</time></trkpt><trkpt lat="47.730611802050795" lon="-1.8351951116490974"><ele>4.75</ele><time>2026-04-11T15:26:17.999Z</time></trkpt><trkpt lat="47.73047765200493" lon="-1.8350207792152236"><ele>5.0</ele><time>2026-04-11T15:26:18.999Z</time></trkpt><trkpt lat="47.7304627617379" lon="-1.8348177035322262"><ele>5.0</ele><time>2026-04-11T15:26:19.999Z</time></trkpt><trkpt lat="47.73043848831836" lon="-1.8345733409963043"><ele>5.0</ele><time>2026-04-11T15:26:20.999Z</time></trkpt><trkpt lat="47.730432657650795" lon="-1.8343310315185635"><ele>5.0</ele><time>2026-04-11T15:26:21.999Z</time></trkpt><trkpt lat="47.73038758938166" lon="-1.8341141657512046"><ele>5.25</ele><time>2026-04-11T15:26:22.999Z</time></trkpt><trkpt lat="47.730363088723415" lon="-1.8339332400938475"><ele>5.5</ele><time>2026-04-11T15:26:23.999Z</time></trkpt><trkpt lat="47.73036401014457" lon="-1.8337661209627565"><ele>5.75</ele><time>2026-04-11T15:26:24.999Z</time></trkpt><trkpt lat="47.73036273659286" lon="-1.8335831259915305"><ele>6.0</ele><time>2026-04-11T15:26:25.999Z</time></trkpt><trkpt lat="47.730359448293065" lon="-1.8334312292054527"><ele>6.25</ele><time>2026-04-11T15:26:26.999Z</time></trkpt><trkpt lat="47.73040538395423" lon="-1.8332993642950153"><ele>6.5</ele><time>2026-04-11T15:26:27.999Z</time></trkpt><trkpt lat="47.73045360070358" lon="-1.8331417205130631"><ele>6.75</ele><time>2026-04-11T15:26:28.999Z</time></trkpt><trkpt lat="47.73052371602582" lon="-1.8329673859064208"><ele>7.0</ele><time>2026-04-11T15:26:29.999Z</time></trkpt><trkpt lat="47.73057673002369" lon="-1.8327755756648922"><ele>7.25</ele><time>2026-04-11T15:26:30.999Z</time></trkpt><trkpt lat="47.73067412048884" lon="-1.832563267167983"><ele>7.5</ele><time>2026-04-11T15:26:31.999Z</time></trkpt><trkpt lat="47.73077838157152" lon="-1.8323963741423912"><ele>7.75</ele><time>2026-04-11T15:26:32.999Z</time></trkpt><trkpt lat="47.73086488738152" lon="-1.832274359464291"><ele>8.0</ele><time>2026-04-11T15:26:33.999Z</time></trkpt><trkpt lat="47.73093105500115" lon="-1.8321746288551408"><ele>8.0</ele><time>2026-04-11T15:26:34.999Z</time></trkpt><trkpt lat="47.730997499409995" lon="-1.832099039867232"><ele>8.0</ele><time>2026-04-11T15:26:35.999Z</time></trkpt><trkpt lat="47.73105936921142" lon="-1.8319214572393203"><ele>8.0</ele><time>2026-04-11T15:26:37.999Z</time></trkpt><trkpt lat="47.73108204162905" lon="-1.8318096733765412"><ele>8.0</ele><time>2026-04-11T15:26:38.999Z</time></trkpt><trkpt lat="47.73110824399102" lon="-1.831669956231742"><ele>8.0</ele><time>2026-04-11T15:26:39.999Z</time></trkpt><trkpt lat="47.731129027518456" lon="-1.8315018060041384"><ele>8.5</ele><time>2026-04-11T15:26:40.999Z</time></trkpt><trkpt lat="47.73116772092354" lon="-1.8313235587170693"><ele>9.0</ele><time>2026-04-11T15:26:41.999Z</time></trkpt><trkpt lat="47.73119895084911" lon="-1.8311378831539564"><ele>9.5</ele><time>2026-04-11T15:26:42.999Z</time></trkpt><trkpt lat="47.731232147080114" lon="-1.8309612098131425"><ele>10.0</ele><time>2026-04-11T15:26:43.999Z</time></trkpt><trkpt lat="47.7312671347271" lon="-1.830788964829034"><ele>10.0</ele><time>2026-04-11T15:26:44.999Z</time></trkpt><trkpt lat="47.73131284396128" lon="-1.8305995322780895"><ele>10.0</ele><time>2026-04-11T15:26:45.999Z</time></trkpt><trkpt lat="47.73135301975724" lon="-1.8303833503785714"><ele>10.0</ele><time>2026-04-11T15:26:46.999Z</time></trkpt><trkpt lat="47.73139247422407" lon="-1.8301659671695387"><ele>10.0</ele><time>2026-04-11T15:26:47.999Z</time></trkpt><trkpt lat="47.731432914120845" lon="-1.8299364407816843"><ele>10.333333333333334</ele><time>2026-04-11T15:26:48.999Z</time></trkpt><trkpt lat="47.73147552757938" lon="-1.8296855277200328"><ele>10.666666666666666</ele><time>2026-04-11T15:26:49.999Z</time></trkpt><trkpt lat="47.73151649190973" lon="-1.8294613166288698"><ele>11.0</ele><time>2026-04-11T15:26:50.999Z</time></trkpt><trkpt lat="47.73154906813058" lon="-1.8292752023728849"><ele>11.333333333333332</ele><time>2026-04-11T15:26:51.999Z</time></trkpt><trkpt lat="47.731570624194866" lon="-1.8291171511194608"><ele>11.666666666666666</ele><time>2026-04-11T15:26:52.999Z</time></trkpt><trkpt lat="47.731590097104736" lon="-1.8289902371898656"><ele>12.0</ele><time>2026-04-11T15:26:53.999Z</time></trkpt><trkpt lat="47.731598883110294" lon="-1.8288939815972016"><ele>12.333333333333332</ele><time>2026-04-11T15:26:54.999Z</time></trkpt><trkpt lat="47.73161237933444" lon="-1.8287748079707413"><ele>12.666666666666666</ele><time>2026-04-11T15:26:56.999Z</time></trkpt><trkpt lat="47.73154234966577" lon="-1.8286672782560311"><ele>13.0</ele><time>2026-04-11T15:26:58.999Z</time></trkpt><trkpt lat="47.731475302119" lon="-1.8285934872786902"><ele>13.0</ele><time>2026-04-11T15:26:59.999Z</time></trkpt><trkpt lat="47.7313991956019" lon="-1.8284922471614942"><ele>13.0</ele><time>2026-04-11T15:27:00.999Z</time></trkpt><trkpt lat="47.73132759247491" lon="-1.828391630441845"><ele>13.0</ele><time>2026-04-11T15:27:01.999Z</time></trkpt><trkpt lat="47.73125841486526" lon="-1.8283038423327034"><ele>13.0</ele><time>2026-04-11T15:27:02.999Z</time></trkpt><trkpt lat="47.73117520386505" lon="-1.8281769761112328"><ele>13.0</ele><time>2026-04-11T15:27:03.999Z</time></trkpt><trkpt lat="47.73109585580433" lon="-1.8280321989277393"><ele>12.75</ele><time>2026-04-11T15:27:04.999Z</time></trkpt><trkpt lat="47.73097658889359" lon="-1.827908559976356"><ele>12.5</ele><time>2026-04-11T15:27:05.999Z</time></trkpt><trkpt lat="47.73087987196131" lon="-1.8277624801596553"><ele>12.25</ele><time>2026-04-11T15:27:06.999Z</time></trkpt><trkpt lat="47.73079888167587" lon="-1.8276264104261053"><ele>12.0</ele><time>2026-04-11T15:27:07.999Z</time></trkpt><trkpt lat="47.73072094639624" lon="-1.8274964154156181"><ele>12.75</ele><time>2026-04-11T15:27:08.999Z</time></trkpt><trkpt lat="47.73063124564734" lon="-1.827361632541497"><ele>13.5</ele><time>2026-04-11T15:27:09.999Z</time></trkpt><trkpt lat="47.73052421397534" lon="-1.8271788631520587"><ele>14.25</ele><time>2026-04-11T15:27:10.999Z</time></trkpt><trkpt lat="47.73041858593996" lon="-1.8270046649836638"><ele>15.0</ele><time>2026-04-11T15:27:11.999Z</time></trkpt><trkpt lat="47.730319875594866" lon="-1.8268752902048884"><ele>15.4</ele><time>2026-04-11T15:27:12.999Z</time></trkpt><trkpt lat="47.730228831079444" lon="-1.8267530755849695"><ele>15.8</ele><time>2026-04-11T15:27:13.999Z</time></trkpt><trkpt lat="47.73015546224065" lon="-1.8266493105271964"><ele>16.2</ele><time>2026-04-11T15:27:14.999Z</time></trkpt><trkpt lat="47.73009887260326" lon="-1.826538805159928"><ele>16.6</ele><time>2026-04-11T15:27:15.999Z</time></trkpt><trkpt lat="47.73004030723731" lon="-1.82648339886206"><ele>17.0</ele><time>2026-04-11T15:27:16.999Z</time></trkpt><trkpt lat="47.72999430682113" lon="-1.8264018163829505"><ele>17.0</ele><time>2026-04-11T15:27:17.999Z</time></trkpt><trkpt lat="47.729937950871246" lon="-1.8263333393306826"><ele>17.0</ele><time>2026-04-11T15:27:18.999Z</time></trkpt><trkpt lat="47.72990651082469" lon="-1.826194603536855"><ele>17.0</ele><time>2026-04-11T15:27:20.999Z</time></trkpt><trkpt lat="47.729846348689904" lon="-1.826112445975909"><ele>17.0</ele><time>2026-04-11T15:27:21.999Z</time></trkpt><trkpt lat="47.72980217182342" lon="-1.8260130413075228"><ele>17.0</ele><time>2026-04-11T15:27:22.999Z</time></trkpt><trkpt lat="47.729767928042314" lon="-1.8258984604521244"><ele>17.0</ele><time>2026-04-11T15:27:23.999Z</time></trkpt><trkpt lat="47.72972819311924" lon="-1.8257600188680911"><ele>16.8</ele><time>2026-04-11T15:27:24.999Z</time></trkpt><trkpt lat="47.729678503030875" lon="-1.8256380717345853"><ele>16.6</ele><time>2026-04-11T15:27:25.999Z</time></trkpt><trkpt lat="47.72961329324574" lon="-1.8255198374685289"><ele>16.400000000000002</ele><time>2026-04-11T15:27:26.999Z</time></trkpt><trkpt lat="47.729540664701204" lon="-1.8253888923008197"><ele>16.2</ele><time>2026-04-11T15:27:27.999Z</time></trkpt><trkpt lat="47.72946202845232" lon="-1.8252512542628785"><ele>16.0</ele><time>2026-04-11T15:27:28.998Z</time></trkpt><trkpt lat="47.729388704374955" lon="-1.825107918052923"><ele>16.0</ele><time>2026-04-11T15:27:29.998Z</time></trkpt><trkpt lat="47.72931859021397" lon="-1.8249755244697254"><ele>16.0</ele><time>2026-04-11T15:27:30.998Z</time></trkpt><trkpt lat="47.729263610506166" lon="-1.824872373985372"><ele>16.0</ele><time>2026-04-11T15:27:31.998Z</time></trkpt><trkpt lat="47.72920224609216" lon="-1.824774303020515"><ele>16.0</ele><time>2026-04-11T15:27:32.998Z</time></trkpt><trkpt lat="47.7291483727845" lon="-1.8246762016997156"><ele>16.0</ele><time>2026-04-11T15:27:34Z</time></trkpt><trkpt lat="47.729099100523946" lon="-1.8245865796579863"><ele>16.0</ele><time>2026-04-11T15:27:35Z</time></trkpt><trkpt lat="47.72903957388105" lon="-1.8244355160699515"><ele>16.0</ele><time>2026-04-11T15:27:37Z</time></trkpt><trkpt lat="47.729095950975214" lon="-1.824311644780318"><ele>16.0</ele><time>2026-04-11T15:27:38Z</time></trkpt><trkpt lat="47.72916180846188" lon="-1.8241958922688173"><ele>16.0</ele><time>2026-04-11T15:27:39Z</time></trkpt><trkpt lat="47.729217277716735" lon="-1.8240594712226985"><ele>16.0</ele><time>2026-04-11T15:27:40Z</time></trkpt><trkpt lat="47.72926035594143" lon="-1.823890162026759"><ele>16.0</ele><time>2026-04-11T15:27:41Z</time></trkpt><trkpt lat="47.72931574472756" lon="-1.8237490791792392"><ele>16.0</ele><time>2026-04-11T15:27:42Z</time></trkpt><trkpt lat="47.72935305200856" lon="-1.8236211761926147"><ele>16.0</ele><time>2026-04-11T15:27:43Z</time></trkpt><trkpt lat="47.72938542626498" lon="-1.8234901757615065"><ele>16.0</ele><time>2026-04-11T15:27:44Z</time></trkpt><trkpt lat="47.729426197841825" lon="-1.823355078226897"><ele>16.0</ele><time>2026-04-11T15:27:45Z</time></trkpt><trkpt lat="47.72946974661653" lon="-1.8232164214170827"><ele>16.25</ele><time>2026-04-11T15:27:46Z</time></trkpt><trkpt lat="47.72950181624933" lon="-1.8230588294861894"><ele>16.5</ele><time>2026-04-11T15:27:47Z</time></trkpt><trkpt lat="47.729527946414436" lon="-1.8229007008424456"><ele>16.75</ele><time>2026-04-11T15:27:48Z</time></trkpt><trkpt lat="47.72954478487567" lon="-1.8227259103071993"><ele>17.0</ele><time>2026-04-11T15:27:49Z</time></trkpt><trkpt lat="47.72956039200362" lon="-1.822544190946225"><ele>17.0</ele><time>2026-04-11T15:27:50Z</time></trkpt><trkpt lat="47.729577479363996" lon="-1.8223582445792428"><ele>17.0</ele><time>2026-04-11T15:27:51Z</time></trkpt><trkpt lat="47.72959053015808" lon="-1.8221536211630465"><ele>17.0</ele><time>2026-04-11T15:27:52Z</time></trkpt><trkpt lat="47.72961663779243" lon="-1.8219468182910856"><ele>17.0</ele><time>2026-04-11T15:27:53Z</time></trkpt><trkpt lat="47.72962584757953" lon="-1.8217049963568201"><ele>17.0</ele><time>2026-04-11T15:27:54Z</time></trkpt><trkpt lat="47.72964598779434" lon="-1.8214614864445426"><ele>17.0</ele><time>2026-04-11T15:27:55Z</time></trkpt><trkpt lat="47.72963200737501" lon="-1.821185185876063"><ele>17.0</ele><time>2026-04-11T15:27:56Z</time></trkpt><trkpt lat="47.7296154002965" lon="-1.82092317066013"><ele>17.333333333333336</ele><time>2026-04-11T15:27:57Z</time></trkpt><trkpt lat="47.72960041644696" lon="-1.8206719898321095"><ele>17.666666666666668</ele><time>2026-04-11T15:27:58Z</time></trkpt><trkpt lat="47.729584558143195" lon="-1.820420336120952"><ele>18.0</ele><time>2026-04-11T15:27:59Z</time></trkpt><trkpt lat="47.72955572165303" lon="-1.8201388891123769"><ele>18.666666666666668</ele><time>2026-04-11T15:28:00Z</time></trkpt><trkpt lat="47.72955587496193" lon="-1.819882772323238"><ele>19.333333333333336</ele><time>2026-04-11T15:28:01Z</time></trkpt><trkpt lat="47.729545803154245" lon="-1.8196317979667764"><ele>20.0</ele><time>2026-04-11T15:28:02Z</time></trkpt><trkpt lat="47.72953501984857" lon="-1.8193804357928962"><ele>20.0</ele><time>2026-04-11T15:28:03Z</time></trkpt><trkpt lat="47.7295199566492" lon="-1.8191432880971494"><ele>20.0</ele><time>2026-04-11T15:28:04Z</time></trkpt><trkpt lat="47.72951220057879" lon="-1.8189118349184008"><ele>20.0</ele><time>2026-04-11T15:28:05Z</time></trkpt><trkpt lat="47.729497309645225" lon="-1.8187062653690778"><ele>20.0</ele><time>2026-04-11T15:28:06Z</time></trkpt><trkpt lat="47.72949152890626" lon="-1.8185016309517807"><ele>20.0</ele><time>2026-04-11T15:28:07Z</time></trkpt><trkpt lat="47.72947847347424" lon="-1.8183380319491476"><ele>20.0</ele><time>2026-04-11T15:28:08Z</time></trkpt><trkpt lat="47.72946367858379" lon="-1.8181548268646652"><ele>20.0</ele><time>2026-04-11T15:28:09Z</time></trkpt><trkpt lat="47.729452685607065" lon="-1.8180444572205916"><ele>20.0</ele><time>2026-04-11T15:28:10Z</time></trkpt><trkpt lat="47.72944748199459" lon="-1.8179164726536083"><ele>20.0</ele><time>2026-04-11T15:28:11Z</time></trkpt><trkpt lat="47.729442533459455" lon="-1.8177944365522738"><ele>20.0</ele><time>2026-04-11T15:28:12Z</time></trkpt><trkpt lat="47.72943651590697" lon="-1.8176629837819893"><ele>20.0</ele><time>2026-04-11T15:28:13Z</time></trkpt><trkpt lat="47.72942809774438" lon="-1.8175390887369074"><ele>20.0</ele><time>2026-04-11T15:28:14Z</time></trkpt><trkpt lat="47.729416783985826" lon="-1.8174317172638685"><ele>20.0</ele><time>2026-04-11T15:28:15Z</time></trkpt><trkpt lat="47.72941480729611" lon="-1.817326846334573"><ele>20.0</ele><time>2026-04-11T15:28:16Z</time></trkpt><trkpt lat="47.729411196813224" lon="-1.8171996056607331"><ele>20.0</ele><time>2026-04-11T15:28:17Z</time></trkpt><trkpt lat="47.72940254679629" lon="-1.8170667254470285"><ele>20.0</ele><time>2026-04-11T15:28:18Z</time></trkpt><trkpt lat="47.72939931355262" lon="-1.8169570459579267"><ele>20.0</ele><time>2026-04-11T15:28:19Z</time></trkpt><trkpt lat="47.72938662674737" lon="-1.8168327127149186"><ele>20.0</ele><time>2026-04-11T15:28:20Z</time></trkpt><trkpt lat="47.72937829838778" lon="-1.8166794883336492"><ele>20.0</ele><time>2026-04-11T15:28:21Z</time></trkpt><trkpt lat="47.7293705480525" lon="-1.8165167889807265"><ele>20.0</ele><time>2026-04-11T15:28:22Z</time></trkpt><trkpt lat="47.72938056711403" lon="-1.8163273475597126"><ele>20.0</ele><time>2026-04-11T15:28:23Z</time></trkpt><trkpt lat="47.729397294968614" lon="-1.8160566345397449"><ele>20.0</ele><time>2026-04-11T15:28:24Z</time></trkpt><trkpt lat="47.7294235172746" lon="-1.815799224128529"><ele>20.0</ele><time>2026-04-11T15:28:25Z</time></trkpt><trkpt lat="47.72946465962378" lon="-1.8155277912523329"><ele>20.0</ele><time>2026-04-11T15:28:26Z</time></trkpt><trkpt lat="47.729508602715164" lon="-1.8152277906141419"><ele>20.0</ele><time>2026-04-11T15:28:27Z</time></trkpt><trkpt lat="47.72955549229102" lon="-1.8149527072532647"><ele>20.333333333333336</ele><time>2026-04-11T15:28:27.999Z</time></trkpt><trkpt lat="47.72960901281874" lon="-1.8146791130122646"><ele>20.666666666666668</ele><time>2026-04-11T15:28:28.999Z</time></trkpt><trkpt lat="47.729652812140934" lon="-1.8144041568038456"><ele>21.0</ele><time>2026-04-11T15:28:29.999Z</time></trkpt><trkpt lat="47.729700782976636" lon="-1.8141036961753128"><ele>21.333333333333332</ele><time>2026-04-11T15:28:30.999Z</time></trkpt><trkpt lat="47.729750269132495" lon="-1.8138156062086706"><ele>21.666666666666664</ele><time>2026-04-11T15:28:31.999Z</time></trkpt><trkpt lat="47.72979237014762" lon="-1.8135653298583887"><ele>22.0</ele><time>2026-04-11T15:28:32.999Z</time></trkpt><trkpt lat="47.72983336759894" lon="-1.8133301450919361"><ele>22.5</ele><time>2026-04-11T15:28:33.999Z</time></trkpt><trkpt lat="47.729866618151675" lon="-1.8131371158293461"><ele>23.0</ele><time>2026-04-11T15:28:34.999Z</time></trkpt><trkpt lat="47.72988828234945" lon="-1.8129345168228144"><ele>23.5</ele><time>2026-04-11T15:28:35.999Z</time></trkpt><trkpt lat="47.729893205693216" lon="-1.8127119656124908"><ele>24.0</ele><time>2026-04-11T15:28:36.999Z</time></trkpt><trkpt lat="47.72987075051498" lon="-1.8124702097156449"><ele>24.333333333333336</ele><time>2026-04-11T15:28:37.999Z</time></trkpt><trkpt lat="47.7297876115271" lon="-1.8122161835098052"><ele>24.666666666666668</ele><time>2026-04-11T15:28:38.999Z</time></trkpt><trkpt lat="47.72972601502453" lon="-1.8119474045360306"><ele>25.0</ele><time>2026-04-11T15:28:39.999Z</time></trkpt><trkpt lat="47.72965640212882" lon="-1.8117547862448737"><ele>25.0</ele><time>2026-04-11T15:28:40.999Z</time></trkpt><trkpt lat="47.729594669236484" lon="-1.8116214032302058"><ele>25.0</ele><time>2026-04-11T15:28:41.999Z</time></trkpt><trkpt lat="47.72954723913822" lon="-1.811530098453839"><ele>25.0</ele><time>2026-04-11T15:28:42.999Z</time></trkpt><trkpt lat="47.72950501520587" lon="-1.8114203115367495"><ele>25.0</ele><time>2026-04-11T15:28:44.999Z</time></trkpt><trkpt lat="47.729454990194014" lon="-1.811252974423397"><ele>25.0</ele><time>2026-04-11T15:28:46.999Z</time></trkpt><trkpt lat="47.72911412916692" lon="-1.8114866347655432"><ele>25.8</ele><time>2026-04-11T15:28:48.999Z</time></trkpt><trkpt lat="47.729064026119985" lon="-1.811630400875629"><ele>26.6</ele><time>2026-04-11T15:28:49.999Z</time></trkpt><trkpt lat="47.72899375044749" lon="-1.8117044572052412"><ele>27.4</ele><time>2026-04-11T15:28:50.999Z</time></trkpt><trkpt lat="47.72893230327669" lon="-1.811811723950487"><ele>28.2</ele><time>2026-04-11T15:28:51.999Z</time></trkpt><trkpt lat="47.728882225899284" lon="-1.8119110717804054"><ele>29.0</ele><time>2026-04-11T15:28:52.999Z</time></trkpt><trkpt lat="47.728829015978285" lon="-1.8120233047803773"><ele>29.0</ele><time>2026-04-11T15:28:53.999Z</time></trkpt><trkpt lat="47.72887006884497" lon="-1.8122201671073117"><ele>29.0</ele><time>2026-04-11T15:28:54.999Z</time></trkpt><trkpt lat="47.72885835153152" lon="-1.8124069906693279"><ele>29.0</ele><time>2026-04-11T15:28:55.999Z</time></trkpt><trkpt lat="47.72883704256441" lon="-1.812591740971555"><ele>29.0</ele><time>2026-04-11T15:28:56.999Z</time></trkpt><trkpt lat="47.72881081813526" lon="-1.8127837330979"><ele>28.25</ele><time>2026-04-11T15:28:57.999Z</time></trkpt><trkpt lat="47.728774769517884" lon="-1.8129700186382802"><ele>27.5</ele><time>2026-04-11T15:28:58.999Z</time></trkpt><trkpt lat="47.728748722037054" lon="-1.8131527508027507"><ele>26.75</ele><time>2026-04-11T15:28:59.999Z</time></trkpt><trkpt lat="47.72872098310236" lon="-1.8133194282090874"><ele>26.0</ele><time>2026-04-11T15:29:00.999Z</time></trkpt><trkpt lat="47.72869184801233" lon="-1.8134701871987715"><ele>25.75</ele><time>2026-04-11T15:29:01.999Z</time></trkpt><trkpt lat="47.72866320353536" lon="-1.8136593910149157"><ele>25.5</ele><time>2026-04-11T15:29:02.999Z</time></trkpt><trkpt lat="47.72862878798417" lon="-1.813854209927426"><ele>25.25</ele><time>2026-04-11T15:29:03.999Z</time></trkpt><trkpt lat="47.7285782573845" lon="-1.8140612783248073"><ele>25.0</ele><time>2026-04-11T15:29:04.999Z</time></trkpt><trkpt lat="47.728526494350746" lon="-1.8142644122781861"><ele>26.333333333333336</ele><time>2026-04-11T15:29:05.999Z</time></trkpt><trkpt lat="47.728508057232006" lon="-1.814510767261006"><ele>27.666666666666664</ele><time>2026-04-11T15:29:06.999Z</time></trkpt><trkpt lat="47.72845260628135" lon="-1.8147153521173567"><ele>29.0</ele><time>2026-04-11T15:29:07.999Z</time></trkpt><trkpt lat="47.72838207830943" lon="-1.814952614844479"><ele>28.333333333333332</ele><time>2026-04-11T15:29:08.999Z</time></trkpt><trkpt lat="47.72832323368597" lon="-1.8151808876729054"><ele>27.666666666666664</ele><time>2026-04-11T15:29:09.999Z</time></trkpt><trkpt lat="47.72825305985146" lon="-1.815409904692506"><ele>27.0</ele><time>2026-04-11T15:29:10.999Z</time></trkpt><trkpt lat="47.728193093929065" lon="-1.8156381989028936"><ele>27.0</ele><time>2026-04-11T15:29:11.999Z</time></trkpt><trkpt lat="47.72814926153943" lon="-1.815887193129968"><ele>27.0</ele><time>2026-04-11T15:29:12.999Z</time></trkpt><trkpt lat="47.728107322559644" lon="-1.816124815241713"><ele>27.0</ele><time>2026-04-11T15:29:13.999Z</time></trkpt><trkpt lat="47.7280714623985" lon="-1.816362173955987"><ele>26.5</ele><time>2026-04-11T15:29:14.999Z</time></trkpt><trkpt lat="47.728063620720356" lon="-1.8165862100712458"><ele>26.0</ele><time>2026-04-11T15:29:15.999Z</time></trkpt><trkpt lat="47.72803860205869" lon="-1.8167874187617545"><ele>25.5</ele><time>2026-04-11T15:29:16.999Z</time></trkpt><trkpt lat="47.72801101933763" lon="-1.8169665268901862"><ele>25.0</ele><time>2026-04-11T15:29:17.999Z</time></trkpt><trkpt lat="47.72800243148905" lon="-1.8171221180897827"><ele>24.8</ele><time>2026-04-11T15:29:18.999Z</time></trkpt><trkpt lat="47.72797907149162" lon="-1.8172744242393408"><ele>24.6</ele><time>2026-04-11T15:29:19.999Z</time></trkpt><trkpt lat="47.72795173520857" lon="-1.8174185688778763"><ele>24.4</ele><time>2026-04-11T15:29:20.999Z</time></trkpt><trkpt lat="47.727945473349074" lon="-1.8175368351235215"><ele>24.2</ele><time>2026-04-11T15:29:21.999Z</time></trkpt><trkpt lat="47.727877216321254" lon="-1.817703188139658"><ele>24.0</ele><time>2026-04-11T15:29:23.999Z</time></trkpt><trkpt lat="47.72782034804939" lon="-1.8177862019116546"><ele>23.799999999999997</ele><time>2026-04-11T15:29:24.999Z</time></trkpt><trkpt lat="47.7277462234523" lon="-1.817867232732039"><ele>23.599999999999998</ele><time>2026-04-11T15:29:25.999Z</time></trkpt><trkpt lat="47.72765227418931" lon="-1.8179439833730189"><ele>23.4</ele><time>2026-04-11T15:29:26.999Z</time></trkpt><trkpt lat="47.72756171851255" lon="-1.8179851216743264"><ele>23.2</ele><time>2026-04-11T15:29:27.999Z</time></trkpt><trkpt lat="47.72744210309765" lon="-1.817963072143369"><ele>23.0</ele><time>2026-04-11T15:29:28.999Z</time></trkpt><trkpt lat="47.72736935512939" lon="-1.8179740958425672"><ele>23.833333333333336</ele><time>2026-04-11T15:29:29.999Z</time></trkpt><trkpt lat="47.72727637552063" lon="-1.817988885715297"><ele>24.666666666666668</ele><time>2026-04-11T15:29:30.999Z</time></trkpt><trkpt lat="47.727196998793055" lon="-1.818002917832121"><ele>25.5</ele><time>2026-04-11T15:29:31.999Z</time></trkpt><trkpt lat="47.72712988262452" lon="-1.8179907955722567"><ele>26.333333333333336</ele><time>2026-04-11T15:29:32.999Z</time></trkpt><trkpt lat="47.72706168047685" lon="-1.8180229057588888"><ele>27.166666666666668</ele><time>2026-04-11T15:29:34.999Z</time></trkpt><trkpt lat="47.727008266793064" lon="-1.818163446709414"><ele>28.0</ele><time>2026-04-11T15:29:52Z</time></trkpt><trkpt lat="47.726965503948726" lon="-1.818250127296774"><ele>28.000000000000004</ele><time>2026-04-11T15:29:53Z</time></trkpt><trkpt lat="47.726894552057374" lon="-1.818375561785215"><ele>28.0</ele><time>2026-04-11T15:29:55Z</time></trkpt><trkpt lat="47.72686630288687" lon="-1.8184681334603974"><ele>28.0</ele><time>2026-04-11T15:29:56Z</time></trkpt><trkpt lat="47.72685004540753" lon="-1.8185668428684159"><ele>28.0</ele><time>2026-04-11T15:29:57Z</time></trkpt><trkpt lat="47.72683867373496" lon="-1.8186590796712638"><ele>28.000000000000004</ele><time>2026-04-11T15:29:58Z</time></trkpt><trkpt lat="47.72683636295555" lon="-1.8188662124843797"><ele>28.0</ele><time>2026-04-11T15:30:00Z</time></trkpt><trkpt lat="47.72685424066038" lon="-1.819051609703018"><ele>27.799999999999997</ele><time>2026-04-11T15:30:01Z</time></trkpt><trkpt lat="47.726870285604726" lon="-1.8192068900983995"><ele>27.599999999999998</ele><time>2026-04-11T15:30:02Z</time></trkpt><trkpt lat="47.72688705147709" lon="-1.8193916405740516"><ele>27.400000000000002</ele><time>2026-04-11T15:30:03Z</time></trkpt><trkpt lat="47.726898312606444" lon="-1.8195498459902641"><ele>27.200000000000003</ele><time>2026-04-11T15:30:04Z</time></trkpt><trkpt lat="47.72690073885208" lon="-1.8196802940443777"><ele>27.0</ele><time>2026-04-11T15:30:05Z</time></trkpt><trkpt lat="47.72689362096494" lon="-1.8197961719057796"><ele>26.25</ele><time>2026-04-11T15:30:06Z</time></trkpt><trkpt lat="47.72667518184959" lon="-1.8196758058075766"><ele>25.5</ele><time>2026-04-11T15:30:12Z</time></trkpt><trkpt lat="47.726628199918935" lon="-1.819602648923915"><ele>24.75</ele><time>2026-04-11T15:30:13Z</time></trkpt><trkpt lat="47.726550507961896" lon="-1.819439878133473"><ele>24.0</ele><time>2026-04-11T15:30:15Z</time></trkpt><trkpt lat="47.72651885351212" lon="-1.819356294160117"><ele>24.6</ele><time>2026-04-11T15:30:16Z</time></trkpt><trkpt lat="47.72646758313051" lon="-1.8192761797573203"><ele>25.2</ele><time>2026-04-11T15:30:17Z</time></trkpt><trkpt lat="47.72642680887006" lon="-1.8191704293079116"><ele>25.800000000000004</ele><time>2026-04-11T15:30:18Z</time></trkpt><trkpt lat="47.726366397200046" lon="-1.8190553305117587"><ele>26.400000000000002</ele><time>2026-04-11T15:30:19Z</time></trkpt><trkpt lat="47.7262903597277" lon="-1.8189075179912946"><ele>27.0</ele><time>2026-04-11T15:30:20Z</time></trkpt><trkpt lat="47.72624192318347" lon="-1.8188056893129323"><ele>27.0</ele><time>2026-04-11T15:30:21Z</time></trkpt><trkpt lat="47.726197757566254" lon="-1.8186647930993711"><ele>27.0</ele><time>2026-04-11T15:30:22Z</time></trkpt><trkpt lat="47.72615604162553" lon="-1.81851203687973"><ele>27.0</ele><time>2026-04-11T15:30:23Z</time></trkpt><trkpt lat="47.72611698179447" lon="-1.818329088929363"><ele>27.0</ele><time>2026-04-11T15:30:24Z</time></trkpt><trkpt lat="47.72609801939372" lon="-1.8181405150653607"><ele>28.25</ele><time>2026-04-11T15:30:25Z</time></trkpt><trkpt lat="47.72610196202386" lon="-1.817946826558385"><ele>29.5</ele><time>2026-04-11T15:30:26Z</time></trkpt><trkpt lat="47.726094374009215" lon="-1.8177548734374807"><ele>30.75</ele><time>2026-04-11T15:30:27Z</time></trkpt><trkpt lat="47.726090122534124" lon="-1.8175613366953176"><ele>32.0</ele><time>2026-04-11T15:30:28Z</time></trkpt><trkpt lat="47.726095444572735" lon="-1.817342312665162"><ele>33.0</ele><time>2026-04-11T15:30:29Z</time></trkpt><trkpt lat="47.72610499923322" lon="-1.8170944289231807"><ele>34.0</ele><time>2026-04-11T15:30:30Z</time></trkpt><trkpt lat="47.72610198281147" lon="-1.8168788930490027"><ele>35.0</ele><time>2026-04-11T15:30:30.999Z</time></trkpt><trkpt lat="47.72609547939571" lon="-1.8166623627296952"><ele>36.33333333333333</ele><time>2026-04-11T15:30:31.999Z</time></trkpt><trkpt lat="47.72610249679267" lon="-1.8164251738097914"><ele>37.666666666666664</ele><time>2026-04-11T15:30:32.999Z</time></trkpt><trkpt lat="47.72610062093835" lon="-1.816204885828305"><ele>39.0</ele><time>2026-04-11T15:30:33.999Z</time></trkpt><trkpt lat="47.72608573513649" lon="-1.8159624989222347"><ele>39.333333333333336</ele><time>2026-04-11T15:30:34.999Z</time></trkpt><trkpt lat="47.72608398977944" lon="-1.8157282595700914"><ele>39.66666666666667</ele><time>2026-04-11T15:30:35.999Z</time></trkpt><trkpt lat="47.72608151836307" lon="-1.815502592108955"><ele>40.0</ele><time>2026-04-11T15:30:36.999Z</time></trkpt><trkpt lat="47.726074946482775" lon="-1.815266406437397"><ele>41.0</ele><time>2026-04-11T15:30:37.999Z</time></trkpt><trkpt lat="47.72607187759488" lon="-1.8150181534296617"><ele>42.0</ele><time>2026-04-11T15:30:38.999Z</time></trkpt><trkpt lat="47.72606818760183" lon="-1.8147627101986037"><ele>43.0</ele><time>2026-04-11T15:30:39.999Z</time></trkpt><trkpt lat="47.72608284496704" lon="-1.8144860895874988"><ele>42.66666666666667</ele><time>2026-04-11T15:30:40.999Z</time></trkpt><trkpt lat="47.726094732826084" lon="-1.8142060331584098"><ele>42.333333333333336</ele><time>2026-04-11T15:30:41.999Z</time></trkpt><trkpt lat="47.726106644078094" lon="-1.8139240430725025"><ele>42.0</ele><time>2026-04-11T15:30:42.999Z</time></trkpt><trkpt lat="47.726123731569494" lon="-1.8136701740102192"><ele>42.333333333333336</ele><time>2026-04-11T15:30:43.999Z</time></trkpt><trkpt lat="47.72613562097809" lon="-1.8133941929587798"><ele>42.66666666666667</ele><time>2026-04-11T15:30:44.999Z</time></trkpt><trkpt lat="47.72614739817586" lon="-1.8131208165134596"><ele>43.0</ele><time>2026-04-11T15:30:45.999Z</time></trkpt><trkpt lat="47.72617367383447" lon="-1.812850135491811"><ele>43.0</ele><time>2026-04-11T15:30:46.999Z</time></trkpt><trkpt lat="47.72618531455652" lon="-1.8125710267173807"><ele>43.0</ele><time>2026-04-11T15:30:47.999Z</time></trkpt><trkpt lat="47.72619709902033" lon="-1.8122962662876416"><ele>43.0</ele><time>2026-04-11T15:30:48.999Z</time></trkpt><trkpt lat="47.72620787464795" lon="-1.8120262309477058"><ele>43.333333333333336</ele><time>2026-04-11T15:30:49.999Z</time></trkpt><trkpt lat="47.72621723547542" lon="-1.811759532749431"><ele>43.666666666666664</ele><time>2026-04-11T15:30:50.999Z</time></trkpt><trkpt lat="47.72622421089645" lon="-1.8115202866130133"><ele>44.0</ele><time>2026-04-11T15:30:51.999Z</time></trkpt><trkpt lat="47.72622473112434" lon="-1.8113001553306536"><ele>44.0</ele><time>2026-04-11T15:30:52.999Z</time></trkpt><trkpt lat="47.726209860182664" lon="-1.811099597502369"><ele>44.0</ele><time>2026-04-11T15:30:53.999Z</time></trkpt><trkpt lat="47.726160178137256" lon="-1.8108794774082406"><ele>44.0</ele><time>2026-04-11T15:30:54.999Z</time></trkpt><trkpt lat="47.72605687000192" lon="-1.8106928288006108"><ele>45.666666666666664</ele><time>2026-04-11T15:30:55.999Z</time></trkpt><trkpt lat="47.725944312868904" lon="-1.8105087071650512"><ele>47.33333333333333</ele><time>2026-04-11T15:30:56.999Z</time></trkpt><trkpt lat="47.72582497007271" lon="-1.8103156504735904"><ele>49.0</ele><time>2026-04-11T15:30:57.999Z</time></trkpt><trkpt lat="47.72569603878681" lon="-1.8101002505902428"><ele>50.0</ele><time>2026-04-11T15:30:58.999Z</time></trkpt><trkpt lat="47.725572551958116" lon="-1.8098931935326514"><ele>51.0</ele><time>2026-04-11T15:30:59.999Z</time></trkpt><trkpt lat="47.725435784134376" lon="-1.8096660167730383"><ele>52.0</ele><time>2026-04-11T15:31:00.999Z</time></trkpt><trkpt lat="47.72531961932308" lon="-1.8094415340497376"><ele>52.666666666666664</ele><time>2026-04-11T15:31:01.999Z</time></trkpt><trkpt lat="47.72519246663164" lon="-1.8092363909319178"><ele>53.33333333333333</ele><time>2026-04-11T15:31:02.999Z</time></trkpt><trkpt lat="47.72506559296052" lon="-1.8090511142833043"><ele>54.0</ele><time>2026-04-11T15:31:03.999Z</time></trkpt><trkpt lat="47.724960688652494" lon="-1.8088774290426504"><ele>54.0</ele><time>2026-04-11T15:31:04.999Z</time></trkpt><trkpt lat="47.724848596643895" lon="-1.8086945641856513"><ele>54.0</ele><time>2026-04-11T15:31:05.999Z</time></trkpt><trkpt lat="47.72474241913671" lon="-1.8085213478198223"><ele>54.0</ele><time>2026-04-11T15:31:06.999Z</time></trkpt><trkpt lat="47.7246385908127" lon="-1.808342859959018"><ele>54.0</ele><time>2026-04-11T15:31:07.999Z</time></trkpt><trkpt lat="47.72453044099801" lon="-1.8081599884852104"><ele>54.0</ele><time>2026-04-11T15:31:08.999Z</time></trkpt><trkpt lat="47.724411298038135" lon="-1.8079620612641611"><ele>54.0</ele><time>2026-04-11T15:31:09.999Z</time></trkpt><trkpt lat="47.724285539778975" lon="-1.8077531451519502"><ele>53.0</ele><time>2026-04-11T15:31:10.999Z</time></trkpt><trkpt lat="47.724162083082" lon="-1.8075472990851214"><ele>52.0</ele><time>2026-04-11T15:31:11.999Z</time></trkpt><trkpt lat="47.72404312193787" lon="-1.807346842003019"><ele>51.0</ele><time>2026-04-11T15:31:12.999Z</time></trkpt><trkpt lat="47.723913196962506" lon="-1.8071279098060065"><ele>51.0</ele><time>2026-04-11T15:31:13.999Z</time></trkpt><trkpt lat="47.723788433780854" lon="-1.8069176755456389"><ele>51.0</ele><time>2026-04-11T15:31:14.999Z</time></trkpt><trkpt lat="47.7236626027691" lon="-1.8067056420463823"><ele>51.0</ele><time>2026-04-11T15:31:15.999Z</time></trkpt><trkpt lat="47.723538099509526" lon="-1.8064958460445655"><ele>51.0</ele><time>2026-04-11T15:31:16.999Z</time></trkpt><trkpt lat="47.72340942457218" lon="-1.8062789055958401"><ele>51.0</ele><time>2026-04-11T15:31:17.999Z</time></trkpt><trkpt lat="47.723277744335206" lon="-1.8060568447305922"><ele>51.0</ele><time>2026-04-11T15:31:18.999Z</time></trkpt><trkpt lat="47.72314780514717" lon="-1.80583772020486"><ele>51.0</ele><time>2026-04-11T15:31:19.999Z</time></trkpt><trkpt lat="47.723016979982056" lon="-1.805619009694489"><ele>51.0</ele><time>2026-04-11T15:31:20.999Z</time></trkpt><trkpt lat="47.722886325192796" lon="-1.8054029783386902"><ele>51.0</ele><time>2026-04-11T15:31:21.999Z</time></trkpt><trkpt lat="47.72275540646785" lon="-1.805186510659001"><ele>52.66666666666667</ele><time>2026-04-11T15:31:22.999Z</time></trkpt><trkpt lat="47.72263054243867" lon="-1.8049800541134284"><ele>54.333333333333336</ele><time>2026-04-11T15:31:23.999Z</time></trkpt><trkpt lat="47.722499935802105" lon="-1.8047630104065848"><ele>56.0</ele><time>2026-04-11T15:31:24.999Z</time></trkpt><trkpt lat="47.72237031842016" lon="-1.804541649104805"><ele>56.0</ele><time>2026-04-11T15:31:25.999Z</time></trkpt><trkpt lat="47.722245910642975" lon="-1.8043291844959737"><ele>56.0</ele><time>2026-04-11T15:31:26.999Z</time></trkpt><trkpt lat="47.72213932921096" lon="-1.8041379044381374"><ele>56.0</ele><time>2026-04-11T15:31:27.999Z</time></trkpt><trkpt lat="47.72208408751585" lon="-1.8040087847259323"><ele>56.0</ele><time>2026-04-11T15:31:28.999Z</time></trkpt><trkpt lat="47.72199762087695" lon="-1.8038194109258847"><ele>56.0</ele><time>2026-04-11T15:31:29.999Z</time></trkpt><trkpt lat="47.721917633138126" lon="-1.8035972126485298"><ele>56.0</ele><time>2026-04-11T15:31:30.999Z</time></trkpt><trkpt lat="47.7218179153721" lon="-1.803384513606613"><ele>55.333333333333336</ele><time>2026-04-11T15:31:31.999Z</time></trkpt><trkpt lat="47.72172417467799" lon="-1.8031848418895318"><ele>54.66666666666667</ele><time>2026-04-11T15:31:32.999Z</time></trkpt><trkpt lat="47.721648723927125" lon="-1.802967790778055"><ele>54.0</ele><time>2026-04-11T15:31:33.999Z</time></trkpt><trkpt lat="47.72156093850242" lon="-1.8027577331131417"><ele>54.0</ele><time>2026-04-11T15:31:34.999Z</time></trkpt><trkpt lat="47.72149122794869" lon="-1.8025596744433192"><ele>54.0</ele><time>2026-04-11T15:31:35.998Z</time></trkpt><trkpt lat="47.72141974424513" lon="-1.8023664309535958"><ele>54.0</ele><time>2026-04-11T15:31:36.998Z</time></trkpt><trkpt lat="47.721337243545065" lon="-1.8021816142876679"><ele>54.0</ele><time>2026-04-11T15:31:37.998Z</time></trkpt><trkpt lat="47.72126035473839" lon="-1.8020080339804145"><ele>54.0</ele><time>2026-04-11T15:31:38.998Z</time></trkpt><trkpt lat="47.72118564557006" lon="-1.801835499806463"><ele>54.0</ele><time>2026-04-11T15:31:39.998Z</time></trkpt><trkpt lat="47.7211153984778" lon="-1.8016634331274843"><ele>54.0</ele><time>2026-04-11T15:31:40.998Z</time></trkpt><trkpt lat="47.72104822994591" lon="-1.801484333229196"><ele>54.0</ele><time>2026-04-11T15:31:41.998Z</time></trkpt><trkpt lat="47.7209692467259" lon="-1.801296494738633"><ele>52.66666666666667</ele><time>2026-04-11T15:31:42.998Z</time></trkpt><trkpt lat="47.72088570542388" lon="-1.8011034887637103"><ele>51.333333333333336</ele><time>2026-04-11T15:31:43.998Z</time></trkpt><trkpt lat="47.72079087145399" lon="-1.8009219868885562"><ele>50.0</ele><time>2026-04-11T15:31:44.998Z</time></trkpt><trkpt lat="47.720680374391" lon="-1.800736088024591"><ele>49.0</ele><time>2026-04-11T15:31:46Z</time></trkpt><trkpt lat="47.72057481197788" lon="-1.8005659369572202"><ele>48.0</ele><time>2026-04-11T15:31:47Z</time></trkpt><trkpt lat="47.72044773726552" lon="-1.8003703436595995"><ele>47.0</ele><time>2026-04-11T15:31:48Z</time></trkpt><trkpt lat="47.72030548609224" lon="-1.800164089228093"><ele>45.0</ele><time>2026-04-11T15:31:49Z</time></trkpt><trkpt lat="47.720174631942584" lon="-1.7999973616693306"><ele>43.0</ele><time>2026-04-11T15:31:50Z</time></trkpt><trkpt lat="47.7200492041249" lon="-1.799866476973053"><ele>41.0</ele><time>2026-04-11T15:31:51Z</time></trkpt><trkpt lat="47.719929136162555" lon="-1.7997354859043382"><ele>41.0</ele><time>2026-04-11T15:31:52Z</time></trkpt><trkpt lat="47.71982909706607" lon="-1.7996052151376098"><ele>41.0</ele><time>2026-04-11T15:31:53Z</time></trkpt><trkpt lat="47.71972372814951" lon="-1.7994831935357603"><ele>41.0</ele><time>2026-04-11T15:31:54Z</time></trkpt><trkpt lat="47.719628178621285" lon="-1.7993660543176495"><ele>41.0</ele><time>2026-04-11T15:31:55Z</time></trkpt><trkpt lat="47.71953425392591" lon="-1.7992528447399585"><ele>39.75</ele><time>2026-04-11T15:31:56Z</time></trkpt><trkpt lat="47.71943435744944" lon="-1.79914477150039"><ele>38.5</ele><time>2026-04-11T15:31:57Z</time></trkpt><trkpt lat="47.71934117626308" lon="-1.7990277519747961"><ele>37.25</ele><time>2026-04-11T15:31:58Z</time></trkpt><trkpt lat="47.719228058951096" lon="-1.7989024824432793"><ele>36.0</ele><time>2026-04-11T15:31:59Z</time></trkpt><trkpt lat="47.719119749253586" lon="-1.798768657486993"><ele>35.0</ele><time>2026-04-11T15:32:00Z</time></trkpt><trkpt lat="47.718999649455185" lon="-1.798635366928674"><ele>34.0</ele><time>2026-04-11T15:32:01Z</time></trkpt><trkpt lat="47.71888055072908" lon="-1.798492932979725"><ele>33.0</ele><time>2026-04-11T15:32:02Z</time></trkpt><trkpt lat="47.71876084883281" lon="-1.7983457038549213"><ele>32.666666666666664</ele><time>2026-04-11T15:32:03Z</time></trkpt><trkpt lat="47.718623558141765" lon="-1.798188514089424"><ele>32.33333333333333</ele><time>2026-04-11T15:32:04Z</time></trkpt><trkpt lat="47.71849018135743" lon="-1.7980415686550355"><ele>32.0</ele><time>2026-04-11T15:32:05Z</time></trkpt><trkpt lat="47.71835869058905" lon="-1.7978995600772167"><ele>31.666666666666664</ele><time>2026-04-11T15:32:06Z</time></trkpt><trkpt lat="47.71822481022253" lon="-1.7977615626135626"><ele>31.333333333333336</ele><time>2026-04-11T15:32:07Z</time></trkpt><trkpt lat="47.71808170030311" lon="-1.797577303668197"><ele>31.0</ele><time>2026-04-11T15:32:08Z</time></trkpt><trkpt lat="47.71796371449504" lon="-1.7974185038210624"><ele>30.5</ele><time>2026-04-11T15:32:09Z</time></trkpt><trkpt lat="47.71784207088605" lon="-1.797296488833088"><ele>30.0</ele><time>2026-04-11T15:32:10Z</time></trkpt><trkpt lat="47.717731893152525" lon="-1.7971746227336993"><ele>29.5</ele><time>2026-04-11T15:32:11Z</time></trkpt><trkpt lat="47.717641516773675" lon="-1.797060793441304"><ele>29.0</ele><time>2026-04-11T15:32:12Z</time></trkpt><trkpt lat="47.71754994826203" lon="-1.7969382212019498"><ele>28.2</ele><time>2026-04-11T15:32:13Z</time></trkpt><trkpt lat="47.71746339010575" lon="-1.7968347540704244"><ele>27.4</ele><time>2026-04-11T15:32:14Z</time></trkpt><trkpt lat="47.717377719321235" lon="-1.7967447407462647"><ele>26.6</ele><time>2026-04-11T15:32:15Z</time></trkpt><trkpt lat="47.71730533585902" lon="-1.7966544730409928"><ele>25.8</ele><time>2026-04-11T15:32:16Z</time></trkpt><trkpt lat="47.71724576595944" lon="-1.7965863373977649"><ele>25.0</ele><time>2026-04-11T15:32:17Z</time></trkpt><trkpt lat="47.717187492664" lon="-1.7965152002675318"><ele>25.000000000000004</ele><time>2026-04-11T15:32:18Z</time></trkpt><trkpt lat="47.717133368251396" lon="-1.7964490052624706"><ele>25.0</ele><time>2026-04-11T15:32:19Z</time></trkpt><trkpt lat="47.7170454551997" lon="-1.7963527115018922"><ele>25.0</ele><time>2026-04-11T15:32:21Z</time></trkpt><trkpt lat="47.71697399239619" lon="-1.7962741017889023"><ele>25.0</ele><time>2026-04-11T15:32:23Z</time></trkpt><trkpt lat="47.716918388110024" lon="-1.7962110584514734"><ele>25.000000000000004</ele><time>2026-04-11T15:32:25Z</time></trkpt><trkpt lat="47.7168627836867" lon="-1.7961369248882617"><ele>25.0</ele><time>2026-04-11T15:32:27Z</time></trkpt><trkpt lat="47.71677219343977" lon="-1.796026132389981"><ele>24.75</ele><time>2026-04-11T15:32:29Z</time></trkpt><trkpt lat="47.71671601535333" lon="-1.795954717303031"><ele>24.5</ele><time>2026-04-11T15:32:30Z</time></trkpt><trkpt lat="47.7166506733595" lon="-1.795904889295243"><ele>24.25</ele><time>2026-04-11T15:32:31Z</time></trkpt><trkpt lat="47.7165690089158" lon="-1.7958098734731902"><ele>24.0</ele><time>2026-04-11T15:32:33Z</time></trkpt><trkpt lat="47.71669905689955" lon="-1.7955435745879909"><ele>24.0</ele><time>2026-04-11T15:34:11Z</time></trkpt><trkpt lat="47.71671039089368" lon="-1.7953941863397633"><ele>24.0</ele><time>2026-04-11T15:34:12Z</time></trkpt><trkpt lat="47.716728166443154" lon="-1.795298889744009"><ele>24.0</ele><time>2026-04-11T15:34:13Z</time></trkpt><trkpt lat="47.71675858485479" lon="-1.7951666435241236"><ele>24.0</ele><time>2026-04-11T15:34:14Z</time></trkpt><trkpt lat="47.71678129678414" lon="-1.7949948830572837"><ele>24.0</ele><time>2026-04-11T15:34:15Z</time></trkpt><trkpt lat="47.71680842118883" lon="-1.7947995485583867"><ele>23.75</ele><time>2026-04-11T15:34:16Z</time></trkpt><trkpt lat="47.7168452476103" lon="-1.794630985981987"><ele>23.5</ele><time>2026-04-11T15:34:17Z</time></trkpt><trkpt lat="47.71685125264584" lon="-1.794409886431913"><ele>23.25</ele><time>2026-04-11T15:34:18Z</time></trkpt><trkpt lat="47.71684777122112" lon="-1.7941604489314675"><ele>23.0</ele><time>2026-04-11T15:34:19Z</time></trkpt><trkpt lat="47.716841775958116" lon="-1.7939548490800892"><ele>22.5</ele><time>2026-04-11T15:34:20Z</time></trkpt><trkpt lat="47.716798655000645" lon="-1.7937581366230702"><ele>22.0</ele><time>2026-04-11T15:34:21Z</time></trkpt><trkpt lat="47.716794878540455" lon="-1.7935975602466265"><ele>21.5</ele><time>2026-04-11T15:34:22Z</time></trkpt><trkpt lat="47.71680161632356" lon="-1.7934326787464503"><ele>21.0</ele><time>2026-04-11T15:34:23Z</time></trkpt><trkpt lat="47.71683230784532" lon="-1.793257606502043"><ele>21.0</ele><time>2026-04-11T15:34:24Z</time></trkpt><trkpt lat="47.716867794719334" lon="-1.7931343253842806"><ele>21.0</ele><time>2026-04-11T15:34:25Z</time></trkpt><trkpt lat="47.716903273823036" lon="-1.7930263222405667"><ele>21.0</ele><time>2026-04-11T15:34:26Z</time></trkpt><trkpt lat="47.71695597003219" lon="-1.7928825488664153"><ele>21.0</ele><time>2026-04-11T15:34:28Z</time></trkpt><trkpt lat="47.71699074027" lon="-1.7927855921052482"><ele>21.0</ele><time>2026-04-11T15:34:29Z</time></trkpt><trkpt lat="47.71703829820988" lon="-1.7926675262109766"><ele>21.0</ele><time>2026-04-11T15:34:31Z</time></trkpt><trkpt lat="47.71708205885528" lon="-1.7925366144008743"><ele>21.166666666666668</ele><time>2026-04-11T15:35:37.999Z</time></trkpt><trkpt lat="47.71712652055279" lon="-1.7924600353179712"><ele>21.333333333333332</ele><time>2026-04-11T15:35:38.999Z</time></trkpt><trkpt lat="47.71716560769879" lon="-1.792367888202376"><ele>21.5</ele><time>2026-04-11T15:35:39.999Z</time></trkpt><trkpt lat="47.71720457972939" lon="-1.7922830139367263"><ele>21.666666666666664</ele><time>2026-04-11T15:35:40.999Z</time></trkpt><trkpt lat="47.717260393823324" lon="-1.7921754021651521"><ele>21.833333333333332</ele><time>2026-04-11T15:35:41.998Z</time></trkpt><trkpt lat="47.7173355087988" lon="-1.792047786299627"><ele>22.0</ele><time>2026-04-11T15:35:42.998Z</time></trkpt><trkpt lat="47.71742293245316" lon="-1.7919163732014658"><ele>22.5</ele><time>2026-04-11T15:35:43.998Z</time></trkpt><trkpt lat="47.71751489722909" lon="-1.7918122558373912"><ele>23.0</ele><time>2026-04-11T15:35:44.998Z</time></trkpt><trkpt lat="47.71761928047701" lon="-1.7917083839242713"><ele>23.5</ele><time>2026-04-11T15:35:45.998Z</time></trkpt><trkpt lat="47.71775423311135" lon="-1.7916096528435652"><ele>24.0</ele><time>2026-04-11T15:35:46.998Z</time></trkpt><trkpt lat="47.71789985241976" lon="-1.7915521647134496"><ele>24.6</ele><time>2026-04-11T15:35:47.998Z</time></trkpt><trkpt lat="47.71802884297101" lon="-1.7915613579850918"><ele>25.2</ele><time>2026-04-11T15:35:48.998Z</time></trkpt><trkpt lat="47.71814038387637" lon="-1.7915611452419091"><ele>25.800000000000004</ele><time>2026-04-11T15:35:49.998Z</time></trkpt><trkpt lat="47.71826065097657" lon="-1.79157293081575"><ele>26.400000000000002</ele><time>2026-04-11T15:35:50.998Z</time></trkpt><trkpt lat="47.71834125663577" lon="-1.791536527124228"><ele>27.0</ele><time>2026-04-11T15:35:51.998Z</time></trkpt><trkpt lat="47.71840292130567" lon="-1.791467244241436"><ele>27.0</ele><time>2026-04-11T15:35:52.998Z</time></trkpt><trkpt lat="47.718446550816964" lon="-1.791349756286587"><ele>27.0</ele><time>2026-04-11T15:35:53.998Z</time></trkpt><trkpt lat="47.718455773872265" lon="-1.7911769987218857"><ele>27.0</ele><time>2026-04-11T15:35:54.998Z</time></trkpt><trkpt lat="47.71848151946923" lon="-1.7909515227410606"><ele>27.0</ele><time>2026-04-11T15:35:55.998Z</time></trkpt><trkpt lat="47.71849304543796" lon="-1.7907341236308325"><ele>27.25</ele><time>2026-04-11T15:35:56.998Z</time></trkpt><trkpt lat="47.71850362459245" lon="-1.790549620252952"><ele>27.5</ele><time>2026-04-11T15:35:58Z</time></trkpt><trkpt lat="47.7185145769732" lon="-1.790358608123593"><ele>27.75</ele><time>2026-04-11T15:35:59Z</time></trkpt><trkpt lat="47.71852532477108" lon="-1.7901711644527598"><ele>28.0</ele><time>2026-04-11T15:36:00Z</time></trkpt><trkpt lat="47.71853655145754" lon="-1.7899893296587357"><ele>28.0</ele><time>2026-04-11T15:36:01Z</time></trkpt><trkpt lat="47.71855079657658" lon="-1.7897588077393494"><ele>28.0</ele><time>2026-04-11T15:36:02Z</time></trkpt><trkpt lat="47.718549378323125" lon="-1.7895447623147915"><ele>28.0</ele><time>2026-04-11T15:36:03Z</time></trkpt><trkpt lat="47.718580753709894" lon="-1.7893087931741165"><ele>29.0</ele><time>2026-04-11T15:36:04Z</time></trkpt><trkpt lat="47.718607878492755" lon="-1.7890519084163363"><ele>30.0</ele><time>2026-04-11T15:36:05Z</time></trkpt><trkpt lat="47.718643978200426" lon="-1.7887684042500278"><ele>31.0</ele><time>2026-04-11T15:36:06Z</time></trkpt><trkpt lat="47.71866124309708" lon="-1.788502496019032"><ele>31.333333333333336</ele><time>2026-04-11T15:36:07Z</time></trkpt><trkpt lat="47.718698367866764" lon="-1.7882128280543257"><ele>31.666666666666664</ele><time>2026-04-11T15:36:08Z</time></trkpt><trkpt lat="47.71875405236954" lon="-1.7878828639543216"><ele>32.0</ele><time>2026-04-11T15:36:09Z</time></trkpt><trkpt lat="47.71881833034645" lon="-1.7875502733251563"><ele>32.33333333333333</ele><time>2026-04-11T15:36:10Z</time></trkpt><trkpt lat="47.71887585429674" lon="-1.7872115350376767"><ele>32.666666666666664</ele><time>2026-04-11T15:36:11Z</time></trkpt><trkpt lat="47.71891539641818" lon="-1.7869642172626543"><ele>33.0</ele><time>2026-04-11T15:36:12Z</time></trkpt><trkpt lat="47.71894345998694" lon="-1.7867447902329268"><ele>33.0</ele><time>2026-04-11T15:36:13Z</time></trkpt><trkpt lat="47.71897749652387" lon="-1.7864813832369038"><ele>33.0</ele><time>2026-04-11T15:36:14Z</time></trkpt><trkpt lat="47.71904071465755" lon="-1.7862024865635842"><ele>33.0</ele><time>2026-04-11T15:36:15Z</time></trkpt><trkpt lat="47.71912654539724" lon="-1.7859478347947704"><ele>33.5</ele><time>2026-04-11T15:36:16Z</time></trkpt><trkpt lat="47.719214763857686" lon="-1.7857021501977426"><ele>34.0</ele><time>2026-04-11T15:36:17Z</time></trkpt><trkpt lat="47.71927090459953" lon="-1.7855373725791324"><ele>34.5</ele><time>2026-04-11T15:36:18Z</time></trkpt><trkpt lat="47.719327481280594" lon="-1.785379969401463"><ele>35.0</ele><time>2026-04-11T15:36:19Z</time></trkpt><trkpt lat="47.71939016828923" lon="-1.7852353664170981"><ele>35.75</ele><time>2026-04-11T15:36:20Z</time></trkpt><trkpt lat="47.71945103160791" lon="-1.7851192916795482"><ele>36.5</ele><time>2026-04-11T15:36:21Z</time></trkpt><trkpt lat="47.71954177513178" lon="-1.7850012410521285"><ele>37.25</ele><time>2026-04-11T15:36:22Z</time></trkpt><trkpt lat="47.719671593957855" lon="-1.7849344119219281"><ele>38.0</ele><time>2026-04-11T15:36:23Z</time></trkpt><trkpt lat="47.71980147534351" lon="-1.7849192488059835"><ele>38.0</ele><time>2026-04-11T15:36:24Z</time></trkpt><trkpt lat="47.71992637571092" lon="-1.7849825882702188"><ele>38.0</ele><time>2026-04-11T15:36:25Z</time></trkpt><trkpt lat="47.72006530822523" lon="-1.7850431876504993"><ele>38.0</ele><time>2026-04-11T15:36:26Z</time></trkpt><trkpt lat="47.72021570140409" lon="-1.7851063431643532"><ele>38.0</ele><time>2026-04-11T15:36:27Z</time></trkpt><trkpt lat="47.7203290405108" lon="-1.7851514799187689"><ele>39.0</ele><time>2026-04-11T15:36:28Z</time></trkpt><trkpt lat="47.72040348291353" lon="-1.7851786575253505"><ele>40.0</ele><time>2026-04-11T15:36:29Z</time></trkpt><trkpt lat="47.72048068395354" lon="-1.7852251648621282"><ele>41.0</ele><time>2026-04-11T15:36:30Z</time></trkpt><trkpt lat="47.72061576572835" lon="-1.7851998252958416"><ele>42.0</ele><time>2026-04-11T15:36:31Z</time></trkpt><trkpt lat="47.72078738325921" lon="-1.7850455350407115"><ele>42.25</ele><time>2026-04-11T15:36:32Z</time></trkpt><trkpt lat="47.720873239775344" lon="-1.784846161468255"><ele>42.5</ele><time>2026-04-11T15:36:33Z</time></trkpt><trkpt lat="47.720923153064255" lon="-1.7847098057213175"><ele>42.75</ele><time>2026-04-11T15:36:34Z</time></trkpt><trkpt lat="47.72096255651925" lon="-1.784635520240281"><ele>43.0</ele><time>2026-04-11T15:36:35Z</time></trkpt><trkpt lat="47.72098244652572" lon="-1.7843901122533001"><ele>43.0</ele><time>2026-04-11T15:36:37Z</time></trkpt><trkpt lat="47.72094071502939" lon="-1.7843040864724178"><ele>43.0</ele><time>2026-04-11T15:36:38Z</time></trkpt><trkpt lat="47.72091896015637" lon="-1.7841648985667762"><ele>43.0</ele><time>2026-04-11T15:36:39Z</time></trkpt><trkpt lat="47.720862591694996" lon="-1.7840361814059917"><ele>43.0</ele><time>2026-04-11T15:36:40Z</time></trkpt><trkpt lat="47.720824908979885" lon="-1.7838357571012289"><ele>43.0</ele><time>2026-04-11T15:36:41Z</time></trkpt><trkpt lat="47.72078770517846" lon="-1.7836379505540176"><ele>43.5</ele><time>2026-04-11T15:36:41.999Z</time></trkpt><trkpt lat="47.720759404325364" lon="-1.783447655128658"><ele>44.0</ele><time>2026-04-11T15:36:42.999Z</time></trkpt><trkpt lat="47.72074040176349" lon="-1.783296823966846"><ele>44.5</ele><time>2026-04-11T15:36:43.999Z</time></trkpt><trkpt lat="47.72069351628177" lon="-1.783055703305725"><ele>45.0</ele><time>2026-04-11T15:36:45.999Z</time></trkpt><trkpt lat="47.72065981855712" lon="-1.7828664400052163"><ele>45.25</ele><time>2026-04-11T15:36:46.999Z</time></trkpt><trkpt lat="47.7206056614689" lon="-1.782663064600239"><ele>45.5</ele><time>2026-04-11T15:36:47.999Z</time></trkpt><trkpt lat="47.720548667138544" lon="-1.7824717586722"><ele>45.75</ele><time>2026-04-11T15:36:48.999Z</time></trkpt><trkpt lat="47.72048668440798" lon="-1.7823017657842648"><ele>46.0</ele><time>2026-04-11T15:36:49.999Z</time></trkpt><trkpt lat="47.72038176137108" lon="-1.7821637583762004"><ele>46.0</ele><time>2026-04-11T15:36:50.999Z</time></trkpt><trkpt lat="47.72026926497067" lon="-1.781995600515167"><ele>46.0</ele><time>2026-04-11T15:36:51.999Z</time></trkpt><trkpt lat="47.72012745251918" lon="-1.781769040521215"><ele>46.0</ele><time>2026-04-11T15:36:52.999Z</time></trkpt><trkpt lat="47.71998511551512" lon="-1.781574612210614"><ele>44.5</ele><time>2026-04-11T15:36:53.999Z</time></trkpt><trkpt lat="47.719873525015444" lon="-1.7814034157333256"><ele>43.0</ele><time>2026-04-11T15:36:54.999Z</time></trkpt><trkpt lat="47.7197917244221" lon="-1.781243140576209"><ele>41.5</ele><time>2026-04-11T15:36:55.999Z</time></trkpt><trkpt lat="47.719731790933466" lon="-1.7810681242836441"><ele>40.0</ele><time>2026-04-11T15:36:56.999Z</time></trkpt><trkpt lat="47.719690434344436" lon="-1.7808654593330873"><ele>40.0</ele><time>2026-04-11T15:36:57.999Z</time></trkpt><trkpt lat="47.719665010807034" lon="-1.7806599982312379"><ele>40.0</ele><time>2026-04-11T15:36:58.999Z</time></trkpt><trkpt lat="47.71962971922514" lon="-1.7804730030804348"><ele>40.0</ele><time>2026-04-11T15:36:59.999Z</time></trkpt><trkpt lat="47.71959226404392" lon="-1.780281833913233"><ele>40.0</ele><time>2026-04-11T15:37:00.999Z</time></trkpt><trkpt lat="47.719545734559055" lon="-1.7800657801777309"><ele>40.5</ele><time>2026-04-11T15:37:01.999Z</time></trkpt><trkpt lat="47.719497451410014" lon="-1.7798441490225951"><ele>41.0</ele><time>2026-04-11T15:37:02.999Z</time></trkpt><trkpt lat="47.71944683250784" lon="-1.7796356041227919"><ele>41.5</ele><time>2026-04-11T15:37:03.999Z</time></trkpt><trkpt lat="47.71940045143616" lon="-1.7794593197750412"><ele>42.0</ele><time>2026-04-11T15:37:04.999Z</time></trkpt><trkpt lat="47.719348938832404" lon="-1.779308872151041"><ele>41.0</ele><time>2026-04-11T15:37:05.999Z</time></trkpt><trkpt lat="47.71929532811597" lon="-1.7791802967685417"><ele>40.0</ele><time>2026-04-11T15:37:06.999Z</time></trkpt><trkpt lat="47.71922805996722" lon="-1.7790829287550434"><ele>39.0</ele><time>2026-04-11T15:37:07.999Z</time></trkpt><trkpt lat="47.71914030569374" lon="-1.7790313927911503"><ele>38.0</ele><time>2026-04-11T15:37:08.999Z</time></trkpt><trkpt lat="47.71907142561837" lon="-1.7789801684621354"><ele>37.0</ele><time>2026-04-11T15:37:09.999Z</time></trkpt><trkpt lat="47.71901079315519" lon="-1.778934452122838"><ele>36.0</ele><time>2026-04-11T15:37:10.999Z</time></trkpt><trkpt lat="47.71894455433049" lon="-1.7788767135695873"><ele>36.0</ele><time>2026-04-11T15:37:11.999Z</time></trkpt><trkpt lat="47.71887696997529" lon="-1.7788436263227894"><ele>36.0</ele><time>2026-04-11T15:37:12.999Z</time></trkpt><trkpt lat="47.71880944618154" lon="-1.7788289448964882"><ele>36.0</ele><time>2026-04-11T15:37:13.999Z</time></trkpt><trkpt lat="47.71873640526278" lon="-1.7788033006846675"><ele>36.0</ele><time>2026-04-11T15:37:15.999Z</time></trkpt><trkpt lat="47.71874157423738" lon="-1.7786519711255824"><ele>36.0</ele><time>2026-04-11T15:37:18.999Z</time></trkpt><trkpt lat="47.71873006354421" lon="-1.778795275179343"><ele>36.0</ele><time>2026-04-11T15:37:59.998Z</time></trkpt><trkpt lat="47.71880947510225" lon="-1.7788279088827665"><ele>36.0</ele><time>2026-04-11T15:38:09Z</time></trkpt><trkpt lat="47.7188998692796" lon="-1.7788712056276392"><ele>36.0</ele><time>2026-04-11T15:38:11Z</time></trkpt><trkpt lat="47.71877915058437" lon="-1.778948247377567"><ele>36.0</ele><time>2026-04-11T15:38:13Z</time></trkpt><trkpt lat="47.71913806958693" lon="-1.778995790087684"><ele>36.0</ele><time>2026-04-11T15:38:14Z</time></trkpt><trkpt lat="47.71922559941791" lon="-1.7790528820431317"><ele>36.0</ele><time>2026-04-11T15:38:15Z</time></trkpt><trkpt lat="47.71930871189647" lon="-1.7791410463865283"><ele>36.0</ele><time>2026-04-11T15:38:16Z</time></trkpt><trkpt lat="47.71938453653906" lon="-1.7792554572859172"><ele>36.0</ele><time>2026-04-11T15:38:17Z</time></trkpt><trkpt lat="47.71942943270698" lon="-1.7793817834908436"><ele>36.0</ele><time>2026-04-11T15:38:18Z</time></trkpt><trkpt lat="47.719463585266794" lon="-1.779530790591688"><ele>37.0</ele><time>2026-04-11T15:38:19Z</time></trkpt><trkpt lat="47.7194917419386" lon="-1.779678760696476"><ele>38.0</ele><time>2026-04-11T15:38:20Z</time></trkpt><trkpt lat="47.71951024754986" lon="-1.7798225596990593"><ele>39.0</ele><time>2026-04-11T15:38:21Z</time></trkpt><trkpt lat="47.719553957418206" lon="-1.779925099723708"><ele>40.0</ele><time>2026-04-11T15:38:22Z</time></trkpt><trkpt lat="47.71957348278767" lon="-1.78001411838354"><ele>41.0</ele><time>2026-04-11T15:38:23Z</time></trkpt><trkpt lat="47.71957937622358" lon="-1.7799103798494067"><ele>42.0</ele><time>2026-04-11T15:38:27Z</time></trkpt><trkpt lat="47.71968014012514" lon="-1.7797376787004213"><ele>42.0</ele><time>2026-04-11T15:38:28Z</time></trkpt><trkpt lat="47.719691390350135" lon="-1.7795906975960232"><ele>42.0</ele><time>2026-04-11T15:38:29Z</time></trkpt><trkpt lat="47.71971190218014" lon="-1.779427032691146"><ele>42.0</ele><time>2026-04-11T15:38:30Z</time></trkpt><trkpt lat="47.719732067701564" lon="-1.7792995936871496"><ele>42.0</ele><time>2026-04-11T15:38:31Z</time></trkpt><trkpt lat="47.719751143324785" lon="-1.7791695384655442"><ele>42.0</ele><time>2026-04-11T15:38:32Z</time></trkpt><trkpt lat="47.719774474798434" lon="-1.779049410178263"><ele>42.0</ele><time>2026-04-11T15:38:33Z</time></trkpt><trkpt lat="47.719804346001226" lon="-1.7789358124012176"><ele>42.0</ele><time>2026-04-11T15:38:34Z</time></trkpt><trkpt lat="47.71982552534094" lon="-1.7788065343617825"><ele>42.0</ele><time>2026-04-11T15:38:35Z</time></trkpt><trkpt lat="47.719856324337194" lon="-1.778688015387468"><ele>42.0</ele><time>2026-04-11T15:38:36Z</time></trkpt><trkpt lat="47.71988652592467" lon="-1.7785673222180072"><ele>42.0</ele><time>2026-04-11T15:38:37Z</time></trkpt><trkpt lat="47.71992408745887" lon="-1.7784466557470815"><ele>42.0</ele><time>2026-04-11T15:38:38Z</time></trkpt><trkpt lat="47.71997514375942" lon="-1.778329172425495"><ele>42.0</ele><time>2026-04-11T15:38:39Z</time></trkpt><trkpt lat="47.7200365191914" lon="-1.7782039679631787"><ele>42.0</ele><time>2026-04-11T15:38:40Z</time></trkpt><trkpt lat="47.720094275187286" lon="-1.7780737406869593"><ele>42.0</ele><time>2026-04-11T15:38:41Z</time></trkpt><trkpt lat="47.72015143441753" lon="-1.7779557069474976"><ele>42.0</ele><time>2026-04-11T15:38:42Z</time></trkpt><trkpt lat="47.72020723416326" lon="-1.7778358850348992"><ele>42.0</ele><time>2026-04-11T15:38:43Z</time></trkpt><trkpt lat="47.72026202695174" lon="-1.777736303585206"><ele>43.333333333333336</ele><time>2026-04-11T15:38:44Z</time></trkpt><trkpt lat="47.7203285748694" lon="-1.7776594546032716"><ele>44.66666666666667</ele><time>2026-04-11T15:38:45Z</time></trkpt><trkpt lat="47.72038966063693" lon="-1.7775786606235222"><ele>46.0</ele><time>2026-04-11T15:38:46Z</time></trkpt><trkpt lat="47.72043135293774" lon="-1.7774995421198487"><ele>47.333333333333336</ele><time>2026-04-11T15:38:47Z</time></trkpt><trkpt lat="47.72046740966985" lon="-1.7774097914747873"><ele>48.66666666666667</ele><time>2026-04-11T15:38:47.999Z</time></trkpt><trkpt lat="47.720482460209276" lon="-1.7773141126292546"><ele>50.0</ele><time>2026-04-11T15:38:48.999Z</time></trkpt><trkpt lat="47.720486374714554" lon="-1.7771760466204916"><ele>50.0</ele><time>2026-04-11T15:38:50.999Z</time></trkpt><trkpt lat="47.72049777995156" lon="-1.777046906612429"><ele>50.0</ele><time>2026-04-11T15:38:52.999Z</time></trkpt><trkpt lat="47.720512681114045" lon="-1.7768803054745672"><ele>50.0</ele><time>2026-04-11T15:38:54.999Z</time></trkpt><trkpt lat="47.72052730832139" lon="-1.776786377186169"><ele>50.0</ele><time>2026-04-11T15:38:55.999Z</time></trkpt><trkpt lat="47.72054956961494" lon="-1.7766076468488994"><ele>50.0</ele><time>2026-04-11T15:38:57.999Z</time></trkpt><trkpt lat="47.720575801127154" lon="-1.7764204350622939"><ele>49.50000000000001</ele><time>2026-04-11T15:38:59.999Z</time></trkpt><trkpt lat="47.72060552630264" lon="-1.7763163792369798"><ele>49.0</ele><time>2026-04-11T15:39:00.999Z</time></trkpt><trkpt lat="47.72062725810006" lon="-1.7762248199910065"><ele>48.5</ele><time>2026-04-11T15:39:01.999Z</time></trkpt><trkpt lat="47.72065429887606" lon="-1.7761288623009164"><ele>48.0</ele><time>2026-04-11T15:39:02.999Z</time></trkpt><trkpt lat="47.720675638136605" lon="-1.7760231899596168"><ele>47.5</ele><time>2026-04-11T15:39:03.999Z</time></trkpt><trkpt lat="47.72070647378627" lon="-1.7759215343134929"><ele>47.0</ele><time>2026-04-11T15:39:04.999Z</time></trkpt><trkpt lat="47.72074270322862" lon="-1.775744703976519"><ele>46.8</ele><time>2026-04-11T15:39:06.999Z</time></trkpt><trkpt lat="47.720784832788574" lon="-1.775569206672106"><ele>46.6</ele><time>2026-04-11T15:39:08.999Z</time></trkpt><trkpt lat="47.720810809574125" lon="-1.7753921043029908"><ele>46.4</ele><time>2026-04-11T15:39:10.999Z</time></trkpt><trkpt lat="47.720827827887824" lon="-1.7752897781846877"><ele>46.199999999999996</ele><time>2026-04-11T15:39:11.999Z</time></trkpt><trkpt lat="47.72085534313782" lon="-1.7751877776404694"><ele>46.0</ele><time>2026-04-11T15:39:12.999Z</time></trkpt><trkpt lat="47.72087658237092" lon="-1.775095639481166"><ele>46.0</ele><time>2026-04-11T15:39:13.999Z</time></trkpt><trkpt lat="47.72090958837632" lon="-1.7750009213918945"><ele>46.0</ele><time>2026-04-11T15:39:14.999Z</time></trkpt><trkpt lat="47.72093301214139" lon="-1.7749080614033363"><ele>46.0</ele><time>2026-04-11T15:39:15.999Z</time></trkpt><trkpt lat="47.72096884173483" lon="-1.774819957163223"><ele>46.0</ele><time>2026-04-11T15:39:16.999Z</time></trkpt><trkpt lat="47.72100422640855" lon="-1.7747262606774763"><ele>46.0</ele><time>2026-04-11T15:39:17.999Z</time></trkpt><trkpt lat="47.72101924521802" lon="-1.7746320354592857"><ele>46.0</ele><time>2026-04-11T15:39:18.999Z</time></trkpt><trkpt lat="47.721068758430164" lon="-1.774431250811704"><ele>45.75</ele><time>2026-04-11T15:39:20.999Z</time></trkpt><trkpt lat="47.72109943840754" lon="-1.7743335829368982"><ele>45.5</ele><time>2026-04-11T15:39:21.999Z</time></trkpt><trkpt lat="47.72111299252726" lon="-1.7742217761525503"><ele>45.25</ele><time>2026-04-11T15:39:22.999Z</time></trkpt><trkpt lat="47.721121815397304" lon="-1.7740652946207731"><ele>45.0</ele><time>2026-04-11T15:39:24.999Z</time></trkpt><trkpt lat="47.721123615513115" lon="-1.7737604067381751"><ele>45.0</ele><time>2026-04-11T15:39:26.999Z</time></trkpt><trkpt lat="47.721122999864406" lon="-1.7735826349775257"><ele>45.0</ele><time>2026-04-11T15:39:28.999Z</time></trkpt><trkpt lat="47.72113016116838" lon="-1.7734183463737145"><ele>45.0</ele><time>2026-04-11T15:39:30.999Z</time></trkpt><trkpt lat="47.72113111601013" lon="-1.7732023398843146"><ele>45.0</ele><time>2026-04-11T15:39:32.999Z</time></trkpt><trkpt lat="47.721129156780094" lon="-1.7730550572904935"><ele>44.833333333333336</ele><time>2026-04-11T15:39:33.999Z</time></trkpt><trkpt lat="47.72113120679123" lon="-1.7729120807921726"><ele>44.666666666666664</ele><time>2026-04-11T15:39:35.999Z</time></trkpt><trkpt lat="47.72113239290289" lon="-1.7727975262140843"><ele>44.5</ele><time>2026-04-11T15:39:36.999Z</time></trkpt><trkpt lat="47.72112069480865" lon="-1.772699105257869"><ele>44.33333333333333</ele><time>2026-04-11T15:39:37.999Z</time></trkpt><trkpt lat="47.72112111921252" lon="-1.7725926234893417"><ele>44.166666666666664</ele><time>2026-04-11T15:39:38.999Z</time></trkpt><trkpt lat="47.72114999051357" lon="-1.7724272033944035"><ele>44.0</ele><time>2026-04-11T15:39:40.999Z</time></trkpt><trkpt lat="47.72116499850467" lon="-1.7723341351441573"><ele>44.0</ele><time>2026-04-11T15:39:41.999Z</time></trkpt><trkpt lat="47.721170128063704" lon="-1.7722245843537732"><ele>44.0</ele><time>2026-04-11T15:39:42.999Z</time></trkpt><trkpt lat="47.721162107899374" lon="-1.7721200701165616"><ele>44.0</ele><time>2026-04-11T15:39:43.999Z</time></trkpt><trkpt lat="47.72115952250444" lon="-1.7719791272410483"><ele>44.0</ele><time>2026-04-11T15:39:44.999Z</time></trkpt><trkpt lat="47.72114965352387" lon="-1.7717851575338113"><ele>44.0</ele><time>2026-04-11T15:39:46.999Z</time></trkpt><trkpt lat="47.721163627173226" lon="-1.7715864601039029"><ele>44.0</ele><time>2026-04-11T15:39:48.999Z</time></trkpt><trkpt lat="47.721222479489235" lon="-1.771389647458671"><ele>44.0</ele><time>2026-04-11T15:39:50.999Z</time></trkpt><trkpt lat="47.7212411854233" lon="-1.7712801185408908"><ele>44.0</ele><time>2026-04-11T15:39:51.999Z</time></trkpt><trkpt lat="47.72123682259395" lon="-1.7711512031926508"><ele>44.0</ele><time>2026-04-11T15:39:52.999Z</time></trkpt><trkpt lat="47.72123525425013" lon="-1.771044598901595"><ele>44.0</ele><time>2026-04-11T15:39:53.998Z</time></trkpt><trkpt lat="47.72122087120955" lon="-1.7709377052988657"><ele>44.0</ele><time>2026-04-11T15:39:54.998Z</time></trkpt><trkpt lat="47.721204418868886" lon="-1.7707574836550277"><ele>44.0</ele><time>2026-04-11T15:40:02.998Z</time></trkpt><trkpt lat="47.72120284958006" lon="-1.7706503729880572"><ele>44.0</ele><time>2026-04-11T15:40:03.998Z</time></trkpt><trkpt lat="47.72121034297525" lon="-1.770553808582527"><ele>44.0</ele><time>2026-04-11T15:40:04.998Z</time></trkpt><trkpt lat="47.72124475638311" lon="-1.7703526701750008"><ele>44.0</ele><time>2026-04-11T15:40:06.998Z</time></trkpt><trkpt lat="47.72126813313736" lon="-1.7702072979892656"><ele>43.800000000000004</ele><time>2026-04-11T15:40:07.998Z</time></trkpt><trkpt lat="47.721297116543006" lon="-1.7700578542539407"><ele>43.6</ele><time>2026-04-11T15:40:08.998Z</time></trkpt><trkpt lat="47.721326566897474" lon="-1.7698785564969897"><ele>43.4</ele><time>2026-04-11T15:40:10Z</time></trkpt><trkpt lat="47.72135490086637" lon="-1.7697093913233464"><ele>43.2</ele><time>2026-04-11T15:40:11Z</time></trkpt><trkpt lat="47.72136432397898" lon="-1.7695613076205305"><ele>43.0</ele><time>2026-04-11T15:40:12Z</time></trkpt><trkpt lat="47.721372359037694" lon="-1.769420325492286"><ele>42.8</ele><time>2026-04-11T15:40:13Z</time></trkpt><trkpt lat="47.7213719554266" lon="-1.7692772176732001"><ele>42.599999999999994</ele><time>2026-04-11T15:40:14Z</time></trkpt><trkpt lat="47.72134664389835" lon="-1.769139699333951"><ele>42.400000000000006</ele><time>2026-04-11T15:40:15Z</time></trkpt><trkpt lat="47.72130943792551" lon="-1.769017013190417"><ele>42.2</ele><time>2026-04-11T15:40:16Z</time></trkpt><trkpt lat="47.72126991506156" lon="-1.7689028607850465"><ele>42.0</ele><time>2026-04-11T15:40:17Z</time></trkpt><trkpt lat="47.721223519345855" lon="-1.7687769629716994"><ele>42.0</ele><time>2026-04-11T15:40:18Z</time></trkpt><trkpt lat="47.72117004043134" lon="-1.7686431055771688"><ele>42.0</ele><time>2026-04-11T15:40:19Z</time></trkpt><trkpt lat="47.721105832666595" lon="-1.7685051063979964"><ele>42.0</ele><time>2026-04-11T15:40:20Z</time></trkpt><trkpt lat="47.721038173070895" lon="-1.7683666251783043"><ele>42.0</ele><time>2026-04-11T15:40:21Z</time></trkpt><trkpt lat="47.72097721126768" lon="-1.7682466138439281"><ele>42.0</ele><time>2026-04-11T15:40:22Z</time></trkpt><trkpt lat="47.720932783289044" lon="-1.768116985152657"><ele>40.75</ele><time>2026-04-11T15:40:23Z</time></trkpt><trkpt lat="47.72089435437443" lon="-1.7679637079777217"><ele>39.5</ele><time>2026-04-11T15:40:24Z</time></trkpt><trkpt lat="47.72087273412384" lon="-1.7677876870434586"><ele>38.25</ele><time>2026-04-11T15:40:25Z</time></trkpt><trkpt lat="47.72085906665997" lon="-1.76758126664514"><ele>37.0</ele><time>2026-04-11T15:40:26Z</time></trkpt><trkpt lat="47.72085800119391" lon="-1.7674042927239022"><ele>37.0</ele><time>2026-04-11T15:40:27Z</time></trkpt><trkpt lat="47.72086783928293" lon="-1.7672480868265348"><ele>37.0</ele><time>2026-04-11T15:40:28Z</time></trkpt><trkpt lat="47.72091192454324" lon="-1.7671195685092307"><ele>37.0</ele><time>2026-04-11T15:40:29Z</time></trkpt><trkpt lat="47.72094086072256" lon="-1.766987555356919"><ele>37.0</ele><time>2026-04-11T15:40:30Z</time></trkpt><trkpt lat="47.720971053015425" lon="-1.7668793852276994"><ele>37.0</ele><time>2026-04-11T15:40:31Z</time></trkpt><trkpt lat="47.72101319888117" lon="-1.7667637395719504"><ele>37.16666666666667</ele><time>2026-04-11T15:40:33Z</time></trkpt><trkpt lat="47.72106490787589" lon="-1.766698666127527"><ele>37.333333333333336</ele><time>2026-04-11T15:41:29.999Z</time></trkpt><trkpt lat="47.72113571350724" lon="-1.7665629673337566"><ele>37.5</ele><time>2026-04-11T15:41:31.999Z</time></trkpt><trkpt lat="47.7211844855906" lon="-1.7664868406734444"><ele>37.666666666666664</ele><time>2026-04-11T15:41:32.999Z</time></trkpt><trkpt lat="47.7212267315194" lon="-1.7664103074350603"><ele>37.83333333333333</ele><time>2026-04-11T15:41:33.999Z</time></trkpt><trkpt lat="47.721272877033186" lon="-1.7663040310542548"><ele>38.0</ele><time>2026-04-11T15:41:34.999Z</time></trkpt><trkpt lat="47.721314215780474" lon="-1.7662007786528375"><ele>38.599999999999994</ele><time>2026-04-11T15:41:35.999Z</time></trkpt><trkpt lat="47.72135291871149" lon="-1.766078438100888"><ele>39.199999999999996</ele><time>2026-04-11T15:41:36.999Z</time></trkpt><trkpt lat="47.7213971195439" lon="-1.765936718664087"><ele>39.8</ele><time>2026-04-11T15:41:37.999Z</time></trkpt><trkpt lat="47.72141415116325" lon="-1.765776752227131"><ele>40.4</ele><time>2026-04-11T15:41:38.999Z</time></trkpt><trkpt lat="47.72144960555698" lon="-1.7656414637421014"><ele>41.0</ele><time>2026-04-11T15:41:39.999Z</time></trkpt><trkpt lat="47.72146304353736" lon="-1.7654957010054875"><ele>41.5</ele><time>2026-04-11T15:41:40.999Z</time></trkpt><trkpt lat="47.72148056154305" lon="-1.765339020453898"><ele>42.0</ele><time>2026-04-11T15:41:41.999Z</time></trkpt><trkpt lat="47.7214941012057" lon="-1.7651806351230277"><ele>42.5</ele><time>2026-04-11T15:41:42.999Z</time></trkpt><trkpt lat="47.72151746662137" lon="-1.765002662238644"><ele>43.0</ele><time>2026-04-11T15:41:43.999Z</time></trkpt><trkpt lat="47.7215357243542" lon="-1.7648288961613743"><ele>43.0</ele><time>2026-04-11T15:41:44.999Z</time></trkpt><trkpt lat="47.721551034261765" lon="-1.7646528380070194"><ele>43.0</ele><time>2026-04-11T15:41:45.999Z</time></trkpt><trkpt lat="47.72157025371284" lon="-1.7644879671600546"><ele>43.0</ele><time>2026-04-11T15:41:46.999Z</time></trkpt><trkpt lat="47.721579871605634" lon="-1.7643411590545495"><ele>43.0</ele><time>2026-04-11T15:41:47.999Z</time></trkpt><trkpt lat="47.721594810179475" lon="-1.7641886295949596"><ele>43.0</ele><time>2026-04-11T15:41:48.999Z</time></trkpt><trkpt lat="47.72161541530788" lon="-1.7640182328147138"><ele>43.0</ele><time>2026-04-11T15:41:49.999Z</time></trkpt><trkpt lat="47.721631989120255" lon="-1.7638359996108495"><ele>43.0</ele><time>2026-04-11T15:41:50.999Z</time></trkpt><trkpt lat="47.72165202108622" lon="-1.7636414883948017"><ele>43.0</ele><time>2026-04-11T15:41:51.999Z</time></trkpt><trkpt lat="47.721669432175304" lon="-1.7634624979290026"><ele>43.0</ele><time>2026-04-11T15:41:52.999Z</time></trkpt><trkpt lat="47.72169646514136" lon="-1.7632657436882"><ele>42.0</ele><time>2026-04-11T15:41:53.999Z</time></trkpt><trkpt lat="47.72172096751531" lon="-1.7630346407504964"><ele>41.0</ele><time>2026-04-11T15:41:54.999Z</time></trkpt><trkpt lat="47.72174222605052" lon="-1.7628117964065593"><ele>40.0</ele><time>2026-04-11T15:41:55.999Z</time></trkpt><trkpt lat="47.72176029517813" lon="-1.7625795899974106"><ele>40.0</ele><time>2026-04-11T15:41:56.999Z</time></trkpt><trkpt lat="47.72177122671835" lon="-1.7623517173858831"><ele>40.0</ele><time>2026-04-11T15:41:57.999Z</time></trkpt><trkpt lat="47.7217860680978" lon="-1.7621056622675186"><ele>40.0</ele><time>2026-04-11T15:41:58.998Z</time></trkpt><trkpt lat="47.72177537715738" lon="-1.7618765901176305"><ele>40.0</ele><time>2026-04-11T15:41:59.998Z</time></trkpt><trkpt lat="47.72176723380942" lon="-1.7616257102242674"><ele>40.0</ele><time>2026-04-11T15:42:00.998Z</time></trkpt><trkpt lat="47.72174094067482" lon="-1.761384993487453"><ele>40.0</ele><time>2026-04-11T15:42:01.998Z</time></trkpt><trkpt lat="47.72171925901619" lon="-1.7611270259840832"><ele>40.333333333333336</ele><time>2026-04-11T15:42:02.998Z</time></trkpt><trkpt lat="47.72168072445958" lon="-1.7608537579778019"><ele>40.666666666666664</ele><time>2026-04-11T15:42:03.998Z</time></trkpt><trkpt lat="47.72165753880716" lon="-1.7605925773926292"><ele>41.0</ele><time>2026-04-11T15:42:04.998Z</time></trkpt><trkpt lat="47.72163404855213" lon="-1.7603670244168346"><ele>41.199999999999996</ele><time>2026-04-11T15:42:05.998Z</time></trkpt><trkpt lat="47.72161374237503" lon="-1.7601769795621838"><ele>41.4</ele><time>2026-04-11T15:42:06.998Z</time></trkpt><trkpt lat="47.721585413028095" lon="-1.76002055155445"><ele>41.6</ele><time>2026-04-11T15:42:07.998Z</time></trkpt><trkpt lat="47.72157185431224" lon="-1.759872164139652"><ele>41.8</ele><time>2026-04-11T15:42:08.998Z</time></trkpt><trkpt lat="47.72156166224786" lon="-1.759757526476581"><ele>42.0</ele><time>2026-04-11T15:42:09.998Z</time></trkpt><trkpt lat="47.721558949697624" lon="-1.75962841303338"><ele>42.0</ele><time>2026-04-11T15:42:11.998Z</time></trkpt><trkpt lat="47.721547634012516" lon="-1.7595278545277122"><ele>42.0</ele><time>2026-04-11T15:42:14.998Z</time></trkpt><trkpt lat="47.72157089767539" lon="-1.7596386113891276"><ele>42.0</ele><time>2026-04-11T15:42:28Z</time></trkpt><trkpt lat="47.7215891969646" lon="-1.7598289722753513"><ele>42.0</ele><time>2026-04-11T15:42:30Z</time></trkpt><trkpt lat="47.72161184277886" lon="-1.7600071547844582"><ele>42.0</ele><time>2026-04-11T15:42:32Z</time></trkpt><trkpt lat="47.721625576454926" lon="-1.7601299548789056"><ele>41.8</ele><time>2026-04-11T15:42:33Z</time></trkpt><trkpt lat="47.72163851290332" lon="-1.7602768033451939"><ele>41.6</ele><time>2026-04-11T15:42:34Z</time></trkpt><trkpt lat="47.721652624341985" lon="-1.7604375542363886"><ele>41.4</ele><time>2026-04-11T15:42:35Z</time></trkpt><trkpt lat="47.72166726861098" lon="-1.7606019878036943"><ele>41.199999999999996</ele><time>2026-04-11T15:42:36Z</time></trkpt><trkpt lat="47.72168122642823" lon="-1.7607540659262892"><ele>41.0</ele><time>2026-04-11T15:42:37Z</time></trkpt><trkpt lat="47.72170130607077" lon="-1.7609266169276994"><ele>40.75</ele><time>2026-04-11T15:42:38Z</time></trkpt><trkpt lat="47.72171502048534" lon="-1.7610939916793997"><ele>40.5</ele><time>2026-04-11T15:42:39Z</time></trkpt><trkpt lat="47.7217393586973" lon="-1.7613083309900857"><ele>40.25</ele><time>2026-04-11T15:42:40Z</time></trkpt><trkpt lat="47.7217601421528" lon="-1.761530940965583"><ele>40.0</ele><time>2026-04-11T15:42:41Z</time></trkpt><trkpt lat="47.72178107386548" lon="-1.7617404443670779"><ele>40.0</ele><time>2026-04-11T15:42:42Z</time></trkpt><trkpt lat="47.721793136984786" lon="-1.7619690642291754"><ele>40.0</ele><time>2026-04-11T15:42:43Z</time></trkpt><trkpt lat="47.72179846324696" lon="-1.7622237441868398"><ele>40.0</ele><time>2026-04-11T15:42:44Z</time></trkpt><trkpt lat="47.721790544391105" lon="-1.7624831658895597"><ele>40.0</ele><time>2026-04-11T15:42:45Z</time></trkpt><trkpt lat="47.7217715162567" lon="-1.762732648939401"><ele>40.0</ele><time>2026-04-11T15:42:46Z</time></trkpt><trkpt lat="47.72176403913319" lon="-1.7629451835521335"><ele>40.0</ele><time>2026-04-11T15:42:47Z</time></trkpt><trkpt lat="47.72174129709787" lon="-1.763184302102865"><ele>40.0</ele><time>2026-04-11T15:42:48Z</time></trkpt><trkpt lat="47.721708222397986" lon="-1.7633802522871072"><ele>40.0</ele><time>2026-04-11T15:42:49Z</time></trkpt><trkpt lat="47.72167901676656" lon="-1.763584561094639"><ele>40.0</ele><time>2026-04-11T15:42:50Z</time></trkpt><trkpt lat="47.721647023851794" lon="-1.763783930618857"><ele>40.0</ele><time>2026-04-11T15:42:51Z</time></trkpt><trkpt lat="47.721627286064205" lon="-1.7639794558396453"><ele>40.75</ele><time>2026-04-11T15:42:52Z</time></trkpt><trkpt lat="47.72161126529684" lon="-1.7641818486059273"><ele>41.5</ele><time>2026-04-11T15:42:53Z</time></trkpt><trkpt lat="47.72158854776431" lon="-1.7644172440607557"><ele>42.25</ele><time>2026-04-11T15:42:54Z</time></trkpt><trkpt lat="47.721565093480166" lon="-1.764607944881811"><ele>43.0</ele><time>2026-04-11T15:42:55Z</time></trkpt><trkpt lat="47.721547810242996" lon="-1.7647473202742578"><ele>43.0</ele><time>2026-04-11T15:42:56Z</time></trkpt><trkpt lat="47.72153111361748" lon="-1.7648504551663586"><ele>43.0</ele><time>2026-04-11T15:42:57Z</time></trkpt><trkpt lat="47.721553167169716" lon="-1.7649483011732439"><ele>43.0</ele><time>2026-04-11T15:42:58Z</time></trkpt><trkpt lat="47.721567313133804" lon="-1.7650611149753677"><ele>43.0</ele><time>2026-04-11T15:43:01Z</time></trkpt><trkpt lat="47.72173036326772" lon="-1.7656491646008872"><ele>43.0</ele><time>2026-04-11T15:43:03.999Z</time></trkpt><trkpt lat="47.72187512518755" lon="-1.7656693481377068"><ele>43.0</ele><time>2026-04-11T15:43:04.999Z</time></trkpt><trkpt lat="47.721958139982554" lon="-1.7656873120234078"><ele>43.0</ele><time>2026-04-11T15:43:05.999Z</time></trkpt><trkpt lat="47.72202719387008" lon="-1.7657118315616627"><ele>43.0</ele><time>2026-04-11T15:43:06.999Z</time></trkpt><trkpt lat="47.722359841730345" lon="-1.7658226475190502"><ele>46.0</ele><time>2026-04-11T15:43:08.999Z</time></trkpt><trkpt lat="47.722488189759694" lon="-1.7658095089648578"><ele>49.0</ele><time>2026-04-11T15:43:09.999Z</time></trkpt><trkpt lat="47.72274367145896" lon="-1.7654898160379278"><ele>48.666666666666664</ele><time>2026-04-11T15:43:11.999Z</time></trkpt><trkpt lat="47.722669006381224" lon="-1.7649783492510172"><ele>48.33333333333333</ele><time>2026-04-11T15:43:12.999Z</time></trkpt><trkpt lat="47.722763087160104" lon="-1.7650052408185317"><ele>48.0</ele><time>2026-04-11T15:43:13.999Z</time></trkpt><trkpt lat="47.72282784150665" lon="-1.7650049832758412"><ele>49.0</ele><time>2026-04-11T15:43:34.999Z</time></trkpt><trkpt lat="47.722926517035795" lon="-1.7649935831572787"><ele>50.0</ele><time>2026-04-11T15:43:36.999Z</time></trkpt><trkpt lat="47.72299288017547" lon="-1.764947393290282"><ele>51.0</ele><time>2026-04-11T15:43:37.999Z</time></trkpt><trkpt lat="47.72305789844634" lon="-1.7649416186539257"><ele>52.0</ele><time>2026-04-11T15:43:38.999Z</time></trkpt><trkpt lat="47.7231238167399" lon="-1.76493820986809"><ele>53.0</ele><time>2026-04-11T15:43:39.999Z</time></trkpt><trkpt lat="47.72319583925158" lon="-1.7649473277673289"><ele>54.0</ele><time>2026-04-11T15:43:40.999Z</time></trkpt><trkpt lat="47.72326920770726" lon="-1.7649637744878528"><ele>54.0</ele><time>2026-04-11T15:43:41.999Z</time></trkpt><trkpt lat="47.7233362407604" lon="-1.764979369568369"><ele>54.0</ele><time>2026-04-11T15:43:42.999Z</time></trkpt><trkpt lat="47.723416488950086" lon="-1.7649992339739875"><ele>54.0</ele><time>2026-04-11T15:43:43.999Z</time></trkpt><trkpt lat="47.72350043721093" lon="-1.7650185393394624"><ele>54.0</ele><time>2026-04-11T15:43:44.999Z</time></trkpt><trkpt lat="47.723574700954124" lon="-1.7650301118558236"><ele>54.0</ele><time>2026-04-11T15:43:45.999Z</time></trkpt><trkpt lat="47.72366168083815" lon="-1.7650352503369082"><ele>54.0</ele><time>2026-04-11T15:43:46.999Z</time></trkpt><trkpt lat="47.72377899145875" lon="-1.765050854983128"><ele>55.0</ele><time>2026-04-11T15:43:47.999Z</time></trkpt><trkpt lat="47.72390650949372" lon="-1.7650673896008566"><ele>56.00000000000001</ele><time>2026-04-11T15:43:48.999Z</time></trkpt><trkpt lat="47.72400945861389" lon="-1.7651008643040427"><ele>57.00000000000001</ele><time>2026-04-11T15:43:49.999Z</time></trkpt><trkpt lat="47.72408958469137" lon="-1.7651544308622873"><ele>58.0</ele><time>2026-04-11T15:43:50.999Z</time></trkpt><trkpt lat="47.72413941439373" lon="-1.7652663907159634"><ele>59.0</ele><time>2026-04-11T15:43:51.999Z</time></trkpt><trkpt lat="47.72418820262187" lon="-1.7654136276507697"><ele>59.2</ele><time>2026-04-11T15:43:52.999Z</time></trkpt><trkpt lat="47.724251814427895" lon="-1.7655350469201385"><ele>59.400000000000006</ele><time>2026-04-11T15:43:53.999Z</time></trkpt><trkpt lat="47.724320718533775" lon="-1.7656501906538393"><ele>59.6</ele><time>2026-04-11T15:43:54.999Z</time></trkpt><trkpt lat="47.72438675821548" lon="-1.7657798150697728"><ele>59.8</ele><time>2026-04-11T15:43:55.999Z</time></trkpt><trkpt lat="47.72444574743537" lon="-1.7659234544351805"><ele>60.0</ele><time>2026-04-11T15:43:56.999Z</time></trkpt><trkpt lat="47.72449410318517" lon="-1.766087641534257"><ele>60.5</ele><time>2026-04-11T15:43:57.999Z</time></trkpt><trkpt lat="47.72452599608783" lon="-1.7662859980178538"><ele>61.0</ele><time>2026-04-11T15:43:58.999Z</time></trkpt><trkpt lat="47.72455350363966" lon="-1.7665164010546741"><ele>61.5</ele><time>2026-04-11T15:43:59.999Z</time></trkpt><trkpt lat="47.72457920149971" lon="-1.766726314536937"><ele>62.0</ele><time>2026-04-11T15:44:00.999Z</time></trkpt><trkpt lat="47.72459514922387" lon="-1.7669226534433031"><ele>62.0</ele><time>2026-04-11T15:44:01.999Z</time></trkpt><trkpt lat="47.724642423395046" lon="-1.7670599905171125"><ele>62.0</ele><time>2026-04-11T15:44:02.999Z</time></trkpt><trkpt lat="47.7246771444126" lon="-1.7671622647657468"><ele>62.0</ele><time>2026-04-11T15:44:03.999Z</time></trkpt><trkpt lat="47.72473826430711" lon="-1.7673188486895735"><ele>62.0</ele><time>2026-04-11T15:44:05.999Z</time></trkpt><trkpt lat="47.72482251251047" lon="-1.7673528149653341"><ele>62.0</ele><time>2026-04-11T15:44:06.999Z</time></trkpt><trkpt lat="47.724921620902414" lon="-1.767394679773359"><ele>62.0</ele><time>2026-04-11T15:44:07.999Z</time></trkpt><trkpt lat="47.725034339981" lon="-1.7674117562055562"><ele>62.0</ele><time>2026-04-11T15:44:08.999Z</time></trkpt><trkpt lat="47.72516268842565" lon="-1.7674423548043496"><ele>62.0</ele><time>2026-04-11T15:44:09.998Z</time></trkpt><trkpt lat="47.725274532023946" lon="-1.7674920240645782"><ele>62.0</ele><time>2026-04-11T15:44:10.998Z</time></trkpt><trkpt lat="47.7253887385749" lon="-1.7675104468613108"><ele>62.75</ele><time>2026-04-11T15:44:11.998Z</time></trkpt><trkpt lat="47.72550553137988" lon="-1.7675181967849278"><ele>63.5</ele><time>2026-04-11T15:44:12.998Z</time></trkpt><trkpt lat="47.72562072878687" lon="-1.7674751795329793"><ele>64.25</ele><time>2026-04-11T15:44:13.998Z</time></trkpt><trkpt lat="47.72573607890391" lon="-1.7674473211197677"><ele>65.0</ele><time>2026-04-11T15:44:14.998Z</time></trkpt><trkpt lat="47.72584985902318" lon="-1.7674382441641812"><ele>65.0</ele><time>2026-04-11T15:44:15.998Z</time></trkpt><trkpt lat="47.72595636858409" lon="-1.7673969734293378"><ele>65.0</ele><time>2026-04-11T15:44:16.998Z</time></trkpt><trkpt lat="47.726044650272215" lon="-1.7673694793525607"><ele>65.0</ele><time>2026-04-11T15:44:17.998Z</time></trkpt><trkpt lat="47.726119008457495" lon="-1.7673492970374327"><ele>65.0</ele><time>2026-04-11T15:44:18.998Z</time></trkpt><trkpt lat="47.72618441126114" lon="-1.7673329833951716"><ele>65.0</ele><time>2026-04-11T15:44:19.998Z</time></trkpt><trkpt lat="47.7262687551447" lon="-1.7672989550595404"><ele>65.0</ele><time>2026-04-11T15:44:22Z</time></trkpt><trkpt lat="47.72632900312543" lon="-1.767124912418292"><ele>65.8</ele><time>2026-04-11T15:44:29Z</time></trkpt><trkpt lat="47.72633573047576" lon="-1.7670181118274917"><ele>66.6</ele><time>2026-04-11T15:44:30Z</time></trkpt><trkpt lat="47.7263533875019" lon="-1.7668067460864187"><ele>67.4</ele><time>2026-04-11T15:44:32Z</time></trkpt><trkpt lat="47.72636812681905" lon="-1.7666740159878769"><ele>68.2</ele><time>2026-04-11T15:44:33Z</time></trkpt><trkpt lat="47.726386774368216" lon="-1.7665129571826184"><ele>69.0</ele><time>2026-04-11T15:44:34Z</time></trkpt><trkpt lat="47.726397754628735" lon="-1.7663777020358389"><ele>69.0</ele><time>2026-04-11T15:44:35Z</time></trkpt><trkpt lat="47.72641567061074" lon="-1.7662296741448476"><ele>69.0</ele><time>2026-04-11T15:44:36Z</time></trkpt><trkpt lat="47.72642474442654" lon="-1.766012519416631"><ele>69.0</ele><time>2026-04-11T15:44:37Z</time></trkpt><trkpt lat="47.726452832616324" lon="-1.7657992026791438"><ele>69.0</ele><time>2026-04-11T15:44:38Z</time></trkpt><trkpt lat="47.72647908035505" lon="-1.7655962369981877"><ele>69.0</ele><time>2026-04-11T15:44:39Z</time></trkpt><trkpt lat="47.726504552547425" lon="-1.7653885547526484"><ele>69.0</ele><time>2026-04-11T15:44:40Z</time></trkpt><trkpt lat="47.726524946766915" lon="-1.7651833510115695"><ele>69.0</ele><time>2026-04-11T15:44:41Z</time></trkpt><trkpt lat="47.72654116754266" lon="-1.7649754695742945"><ele>69.0</ele><time>2026-04-11T15:44:42Z</time></trkpt><trkpt lat="47.72655042472448" lon="-1.7647490124526626"><ele>69.0</ele><time>2026-04-11T15:44:43Z</time></trkpt><trkpt lat="47.72657169478664" lon="-1.7645218845062343"><ele>69.0</ele><time>2026-04-11T15:44:44Z</time></trkpt><trkpt lat="47.726593904760996" lon="-1.7642847198114577"><ele>69.0</ele><time>2026-04-11T15:44:45Z</time></trkpt><trkpt lat="47.7266303370363" lon="-1.7640427916057924"><ele>68.33333333333333</ele><time>2026-04-11T15:44:46Z</time></trkpt><trkpt lat="47.726649796930985" lon="-1.763800985220014"><ele>67.66666666666666</ele><time>2026-04-11T15:44:47Z</time></trkpt><trkpt lat="47.72667099443613" lon="-1.7635459205263302"><ele>67.0</ele><time>2026-04-11T15:44:48Z</time></trkpt><trkpt lat="47.72669197242107" lon="-1.7632785632699854"><ele>66.66666666666666</ele><time>2026-04-11T15:44:49Z</time></trkpt><trkpt lat="47.7267192084996" lon="-1.7630008467785117"><ele>66.33333333333333</ele><time>2026-04-11T15:44:50Z</time></trkpt><trkpt lat="47.72673778030173" lon="-1.762739004042016"><ele>66.0</ele><time>2026-04-11T15:44:51Z</time></trkpt><trkpt lat="47.72676353443326" lon="-1.7625014300262851"><ele>65.66666666666667</ele><time>2026-04-11T15:44:52Z</time></trkpt><trkpt lat="47.72679154073134" lon="-1.7622298908824254"><ele>65.33333333333334</ele><time>2026-04-11T15:44:53Z</time></trkpt><trkpt lat="47.72681684425063" lon="-1.761955113928709"><ele>65.0</ele><time>2026-04-11T15:44:54Z</time></trkpt><trkpt lat="47.72684303057042" lon="-1.7616898416560174"><ele>65.33333333333334</ele><time>2026-04-11T15:44:55Z</time></trkpt><trkpt lat="47.72686911900746" lon="-1.7614241328798816"><ele>65.66666666666667</ele><time>2026-04-11T15:44:56Z</time></trkpt><trkpt lat="47.726894581936584" lon="-1.76115750788266"><ele>66.0</ele><time>2026-04-11T15:44:57Z</time></trkpt><trkpt lat="47.726919955191676" lon="-1.7608918216226757"><ele>66.66666666666667</ele><time>2026-04-11T15:44:58Z</time></trkpt><trkpt lat="47.726946630421466" lon="-1.76061250262391"><ele>67.33333333333334</ele><time>2026-04-11T15:44:59Z</time></trkpt><trkpt lat="47.726972947464176" lon="-1.76033693390619"><ele>68.0</ele><time>2026-04-11T15:45:00Z</time></trkpt><trkpt lat="47.72699881422426" lon="-1.760066080023273"><ele>68.0</ele><time>2026-04-11T15:45:01Z</time></trkpt><trkpt lat="47.72702538296566" lon="-1.7597878755052692"><ele>68.0</ele><time>2026-04-11T15:45:02Z</time></trkpt><trkpt lat="47.7270526226028" lon="-1.7595079949915327"><ele>68.0</ele><time>2026-04-11T15:45:03Z</time></trkpt><trkpt lat="47.727080452661866" lon="-1.7592248096313072"><ele>68.0</ele><time>2026-04-11T15:45:04Z</time></trkpt><trkpt lat="47.72710947463772" lon="-1.7589294958337578"><ele>68.0</ele><time>2026-04-11T15:45:05Z</time></trkpt><trkpt lat="47.7271374576042" lon="-1.7586358666055806"><ele>68.0</ele><time>2026-04-11T15:45:06Z</time></trkpt><trkpt lat="47.7271629659806" lon="-1.758343214872883"><ele>68.0</ele><time>2026-04-11T15:45:07Z</time></trkpt><trkpt lat="47.72718682693736" lon="-1.7580443820585892"><ele>68.0</ele><time>2026-04-11T15:45:08Z</time></trkpt><trkpt lat="47.72720265627447" lon="-1.757755073833464"><ele>68.0</ele><time>2026-04-11T15:45:09Z</time></trkpt><trkpt lat="47.72720729812468" lon="-1.7574544959738825"><ele>68.0</ele><time>2026-04-11T15:45:10Z</time></trkpt><trkpt lat="47.72720995224507" lon="-1.7571539312971773"><ele>68.0</ele><time>2026-04-11T15:45:10.999Z</time></trkpt><trkpt lat="47.72721109493637" lon="-1.7568520636921214"><ele>68.0</ele><time>2026-04-11T15:45:11.999Z</time></trkpt><trkpt lat="47.727210334392886" lon="-1.7565426074188317"><ele>68.0</ele><time>2026-04-11T15:45:12.999Z</time></trkpt><trkpt lat="47.72720958144061" lon="-1.7562362406662986"><ele>68.0</ele><time>2026-04-11T15:45:13.999Z</time></trkpt><trkpt lat="47.72720904789676" lon="-1.7559303017536825"><ele>68.0</ele><time>2026-04-11T15:45:14.999Z</time></trkpt><trkpt lat="47.72720861199741" lon="-1.7556293739572075"><ele>68.0</ele><time>2026-04-11T15:45:15.999Z</time></trkpt><trkpt lat="47.72720817476448" lon="-1.7553275222805995"><ele>68.0</ele><time>2026-04-11T15:45:16.999Z</time></trkpt><trkpt lat="47.72720777527164" lon="-1.7550517290292784"><ele>68.0</ele><time>2026-04-11T15:45:17.999Z</time></trkpt><trkpt lat="47.72720736215466" lon="-1.754766531154818"><ele>68.0</ele><time>2026-04-11T15:45:18.999Z</time></trkpt><trkpt lat="47.727206943418935" lon="-1.7544774528152451"><ele>68.0</ele><time>2026-04-11T15:45:19.999Z</time></trkpt><trkpt lat="47.727206532846694" lon="-1.7541940093869797"><ele>68.0</ele><time>2026-04-11T15:45:20.999Z</time></trkpt><trkpt lat="47.727206099807994" lon="-1.7538950564602889"><ele>67.66666666666667</ele><time>2026-04-11T15:45:21.999Z</time></trkpt><trkpt lat="47.727205560918485" lon="-1.7535998876953236"><ele>67.33333333333333</ele><time>2026-04-11T15:45:22.999Z</time></trkpt><trkpt lat="47.72720460012136" lon="-1.7533050625533486"><ele>67.0</ele><time>2026-04-11T15:45:23.999Z</time></trkpt><trkpt lat="47.7272035785431" lon="-1.7529915851775155"><ele>67.0</ele><time>2026-04-11T15:45:24.999Z</time></trkpt><trkpt lat="47.72721694973078" lon="-1.7526829641951491"><ele>67.0</ele><time>2026-04-11T15:45:25.999Z</time></trkpt><trkpt lat="47.72719756329027" lon="-1.7523821905963066"><ele>67.0</ele><time>2026-04-11T15:45:26.999Z</time></trkpt><trkpt lat="47.72719368248741" lon="-1.7520790357549627"><ele>67.0</ele><time>2026-04-11T15:45:27.999Z</time></trkpt><trkpt lat="47.7271946026855" lon="-1.7517682572643882"><ele>67.0</ele><time>2026-04-11T15:45:28.999Z</time></trkpt><trkpt lat="47.72720246246284" lon="-1.7514560866748172"><ele>67.0</ele><time>2026-04-11T15:45:29.999Z</time></trkpt><trkpt lat="47.72718208610201" lon="-1.7511469933913062"><ele>67.33333333333333</ele><time>2026-04-11T15:45:30.999Z</time></trkpt><trkpt lat="47.727189237418735" lon="-1.7508213425848258"><ele>67.66666666666667</ele><time>2026-04-11T15:45:31.999Z</time></trkpt><trkpt lat="47.72718708917817" lon="-1.7505174205612914"><ele>68.0</ele><time>2026-04-11T15:45:32.999Z</time></trkpt><trkpt lat="47.72717915004133" lon="-1.750266645743317"><ele>68.66666666666667</ele><time>2026-04-11T15:45:33.999Z</time></trkpt><trkpt lat="47.727185276433026" lon="-1.750009017444843"><ele>69.33333333333333</ele><time>2026-04-11T15:45:34.999Z</time></trkpt><trkpt lat="47.72718405866045" lon="-1.7497583622000987"><ele>70.0</ele><time>2026-04-11T15:45:35.999Z</time></trkpt><trkpt lat="47.72718558610271" lon="-1.7495045649027057"><ele>70.0</ele><time>2026-04-11T15:45:36.999Z</time></trkpt><trkpt lat="47.727190390695014" lon="-1.7492642047945381"><ele>70.0</ele><time>2026-04-11T15:45:37.999Z</time></trkpt><trkpt lat="47.72718550751369" lon="-1.7490738604117808"><ele>70.0</ele><time>2026-04-11T15:45:38.999Z</time></trkpt><trkpt lat="47.72719509829523" lon="-1.748915546672115"><ele>70.0</ele><time>2026-04-11T15:45:39.999Z</time></trkpt><trkpt lat="47.7271931408174" lon="-1.7487938289529898"><ele>70.0</ele><time>2026-04-11T15:45:40.999Z</time></trkpt><trkpt lat="47.72718157792736" lon="-1.7486338045730239"><ele>70.0</ele><time>2026-04-11T15:45:42.999Z</time></trkpt><trkpt lat="47.727186267010644" lon="-1.748509455689547"><ele>70.0</ele><time>2026-04-11T15:45:48.999Z</time></trkpt><trkpt lat="47.727172270096894" lon="-1.7484139634865732"><ele>70.0</ele><time>2026-04-11T15:45:49.999Z</time></trkpt><trkpt lat="47.727153860274605" lon="-1.7483081281235535"><ele>70.0</ele><time>2026-04-11T15:45:50.999Z</time></trkpt><trkpt lat="47.72710706791329" lon="-1.7481311405555358"><ele>70.0</ele><time>2026-04-11T15:45:52.999Z</time></trkpt><trkpt lat="47.727078755485024" lon="-1.7480197978317282"><ele>70.0</ele><time>2026-04-11T15:45:53.999Z</time></trkpt><trkpt lat="47.72704797124275" lon="-1.7478887573551591"><ele>70.0</ele><time>2026-04-11T15:45:54.999Z</time></trkpt><trkpt lat="47.72700819517366" lon="-1.7477208840291598"><ele>70.0</ele><time>2026-04-11T15:45:55.999Z</time></trkpt><trkpt lat="47.726978128104356" lon="-1.7475665284431585"><ele>70.0</ele><time>2026-04-11T15:45:56.999Z</time></trkpt><trkpt lat="47.7269379819598" lon="-1.7473971653769034"><ele>70.0</ele><time>2026-04-11T15:45:57.999Z</time></trkpt><trkpt lat="47.72688475874054" lon="-1.7472005974881197"><ele>70.0</ele><time>2026-04-11T15:45:58.999Z</time></trkpt><trkpt lat="47.72682585932094" lon="-1.7469834791398402"><ele>70.0</ele><time>2026-04-11T15:45:59.999Z</time></trkpt><trkpt lat="47.72675848615373" lon="-1.7467398347460628"><ele>70.0</ele><time>2026-04-11T15:46:00.999Z</time></trkpt><trkpt lat="47.72671373905622" lon="-1.7465121330924387"><ele>70.0</ele><time>2026-04-11T15:46:01.999Z</time></trkpt><trkpt lat="47.72664634136638" lon="-1.7462666122321542"><ele>70.0</ele><time>2026-04-11T15:46:02.999Z</time></trkpt><trkpt lat="47.72658605910594" lon="-1.746024297578532"><ele>70.0</ele><time>2026-04-11T15:46:03.999Z</time></trkpt><trkpt lat="47.72652814836456" lon="-1.7457982442768407"><ele>70.0</ele><time>2026-04-11T15:46:04.999Z</time></trkpt><trkpt lat="47.72647983420345" lon="-1.7455893575712698"><ele>70.0</ele><time>2026-04-11T15:46:05.999Z</time></trkpt><trkpt lat="47.72642436022752" lon="-1.7453851607719848"><ele>69.66666666666666</ele><time>2026-04-11T15:46:06.999Z</time></trkpt><trkpt lat="47.72637246705961" lon="-1.7451656764269703"><ele>69.33333333333333</ele><time>2026-04-11T15:46:07.999Z</time></trkpt><trkpt lat="47.726325643457955" lon="-1.7449653707555555"><ele>69.0</ele><time>2026-04-11T15:46:08.999Z</time></trkpt><trkpt lat="47.72625403381735" lon="-1.7447255997451903"><ele>69.0</ele><time>2026-04-11T15:46:09.999Z</time></trkpt><trkpt lat="47.726182456667765" lon="-1.7444654267291715"><ele>69.0</ele><time>2026-04-11T15:46:10.999Z</time></trkpt><trkpt lat="47.7261277221382" lon="-1.7441990980389823"><ele>69.0</ele><time>2026-04-11T15:46:11.999Z</time></trkpt><trkpt lat="47.72606692358224" lon="-1.7439196100537027"><ele>69.0</ele><time>2026-04-11T15:46:12.999Z</time></trkpt><trkpt lat="47.7259984170962" lon="-1.7435917903164737"><ele>69.0</ele><time>2026-04-11T15:46:13.999Z</time></trkpt><trkpt lat="47.72591426269858" lon="-1.7432807544972173"><ele>69.0</ele><time>2026-04-11T15:46:14.999Z</time></trkpt><trkpt lat="47.7258509011694" lon="-1.7429834358518663"><ele>69.0</ele><time>2026-04-11T15:46:15.999Z</time></trkpt><trkpt lat="47.72577641780358" lon="-1.742717871383354"><ele>69.0</ele><time>2026-04-11T15:46:16.999Z</time></trkpt><trkpt lat="47.72570508925046" lon="-1.7424307911194081"><ele>68.66666666666667</ele><time>2026-04-11T15:46:17.999Z</time></trkpt><trkpt lat="47.725629133074506" lon="-1.742123485273605"><ele>68.33333333333334</ele><time>2026-04-11T15:46:18.998Z</time></trkpt><trkpt lat="47.725554457461165" lon="-1.7418239440754595"><ele>68.0</ele><time>2026-04-11T15:46:19.998Z</time></trkpt><trkpt lat="47.72547892352547" lon="-1.7415241309742897"><ele>67.33333333333334</ele><time>2026-04-11T15:46:20.998Z</time></trkpt><trkpt lat="47.72540251752342" lon="-1.7411791622028543"><ele>66.66666666666667</ele><time>2026-04-11T15:46:21.998Z</time></trkpt><trkpt lat="47.72532794273502" lon="-1.740906470122873"><ele>66.0</ele><time>2026-04-11T15:46:23.998Z</time></trkpt><trkpt lat="47.72524950605394" lon="-1.7406113968735737"><ele>64.66666666666667</ele><time>2026-04-11T15:46:24.998Z</time></trkpt><trkpt lat="47.72519362538041" lon="-1.7403374557031348"><ele>63.333333333333336</ele><time>2026-04-11T15:46:25.998Z</time></trkpt><trkpt lat="47.72516566016539" lon="-1.740065827250907"><ele>62.0</ele><time>2026-04-11T15:46:26.998Z</time></trkpt><trkpt lat="47.72513977579518" lon="-1.7397737120994865"><ele>61.0</ele><time>2026-04-11T15:46:28Z</time></trkpt><trkpt lat="47.72512137836277" lon="-1.7394923129692985"><ele>60.0</ele><time>2026-04-11T15:46:29Z</time></trkpt><trkpt lat="47.72512339892384" lon="-1.7392340141852607"><ele>59.0</ele><time>2026-04-11T15:46:30Z</time></trkpt><trkpt lat="47.7251273317215" lon="-1.7390336546595992"><ele>58.6</ele><time>2026-04-11T15:46:31Z</time></trkpt><trkpt lat="47.725119447895615" lon="-1.7388700222163112"><ele>58.2</ele><time>2026-04-11T15:46:32Z</time></trkpt><trkpt lat="47.72511529343842" lon="-1.738747233791349"><ele>57.800000000000004</ele><time>2026-04-11T15:46:33Z</time></trkpt><trkpt lat="47.725103140556286" lon="-1.7386281875384288"><ele>57.400000000000006</ele><time>2026-04-11T15:46:34Z</time></trkpt><trkpt lat="47.725092415652" lon="-1.7385009355512173"><ele>57.0</ele><time>2026-04-11T15:46:35Z</time></trkpt><trkpt lat="47.72509147181648" lon="-1.7383569326888368"><ele>54.0</ele><time>2026-04-11T15:46:36Z</time></trkpt><trkpt lat="47.725089092811075" lon="-1.738173869460475"><ele>54.0</ele><time>2026-04-11T15:46:37Z</time></trkpt><trkpt lat="47.725075495809136" lon="-1.737938591415192"><ele>54.0</ele><time>2026-04-11T15:46:38Z</time></trkpt><trkpt lat="47.725070166417304" lon="-1.7377282437001054"><ele>54.0</ele><time>2026-04-11T15:46:39Z</time></trkpt></trkseg><trkseg><trkpt lat="47.72777393509634" lon="-1.7297057237319575"><ele>57.0</ele><time>2026-04-12T15:57:09Z</time></trkpt><trkpt lat="47.727844938836" lon="-1.7297015576837953"><ele>57.0</ele><time>2026-04-12T15:57:12Z</time></trkpt><trkpt lat="47.7279319886968" lon="-1.7296271919473651"><ele>57.0</ele><time>2026-04-12T15:57:28Z</time></trkpt><trkpt lat="47.72803306732096" lon="-1.729587973072719"><ele>57.0</ele><time>2026-04-12T15:57:30Z</time></trkpt><trkpt lat="47.728129408700354" lon="-1.7295732882259347"><ele>57.0</ele><time>2026-04-12T15:57:32Z</time></trkpt><trkpt lat="47.72821339723941" lon="-1.7295963374580654"><ele>57.0</ele><time>2026-04-12T15:57:35Z</time></trkpt><trkpt lat="47.72828499055226" lon="-1.7295585419888309"><ele>57.0</ele><time>2026-04-12T15:57:36.999Z</time></trkpt><trkpt lat="47.7283453260703" lon="-1.7297235360507182"><ele>57.0</ele><time>2026-04-12T15:57:38.999Z</time></trkpt><trkpt lat="47.72837189963608" lon="-1.7298636267811585"><ele>57.0</ele><time>2026-04-12T15:57:40.999Z</time></trkpt><trkpt lat="47.72843182659453" lon="-1.729938150680954"><ele>57.0</ele><time>2026-04-12T15:57:42.999Z</time></trkpt><trkpt lat="47.728536992269646" lon="-1.7299743210808627"><ele>57.0</ele><time>2026-04-12T15:57:44.999Z</time></trkpt><trkpt lat="47.728683174647614" lon="-1.7299496259270195"><ele>57.0</ele><time>2026-04-12T15:57:46.999Z</time></trkpt><trkpt lat="47.72879418657149" lon="-1.7299194596903722"><ele>57.0</ele><time>2026-04-12T15:57:47.999Z</time></trkpt><trkpt lat="47.72888881786097" lon="-1.729902731085088"><ele>57.0</ele><time>2026-04-12T15:57:48.999Z</time></trkpt><trkpt lat="47.72896012073826" lon="-1.7298275126207314"><ele>57.0</ele><time>2026-04-12T15:57:49.999Z</time></trkpt><trkpt lat="47.729054702122205" lon="-1.7298337744252141"><ele>57.0</ele><time>2026-04-12T15:57:50.999Z</time></trkpt><trkpt lat="47.72918823412187" lon="-1.7298638326000317"><ele>57.0</ele><time>2026-04-12T15:57:51.999Z</time></trkpt><trkpt lat="47.72930250379825" lon="-1.7298882837268952"><ele>57.0</ele><time>2026-04-12T15:57:52.999Z</time></trkpt><trkpt lat="47.72940840943985" lon="-1.7299126188625904"><ele>57.0</ele><time>2026-04-12T15:57:53.999Z</time></trkpt><trkpt lat="47.72952944257372" lon="-1.7299260389397653"><ele>57.333333333333336</ele><time>2026-04-12T15:57:55.999Z</time></trkpt><trkpt lat="47.72959812201623" lon="-1.7299187367199307"><ele>57.66666666666667</ele><time>2026-04-12T15:57:56.999Z</time></trkpt><trkpt lat="47.72967899535627" lon="-1.7299080822186403"><ele>58.0</ele><time>2026-04-12T15:57:57.999Z</time></trkpt><trkpt lat="47.72976497916324" lon="-1.7299027902367847"><ele>58.333333333333336</ele><time>2026-04-12T15:57:58.999Z</time></trkpt><trkpt lat="47.72984963785972" lon="-1.7298918664718803"><ele>58.66666666666667</ele><time>2026-04-12T15:57:59.999Z</time></trkpt><trkpt lat="47.72996998993925" lon="-1.7298891130338647"><ele>59.0</ele><time>2026-04-12T15:58:00.999Z</time></trkpt><trkpt lat="47.73007551757774" lon="-1.7298289743171984"><ele>58.5</ele><time>2026-04-12T15:58:01.999Z</time></trkpt><trkpt lat="47.73025100139144" lon="-1.7297465644082912"><ele>58.0</ele><time>2026-04-12T15:58:02.999Z</time></trkpt><trkpt lat="47.73037393249155" lon="-1.7296709115306528"><ele>57.5</ele><time>2026-04-12T15:58:03.999Z</time></trkpt><trkpt lat="47.730480213834035" lon="-1.7295995834496345"><ele>57.0</ele><time>2026-04-12T15:58:04.999Z</time></trkpt><trkpt lat="47.730597834014226" lon="-1.7295169965507158"><ele>57.0</ele><time>2026-04-12T15:58:05.999Z</time></trkpt><trkpt lat="47.73075035661656" lon="-1.7294306629622282"><ele>57.0</ele><time>2026-04-12T15:58:06.999Z</time></trkpt><trkpt lat="47.73085070243762" lon="-1.7292973396382054"><ele>57.0</ele><time>2026-04-12T15:58:07.999Z</time></trkpt><trkpt lat="47.73097616139978" lon="-1.7292203181919363"><ele>57.0</ele><time>2026-04-12T15:58:08.999Z</time></trkpt><trkpt lat="47.73109755693554" lon="-1.7291509002262995"><ele>58.0</ele><time>2026-04-12T15:58:09.999Z</time></trkpt><trkpt lat="47.73122808107308" lon="-1.7290784525562963"><ele>59.0</ele><time>2026-04-12T15:58:10.999Z</time></trkpt><trkpt lat="47.73135467841862" lon="-1.7289940721939066"><ele>60.0</ele><time>2026-04-12T15:58:11.999Z</time></trkpt><trkpt lat="47.73148308143143" lon="-1.7289164142472095"><ele>61.0</ele><time>2026-04-12T15:58:12.999Z</time></trkpt><trkpt lat="47.731625341456436" lon="-1.7288232382862425"><ele>61.0</ele><time>2026-04-12T15:58:13.999Z</time></trkpt><trkpt lat="47.73176444867846" lon="-1.728727370844211"><ele>61.0</ele><time>2026-04-12T15:58:14.999Z</time></trkpt><trkpt lat="47.731899546185964" lon="-1.7286414223540372"><ele>61.0</ele><time>2026-04-12T15:58:15.999Z</time></trkpt><trkpt lat="47.73203360391141" lon="-1.7285463399659693"><ele>61.0</ele><time>2026-04-12T15:58:16.999Z</time></trkpt><trkpt lat="47.732151049855126" lon="-1.728440330297113"><ele>62.666666666666664</ele><time>2026-04-12T15:58:17.999Z</time></trkpt><trkpt lat="47.73230361498919" lon="-1.7283517999312874"><ele>64.33333333333333</ele><time>2026-04-12T15:58:18.999Z</time></trkpt><trkpt lat="47.732459622553684" lon="-1.7282468325609557"><ele>66.0</ele><time>2026-04-12T15:58:19.999Z</time></trkpt><trkpt lat="47.73261404075971" lon="-1.7281411818376875"><ele>65.66666666666667</ele><time>2026-04-12T15:58:20.999Z</time></trkpt><trkpt lat="47.73274826283677" lon="-1.7280574120719292"><ele>65.33333333333334</ele><time>2026-04-12T15:58:21.999Z</time></trkpt><trkpt lat="47.73290088591635" lon="-1.7279457220275511"><ele>65.0</ele><time>2026-04-12T15:58:22.999Z</time></trkpt><trkpt lat="47.7330750367218" lon="-1.7278498557460056"><ele>65.0</ele><time>2026-04-12T15:58:23.999Z</time></trkpt><trkpt lat="47.73323714606806" lon="-1.7277753745389002"><ele>65.0</ele><time>2026-04-12T15:58:24.999Z</time></trkpt><trkpt lat="47.73341232070198" lon="-1.7276970198353887"><ele>65.0</ele><time>2026-04-12T15:58:25.999Z</time></trkpt><trkpt lat="47.73357805928436" lon="-1.7276093608856131"><ele>65.66666666666667</ele><time>2026-04-12T15:58:26.999Z</time></trkpt><trkpt lat="47.733741167558065" lon="-1.7275322183715962"><ele>66.33333333333333</ele><time>2026-04-12T15:58:27.999Z</time></trkpt><trkpt lat="47.733907885005046" lon="-1.7274401548369362"><ele>67.0</ele><time>2026-04-12T15:58:28.999Z</time></trkpt><trkpt lat="47.73407632626937" lon="-1.7273591284598027"><ele>67.0</ele><time>2026-04-12T15:58:29.999Z</time></trkpt><trkpt lat="47.73424052628963" lon="-1.7272905262579323"><ele>67.0</ele><time>2026-04-12T15:58:30.999Z</time></trkpt><trkpt lat="47.73441284312882" lon="-1.7272051638508548"><ele>67.0</ele><time>2026-04-12T15:58:31.999Z</time></trkpt><trkpt lat="47.734572741210464" lon="-1.727125187763655"><ele>66.33333333333333</ele><time>2026-04-12T15:58:32.999Z</time></trkpt><trkpt lat="47.734743924626486" lon="-1.7270659956357388"><ele>65.66666666666667</ele><time>2026-04-12T15:58:33.999Z</time></trkpt><trkpt lat="47.73489374091791" lon="-1.7269905777967693"><ele>65.0</ele><time>2026-04-12T15:58:34.999Z</time></trkpt><trkpt lat="47.735077472120466" lon="-1.726940365871134"><ele>65.66666666666667</ele><time>2026-04-12T15:58:35.999Z</time></trkpt><trkpt lat="47.73525455503021" lon="-1.7269258893185078"><ele>66.33333333333333</ele><time>2026-04-12T15:58:36.999Z</time></trkpt><trkpt lat="47.73542591652144" lon="-1.7268687751757692"><ele>67.0</ele><time>2026-04-12T15:58:37.999Z</time></trkpt><trkpt lat="47.73560790396175" lon="-1.726831817773126"><ele>67.33333333333333</ele><time>2026-04-12T15:58:39Z</time></trkpt><trkpt lat="47.73578347299973" lon="-1.7267955610904395"><ele>67.66666666666667</ele><time>2026-04-12T15:58:40Z</time></trkpt><trkpt lat="47.73596001665361" lon="-1.7267591030268206"><ele>68.0</ele><time>2026-04-12T15:58:41Z</time></trkpt><trkpt lat="47.736139991275394" lon="-1.7267204321671221"><ele>69.0</ele><time>2026-04-12T15:58:42Z</time></trkpt><trkpt lat="47.73630945685744" lon="-1.7266851223750366"><ele>70.0</ele><time>2026-04-12T15:58:43Z</time></trkpt><trkpt lat="47.73648460166562" lon="-1.726650352728481"><ele>71.0</ele><time>2026-04-12T15:58:44Z</time></trkpt><trkpt lat="47.73666216960889" lon="-1.7266151019658813"><ele>71.0</ele><time>2026-04-12T15:58:45Z</time></trkpt><trkpt lat="47.736846339908354" lon="-1.72657854043801"><ele>71.0</ele><time>2026-04-12T15:58:46Z</time></trkpt><trkpt lat="47.73702760345484" lon="-1.7265635720363224"><ele>71.0</ele><time>2026-04-12T15:58:47Z</time></trkpt><trkpt lat="47.737193216325956" lon="-1.7265224369146768"><ele>71.0</ele><time>2026-04-12T15:58:48Z</time></trkpt><trkpt lat="47.7373568940783" lon="-1.7264892951464317"><ele>71.0</ele><time>2026-04-12T15:58:49Z</time></trkpt><trkpt lat="47.737524498434404" lon="-1.7264480562090085"><ele>71.0</ele><time>2026-04-12T15:58:50Z</time></trkpt><trkpt lat="47.73764361937043" lon="-1.7264285770908316"><ele>71.25</ele><time>2026-04-12T15:58:51Z</time></trkpt><trkpt lat="47.737766170273126" lon="-1.7263998374180929"><ele>71.5</ele><time>2026-04-12T15:58:52Z</time></trkpt><trkpt lat="47.737884084795745" lon="-1.7263768549125038"><ele>71.75</ele><time>2026-04-12T15:58:53Z</time></trkpt><trkpt lat="47.737987757118354" lon="-1.7263516445280376"><ele>72.0</ele><time>2026-04-12T15:58:54Z</time></trkpt><trkpt lat="47.738102933022944" lon="-1.726322618690526"><ele>72.0</ele><time>2026-04-12T15:58:55Z</time></trkpt><trkpt lat="47.73823646239737" lon="-1.7262961879725547"><ele>72.0</ele><time>2026-04-12T15:58:56Z</time></trkpt><trkpt lat="47.73837063500539" lon="-1.7262691517930535"><ele>72.0</ele><time>2026-04-12T15:58:57Z</time></trkpt><trkpt lat="47.73850819797862" lon="-1.7262418908105435"><ele>72.0</ele><time>2026-04-12T15:58:58Z</time></trkpt><trkpt lat="47.73865604371165" lon="-1.72621245341956"><ele>72.66666666666667</ele><time>2026-04-12T15:58:59Z</time></trkpt><trkpt lat="47.73880220138458" lon="-1.7261803540686855"><ele>73.33333333333334</ele><time>2026-04-12T15:59:00Z</time></trkpt><trkpt lat="47.73896047952539" lon="-1.726169094107709"><ele>74.0</ele><time>2026-04-12T15:59:01Z</time></trkpt><trkpt lat="47.73911668376288" lon="-1.726111294207051"><ele>74.0</ele><time>2026-04-12T15:59:02Z</time></trkpt><trkpt lat="47.73927235958832" lon="-1.7260796725665435"><ele>74.0</ele><time>2026-04-12T15:59:03Z</time></trkpt><trkpt lat="47.7394314330916" lon="-1.7260699973077671"><ele>74.0</ele><time>2026-04-12T15:59:04Z</time></trkpt><trkpt lat="47.73958877283345" lon="-1.7260149173968329"><ele>72.66666666666667</ele><time>2026-04-12T15:59:05Z</time></trkpt><trkpt lat="47.73975263679624" lon="-1.7259813363781038"><ele>71.33333333333333</ele><time>2026-04-12T15:59:06Z</time></trkpt><trkpt lat="47.73990422366981" lon="-1.7259511271833063"><ele>70.0</ele><time>2026-04-12T15:59:07Z</time></trkpt><trkpt lat="47.74006862649351" lon="-1.7259185604651046"><ele>70.66666666666666</ele><time>2026-04-12T15:59:08Z</time></trkpt><trkpt lat="47.74026515510313" lon="-1.7258778115179856"><ele>71.33333333333333</ele><time>2026-04-12T15:59:09Z</time></trkpt><trkpt lat="47.74043179366619" lon="-1.7258396892001404"><ele>72.0</ele><time>2026-04-12T15:59:10Z</time></trkpt><trkpt lat="47.740603353966584" lon="-1.7258069476835767"><ele>72.0</ele><time>2026-04-12T15:59:11Z</time></trkpt><trkpt lat="47.74077923596963" lon="-1.7257742224413173"><ele>72.0</ele><time>2026-04-12T15:59:12Z</time></trkpt><trkpt lat="47.74094923403103" lon="-1.7257379646374655"><ele>72.0</ele><time>2026-04-12T15:59:13Z</time></trkpt><trkpt lat="47.741127244915084" lon="-1.7256996367744792"><ele>72.33333333333333</ele><time>2026-04-12T15:59:14Z</time></trkpt><trkpt lat="47.7413105901779" lon="-1.7256601604016157"><ele>72.66666666666666</ele><time>2026-04-12T15:59:15Z</time></trkpt><trkpt lat="47.741492284081616" lon="-1.725622712989601"><ele>73.0</ele><time>2026-04-12T15:59:16Z</time></trkpt><trkpt lat="47.74167990477921" lon="-1.7255847403884081"><ele>73.0</ele><time>2026-04-12T15:59:17Z</time></trkpt><trkpt lat="47.74186750755516" lon="-1.7255458708350975"><ele>73.0</ele><time>2026-04-12T15:59:18Z</time></trkpt><trkpt lat="47.74204385490746" lon="-1.7255093333812639"><ele>73.0</ele><time>2026-04-12T15:59:19Z</time></trkpt><trkpt lat="47.7422469086322" lon="-1.7254863493971628"><ele>72.33333333333333</ele><time>2026-04-12T15:59:20Z</time></trkpt><trkpt lat="47.74241654366931" lon="-1.7254422904293756"><ele>71.66666666666667</ele><time>2026-04-12T15:59:21Z</time></trkpt><trkpt lat="47.74257867167678" lon="-1.7254228929254907"><ele>71.0</ele><time>2026-04-12T15:59:22Z</time></trkpt><trkpt lat="47.74272943091123" lon="-1.7253990362599296"><ele>70.66666666666667</ele><time>2026-04-12T15:59:23Z</time></trkpt><trkpt lat="47.74288408060368" lon="-1.7253467745000441"><ele>70.33333333333333</ele><time>2026-04-12T15:59:24Z</time></trkpt><trkpt lat="47.74304414643495" lon="-1.7253276039819845"><ele>70.0</ele><time>2026-04-12T15:59:25Z</time></trkpt><trkpt lat="47.743208017733075" lon="-1.7253118480752696"><ele>70.0</ele><time>2026-04-12T15:59:26Z</time></trkpt><trkpt lat="47.74337120281947" lon="-1.7252990795323062"><ele>70.0</ele><time>2026-04-12T15:59:27Z</time></trkpt><trkpt lat="47.74353624421723" lon="-1.7252882766955178"><ele>70.0</ele><time>2026-04-12T15:59:28Z</time></trkpt><trkpt lat="47.743699709135456" lon="-1.7252775770207114"><ele>71.0</ele><time>2026-04-12T15:59:29Z</time></trkpt><trkpt lat="47.743860867646006" lon="-1.725268075688342"><ele>72.0</ele><time>2026-04-12T15:59:30Z</time></trkpt><trkpt lat="47.74403066437329" lon="-1.7252583268588504"><ele>73.0</ele><time>2026-04-12T15:59:31Z</time></trkpt><trkpt lat="47.74420285555564" lon="-1.7252472049760839"><ele>71.66666666666666</ele><time>2026-04-12T15:59:32Z</time></trkpt><trkpt lat="47.74438501727286" lon="-1.7252354020250926"><ele>70.33333333333333</ele><time>2026-04-12T15:59:33Z</time></trkpt><trkpt lat="47.74456173402091" lon="-1.7252239518709458"><ele>69.0</ele><time>2026-04-12T15:59:34Z</time></trkpt><trkpt lat="47.74473858920955" lon="-1.7252335337683338"><ele>69.0</ele><time>2026-04-12T15:59:35Z</time></trkpt><trkpt lat="47.7449168349645" lon="-1.725219493119256"><ele>69.0</ele><time>2026-04-12T15:59:36Z</time></trkpt><trkpt lat="47.74509124604282" lon="-1.7252126000099193"><ele>69.0</ele><time>2026-04-12T15:59:36.999Z</time></trkpt><trkpt lat="47.74525772319579" lon="-1.725183037978234"><ele>69.33333333333333</ele><time>2026-04-12T15:59:37.999Z</time></trkpt><trkpt lat="47.74543154560684" lon="-1.7251903698897306"><ele>69.66666666666666</ele><time>2026-04-12T15:59:38.999Z</time></trkpt><trkpt lat="47.74560852354488" lon="-1.7251791427438012"><ele>70.0</ele><time>2026-04-12T15:59:39.999Z</time></trkpt><trkpt lat="47.74577781329122" lon="-1.7251651926268614"><ele>70.0</ele><time>2026-04-12T15:59:40.999Z</time></trkpt><trkpt lat="47.7459537384384" lon="-1.7251551457341945"><ele>70.0</ele><time>2026-04-12T15:59:41.999Z</time></trkpt><trkpt lat="47.74612644945853" lon="-1.7251489643821551"><ele>70.0</ele><time>2026-04-12T15:59:42.999Z</time></trkpt><trkpt lat="47.74629022625217" lon="-1.7251407757881898"><ele>70.0</ele><time>2026-04-12T15:59:43.999Z</time></trkpt><trkpt lat="47.7464624813667" lon="-1.7251276151764907"><ele>70.0</ele><time>2026-04-12T15:59:44.999Z</time></trkpt><trkpt lat="47.74663795385677" lon="-1.7251213655168491"><ele>70.0</ele><time>2026-04-12T15:59:45.999Z</time></trkpt><trkpt lat="47.746800484128656" lon="-1.7251111173336477"><ele>69.66666666666666</ele><time>2026-04-12T15:59:46.999Z</time></trkpt><trkpt lat="47.74696763917952" lon="-1.7250996594703827"><ele>69.33333333333333</ele><time>2026-04-12T15:59:47.999Z</time></trkpt><trkpt lat="47.74714414078749" lon="-1.725085283606866"><ele>69.0</ele><time>2026-04-12T15:59:48.999Z</time></trkpt><trkpt lat="47.747317382437814" lon="-1.7250725857680398"><ele>69.0</ele><time>2026-04-12T15:59:49.999Z</time></trkpt><trkpt lat="47.74750663277173" lon="-1.7250618791287566"><ele>69.0</ele><time>2026-04-12T15:59:50.999Z</time></trkpt><trkpt lat="47.747679217069845" lon="-1.7250391792772077"><ele>69.0</ele><time>2026-04-12T15:59:51.999Z</time></trkpt><trkpt lat="47.74786638336872" lon="-1.7250321615920108"><ele>69.0</ele><time>2026-04-12T15:59:52.999Z</time></trkpt><trkpt lat="47.7480547895593" lon="-1.7250305466708866"><ele>69.0</ele><time>2026-04-12T15:59:53.999Z</time></trkpt><trkpt lat="47.74823456636345" lon="-1.7250298081212452"><ele>69.0</ele><time>2026-04-12T15:59:54.999Z</time></trkpt><trkpt lat="47.74841958796207" lon="-1.7250175813269661"><ele>70.0</ele><time>2026-04-12T15:59:55.999Z</time></trkpt><trkpt lat="47.748593436434234" lon="-1.7250071517636545"><ele>71.0</ele><time>2026-04-12T15:59:56.999Z</time></trkpt><trkpt lat="47.74877913226115" lon="-1.7249759005663288"><ele>72.0</ele><time>2026-04-12T15:59:57.999Z</time></trkpt><trkpt lat="47.74894348214737" lon="-1.724989301316662"><ele>72.0</ele><time>2026-04-12T15:59:58.999Z</time></trkpt><trkpt lat="47.74911172366879" lon="-1.7249555713889355"><ele>72.0</ele><time>2026-04-12T15:59:59.999Z</time></trkpt><trkpt lat="47.74927884084842" lon="-1.7249453565847677"><ele>72.0</ele><time>2026-04-12T16:00:00.999Z</time></trkpt><trkpt lat="47.74942727812425" lon="-1.7249535447438482"><ele>73.0</ele><time>2026-04-12T16:00:01.999Z</time></trkpt><trkpt lat="47.74955848049448" lon="-1.7249462179944097"><ele>74.0</ele><time>2026-04-12T16:00:02.999Z</time></trkpt><trkpt lat="47.74967674628207" lon="-1.724917665477351"><ele>75.0</ele><time>2026-04-12T16:00:03.999Z</time></trkpt><trkpt lat="47.749785631806496" lon="-1.7249151813527714"><ele>76.0</ele><time>2026-04-12T16:00:04.999Z</time></trkpt><trkpt lat="47.749875666809054" lon="-1.7249135684035315"><ele>76.0</ele><time>2026-04-12T16:00:05.999Z</time></trkpt><trkpt lat="47.74996943477067" lon="-1.7249184431547602"><ele>76.0</ele><time>2026-04-12T16:00:06.999Z</time></trkpt><trkpt lat="47.75005656180517" lon="-1.7249145882323997"><ele>76.0</ele><time>2026-04-12T16:00:07.999Z</time></trkpt><trkpt lat="47.75013159237105" lon="-1.7249176021505226"><ele>76.0</ele><time>2026-04-12T16:00:08.999Z</time></trkpt><trkpt lat="47.75020077697346" lon="-1.7249226321590914"><ele>76.0</ele><time>2026-04-12T16:00:09.999Z</time></trkpt><trkpt lat="47.75025500659355" lon="-1.7252171606474505"><ele>76.6</ele><time>2026-04-12T16:00:10.999Z</time></trkpt><trkpt lat="47.75032621224169" lon="-1.7253197394476971"><ele>77.19999999999999</ele><time>2026-04-12T16:00:11.999Z</time></trkpt><trkpt lat="47.750399581223036" lon="-1.7254194213543013"><ele>77.80000000000001</ele><time>2026-04-12T16:00:12.999Z</time></trkpt><trkpt lat="47.750486989719036" lon="-1.7255365830638236"><ele>78.4</ele><time>2026-04-12T16:00:13.999Z</time></trkpt><trkpt lat="47.7505653012373" lon="-1.7256714914429268"><ele>79.0</ele><time>2026-04-12T16:00:14.999Z</time></trkpt><trkpt lat="47.75067000678217" lon="-1.7257814083650984"><ele>79.0</ele><time>2026-04-12T16:00:15.999Z</time></trkpt><trkpt lat="47.75076481974516" lon="-1.7259102883330986"><ele>79.0</ele><time>2026-04-12T16:00:16.999Z</time></trkpt><trkpt lat="47.750868871076754" lon="-1.7260523602711695"><ele>79.0</ele><time>2026-04-12T16:00:17.999Z</time></trkpt><trkpt lat="47.75098521578602" lon="-1.7262088166397167"><ele>79.0</ele><time>2026-04-12T16:00:18.999Z</time></trkpt><trkpt lat="47.7511022477267" lon="-1.726359324894316"><ele>79.0</ele><time>2026-04-12T16:00:19.999Z</time></trkpt><trkpt lat="47.7512099580796" lon="-1.7264926788762578"><ele>79.0</ele><time>2026-04-12T16:00:20.999Z</time></trkpt><trkpt lat="47.75130472798734" lon="-1.7266496655908823"><ele>79.0</ele><time>2026-04-12T16:00:21.999Z</time></trkpt><trkpt lat="47.751416334988555" lon="-1.7267914463342977"><ele>79.0</ele><time>2026-04-12T16:00:22.999Z</time></trkpt><trkpt lat="47.75153393953403" lon="-1.726929048530578"><ele>79.33333333333333</ele><time>2026-04-12T16:00:23.999Z</time></trkpt><trkpt lat="47.751652744324026" lon="-1.7270744000943874"><ele>79.66666666666667</ele><time>2026-04-12T16:00:24.999Z</time></trkpt><trkpt lat="47.751763401515895" lon="-1.7272182561237306"><ele>80.0</ele><time>2026-04-12T16:00:25.999Z</time></trkpt><trkpt lat="47.75187389735949" lon="-1.7273742165918347"><ele>79.0</ele><time>2026-04-12T16:00:26.999Z</time></trkpt><trkpt lat="47.751982668888466" lon="-1.7275002747001595"><ele>78.0</ele><time>2026-04-12T16:00:27.999Z</time></trkpt><trkpt lat="47.75207838634509" lon="-1.7276334129187327"><ele>77.0</ele><time>2026-04-12T16:00:28.999Z</time></trkpt><trkpt lat="47.752164716205684" lon="-1.727738589890514"><ele>76.0</ele><time>2026-04-12T16:00:29.999Z</time></trkpt><trkpt lat="47.752241214110626" lon="-1.727837074119527"><ele>76.0</ele><time>2026-04-12T16:00:30.999Z</time></trkpt><trkpt lat="47.75231970398882" lon="-1.7279275169650201"><ele>76.0</ele><time>2026-04-12T16:00:31.999Z</time></trkpt><trkpt lat="47.75237953859494" lon="-1.7280132187361965"><ele>76.0</ele><time>2026-04-12T16:00:32.999Z</time></trkpt><trkpt lat="47.75243109528002" lon="-1.72810069523352"><ele>76.0</ele><time>2026-04-12T16:00:33.999Z</time></trkpt><trkpt lat="47.75248194693438" lon="-1.728161418382229"><ele>76.0</ele><time>2026-04-12T16:00:34.999Z</time></trkpt><trkpt lat="47.75252636231718" lon="-1.7282449523362755"><ele>76.0</ele><time>2026-04-12T16:00:35.999Z</time></trkpt><trkpt lat="47.75258362551037" lon="-1.7283197588727623"><ele>76.0</ele><time>2026-04-12T16:00:36.999Z</time></trkpt><trkpt lat="47.75263761062362" lon="-1.7283816970853756"><ele>76.0</ele><time>2026-04-12T16:00:37.999Z</time></trkpt><trkpt lat="47.75269966909802" lon="-1.7284637823499411"><ele>76.0</ele><time>2026-04-12T16:00:38.999Z</time></trkpt><trkpt lat="47.7527699492443" lon="-1.728564700720999"><ele>76.0</ele><time>2026-04-12T16:00:39.999Z</time></trkpt><trkpt lat="47.752842258901595" lon="-1.728675991528811"><ele>76.0</ele><time>2026-04-12T16:00:40.999Z</time></trkpt><trkpt lat="47.75291425170619" lon="-1.7287961842880195"><ele>75.2</ele><time>2026-04-12T16:00:41.999Z</time></trkpt><trkpt lat="47.752977423842864" lon="-1.7289180058306035"><ele>74.39999999999999</ele><time>2026-04-12T16:00:42.999Z</time></trkpt><trkpt lat="47.75302949020449" lon="-1.7290263447543257"><ele>73.6</ele><time>2026-04-12T16:00:43.999Z</time></trkpt><trkpt lat="47.753068548755685" lon="-1.729145656700359"><ele>72.8</ele><time>2026-04-12T16:00:45Z</time></trkpt><trkpt lat="47.75310596303512" lon="-1.7292836053024059"><ele>72.0</ele><time>2026-04-12T16:00:46Z</time></trkpt><trkpt lat="47.75316051815369" lon="-1.7294161317470902"><ele>71.0</ele><time>2026-04-12T16:00:47Z</time></trkpt><trkpt lat="47.75325010827092" lon="-1.7295431728337638"><ele>70.0</ele><time>2026-04-12T16:00:48Z</time></trkpt><trkpt lat="47.75332837991778" lon="-1.7297151201251655"><ele>69.0</ele><time>2026-04-12T16:00:49Z</time></trkpt><trkpt lat="47.75342431431341" lon="-1.7298647574186"><ele>68.0</ele><time>2026-04-12T16:00:50Z</time></trkpt><trkpt lat="47.75351757802814" lon="-1.729995814940546"><ele>67.0</ele><time>2026-04-12T16:00:51Z</time></trkpt><trkpt lat="47.75362918321066" lon="-1.730130080742845"><ele>66.0</ele><time>2026-04-12T16:00:52Z</time></trkpt><trkpt lat="47.75374679178972" lon="-1.7302504043397566"><ele>65.0</ele><time>2026-04-12T16:00:53Z</time></trkpt><trkpt lat="47.753875353197564" lon="-1.7303776029827616"><ele>64.0</ele><time>2026-04-12T16:00:54Z</time></trkpt><trkpt lat="47.754024806997485" lon="-1.7304977624062827"><ele>62.666666666666664</ele><time>2026-04-12T16:00:55Z</time></trkpt><trkpt lat="47.754172881673036" lon="-1.7306249024410334"><ele>61.33333333333333</ele><time>2026-04-12T16:00:56Z</time></trkpt><trkpt lat="47.754322069986316" lon="-1.7307566001229426"><ele>60.0</ele><time>2026-04-12T16:00:57Z</time></trkpt><trkpt lat="47.75447609428807" lon="-1.7308919133352891"><ele>58.66666666666667</ele><time>2026-04-12T16:00:58Z</time></trkpt><trkpt lat="47.754615890486406" lon="-1.7310186421913067"><ele>57.333333333333336</ele><time>2026-04-12T16:00:59Z</time></trkpt><trkpt lat="47.754759377417145" lon="-1.7311435899171888"><ele>56.0</ele><time>2026-04-12T16:01:00Z</time></trkpt><trkpt lat="47.7548915806794" lon="-1.7312444067428248"><ele>55.0</ele><time>2026-04-12T16:01:01Z</time></trkpt><trkpt lat="47.755024646873146" lon="-1.7313382464331029"><ele>54.0</ele><time>2026-04-12T16:01:02Z</time></trkpt><trkpt lat="47.7551561326359" lon="-1.7314405705001785"><ele>53.0</ele><time>2026-04-12T16:01:03Z</time></trkpt><trkpt lat="47.755267104890436" lon="-1.7315458101073036"><ele>52.0</ele><time>2026-04-12T16:01:04Z</time></trkpt><trkpt lat="47.75538703373197" lon="-1.7316450548540174"><ele>50.75</ele><time>2026-04-12T16:01:05Z</time></trkpt><trkpt lat="47.75550555946028" lon="-1.7317208558964503"><ele>49.5</ele><time>2026-04-12T16:01:06Z</time></trkpt><trkpt lat="47.75561150163108" lon="-1.7318112790925002"><ele>48.25</ele><time>2026-04-12T16:01:07Z</time></trkpt><trkpt lat="47.75570752565705" lon="-1.7319220095547327"><ele>47.0</ele><time>2026-04-12T16:01:08Z</time></trkpt><trkpt lat="47.75580601284058" lon="-1.7319875575627064"><ele>46.6</ele><time>2026-04-12T16:01:09Z</time></trkpt><trkpt lat="47.755881535397066" lon="-1.7321013354689399"><ele>46.2</ele><time>2026-04-12T16:01:10Z</time></trkpt><trkpt lat="47.755948860969134" lon="-1.7322040039965023"><ele>45.8</ele><time>2026-04-12T16:01:11Z</time></trkpt><trkpt lat="47.75599476823842" lon="-1.7323219454815435"><ele>45.4</ele><time>2026-04-12T16:01:12Z</time></trkpt><trkpt lat="47.75601906791919" lon="-1.7324403105215136"><ele>45.0</ele><time>2026-04-12T16:01:13Z</time></trkpt><trkpt lat="47.756039512395134" lon="-1.7325621394059751"><ele>44.6</ele><time>2026-04-12T16:01:14Z</time></trkpt><trkpt lat="47.75604243558159" lon="-1.7326889649723767"><ele>44.2</ele><time>2026-04-12T16:01:15Z</time></trkpt><trkpt lat="47.75602044685652" lon="-1.7328301095702696"><ele>43.8</ele><time>2026-04-12T16:01:16Z</time></trkpt><trkpt lat="47.755979783437496" lon="-1.732956807132746"><ele>43.4</ele><time>2026-04-12T16:01:17Z</time></trkpt><trkpt lat="47.7559210463218" lon="-1.733073304630693"><ele>43.0</ele><time>2026-04-12T16:01:18Z</time></trkpt><trkpt lat="47.75585587759981" lon="-1.7331634946772125"><ele>42.833333333333336</ele><time>2026-04-12T16:01:19Z</time></trkpt><trkpt lat="47.75578830746126" lon="-1.7332367606650168"><ele>42.66666666666667</ele><time>2026-04-12T16:01:20Z</time></trkpt><trkpt lat="47.755733468840496" lon="-1.7333027386294448"><ele>42.5</ele><time>2026-04-12T16:01:21Z</time></trkpt><trkpt lat="47.755674745866884" lon="-1.7333882770575024"><ele>42.333333333333336</ele><time>2026-04-12T16:01:23Z</time></trkpt><trkpt lat="47.755642136576526" lon="-1.7335098473602761"><ele>42.166666666666664</ele><time>2026-04-12T16:01:26Z</time></trkpt><trkpt lat="47.755587874208516" lon="-1.7335579234947711"><ele>42.0</ele><time>2026-04-12T16:01:30Z</time></trkpt><trkpt lat="47.755673718983815" lon="-1.7334795045142275"><ele>42.0</ele><time>2026-04-12T16:01:37Z</time></trkpt><trkpt lat="47.75573453796397" lon="-1.7334312982392015"><ele>42.0</ele><time>2026-04-12T16:01:38Z</time></trkpt><trkpt lat="47.75578611100966" lon="-1.7333537981962153"><ele>42.0</ele><time>2026-04-12T16:01:39Z</time></trkpt><trkpt lat="47.755857965121876" lon="-1.7332517387988495"><ele>42.0</ele><time>2026-04-12T16:01:41Z</time></trkpt><trkpt lat="47.755949313911536" lon="-1.7331118485623083"><ele>42.0</ele><time>2026-04-12T16:01:43Z</time></trkpt><trkpt lat="47.755966087184675" lon="-1.7329616917845985"><ele>41.75</ele><time>2026-04-12T16:01:45Z</time></trkpt><trkpt lat="47.756048253596155" lon="-1.7329620169430164"><ele>41.5</ele><time>2026-04-12T16:01:48Z</time></trkpt><trkpt lat="47.75614484217429" lon="-1.732846448809643"><ele>41.25</ele><time>2026-04-12T16:01:50Z</time></trkpt><trkpt lat="47.75602024913032" lon="-1.7326894811930582"><ele>41.0</ele><time>2026-04-12T16:01:51Z</time></trkpt><trkpt lat="47.75605083664562" lon="-1.7325496786153471"><ele>42.0</ele><time>2026-04-12T16:01:52.999Z</time></trkpt><trkpt lat="47.75611644360718" lon="-1.7324578552562933"><ele>43.0</ele><time>2026-04-12T16:01:55.999Z</time></trkpt><trkpt lat="47.756459798106285" lon="-1.7326237886382692"><ele>43.0</ele><time>2026-04-12T16:01:56.999Z</time></trkpt><trkpt lat="47.756530142162376" lon="-1.7326580123925637"><ele>43.0</ele><time>2026-04-12T16:01:57.999Z</time></trkpt><trkpt lat="47.75659605121612" lon="-1.7326986681259808"><ele>43.0</ele><time>2026-04-12T16:01:58.999Z</time></trkpt><trkpt lat="47.75667896665285" lon="-1.7327408017609625"><ele>43.0</ele><time>2026-04-12T16:01:59.999Z</time></trkpt><trkpt lat="47.75676288277545" lon="-1.7327690577432964"><ele>43.0</ele><time>2026-04-12T16:02:00.999Z</time></trkpt><trkpt lat="47.75684477345626" lon="-1.7328072563210728"><ele>43.0</ele><time>2026-04-12T16:02:01.999Z</time></trkpt><trkpt lat="47.75694144641326" lon="-1.7328483047994527"><ele>43.16666666666667</ele><time>2026-04-12T16:02:02.999Z</time></trkpt><trkpt lat="47.757020203364895" lon="-1.7328811335686929"><ele>43.333333333333336</ele><time>2026-04-12T16:02:03.999Z</time></trkpt><trkpt lat="47.75709532599693" lon="-1.7329062391279935"><ele>43.5</ele><time>2026-04-12T16:02:04.999Z</time></trkpt><trkpt lat="47.75716154794857" lon="-1.7329372369010578"><ele>43.666666666666664</ele><time>2026-04-12T16:02:05.999Z</time></trkpt><trkpt lat="47.75726684289811" lon="-1.7330015374524872"><ele>43.83333333333333</ele><time>2026-04-12T16:02:07.999Z</time></trkpt><trkpt lat="47.757361722608955" lon="-1.7330661444255748"><ele>44.0</ele><time>2026-04-12T16:02:09.999Z</time></trkpt><trkpt lat="47.75741874672492" lon="-1.7331251371928644"><ele>44.0</ele><time>2026-04-12T16:02:10.999Z</time></trkpt><trkpt lat="47.75746849060971" lon="-1.733199429177257"><ele>44.0</ele><time>2026-04-12T16:02:11.999Z</time></trkpt><trkpt lat="47.757537264919236" lon="-1.733334329408842"><ele>44.0</ele><time>2026-04-12T16:02:13.999Z</time></trkpt><trkpt lat="47.757627803389255" lon="-1.7334534497829877"><ele>44.0</ele><time>2026-04-12T16:02:15.999Z</time></trkpt><trkpt lat="47.75767070643596" lon="-1.7335338074066429"><ele>44.0</ele><time>2026-04-12T16:02:16.999Z</time></trkpt><trkpt lat="47.75776694403066" lon="-1.7336639353994638"><ele>43.5</ele><time>2026-04-12T16:02:18.999Z</time></trkpt><trkpt lat="47.7578244135349" lon="-1.733702742981753"><ele>43.0</ele><time>2026-04-12T16:02:19.999Z</time></trkpt><trkpt lat="47.75789761547586" lon="-1.7338244700627141"><ele>42.5</ele><time>2026-04-12T16:02:21.999Z</time></trkpt><trkpt lat="47.75798311118931" lon="-1.7339402519482077"><ele>42.0</ele><time>2026-04-12T16:02:23.999Z</time></trkpt><trkpt lat="47.75803027525084" lon="-1.7340292869290133"><ele>41.5</ele><time>2026-04-12T16:02:25.999Z</time></trkpt><trkpt lat="47.758077294778786" lon="-1.7341048182095915"><ele>41.0</ele><time>2026-04-12T16:02:27.999Z</time></trkpt><trkpt lat="47.758109367902094" lon="-1.7342196114818624"><ele>41.0</ele><time>2026-04-12T16:02:29.999Z</time></trkpt><trkpt lat="47.75815490147895" lon="-1.7343312623546367"><ele>41.0</ele><time>2026-04-12T16:02:31.999Z</time></trkpt><trkpt lat="47.75818961700414" lon="-1.7344154283428754"><ele>41.0</ele><time>2026-04-12T16:02:33.999Z</time></trkpt><trkpt lat="47.75825227278775" lon="-1.7345245482446716"><ele>41.0</ele><time>2026-04-12T16:02:36.999Z</time></trkpt><trkpt lat="47.75825294821639" lon="-1.734645574335709"><ele>41.0</ele><time>2026-04-12T16:02:38.999Z</time></trkpt><trkpt lat="47.75831742776317" lon="-1.7347232087730913"><ele>41.0</ele><time>2026-04-12T16:02:41.999Z</time></trkpt><trkpt lat="47.75838000552831" lon="-1.7348145891509335"><ele>40.599999999999994</ele><time>2026-04-12T16:02:43.999Z</time></trkpt><trkpt lat="47.75842055145654" lon="-1.7348938453028975"><ele>40.199999999999996</ele><time>2026-04-12T16:02:45.999Z</time></trkpt><trkpt lat="47.75847043782719" lon="-1.7350163829669667"><ele>39.8</ele><time>2026-04-12T16:02:47.999Z</time></trkpt><trkpt lat="47.758520738663236" lon="-1.735163289831614"><ele>39.4</ele><time>2026-04-12T16:02:51Z</time></trkpt><trkpt lat="47.75861894800977" lon="-1.735239968215853"><ele>39.0</ele><time>2026-04-12T16:02:53Z</time></trkpt><trkpt lat="47.75865536718996" lon="-1.7353249515369247"><ele>36.8</ele><time>2026-04-12T16:02:55Z</time></trkpt><trkpt lat="47.75870569987051" lon="-1.7354204717372017"><ele>34.599999999999994</ele><time>2026-04-12T16:02:57Z</time></trkpt><trkpt lat="47.75876812215484" lon="-1.7355275202072165"><ele>32.4</ele><time>2026-04-12T16:02:59Z</time></trkpt><trkpt lat="47.7588374715822" lon="-1.7356812874855811"><ele>30.2</ele><time>2026-04-12T16:03:01Z</time></trkpt><trkpt lat="47.75890809324071" lon="-1.7358150914388035"><ele>28.0</ele><time>2026-04-12T16:03:03Z</time></trkpt><trkpt lat="47.758950342059556" lon="-1.7359807274690302"><ele>28.0</ele><time>2026-04-12T16:03:05Z</time></trkpt><trkpt lat="47.75900122329141" lon="-1.7360416342048555"><ele>28.0</ele><time>2026-04-12T16:03:06Z</time></trkpt><trkpt lat="47.75901995079597" lon="-1.7361365102664574"><ele>28.0</ele><time>2026-04-12T16:03:07Z</time></trkpt><trkpt lat="47.75905827588346" lon="-1.7362281265830521"><ele>28.0</ele><time>2026-04-12T16:03:08Z</time></trkpt><trkpt lat="47.75909525465935" lon="-1.7363270352130475"><ele>28.0</ele><time>2026-04-12T16:03:09Z</time></trkpt><trkpt lat="47.759131447924744" lon="-1.7364176679073573"><ele>28.0</ele><time>2026-04-12T16:03:10Z</time></trkpt><trkpt lat="47.75916057916838" lon="-1.7365147572797066"><ele>28.0</ele><time>2026-04-12T16:03:11Z</time></trkpt><trkpt lat="47.75920071577651" lon="-1.7366753505443455"><ele>28.500000000000004</ele><time>2026-04-12T16:03:13Z</time></trkpt><trkpt lat="47.75924194688179" lon="-1.7367519706946357"><ele>29.0</ele><time>2026-04-12T16:03:14Z</time></trkpt><trkpt lat="47.759290714002354" lon="-1.7368219725751992"><ele>29.5</ele><time>2026-04-12T16:03:15Z</time></trkpt><trkpt lat="47.759381335138286" lon="-1.7369368877516187"><ele>30.0</ele><time>2026-04-12T16:03:17Z</time></trkpt><trkpt lat="47.759450853149524" lon="-1.7370117698647922"><ele>30.500000000000004</ele><time>2026-04-12T16:03:18Z</time></trkpt><trkpt lat="47.75950103769207" lon="-1.7370704888432162"><ele>31.0</ele><time>2026-04-12T16:03:19Z</time></trkpt><trkpt lat="47.75958889327486" lon="-1.7371431339557457"><ele>31.200000000000003</ele><time>2026-04-12T16:03:21Z</time></trkpt><trkpt lat="47.75963960772567" lon="-1.7372928315186222"><ele>31.400000000000002</ele><time>2026-04-12T16:03:23Z</time></trkpt><trkpt lat="47.75970877997581" lon="-1.737458682242767"><ele>31.6</ele><time>2026-04-12T16:03:25Z</time></trkpt><trkpt lat="47.75973508661226" lon="-1.7375532947041599"><ele>31.8</ele><time>2026-04-12T16:03:26Z</time></trkpt><trkpt lat="47.75975395259792" lon="-1.7376497334967007"><ele>32.0</ele><time>2026-04-12T16:03:27Z</time></trkpt><trkpt lat="47.75978072210119" lon="-1.737752469706436"><ele>32.0</ele><time>2026-04-12T16:03:28Z</time></trkpt><trkpt lat="47.7598301489737" lon="-1.7378255645634852"><ele>32.0</ele><time>2026-04-12T16:03:29Z</time></trkpt><trkpt lat="47.75988177830574" lon="-1.7379069525055633"><ele>32.0</ele><time>2026-04-12T16:03:31Z</time></trkpt><trkpt lat="47.75999087931179" lon="-1.737755581302513"><ele>32.0</ele><time>2026-04-12T16:03:34Z</time></trkpt><trkpt lat="47.76004249821143" lon="-1.7376701133774826"><ele>32.0</ele><time>2026-04-12T16:03:35Z</time></trkpt><trkpt lat="47.760115016441965" lon="-1.7375736105329727"><ele>32.6</ele><time>2026-04-12T16:03:36Z</time></trkpt><trkpt lat="47.76020785090179" lon="-1.7374706876461619"><ele>33.2</ele><time>2026-04-12T16:03:37Z</time></trkpt><trkpt lat="47.760298048545344" lon="-1.7374009683464933"><ele>33.8</ele><time>2026-04-12T16:03:38Z</time></trkpt><trkpt lat="47.7603681968184" lon="-1.7373116070701877"><ele>34.4</ele><time>2026-04-12T16:03:39Z</time></trkpt><trkpt lat="47.760462827614724" lon="-1.7372389350384028"><ele>35.0</ele><time>2026-04-12T16:03:40Z</time></trkpt><trkpt lat="47.76057068547932" lon="-1.737141923331599"><ele>35.0</ele><time>2026-04-12T16:03:41Z</time></trkpt><trkpt lat="47.760678965061054" lon="-1.7370427481420327"><ele>35.0</ele><time>2026-04-12T16:03:42Z</time></trkpt><trkpt lat="47.76079046380364" lon="-1.7369470966116003"><ele>35.0</ele><time>2026-04-12T16:03:43Z</time></trkpt><trkpt lat="47.76091372289348" lon="-1.7368448323743666"><ele>35.0</ele><time>2026-04-12T16:03:44Z</time></trkpt><trkpt lat="47.76103914623085" lon="-1.7367550887396561"><ele>37.0</ele><time>2026-04-12T16:03:45Z</time></trkpt><trkpt lat="47.76116564243344" lon="-1.7366724715588002"><ele>39.0</ele><time>2026-04-12T16:03:46Z</time></trkpt><trkpt lat="47.76129604778707" lon="-1.7365673790603169"><ele>41.0</ele><time>2026-04-12T16:03:47Z</time></trkpt><trkpt lat="47.761420035917475" lon="-1.7363936653716499"><ele>41.0</ele><time>2026-04-12T16:03:48Z</time></trkpt><trkpt lat="47.76155094474279" lon="-1.7362133898897736"><ele>41.0</ele><time>2026-04-12T16:03:49Z</time></trkpt><trkpt lat="47.76168957315534" lon="-1.7360166381907303"><ele>41.0</ele><time>2026-04-12T16:03:50Z</time></trkpt><trkpt lat="47.761827245599896" lon="-1.7358537384080934"><ele>41.5</ele><time>2026-04-12T16:03:51Z</time></trkpt><trkpt lat="47.76190256847019" lon="-1.7356866040407335"><ele>42.0</ele><time>2026-04-12T16:03:52Z</time></trkpt><trkpt lat="47.76198197776006" lon="-1.735511861516921"><ele>42.5</ele><time>2026-04-12T16:03:53Z</time></trkpt><trkpt lat="47.76202891994048" lon="-1.7353277747501215"><ele>43.0</ele><time>2026-04-12T16:03:54Z</time></trkpt><trkpt lat="47.76205428814946" lon="-1.7351050881935612"><ele>43.0</ele><time>2026-04-12T16:03:55Z</time></trkpt><trkpt lat="47.76207578885682" lon="-1.7348436504452849"><ele>43.0</ele><time>2026-04-12T16:03:56Z</time></trkpt><trkpt lat="47.762100395647764" lon="-1.734526049793181"><ele>43.0</ele><time>2026-04-12T16:03:57Z</time></trkpt><trkpt lat="47.76214103753171" lon="-1.7342142742486648"><ele>43.0</ele><time>2026-04-12T16:03:57.999Z</time></trkpt><trkpt lat="47.76216245645864" lon="-1.7339564774902918"><ele>43.0</ele><time>2026-04-12T16:03:58.999Z</time></trkpt><trkpt lat="47.76217851237732" lon="-1.7337160487470984"><ele>43.0</ele><time>2026-04-12T16:03:59.999Z</time></trkpt><trkpt lat="47.76219683702864" lon="-1.7335073792104603"><ele>43.0</ele><time>2026-04-12T16:04:00.999Z</time></trkpt><trkpt lat="47.762212143580946" lon="-1.7333100521478981"><ele>43.0</ele><time>2026-04-12T16:04:01.999Z</time></trkpt><trkpt lat="47.76222880571441" lon="-1.733121924730403"><ele>43.0</ele><time>2026-04-12T16:04:02.999Z</time></trkpt><trkpt lat="47.762241138243375" lon="-1.7329475958968015"><ele>43.0</ele><time>2026-04-12T16:04:03.999Z</time></trkpt><trkpt lat="47.76225526740332" lon="-1.7327872829594075"><ele>42.599999999999994</ele><time>2026-04-12T16:04:04.999Z</time></trkpt><trkpt lat="47.76226808269033" lon="-1.7326364137705896"><ele>42.199999999999996</ele><time>2026-04-12T16:04:05.999Z</time></trkpt><trkpt lat="47.76228548009177" lon="-1.7324877073726852"><ele>41.8</ele><time>2026-04-12T16:04:06.999Z</time></trkpt><trkpt lat="47.76230252035194" lon="-1.7323387572165654"><ele>41.4</ele><time>2026-04-12T16:04:07.999Z</time></trkpt><trkpt lat="47.76232442235234" lon="-1.7321743446418851"><ele>41.0</ele><time>2026-04-12T16:04:08.999Z</time></trkpt><trkpt lat="47.762350344190615" lon="-1.731998553644527"><ele>40.0</ele><time>2026-04-12T16:04:09.999Z</time></trkpt><trkpt lat="47.76238916576674" lon="-1.7318004218367589"><ele>39.0</ele><time>2026-04-12T16:04:10.999Z</time></trkpt><trkpt lat="47.76239501136122" lon="-1.7315982868896913"><ele>38.0</ele><time>2026-04-12T16:04:11.999Z</time></trkpt><trkpt lat="47.76239308820699" lon="-1.7313996454056069"><ele>37.0</ele><time>2026-04-12T16:04:12.999Z</time></trkpt><trkpt lat="47.762374908174756" lon="-1.7312090473349955"><ele>37.0</ele><time>2026-04-12T16:04:13.999Z</time></trkpt><trkpt lat="47.762378807371924" lon="-1.7310457639364987"><ele>37.0</ele><time>2026-04-12T16:04:14.999Z</time></trkpt><trkpt lat="47.76236676165793" lon="-1.730916224887295"><ele>37.0</ele><time>2026-04-12T16:04:15.999Z</time></trkpt><trkpt lat="47.76237985426908" lon="-1.7307941081302178"><ele>37.0</ele><time>2026-04-12T16:04:16.999Z</time></trkpt><trkpt lat="47.76240385140985" lon="-1.730673531363451"><ele>37.0</ele><time>2026-04-12T16:04:17.999Z</time></trkpt><trkpt lat="47.76245930409724" lon="-1.7305649920343253"><ele>37.0</ele><time>2026-04-12T16:04:18.999Z</time></trkpt><trkpt lat="47.76251589148224" lon="-1.730442443858703"><ele>37.0</ele><time>2026-04-12T16:04:19.999Z</time></trkpt><trkpt lat="47.76257262363544" lon="-1.730312216486769"><ele>37.0</ele><time>2026-04-12T16:04:20.999Z</time></trkpt><trkpt lat="47.76261138365923" lon="-1.7302100715941229"><ele>37.0</ele><time>2026-04-12T16:04:21.999Z</time></trkpt><trkpt lat="47.762638409769465" lon="-1.7301065512191705"><ele>37.0</ele><time>2026-04-12T16:04:22.999Z</time></trkpt><trkpt lat="47.76270310380718" lon="-1.7299822478406361"><ele>37.8</ele><time>2026-04-12T16:04:24.999Z</time></trkpt><trkpt lat="47.76284847259617" lon="-1.729987022750152"><ele>38.6</ele><time>2026-04-12T16:04:28.999Z</time></trkpt><trkpt lat="47.76295363092999" lon="-1.730059059447115"><ele>39.4</ele><time>2026-04-12T16:04:30.999Z</time></trkpt><trkpt lat="47.76301404772986" lon="-1.730111051500736"><ele>40.199999999999996</ele><time>2026-04-12T16:04:31.999Z</time></trkpt><trkpt lat="47.76307184545506" lon="-1.730152263179263"><ele>41.0</ele><time>2026-04-12T16:04:32.999Z</time></trkpt><trkpt lat="47.763141073401016" lon="-1.7301961509033137"><ele>41.4</ele><time>2026-04-12T16:04:33.999Z</time></trkpt><trkpt lat="47.763211505195514" lon="-1.7302535129758523"><ele>41.8</ele><time>2026-04-12T16:04:34.999Z</time></trkpt><trkpt lat="47.76328885726819" lon="-1.7303293719762813"><ele>42.199999999999996</ele><time>2026-04-12T16:04:35.999Z</time></trkpt><trkpt lat="47.76337293431239" lon="-1.7303945016248865"><ele>42.599999999999994</ele><time>2026-04-12T16:04:36.999Z</time></trkpt><trkpt lat="47.76346852152587" lon="-1.7304698388586885"><ele>43.0</ele><time>2026-04-12T16:04:37.999Z</time></trkpt><trkpt lat="47.76357560208765" lon="-1.7305386703607781"><ele>45.0</ele><time>2026-04-12T16:04:38.999Z</time></trkpt><trkpt lat="47.76366668448756" lon="-1.730604382607902"><ele>47.0</ele><time>2026-04-12T16:04:39.999Z</time></trkpt><trkpt lat="47.763758627854735" lon="-1.7306623232362075"><ele>49.0</ele><time>2026-04-12T16:04:40.999Z</time></trkpt><trkpt lat="47.763867784727736" lon="-1.730751438380522"><ele>51.0</ele><time>2026-04-12T16:04:41.999Z</time></trkpt><trkpt lat="47.7639958724864" lon="-1.7308566484874248"><ele>51.0</ele><time>2026-04-12T16:04:42.999Z</time></trkpt><trkpt lat="47.76413220412692" lon="-1.7309547724418555"><ele>51.0</ele><time>2026-04-12T16:04:43.999Z</time></trkpt><trkpt lat="47.764275207364896" lon="-1.7310690016805277"><ele>51.0</ele><time>2026-04-12T16:04:44.999Z</time></trkpt><trkpt lat="47.76440514209653" lon="-1.7311694355139298"><ele>53.0</ele><time>2026-04-12T16:04:45.999Z</time></trkpt><trkpt lat="47.764520225958776" lon="-1.7312555005078911"><ele>55.0</ele><time>2026-04-12T16:04:46.999Z</time></trkpt><trkpt lat="47.76464244663518" lon="-1.7313478070166342"><ele>57.0</ele><time>2026-04-12T16:04:47.999Z</time></trkpt><trkpt lat="47.76475550444704" lon="-1.7314387847705734"><ele>59.0</ele><time>2026-04-12T16:04:48.999Z</time></trkpt><trkpt lat="47.764855167335135" lon="-1.7315071180335924"><ele>59.0</ele><time>2026-04-12T16:04:49.999Z</time></trkpt><trkpt lat="47.76493273023567" lon="-1.7315573457728035"><ele>59.00000000000001</ele><time>2026-04-12T16:04:50.999Z</time></trkpt><trkpt lat="47.76500604697607" lon="-1.731597765754184"><ele>59.00000000000001</ele><time>2026-04-12T16:04:51.999Z</time></trkpt><trkpt lat="47.76512335204716" lon="-1.731605410978923"><ele>59.0</ele><time>2026-04-12T16:04:53.999Z</time></trkpt><trkpt lat="47.76524663217063" lon="-1.7315559655186756"><ele>59.0</ele><time>2026-04-12T16:04:55.999Z</time></trkpt><trkpt lat="47.76521870526653" lon="-1.7312985569569748"><ele>59.400000000000006</ele><time>2026-04-12T16:04:57Z</time></trkpt><trkpt lat="47.7652619716946" lon="-1.7311644534697614"><ele>59.800000000000004</ele><time>2026-04-12T16:04:58Z</time></trkpt><trkpt lat="47.76532108267993" lon="-1.7310304913409225"><ele>60.199999999999996</ele><time>2026-04-12T16:04:59Z</time></trkpt><trkpt lat="47.76536060972281" lon="-1.730870132579632"><ele>60.599999999999994</ele><time>2026-04-12T16:05:00Z</time></trkpt><trkpt lat="47.76540735246226" lon="-1.7307119466394718"><ele>61.0</ele><time>2026-04-12T16:05:01Z</time></trkpt><trkpt lat="47.765446787211914" lon="-1.730567720272056"><ele>61.0</ele><time>2026-04-12T16:05:02Z</time></trkpt><trkpt lat="47.76547584619793" lon="-1.7304247974313907"><ele>60.99999999999999</ele><time>2026-04-12T16:05:03Z</time></trkpt><trkpt lat="47.765497299760526" lon="-1.730291464046729"><ele>60.99999999999999</ele><time>2026-04-12T16:05:04Z</time></trkpt><trkpt lat="47.76551372220538" lon="-1.730160794895889"><ele>61.0</ele><time>2026-04-12T16:05:05Z</time></trkpt><trkpt lat="47.76552231848055" lon="-1.730038760305429"><ele>61.0</ele><time>2026-04-12T16:05:06Z</time></trkpt><trkpt lat="47.76553194988583" lon="-1.7299120435687394"><ele>60.33333333333333</ele><time>2026-04-12T16:05:07Z</time></trkpt><trkpt lat="47.76551516032929" lon="-1.7297960654353655"><ele>59.666666666666664</ele><time>2026-04-12T16:05:08Z</time></trkpt><trkpt lat="47.76550764544548" lon="-1.729682136122874"><ele>59.0</ele><time>2026-04-12T16:05:09Z</time></trkpt><trkpt lat="47.76548690977404" lon="-1.729573800352405"><ele>58.33333333333333</ele><time>2026-04-12T16:05:10Z</time></trkpt><trkpt lat="47.76546632820073" lon="-1.729467413072075"><ele>57.666666666666664</ele><time>2026-04-12T16:05:11Z</time></trkpt><trkpt lat="47.76543649396676" lon="-1.7293159257949928"><ele>57.0</ele><time>2026-04-12T16:05:13Z</time></trkpt><trkpt lat="47.765429041516185" lon="-1.7292148337514812"><ele>55.8</ele><time>2026-04-12T16:05:16Z</time></trkpt><trkpt lat="47.765572041923484" lon="-1.729149811896648"><ele>54.6</ele><time>2026-04-12T16:05:17Z</time></trkpt><trkpt lat="47.76563783469412" lon="-1.7291531910486757"><ele>53.4</ele><time>2026-04-12T16:05:18Z</time></trkpt><trkpt lat="47.76572329650278" lon="-1.7291766680022844"><ele>52.199999999999996</ele><time>2026-04-12T16:05:19Z</time></trkpt><trkpt lat="47.76583185338343" lon="-1.7291994781765512"><ele>51.0</ele><time>2026-04-12T16:05:20Z</time></trkpt><trkpt lat="47.765948243706525" lon="-1.72923630710023"><ele>51.66666666666667</ele><time>2026-04-12T16:05:21Z</time></trkpt><trkpt lat="47.766093438278006" lon="-1.7292847280020618"><ele>52.333333333333336</ele><time>2026-04-12T16:05:22Z</time></trkpt><trkpt lat="47.76627719969667" lon="-1.7293320028987955"><ele>53.0</ele><time>2026-04-12T16:05:23Z</time></trkpt><trkpt lat="47.76645522544902" lon="-1.7294195286521312"><ele>54.66666666666667</ele><time>2026-04-12T16:05:24Z</time></trkpt><trkpt lat="47.766645904582475" lon="-1.7295124264636912"><ele>56.33333333333333</ele><time>2026-04-12T16:05:25Z</time></trkpt><trkpt lat="47.766858787710945" lon="-1.7296128747318187"><ele>58.0</ele><time>2026-04-12T16:05:26Z</time></trkpt><trkpt lat="47.76705901605375" lon="-1.7296735465998787"><ele>58.0</ele><time>2026-04-12T16:05:27Z</time></trkpt><trkpt lat="47.76723815346138" lon="-1.729726121655968"><ele>58.0</ele><time>2026-04-12T16:05:28Z</time></trkpt><trkpt lat="47.767372204195" lon="-1.729777994889476"><ele>58.0</ele><time>2026-04-12T16:05:29Z</time></trkpt><trkpt lat="47.76750801593991" lon="-1.729813528278136"><ele>58.0</ele><time>2026-04-12T16:05:30Z</time></trkpt><trkpt lat="47.767634294293615" lon="-1.7298317668608214"><ele>58.0</ele><time>2026-04-12T16:05:31Z</time></trkpt><trkpt lat="47.76775574611309" lon="-1.7298585736399155"><ele>58.0</ele><time>2026-04-12T16:05:32Z</time></trkpt><trkpt lat="47.76787465001765" lon="-1.7298780004760925"><ele>58.0</ele><time>2026-04-12T16:05:33Z</time></trkpt><trkpt lat="47.767978664471215" lon="-1.729906722218084"><ele>57.75</ele><time>2026-04-12T16:05:34Z</time></trkpt><trkpt lat="47.768085010112294" lon="-1.7299289150365547"><ele>57.5</ele><time>2026-04-12T16:05:35Z</time></trkpt><trkpt lat="47.76821356063864" lon="-1.7299590688890594"><ele>57.25</ele><time>2026-04-12T16:05:36Z</time></trkpt><trkpt lat="47.76835101386221" lon="-1.7299930352444273"><ele>57.0</ele><time>2026-04-12T16:05:37Z</time></trkpt><trkpt lat="47.76851455449307" lon="-1.7300327595343081"><ele>56.66666666666667</ele><time>2026-04-12T16:05:38Z</time></trkpt><trkpt lat="47.768692771824696" lon="-1.7300933821110511"><ele>56.333333333333336</ele><time>2026-04-12T16:05:39Z</time></trkpt><trkpt lat="47.76886606425538" lon="-1.730144301758517"><ele>56.0</ele><time>2026-04-12T16:05:40Z</time></trkpt><trkpt lat="47.76901639273814" lon="-1.7301761135412868"><ele>56.0</ele><time>2026-04-12T16:05:41Z</time></trkpt><trkpt lat="47.76915040277378" lon="-1.7301632823986517"><ele>56.0</ele><time>2026-04-12T16:05:42Z</time></trkpt><trkpt lat="47.7692946180734" lon="-1.7301466866228405"><ele>56.0</ele><time>2026-04-12T16:05:43Z</time></trkpt><trkpt lat="47.76944046113141" lon="-1.7301357206414854"><ele>56.0</ele><time>2026-04-12T16:05:44Z</time></trkpt><trkpt lat="47.76959722821396" lon="-1.730090066376998"><ele>55.0</ele><time>2026-04-12T16:05:45Z</time></trkpt><trkpt lat="47.76975766369332" lon="-1.7300471487119946"><ele>54.0</ele><time>2026-04-12T16:05:46Z</time></trkpt><trkpt lat="47.769926860446425" lon="-1.7299990827092748"><ele>53.0</ele><time>2026-04-12T16:05:47Z</time></trkpt><trkpt lat="47.770092194352074" lon="-1.7299510413938117"><ele>52.5</ele><time>2026-04-12T16:05:48Z</time></trkpt><trkpt lat="47.770239765988485" lon="-1.729911700699471"><ele>52.0</ele><time>2026-04-12T16:05:49Z</time></trkpt><trkpt lat="47.77036628903289" lon="-1.7298809748415342"><ele>51.5</ele><time>2026-04-12T16:05:50Z</time></trkpt><trkpt lat="47.770479611610995" lon="-1.7298604846251953"><ele>51.0</ele><time>2026-04-12T16:05:51Z</time></trkpt><trkpt lat="47.77057637510678" lon="-1.7298414255381698"><ele>51.0</ele><time>2026-04-12T16:05:52Z</time></trkpt><trkpt lat="47.770657322356506" lon="-1.729830993081652"><ele>51.0</ele><time>2026-04-12T16:05:53Z</time></trkpt><trkpt lat="47.770759948268406" lon="-1.7298201621350908"><ele>51.0</ele><time>2026-04-12T16:05:55Z</time></trkpt><trkpt lat="47.77083898444958" lon="-1.7298289202609496"><ele>51.0</ele><time>2026-04-12T16:05:57.999Z</time></trkpt><trkpt lat="47.77094663697153" lon="-1.729861695237344"><ele>51.0</ele><time>2026-04-12T16:06:00.999Z</time></trkpt><trkpt lat="47.771022210590516" lon="-1.7298883306867743"><ele>50.199999999999996</ele><time>2026-04-12T16:06:01.999Z</time></trkpt><trkpt lat="47.77109252986565" lon="-1.7299160657209995"><ele>49.4</ele><time>2026-04-12T16:06:02.999Z</time></trkpt><trkpt lat="47.771211284144506" lon="-1.7299748576939906"><ele>48.6</ele><time>2026-04-12T16:06:04.999Z</time></trkpt><trkpt lat="47.77130190324151" lon="-1.7300128169313023"><ele>47.8</ele><time>2026-04-12T16:06:05.999Z</time></trkpt><trkpt lat="47.7714193173693" lon="-1.7300620003113483"><ele>47.0</ele><time>2026-04-12T16:06:06.999Z</time></trkpt><trkpt lat="47.77153646687594" lon="-1.730111072847496"><ele>47.0</ele><time>2026-04-12T16:06:07.999Z</time></trkpt><trkpt lat="47.7716390720354" lon="-1.7301510211907793"><ele>47.0</ele><time>2026-04-12T16:06:08.999Z</time></trkpt><trkpt lat="47.771723622162085" lon="-1.730194345869872"><ele>47.0</ele><time>2026-04-12T16:06:09.999Z</time></trkpt><trkpt lat="47.77181683929449" lon="-1.730245978256498"><ele>47.0</ele><time>2026-04-12T16:06:10.999Z</time></trkpt><trkpt lat="47.77192688475693" lon="-1.7303092774528939"><ele>47.0</ele><time>2026-04-12T16:06:11.999Z</time></trkpt><trkpt lat="47.772057911555095" lon="-1.7303616610379036"><ele>46.75</ele><time>2026-04-12T16:06:12.999Z</time></trkpt><trkpt lat="47.77218016748624" lon="-1.730443873530383"><ele>46.5</ele><time>2026-04-12T16:06:13.999Z</time></trkpt><trkpt lat="47.77230702578098" lon="-1.7305324672472642"><ele>46.25</ele><time>2026-04-12T16:06:14.999Z</time></trkpt><trkpt lat="47.77241224857671" lon="-1.7306165150104407"><ele>46.0</ele><time>2026-04-12T16:06:15.999Z</time></trkpt><trkpt lat="47.77252111349171" lon="-1.7306930242627767"><ele>46.0</ele><time>2026-04-12T16:06:16.999Z</time></trkpt><trkpt lat="47.77263048401281" lon="-1.7307700291345944"><ele>46.0</ele><time>2026-04-12T16:06:17.999Z</time></trkpt><trkpt lat="47.77273895067654" lon="-1.7308273069414375"><ele>46.0</ele><time>2026-04-12T16:06:18.999Z</time></trkpt><trkpt lat="47.7728222244098" lon="-1.7308884195307903"><ele>46.0</ele><time>2026-04-12T16:06:19.999Z</time></trkpt><trkpt lat="47.772885093125296" lon="-1.7309531227097779"><ele>46.0</ele><time>2026-04-12T16:06:20.999Z</time></trkpt><trkpt lat="47.77294847284677" lon="-1.7310185172620995"><ele>45.66666666666667</ele><time>2026-04-12T16:06:21.999Z</time></trkpt><trkpt lat="47.773004782456866" lon="-1.7310735767013317"><ele>45.333333333333336</ele><time>2026-04-12T16:06:22.999Z</time></trkpt><trkpt lat="47.773086798378266" lon="-1.7311614957673207"><ele>45.0</ele><time>2026-04-12T16:06:24.999Z</time></trkpt><trkpt lat="47.77313327845183" lon="-1.7312477414104646"><ele>44.666666666666664</ele><time>2026-04-12T16:06:28.999Z</time></trkpt><trkpt lat="47.77320286988429" lon="-1.7313308970494417"><ele>44.33333333333333</ele><time>2026-04-12T16:06:57.999Z</time></trkpt><trkpt lat="47.77325566955366" lon="-1.7313922136148447"><ele>44.0</ele><time>2026-04-12T16:06:58.999Z</time></trkpt><trkpt lat="47.77336112164111" lon="-1.7314518854304022"><ele>44.0</ele><time>2026-04-12T16:07:00.999Z</time></trkpt><trkpt lat="47.773412377378975" lon="-1.7315074546701368"><ele>44.0</ele><time>2026-04-12T16:07:03Z</time></trkpt><trkpt lat="47.773580610429356" lon="-1.7315873516893376"><ele>44.0</ele><time>2026-04-12T16:07:05Z</time></trkpt><trkpt lat="47.77364969806696" lon="-1.7315597994749379"><ele>44.0</ele><time>2026-04-12T16:07:07Z</time></trkpt><trkpt lat="47.77366699032264" lon="-1.7314424264187092"><ele>44.0</ele><time>2026-04-12T16:07:08Z</time></trkpt><trkpt lat="47.77373635116367" lon="-1.7312988716876216"><ele>44.25</ele><time>2026-04-12T16:07:09Z</time></trkpt><trkpt lat="47.77381686973774" lon="-1.7311337345741786"><ele>44.5</ele><time>2026-04-12T16:07:10Z</time></trkpt><trkpt lat="47.77388705840102" lon="-1.73095116556675"><ele>44.75</ele><time>2026-04-12T16:07:11Z</time></trkpt><trkpt lat="47.77395463827277" lon="-1.730753446751698"><ele>45.0</ele><time>2026-04-12T16:07:12Z</time></trkpt><trkpt lat="47.77401690096093" lon="-1.7305688603316969"><ele>44.666666666666664</ele><time>2026-04-12T16:07:13Z</time></trkpt><trkpt lat="47.77406340758502" lon="-1.7304303633296245"><ele>44.333333333333336</ele><time>2026-04-12T16:07:14Z</time></trkpt><trkpt lat="47.77410381935544" lon="-1.7303217047945343"><ele>44.0</ele><time>2026-04-12T16:07:15Z</time></trkpt><trkpt lat="47.774154005286654" lon="-1.7302565312497138"><ele>43.66666666666667</ele><time>2026-04-12T16:07:16Z</time></trkpt><trkpt lat="47.774196455803775" lon="-1.7301779603169987"><ele>43.333333333333336</ele><time>2026-04-12T16:07:17Z</time></trkpt><trkpt lat="47.774279021467976" lon="-1.7300962436010443"><ele>43.0</ele><time>2026-04-12T16:07:19Z</time></trkpt><trkpt lat="47.77439730104752" lon="-1.7300927964177202"><ele>43.0</ele><time>2026-04-12T16:07:21Z</time></trkpt><trkpt lat="47.774455313640836" lon="-1.7300459523523317"><ele>43.0</ele><time>2026-04-12T16:07:22Z</time></trkpt><trkpt lat="47.77452538704543" lon="-1.7300321802095857"><ele>43.0</ele><time>2026-04-12T16:07:23Z</time></trkpt><trkpt lat="47.77460595969857" lon="-1.7299850131895167"><ele>43.0</ele><time>2026-04-12T16:07:25Z</time></trkpt><trkpt lat="47.774736220865485" lon="-1.7299631801488602"><ele>43.0</ele><time>2026-04-12T16:07:27Z</time></trkpt><trkpt lat="47.774815188103595" lon="-1.7299499082610958"><ele>43.0</ele><time>2026-04-12T16:07:28Z</time></trkpt><trkpt lat="47.77491675937807" lon="-1.7300136510851225"><ele>43.0</ele><time>2026-04-12T16:07:29Z</time></trkpt><trkpt lat="47.775059139060424" lon="-1.7300261905517873"><ele>43.0</ele><time>2026-04-12T16:07:30Z</time></trkpt><trkpt lat="47.77516321469668" lon="-1.730053830892361"><ele>43.0</ele><time>2026-04-12T16:07:31Z</time></trkpt><trkpt lat="47.77528636806466" lon="-1.7301129963216744"><ele>43.0</ele><time>2026-04-12T16:07:32Z</time></trkpt><trkpt lat="47.77543764337263" lon="-1.7301369539622289"><ele>44.333333333333336</ele><time>2026-04-12T16:07:33Z</time></trkpt><trkpt lat="47.77561664870439" lon="-1.7301985039875671"><ele>45.666666666666664</ele><time>2026-04-12T16:07:34Z</time></trkpt><trkpt lat="47.77581448135028" lon="-1.7302453080056746"><ele>47.0</ele><time>2026-04-12T16:07:35Z</time></trkpt><trkpt lat="47.77599068955375" lon="-1.730284128819709"><ele>47.666666666666664</ele><time>2026-04-12T16:07:36Z</time></trkpt><trkpt lat="47.776151301282184" lon="-1.7303258846502096"><ele>48.33333333333333</ele><time>2026-04-12T16:07:37Z</time></trkpt><trkpt lat="47.77631109399318" lon="-1.7303751992358887"><ele>49.0</ele><time>2026-04-12T16:07:38Z</time></trkpt><trkpt lat="47.776487216555935" lon="-1.7304316117298957"><ele>49.0</ele><time>2026-04-12T16:07:39Z</time></trkpt><trkpt lat="47.77667027070028" lon="-1.7304830033479273"><ele>49.0</ele><time>2026-04-12T16:07:40Z</time></trkpt><trkpt lat="47.77683292530805" lon="-1.7305301823530732"><ele>49.0</ele><time>2026-04-12T16:07:41Z</time></trkpt><trkpt lat="47.776966837421575" lon="-1.7305607923184205"><ele>49.2</ele><time>2026-04-12T16:07:42Z</time></trkpt><trkpt lat="47.777092732194696" lon="-1.7305948246223914"><ele>49.400000000000006</ele><time>2026-04-12T16:07:43Z</time></trkpt><trkpt lat="47.77720327429167" lon="-1.7306208518284407"><ele>49.6</ele><time>2026-04-12T16:07:44Z</time></trkpt><trkpt lat="47.777296166946996" lon="-1.7306456473325482"><ele>49.8</ele><time>2026-04-12T16:07:45Z</time></trkpt><trkpt lat="47.77736178021563" lon="-1.730670094190315"><ele>50.0</ele><time>2026-04-12T16:07:46Z</time></trkpt><trkpt lat="47.777431007894016" lon="-1.7306919783310786"><ele>50.00000000000001</ele><time>2026-04-12T16:07:47Z</time></trkpt><trkpt lat="47.77749401615995" lon="-1.7306842603623949"><ele>50.0</ele><time>2026-04-12T16:07:48Z</time></trkpt><trkpt lat="47.77759260803124" lon="-1.7307024666601067"><ele>50.0</ele><time>2026-04-12T16:07:50Z</time></trkpt><trkpt lat="47.77766227532073" lon="-1.7307131668684652"><ele>50.0</ele><time>2026-04-12T16:07:53Z</time></trkpt><trkpt lat="47.77771632054548" lon="-1.7307703062201978"><ele>50.00000000000001</ele><time>2026-04-12T16:08:10.999Z</time></trkpt><trkpt lat="47.777846253744364" lon="-1.7308172402456448"><ele>50.0</ele><time>2026-04-12T16:08:12.999Z</time></trkpt><trkpt lat="47.77791597982442" lon="-1.7308566961169036"><ele>50.5</ele><time>2026-04-12T16:08:13.999Z</time></trkpt><trkpt lat="47.778023929056886" lon="-1.7309154859730753"><ele>51.0</ele><time>2026-04-12T16:08:14.999Z</time></trkpt><trkpt lat="47.77815169753648" lon="-1.7309762457365374"><ele>51.5</ele><time>2026-04-12T16:08:15.999Z</time></trkpt><trkpt lat="47.77828559612271" lon="-1.7310505398902563"><ele>52.0</ele><time>2026-04-12T16:08:16.999Z</time></trkpt><trkpt lat="47.77840343520552" lon="-1.7311323406224401"><ele>52.0</ele><time>2026-04-12T16:08:17.999Z</time></trkpt><trkpt lat="47.77857446647293" lon="-1.7312163394224602"><ele>52.0</ele><time>2026-04-12T16:08:18.999Z</time></trkpt><trkpt lat="47.77875135898727" lon="-1.7313129374276657"><ele>52.0</ele><time>2026-04-12T16:08:19.999Z</time></trkpt><trkpt lat="47.77895376789388" lon="-1.731419436383912"><ele>52.0</ele><time>2026-04-12T16:08:20.999Z</time></trkpt><trkpt lat="47.77917413028957" lon="-1.731543716896216"><ele>52.0</ele><time>2026-04-12T16:08:21.999Z</time></trkpt><trkpt lat="47.77939847706168" lon="-1.7316736864072866"><ele>54.5</ele><time>2026-04-12T16:08:22.999Z</time></trkpt><trkpt lat="47.77963577325653" lon="-1.731792634435986"><ele>57.0</ele><time>2026-04-12T16:08:23.999Z</time></trkpt><trkpt lat="47.77982985716171" lon="-1.7319003313090182"><ele>57.33333333333333</ele><time>2026-04-12T16:08:24.999Z</time></trkpt><trkpt lat="47.77999645479094" lon="-1.7319928742352357"><ele>57.666666666666664</ele><time>2026-04-12T16:08:25.999Z</time></trkpt><trkpt lat="47.78014859659033" lon="-1.7320963195449968"><ele>58.0</ele><time>2026-04-12T16:08:26.999Z</time></trkpt><trkpt lat="47.780293258680736" lon="-1.7321775113335716"><ele>59.666666666666664</ele><time>2026-04-12T16:08:27.999Z</time></trkpt><trkpt lat="47.78045032861418" lon="-1.7322673156012123"><ele>61.33333333333333</ele><time>2026-04-12T16:08:28.999Z</time></trkpt><trkpt lat="47.78060063931316" lon="-1.732334269415503"><ele>63.0</ele><time>2026-04-12T16:08:29.999Z</time></trkpt><trkpt lat="47.78071906736588" lon="-1.7324173923173993"><ele>63.0</ele><time>2026-04-12T16:08:30.999Z</time></trkpt><trkpt lat="47.78081745149239" lon="-1.7324746349817732"><ele>63.0</ele><time>2026-04-12T16:08:31.999Z</time></trkpt><trkpt lat="47.78091438863584" lon="-1.7325236069133498"><ele>63.0</ele><time>2026-04-12T16:08:32.999Z</time></trkpt><trkpt lat="47.78100249468721" lon="-1.7325576413302357"><ele>63.0</ele><time>2026-04-12T16:08:33.999Z</time></trkpt><trkpt lat="47.78110842720954" lon="-1.7326153264133495"><ele>63.0</ele><time>2026-04-12T16:08:34.999Z</time></trkpt><trkpt lat="47.78122363248636" lon="-1.732678509019274"><ele>64.0</ele><time>2026-04-12T16:08:35.999Z</time></trkpt><trkpt lat="47.781328831508254" lon="-1.7327379376924628"><ele>65.0</ele><time>2026-04-12T16:08:36.999Z</time></trkpt><trkpt lat="47.78141973044047" lon="-1.7327892879122202"><ele>66.0</ele><time>2026-04-12T16:08:37.999Z</time></trkpt><trkpt lat="47.781514979714494" lon="-1.732869375965385"><ele>67.0</ele><time>2026-04-12T16:08:38.999Z</time></trkpt><trkpt lat="47.78163947916867" lon="-1.732920973488697"><ele>68.0</ele><time>2026-04-12T16:08:39.999Z</time></trkpt><trkpt lat="47.781763984408634" lon="-1.732998188137495"><ele>70.0</ele><time>2026-04-12T16:08:40.999Z</time></trkpt><trkpt lat="47.78191294466991" lon="-1.73308484330876"><ele>72.0</ele><time>2026-04-12T16:08:41.999Z</time></trkpt><trkpt lat="47.78206767474021" lon="-1.7331707543073493"><ele>74.0</ele><time>2026-04-12T16:08:42.999Z</time></trkpt><trkpt lat="47.782211500447175" lon="-1.7332464648897745"><ele>74.0</ele><time>2026-04-12T16:08:43.999Z</time></trkpt><trkpt lat="47.78235986258127" lon="-1.733335861376292"><ele>74.0</ele><time>2026-04-12T16:08:44.999Z</time></trkpt><trkpt lat="47.78248830758488" lon="-1.733403933176234"><ele>74.0</ele><time>2026-04-12T16:08:45.999Z</time></trkpt><trkpt lat="47.78259719391877" lon="-1.733467204567679"><ele>74.0</ele><time>2026-04-12T16:08:46.999Z</time></trkpt><trkpt lat="47.78269162310841" lon="-1.7334947791002415"><ele>74.66666666666667</ele><time>2026-04-12T16:08:47.999Z</time></trkpt><trkpt lat="47.78277496465165" lon="-1.7335485156119061"><ele>75.33333333333334</ele><time>2026-04-12T16:08:48.999Z</time></trkpt><trkpt lat="47.78286291206036" lon="-1.7336030123190784"><ele>76.0</ele><time>2026-04-12T16:08:49.999Z</time></trkpt><trkpt lat="47.782936486850346" lon="-1.7336442079110916"><ele>76.66666666666667</ele><time>2026-04-12T16:08:50.999Z</time></trkpt><trkpt lat="47.783008023359095" lon="-1.733687672130227"><ele>77.33333333333333</ele><time>2026-04-12T16:08:51.999Z</time></trkpt><trkpt lat="47.783086218899186" lon="-1.7337306872301603"><ele>78.0</ele><time>2026-04-12T16:08:52.999Z</time></trkpt><trkpt lat="47.783174266437506" lon="-1.733780278387573"><ele>78.2</ele><time>2026-04-12T16:08:53.999Z</time></trkpt><trkpt lat="47.783265825407156" lon="-1.7338311852410666"><ele>78.4</ele><time>2026-04-12T16:08:54.999Z</time></trkpt><trkpt lat="47.783356548593275" lon="-1.7338712718203233"><ele>78.60000000000001</ele><time>2026-04-12T16:08:55.999Z</time></trkpt><trkpt lat="47.783471168383315" lon="-1.7338804855697332"><ele>78.8</ele><time>2026-04-12T16:08:56.999Z</time></trkpt><trkpt lat="47.78354725398162" lon="-1.733922518494152"><ele>79.0</ele><time>2026-04-12T16:08:57.999Z</time></trkpt><trkpt lat="47.78361399464089" lon="-1.7339585655391634"><ele>79.80000000000001</ele><time>2026-04-12T16:08:58.999Z</time></trkpt><trkpt lat="47.78368863499431" lon="-1.7339857798069311"><ele>80.60000000000001</ele><time>2026-04-12T16:09:00.999Z</time></trkpt><trkpt lat="47.78377274976474" lon="-1.7339535212936612"><ele>81.4</ele><time>2026-04-12T16:09:03.998Z</time></trkpt><trkpt lat="47.78384851740001" lon="-1.7339462053953627"><ele>82.2</ele><time>2026-04-12T16:09:05.998Z</time></trkpt><trkpt lat="47.783738774368416" lon="-1.7341648768188105"><ele>83.0</ele><time>2026-04-12T16:09:06.998Z</time></trkpt><trkpt lat="47.783959480003865" lon="-1.7340138117358697"><ele>83.0</ele><time>2026-04-12T16:09:07.998Z</time></trkpt><trkpt lat="47.7840250864235" lon="-1.734010997691642"><ele>83.0</ele><time>2026-04-12T16:09:09Z</time></trkpt><trkpt lat="47.784090475220964" lon="-1.7340081929845925"><ele>83.0</ele><time>2026-04-12T16:09:10Z</time></trkpt><trkpt lat="47.784172731247814" lon="-1.7340017665865919"><ele>83.0</ele><time>2026-04-12T16:09:12Z</time></trkpt><trkpt lat="47.78424615934243" lon="-1.7339831525340872"><ele>83.0</ele><time>2026-04-12T16:09:13Z</time></trkpt><trkpt lat="47.78430939337131" lon="-1.733966002184595"><ele>83.0</ele><time>2026-04-12T16:09:14Z</time></trkpt><trkpt lat="47.78478323832129" lon="-1.7339811036205601"><ele>83.5</ele><time>2026-04-12T16:09:16Z</time></trkpt><trkpt lat="47.78490721501724" lon="-1.7339886888189724"><ele>84.0</ele><time>2026-04-12T16:09:18Z</time></trkpt><trkpt lat="47.78504619445883" lon="-1.7340461807708811"><ele>84.5</ele><time>2026-04-12T16:09:19Z</time></trkpt><trkpt lat="47.78517559680482" lon="-1.734085880684137"><ele>85.0</ele><time>2026-04-12T16:09:20Z</time></trkpt><trkpt lat="47.78531978422158" lon="-1.7340858650033102"><ele>85.0</ele><time>2026-04-12T16:09:21Z</time></trkpt><trkpt lat="47.7855151840064" lon="-1.7341229428236133"><ele>85.0</ele><time>2026-04-12T16:09:22Z</time></trkpt><trkpt lat="47.78572708022515" lon="-1.7341433662991592"><ele>85.0</ele><time>2026-04-12T16:09:23Z</time></trkpt><trkpt lat="47.78603224025213" lon="-1.7341743854461062"><ele>84.66666666666666</ele><time>2026-04-12T16:09:24Z</time></trkpt><trkpt lat="47.786203899926626" lon="-1.7341907115705661"><ele>84.33333333333333</ele><time>2026-04-12T16:09:25Z</time></trkpt><trkpt lat="47.786369430250545" lon="-1.7342043859547418"><ele>84.0</ele><time>2026-04-12T16:09:26Z</time></trkpt><trkpt lat="47.786537838174965" lon="-1.7342247104727564"><ele>84.0</ele><time>2026-04-12T16:09:27Z</time></trkpt><trkpt lat="47.7867124687387" lon="-1.7342579708029744"><ele>84.0</ele><time>2026-04-12T16:09:28Z</time></trkpt><trkpt lat="47.786907168168945" lon="-1.7342872004654415"><ele>84.0</ele><time>2026-04-12T16:09:29Z</time></trkpt><trkpt lat="47.787047067964316" lon="-1.7343305949568886"><ele>84.0</ele><time>2026-04-12T16:09:30Z</time></trkpt><trkpt lat="47.787167132312995" lon="-1.734354432739297"><ele>84.0</ele><time>2026-04-12T16:09:31Z</time></trkpt><trkpt lat="47.78729063159587" lon="-1.7343499806929632"><ele>84.0</ele><time>2026-04-12T16:09:32Z</time></trkpt><trkpt lat="47.78742665312431" lon="-1.734358502774217"><ele>84.0</ele><time>2026-04-12T16:09:33Z</time></trkpt><trkpt lat="47.78753672797742" lon="-1.7343645169070399"><ele>84.0</ele><time>2026-04-12T16:09:34Z</time></trkpt><trkpt lat="47.78765575865796" lon="-1.7343814217585234"><ele>84.0</ele><time>2026-04-12T16:09:35Z</time></trkpt><trkpt lat="47.78777687494887" lon="-1.7344062339132924"><ele>84.0</ele><time>2026-04-12T16:09:36Z</time></trkpt><trkpt lat="47.78790306008093" lon="-1.7344136873006544"><ele>84.0</ele><time>2026-04-12T16:09:37Z</time></trkpt><trkpt lat="47.78803215285546" lon="-1.7344412780058582"><ele>81.75</ele><time>2026-04-12T16:09:38Z</time></trkpt><trkpt lat="47.78815857335029" lon="-1.7344533208462456"><ele>79.5</ele><time>2026-04-12T16:09:39Z</time></trkpt><trkpt lat="47.78830113589374" lon="-1.7344761631668322"><ele>77.25</ele><time>2026-04-12T16:09:40Z</time></trkpt><trkpt lat="47.788453462778804" lon="-1.7344962921051632"><ele>75.0</ele><time>2026-04-12T16:09:41Z</time></trkpt><trkpt lat="47.78858340095" lon="-1.7345333064060489"><ele>73.25</ele><time>2026-04-12T16:09:42Z</time></trkpt><trkpt lat="47.78872401415056" lon="-1.7345353841480522"><ele>71.5</ele><time>2026-04-12T16:09:43Z</time></trkpt><trkpt lat="47.78886520846561" lon="-1.7345709606582362"><ele>69.75</ele><time>2026-04-12T16:09:44Z</time></trkpt><trkpt lat="47.78899820220709" lon="-1.73458093618137"><ele>68.0</ele><time>2026-04-12T16:09:45Z</time></trkpt><trkpt lat="47.789101870135944" lon="-1.7346111703854048"><ele>68.0</ele><time>2026-04-12T16:09:46Z</time></trkpt><trkpt lat="47.7892014360993" lon="-1.7346121415986377"><ele>68.0</ele><time>2026-04-12T16:09:47Z</time></trkpt><trkpt lat="47.789289384068994" lon="-1.7346237997693184"><ele>68.0</ele><time>2026-04-12T16:09:48Z</time></trkpt><trkpt lat="47.78942440014872" lon="-1.7346416971567329"><ele>68.0</ele><time>2026-04-12T16:09:49Z</time></trkpt><trkpt lat="47.78954727432448" lon="-1.7346579850540331"><ele>68.0</ele><time>2026-04-12T16:09:50Z</time></trkpt><trkpt lat="47.789675060015064" lon="-1.734674924005454"><ele>66.66666666666667</ele><time>2026-04-12T16:09:51Z</time></trkpt><trkpt lat="47.789790582094575" lon="-1.7347070154755984"><ele>65.33333333333333</ele><time>2026-04-12T16:09:53Z</time></trkpt><trkpt lat="47.78970224815357" lon="-1.7350960874026737"><ele>64.0</ele><time>2026-04-12T16:10:00.999Z</time></trkpt><trkpt lat="47.78968820325371" lon="-1.7352507012748233"><ele>64.0</ele><time>2026-04-12T16:10:01.999Z</time></trkpt><trkpt lat="47.78967827739546" lon="-1.7353624229547349"><ele>64.0</ele><time>2026-04-12T16:10:02.999Z</time></trkpt><trkpt lat="47.78966330279621" lon="-1.7355309715861515"><ele>64.0</ele><time>2026-04-12T16:10:04.999Z</time></trkpt><trkpt lat="47.78962545590173" lon="-1.7357166714473695"><ele>64.0</ele><time>2026-04-12T16:10:06.999Z</time></trkpt><trkpt lat="47.789600222795315" lon="-1.7358881281296314"><ele>64.0</ele><time>2026-04-12T16:10:08.999Z</time></trkpt><trkpt lat="47.78960569858808" lon="-1.735989346201764"><ele>63.6</ele><time>2026-04-12T16:10:09.999Z</time></trkpt><trkpt lat="47.7896025499003" lon="-1.736140344390511"><ele>63.2</ele><time>2026-04-12T16:10:11.999Z</time></trkpt><trkpt lat="47.78958639843088" lon="-1.7363170070962466"><ele>62.800000000000004</ele><time>2026-04-12T16:10:12.999Z</time></trkpt><trkpt lat="47.789578661563695" lon="-1.7364330233403653"><ele>62.400000000000006</ele><time>2026-04-12T16:10:13.999Z</time></trkpt><trkpt lat="47.78955757677417" lon="-1.736543852612502"><ele>62.0</ele><time>2026-04-12T16:10:14.999Z</time></trkpt><trkpt lat="47.78953218775396" lon="-1.736701523039376"><ele>62.00000000000001</ele><time>2026-04-12T16:10:16.999Z</time></trkpt><trkpt lat="47.78952796434098" lon="-1.7368538431666554"><ele>62.0</ele><time>2026-04-12T16:10:18.999Z</time></trkpt><trkpt lat="47.78951260682911" lon="-1.737023002146916"><ele>62.0</ele><time>2026-04-12T16:10:21.999Z</time></trkpt><trkpt lat="47.78948785479204" lon="-1.7371179860974897"><ele>62.0</ele><time>2026-04-12T16:10:22.999Z</time></trkpt><trkpt lat="47.78950435832709" lon="-1.737213173608871"><ele>62.00000000000001</ele><time>2026-04-12T16:10:23.999Z</time></trkpt><trkpt lat="47.789488248638136" lon="-1.7373410146510029"><ele>62.0</ele><time>2026-04-12T16:10:25.999Z</time></trkpt><trkpt lat="47.78947149805665" lon="-1.7374361435108996"><ele>61.833333333333336</ele><time>2026-04-12T16:10:26.999Z</time></trkpt><trkpt lat="47.78945869311177" lon="-1.7375303365798236"><ele>61.66666666666667</ele><time>2026-04-12T16:10:27.999Z</time></trkpt><trkpt lat="47.78944729921925" lon="-1.7376352466371212"><ele>61.5</ele><time>2026-04-12T16:10:28.999Z</time></trkpt><trkpt lat="47.78942675463814" lon="-1.7378659954297857"><ele>61.33333333333333</ele><time>2026-04-12T16:10:30.999Z</time></trkpt><trkpt lat="47.78942104927107" lon="-1.737963047281732"><ele>61.166666666666664</ele><time>2026-04-12T16:10:31.999Z</time></trkpt><trkpt lat="47.78940268549421" lon="-1.738081506508621"><ele>61.0</ele><time>2026-04-12T16:10:32.999Z</time></trkpt><trkpt lat="47.789404645138944" lon="-1.7382028845612354"><ele>60.83333333333333</ele><time>2026-04-12T16:10:33.999Z</time></trkpt><trkpt lat="47.78939396328715" lon="-1.7383184107837506"><ele>60.666666666666664</ele><time>2026-04-12T16:10:34.999Z</time></trkpt><trkpt lat="47.78938520096323" lon="-1.738413177040244"><ele>60.5</ele><time>2026-04-12T16:10:35.999Z</time></trkpt><trkpt lat="47.78935336122427" lon="-1.7385759587540635"><ele>60.33333333333333</ele><time>2026-04-12T16:10:37.999Z</time></trkpt><trkpt lat="47.78934297145792" lon="-1.7386947611504031"><ele>60.166666666666664</ele><time>2026-04-12T16:10:38.999Z</time></trkpt><trkpt lat="47.78935300645588" lon="-1.7388487660933931"><ele>60.0</ele><time>2026-04-12T16:10:39.999Z</time></trkpt><trkpt lat="47.78934254763626" lon="-1.7389863616626455"><ele>60.2</ele><time>2026-04-12T16:10:40.999Z</time></trkpt><trkpt lat="47.78933426114388" lon="-1.7391168046335108"><ele>60.4</ele><time>2026-04-12T16:10:41.999Z</time></trkpt><trkpt lat="47.7893227679724" lon="-1.7392480790096283"><ele>60.599999999999994</ele><time>2026-04-12T16:10:42.999Z</time></trkpt><trkpt lat="47.789298007924046" lon="-1.739384471954865"><ele>60.8</ele><time>2026-04-12T16:10:43.999Z</time></trkpt><trkpt lat="47.789289671212124" lon="-1.7395359211040413"><ele>61.0</ele><time>2026-04-12T16:10:44.999Z</time></trkpt><trkpt lat="47.7892786995974" lon="-1.739677136716613"><ele>60.99999999999999</ele><time>2026-04-12T16:10:45.999Z</time></trkpt><trkpt lat="47.78925937506833" lon="-1.7398030214923392"><ele>61.0</ele><time>2026-04-12T16:10:46.999Z</time></trkpt><trkpt lat="47.789237554024076" lon="-1.7399093136744352"><ele>60.99999999999999</ele><time>2026-04-12T16:10:47.999Z</time></trkpt><trkpt lat="47.789237894274464" lon="-1.7400158033919573"><ele>60.99999999999999</ele><time>2026-04-12T16:10:48.999Z</time></trkpt><trkpt lat="47.789233530735125" lon="-1.740117675269291"><ele>61.0</ele><time>2026-04-12T16:10:49.999Z</time></trkpt><trkpt lat="47.789218289007536" lon="-1.740218362326826"><ele>60.99999999999999</ele><time>2026-04-12T16:10:51.999Z</time></trkpt><trkpt lat="47.789208255812134" lon="-1.7403250748125063"><ele>60.99999999999999</ele><time>2026-04-12T16:10:53.999Z</time></trkpt><trkpt lat="47.78918337357014" lon="-1.7404780559736632"><ele>60.83333333333333</ele><time>2026-04-12T16:10:55.999Z</time></trkpt><trkpt lat="47.78919334558191" lon="-1.740572058095156"><ele>60.666666666666664</ele><time>2026-04-12T16:10:56.999Z</time></trkpt><trkpt lat="47.789177512906996" lon="-1.7407713795754116"><ele>60.5</ele><time>2026-04-12T16:10:58.998Z</time></trkpt><trkpt lat="47.78916164568507" lon="-1.740876375018601"><ele>60.33333333333333</ele><time>2026-04-12T16:10:59.998Z</time></trkpt><trkpt lat="47.7891350374425" lon="-1.7410079711000281"><ele>60.166666666666664</ele><time>2026-04-12T16:11:00.998Z</time></trkpt><trkpt lat="47.789126013882694" lon="-1.741131171359735"><ele>60.0</ele><time>2026-04-12T16:11:01.998Z</time></trkpt><trkpt lat="47.78910919943789" lon="-1.7412514343934151"><ele>59.8</ele><time>2026-04-12T16:11:02.998Z</time></trkpt><trkpt lat="47.789099610733324" lon="-1.7413532430146568"><ele>59.6</ele><time>2026-04-12T16:11:03.998Z</time></trkpt><trkpt lat="47.7890910550237" lon="-1.7414471535253961"><ele>59.400000000000006</ele><time>2026-04-12T16:11:04.998Z</time></trkpt><trkpt lat="47.78910309884868" lon="-1.7415487540907966"><ele>59.2</ele><time>2026-04-12T16:11:08.998Z</time></trkpt><trkpt lat="47.78892729227421" lon="-1.7416485237977584"><ele>59.0</ele><time>2026-04-12T16:11:28.999Z</time></trkpt><trkpt lat="47.78881567318833" lon="-1.741670165043163"><ele>59.0</ele><time>2026-04-12T16:11:30.999Z</time></trkpt><trkpt lat="47.788687355944674" lon="-1.741724804256747"><ele>59.00000000000001</ele><time>2026-04-12T16:11:32.999Z</time></trkpt><trkpt lat="47.78860809674405" lon="-1.7417436891593832"><ele>59.00000000000001</ele><time>2026-04-12T16:11:33.999Z</time></trkpt><trkpt lat="47.78852806035016" lon="-1.7417627592494591"><ele>59.0</ele><time>2026-04-12T16:11:34.999Z</time></trkpt><trkpt lat="47.788442097910696" lon="-1.7417832412903291"><ele>59.0</ele><time>2026-04-12T16:11:35.999Z</time></trkpt><trkpt lat="47.78833410894043" lon="-1.741808971543923"><ele>59.400000000000006</ele><time>2026-04-12T16:11:36.999Z</time></trkpt><trkpt lat="47.78821831173472" lon="-1.741836562267971"><ele>59.800000000000004</ele><time>2026-04-12T16:11:37.999Z</time></trkpt><trkpt lat="47.788117095587346" lon="-1.741860279685391"><ele>60.199999999999996</ele><time>2026-04-12T16:11:38.999Z</time></trkpt><trkpt lat="47.78801962656756" lon="-1.7418609527773556"><ele>60.599999999999994</ele><time>2026-04-12T16:11:39.999Z</time></trkpt><trkpt lat="47.787943534537156" lon="-1.7419302854959196"><ele>61.0</ele><time>2026-04-12T16:11:40.999Z</time></trkpt><trkpt lat="47.787860833639755" lon="-1.7419446341465783"><ele>61.0</ele><time>2026-04-12T16:11:41.999Z</time></trkpt><trkpt lat="47.78777073225283" lon="-1.7419655072246627"><ele>60.99999999999999</ele><time>2026-04-12T16:11:42.999Z</time></trkpt><trkpt lat="47.78768547455767" lon="-1.7419852581120177"><ele>60.99999999999999</ele><time>2026-04-12T16:11:43.999Z</time></trkpt><trkpt lat="47.78759298444425" lon="-1.7420066842493191"><ele>61.0</ele><time>2026-04-12T16:11:44.999Z</time></trkpt><trkpt lat="47.787461413897475" lon="-1.7420371639562786"><ele>61.0</ele><time>2026-04-12T16:11:45.999Z</time></trkpt><trkpt lat="47.78724406423236" lon="-1.742087516066736"><ele>63.0</ele><time>2026-04-12T16:11:46.999Z</time></trkpt><trkpt lat="47.78706095470292" lon="-1.742134519035145"><ele>65.0</ele><time>2026-04-12T16:11:47.999Z</time></trkpt><trkpt lat="47.786946197182544" lon="-1.7421750001347889"><ele>67.0</ele><time>2026-04-12T16:11:48.999Z</time></trkpt><trkpt lat="47.78672235557087" lon="-1.7421778674407287"><ele>68.0</ele><time>2026-04-12T16:11:49.999Z</time></trkpt><trkpt lat="47.78658593847187" lon="-1.742203679130241"><ele>69.0</ele><time>2026-04-12T16:11:50.999Z</time></trkpt><trkpt lat="47.78644267475041" lon="-1.7422249487039605"><ele>70.0</ele><time>2026-04-12T16:11:51.999Z</time></trkpt><trkpt lat="47.78629669238803" lon="-1.742252999246059"><ele>71.0</ele><time>2026-04-12T16:11:52.999Z</time></trkpt><trkpt lat="47.78614445108875" lon="-1.7422757548099106"><ele>71.5</ele><time>2026-04-12T16:11:53.999Z</time></trkpt><trkpt lat="47.78599760194853" lon="-1.742294362956705"><ele>72.0</ele><time>2026-04-12T16:11:54.999Z</time></trkpt><trkpt lat="47.78585555009821" lon="-1.7423014887258388"><ele>72.5</ele><time>2026-04-12T16:11:55.999Z</time></trkpt><trkpt lat="47.785723953373555" lon="-1.7422508957036829"><ele>73.0</ele><time>2026-04-12T16:11:56.999Z</time></trkpt><trkpt lat="47.78560457636384" lon="-1.7422258187409951"><ele>73.0</ele><time>2026-04-12T16:11:57.999Z</time></trkpt><trkpt lat="47.78551906814187" lon="-1.7422328506669966"><ele>73.0</ele><time>2026-04-12T16:11:58.999Z</time></trkpt><trkpt lat="47.785438319417494" lon="-1.7422218598123274"><ele>73.0</ele><time>2026-04-12T16:11:59.999Z</time></trkpt><trkpt lat="47.7853334616803" lon="-1.7421983763110491"><ele>73.0</ele><time>2026-04-12T16:12:01.999Z</time></trkpt><trkpt lat="47.785330631717194" lon="-1.7425318044005753"><ele>73.0</ele><time>2026-04-12T16:12:04.999Z</time></trkpt><trkpt lat="47.785327876418485" lon="-1.7426849684496977"><ele>73.0</ele><time>2026-04-12T16:12:05.999Z</time></trkpt><trkpt lat="47.78532481543653" lon="-1.7428551250549176"><ele>73.0</ele><time>2026-04-12T16:12:06.999Z</time></trkpt><trkpt lat="47.78532149599462" lon="-1.7430396495257676"><ele>73.0</ele><time>2026-04-12T16:12:07.999Z</time></trkpt><trkpt lat="47.785318018249114" lon="-1.7432329734808747"><ele>72.0</ele><time>2026-04-12T16:12:08.999Z</time></trkpt><trkpt lat="47.78531462997077" lon="-1.7434213242143075"><ele>71.0</ele><time>2026-04-12T16:12:09.999Z</time></trkpt><trkpt lat="47.785310519199996" lon="-1.7436116883517911"><ele>70.0</ele><time>2026-04-12T16:12:10.999Z</time></trkpt><trkpt lat="47.785310867710415" lon="-1.7438378206480634"><ele>69.0</ele><time>2026-04-12T16:12:11.999Z</time></trkpt><trkpt lat="47.78530746574661" lon="-1.7440296637012427"><ele>68.0</ele><time>2026-04-12T16:12:12.999Z</time></trkpt><trkpt lat="47.785303976126386" lon="-1.7442378145727964"><ele>67.0</ele><time>2026-04-12T16:12:13.999Z</time></trkpt><trkpt lat="47.785308345497064" lon="-1.7444292666061898"><ele>66.0</ele><time>2026-04-12T16:12:14.999Z</time></trkpt><trkpt lat="47.78529906845876" lon="-1.7445942160948564"><ele>65.0</ele><time>2026-04-12T16:12:15.999Z</time></trkpt><trkpt lat="47.78528978314873" lon="-1.7447482170788549"><ele>64.6</ele><time>2026-04-12T16:12:16.999Z</time></trkpt><trkpt lat="47.785277633606796" lon="-1.7448908993130285"><ele>64.2</ele><time>2026-04-12T16:12:17.999Z</time></trkpt><trkpt lat="47.78526292315433" lon="-1.7450422631315856"><ele>63.8</ele><time>2026-04-12T16:12:18.999Z</time></trkpt><trkpt lat="47.785260493653624" lon="-1.7451760626304733"><ele>63.4</ele><time>2026-04-12T16:12:19.999Z</time></trkpt><trkpt lat="47.78525789969087" lon="-1.7453035980776135"><ele>63.0</ele><time>2026-04-12T16:12:20.999Z</time></trkpt><trkpt lat="47.78525370933642" lon="-1.7454414509359744"><ele>62.4</ele><time>2026-04-12T16:12:21.999Z</time></trkpt><trkpt lat="47.78526206279595" lon="-1.7455612596294054"><ele>61.8</ele><time>2026-04-12T16:12:22.999Z</time></trkpt><trkpt lat="47.78522661706493" lon="-1.7456748388397763"><ele>61.2</ele><time>2026-04-12T16:12:23.999Z</time></trkpt><trkpt lat="47.78519890481942" lon="-1.745805547546769"><ele>60.6</ele><time>2026-04-12T16:12:24.999Z</time></trkpt><trkpt lat="47.78516310624544" lon="-1.7459356581367136"><ele>60.0</ele><time>2026-04-12T16:12:25.999Z</time></trkpt><trkpt lat="47.78512316266075" lon="-1.746073464551899"><ele>60.0</ele><time>2026-04-12T16:12:26.999Z</time></trkpt><trkpt lat="47.785069320343034" lon="-1.746206847433125"><ele>60.0</ele><time>2026-04-12T16:12:27.999Z</time></trkpt><trkpt lat="47.785016935933015" lon="-1.7463372902471808"><ele>60.0</ele><time>2026-04-12T16:12:28.999Z</time></trkpt><trkpt lat="47.78493391113543" lon="-1.746442385459292"><ele>60.0</ele><time>2026-04-12T16:12:29.999Z</time></trkpt><trkpt lat="47.78485127922224" lon="-1.7465887571532237"><ele>60.0</ele><time>2026-04-12T16:12:30.999Z</time></trkpt><trkpt lat="47.784732324202295" lon="-1.7466864337407881"><ele>60.0</ele><time>2026-04-12T16:12:31.999Z</time></trkpt><trkpt lat="47.78462694867098" lon="-1.7468188397857989"><ele>60.0</ele><time>2026-04-12T16:12:32.999Z</time></trkpt><trkpt lat="47.78453084980895" lon="-1.7470087620885686"><ele>60.0</ele><time>2026-04-12T16:12:33.999Z</time></trkpt><trkpt lat="47.784457797938195" lon="-1.7471261632322312"><ele>60.0</ele><time>2026-04-12T16:12:34.999Z</time></trkpt><trkpt lat="47.784373952040966" lon="-1.7472379499001232"><ele>60.666666666666664</ele><time>2026-04-12T16:12:35.999Z</time></trkpt><trkpt lat="47.78429400951702" lon="-1.7473431835427005"><ele>61.33333333333333</ele><time>2026-04-12T16:12:36.999Z</time></trkpt><trkpt lat="47.78423046856142" lon="-1.7474432943213678"><ele>62.0</ele><time>2026-04-12T16:12:37.999Z</time></trkpt><trkpt lat="47.78420553052072" lon="-1.7475472766743252"><ele>62.666666666666664</ele><time>2026-04-12T16:12:38.999Z</time></trkpt><trkpt lat="47.7841587821093" lon="-1.7476374650974618"><ele>63.33333333333333</ele><time>2026-04-12T16:12:39.999Z</time></trkpt><trkpt lat="47.78413165532294" lon="-1.7477572324951085"><ele>64.0</ele><time>2026-04-12T16:12:40.999Z</time></trkpt><trkpt lat="47.784075555201156" lon="-1.747866365261187"><ele>64.4</ele><time>2026-04-12T16:12:41.999Z</time></trkpt><trkpt lat="47.78403632285349" lon="-1.748007365830094"><ele>64.80000000000001</ele><time>2026-04-12T16:12:42.999Z</time></trkpt><trkpt lat="47.78399303968667" lon="-1.7481577285572365"><ele>65.19999999999999</ele><time>2026-04-12T16:12:43.999Z</time></trkpt><trkpt lat="47.78396503810523" lon="-1.748323037836764"><ele>65.6</ele><time>2026-04-12T16:12:44.999Z</time></trkpt><trkpt lat="47.78390869983097" lon="-1.748476108529274"><ele>66.0</ele><time>2026-04-12T16:12:45.999Z</time></trkpt><trkpt lat="47.78387495156282" lon="-1.7486579804527027"><ele>66.75</ele><time>2026-04-12T16:12:46.999Z</time></trkpt><trkpt lat="47.7838251811672" lon="-1.7488337433694767"><ele>67.5</ele><time>2026-04-12T16:12:47.999Z</time></trkpt><trkpt lat="47.783774997573516" lon="-1.7490114798937366"><ele>68.25</ele><time>2026-04-12T16:12:48.999Z</time></trkpt><trkpt lat="47.783721380752276" lon="-1.7492028144071485"><ele>69.0</ele><time>2026-04-12T16:12:49.999Z</time></trkpt><trkpt lat="47.783659395382315" lon="-1.74942014298959"><ele>69.66666666666667</ele><time>2026-04-12T16:12:50.999Z</time></trkpt><trkpt lat="47.78361036331959" lon="-1.7496666952417699"><ele>70.33333333333334</ele><time>2026-04-12T16:12:51.999Z</time></trkpt><trkpt lat="47.783553927296" lon="-1.7498714530994754"><ele>71.0</ele><time>2026-04-12T16:12:52.999Z</time></trkpt><trkpt lat="47.783502827537106" lon="-1.7500585474864578"><ele>71.5</ele><time>2026-04-12T16:12:53.999Z</time></trkpt><trkpt lat="47.78345263047779" lon="-1.7502361073932262"><ele>72.0</ele><time>2026-04-12T16:12:54.999Z</time></trkpt><trkpt lat="47.783405548369096" lon="-1.7504161808805374"><ele>72.5</ele><time>2026-04-12T16:12:55.998Z</time></trkpt><trkpt lat="47.78335708590611" lon="-1.750599797895074"><ele>73.0</ele><time>2026-04-12T16:12:56.998Z</time></trkpt><trkpt lat="47.78330623742804" lon="-1.7507789169549224"><ele>73.0</ele><time>2026-04-12T16:12:57.998Z</time></trkpt><trkpt lat="47.783252848851106" lon="-1.7509700526754133"><ele>73.0</ele><time>2026-04-12T16:12:58.998Z</time></trkpt><trkpt lat="47.78319997073998" lon="-1.751167926400219"><ele>73.0</ele><time>2026-04-12T16:12:59.998Z</time></trkpt><trkpt lat="47.783145906868896" lon="-1.7513561455337943"><ele>73.0</ele><time>2026-04-12T16:13:00.998Z</time></trkpt><trkpt lat="47.78309450735158" lon="-1.7515378776077966"><ele>73.5</ele><time>2026-04-12T16:13:01.998Z</time></trkpt><trkpt lat="47.78304006198332" lon="-1.7517353919355478"><ele>74.0</ele><time>2026-04-12T16:13:02.998Z</time></trkpt><trkpt lat="47.78298692069967" lon="-1.7519370900067825"><ele>74.5</ele><time>2026-04-12T16:13:03.998Z</time></trkpt><trkpt lat="47.78294751127147" lon="-1.7521380040353807"><ele>75.0</ele><time>2026-04-12T16:13:04.998Z</time></trkpt><trkpt lat="47.782891968615154" lon="-1.7523542164296866"><ele>75.33333333333333</ele><time>2026-04-12T16:13:05.998Z</time></trkpt><trkpt lat="47.782835987496846" lon="-1.7525702324373575"><ele>75.66666666666666</ele><time>2026-04-12T16:13:06.998Z</time></trkpt><trkpt lat="47.78277939941719" lon="-1.75278082455656"><ele>76.0</ele><time>2026-04-12T16:13:07.998Z</time></trkpt><trkpt lat="47.78270787759419" lon="-1.7529827370594577"><ele>75.0</ele><time>2026-04-12T16:13:08.998Z</time></trkpt><trkpt lat="47.78266533050698" lon="-1.753207285376018"><ele>74.0</ele><time>2026-04-12T16:13:09.998Z</time></trkpt><trkpt lat="47.78259693040463" lon="-1.7534254078191076"><ele>73.0</ele><time>2026-04-12T16:13:10.998Z</time></trkpt><trkpt lat="47.782542201676364" lon="-1.7536684207449853"><ele>72.33333333333333</ele><time>2026-04-12T16:13:11.998Z</time></trkpt><trkpt lat="47.78247841462539" lon="-1.7539073123181468"><ele>71.66666666666667</ele><time>2026-04-12T16:13:12.998Z</time></trkpt><trkpt lat="47.782412116680646" lon="-1.7541519448940963"><ele>71.0</ele><time>2026-04-12T16:13:13.998Z</time></trkpt><trkpt lat="47.78235370604877" lon="-1.7543640404332412"><ele>70.5</ele><time>2026-04-12T16:13:14.998Z</time></trkpt><trkpt lat="47.782299811400705" lon="-1.7545597367582442"><ele>70.0</ele><time>2026-04-12T16:13:15.998Z</time></trkpt><trkpt lat="47.78224709297497" lon="-1.7547511637094975"><ele>69.5</ele><time>2026-04-12T16:13:16.998Z</time></trkpt><trkpt lat="47.78219962486355" lon="-1.7549238017022208"><ele>69.0</ele><time>2026-04-12T16:13:17.998Z</time></trkpt><trkpt lat="47.782152517340094" lon="-1.7550969821909104"><ele>68.75</ele><time>2026-04-12T16:13:18.998Z</time></trkpt><trkpt lat="47.78210702919212" lon="-1.7552699478065135"><ele>68.5</ele><time>2026-04-12T16:13:19.998Z</time></trkpt><trkpt lat="47.7820594977154" lon="-1.7554506835380443"><ele>68.25</ele><time>2026-04-12T16:13:21Z</time></trkpt><trkpt lat="47.78201149764389" lon="-1.7556332006213338"><ele>68.0</ele><time>2026-04-12T16:13:22Z</time></trkpt><trkpt lat="47.78196720013168" lon="-1.7558062821632523"><ele>68.0</ele><time>2026-04-12T16:13:23Z</time></trkpt><trkpt lat="47.781926945815414" lon="-1.755963720042971"><ele>68.0</ele><time>2026-04-12T16:13:24Z</time></trkpt><trkpt lat="47.78189119781758" lon="-1.7561035349639544"><ele>68.0</ele><time>2026-04-12T16:13:25Z</time></trkpt><trkpt lat="47.78185768247147" lon="-1.756232738937637"><ele>68.0</ele><time>2026-04-12T16:13:26Z</time></trkpt><trkpt lat="47.78182554473486" lon="-1.756344465351779"><ele>68.0</ele><time>2026-04-12T16:13:27Z</time></trkpt><trkpt lat="47.78179501960706" lon="-1.756457622927968"><ele>68.5</ele><time>2026-04-12T16:13:28Z</time></trkpt><trkpt lat="47.78176653987824" lon="-1.7565458380466294"><ele>69.0</ele><time>2026-04-12T16:13:29Z</time></trkpt><trkpt lat="47.78172885412341" lon="-1.7566836884148764"><ele>69.5</ele><time>2026-04-12T16:13:31Z</time></trkpt><trkpt lat="47.7817229920548" lon="-1.7568094238460077"><ele>70.0</ele><time>2026-04-12T16:13:33Z</time></trkpt><trkpt lat="47.781718030469726" lon="-1.756906409873254"><ele>70.5</ele><time>2026-04-12T16:13:35Z</time></trkpt><trkpt lat="47.78163970872236" lon="-1.756949315673147"><ele>71.0</ele><time>2026-04-12T16:13:36Z</time></trkpt><trkpt lat="47.78157210506148" lon="-1.757004764394008"><ele>71.2</ele><time>2026-04-12T16:13:37Z</time></trkpt><trkpt lat="47.78149313737558" lon="-1.7570395259215872"><ele>71.39999999999999</ele><time>2026-04-12T16:13:38Z</time></trkpt><trkpt lat="47.78138251256479" lon="-1.7570940872080152"><ele>71.6</ele><time>2026-04-12T16:13:39Z</time></trkpt><trkpt lat="47.78126798539013" lon="-1.7571445815350464"><ele>71.8</ele><time>2026-04-12T16:13:40Z</time></trkpt><trkpt lat="47.7811533795492" lon="-1.757204402376774"><ele>72.0</ele><time>2026-04-12T16:13:41Z</time></trkpt><trkpt lat="47.78106324958044" lon="-1.7572615460533423"><ele>72.4</ele><time>2026-04-12T16:13:42Z</time></trkpt><trkpt lat="47.78097156028996" lon="-1.7573135129791255"><ele>72.80000000000001</ele><time>2026-04-12T16:13:43Z</time></trkpt><trkpt lat="47.78086632333771" lon="-1.7573699999778418"><ele>73.2</ele><time>2026-04-12T16:13:44Z</time></trkpt><trkpt lat="47.78075226536242" lon="-1.7574023775501386"><ele>73.60000000000001</ele><time>2026-04-12T16:13:45Z</time></trkpt><trkpt lat="47.7806478731534" lon="-1.7574158316493658"><ele>74.0</ele><time>2026-04-12T16:13:46Z</time></trkpt><trkpt lat="47.78054508447884" lon="-1.7573801639820914"><ele>74.0</ele><time>2026-04-12T16:13:47Z</time></trkpt><trkpt lat="47.78044427325102" lon="-1.7573296154112177"><ele>74.0</ele><time>2026-04-12T16:13:48Z</time></trkpt><trkpt lat="47.780317623040105" lon="-1.757239114516308"><ele>74.0</ele><time>2026-04-12T16:13:49Z</time></trkpt><trkpt lat="47.78018116928085" lon="-1.75713504049663"><ele>74.0</ele><time>2026-04-12T16:13:50Z</time></trkpt><trkpt lat="47.780031146085435" lon="-1.7570457362588598"><ele>75.0</ele><time>2026-04-12T16:13:51Z</time></trkpt><trkpt lat="47.77991200161889" lon="-1.7569167854757612"><ele>76.0</ele><time>2026-04-12T16:13:52Z</time></trkpt><trkpt lat="47.779783262992446" lon="-1.756821891765428"><ele>77.0</ele><time>2026-04-12T16:13:53Z</time></trkpt><trkpt lat="47.779673942201065" lon="-1.7567312930768646"><ele>78.0</ele><time>2026-04-12T16:13:54Z</time></trkpt><trkpt lat="47.77957594446473" lon="-1.7566542385862056"><ele>78.0</ele><time>2026-04-12T16:13:55Z</time></trkpt><trkpt lat="47.7794880273191" lon="-1.7565847533835908"><ele>78.0</ele><time>2026-04-12T16:13:56Z</time></trkpt><trkpt lat="47.77940421002459" lon="-1.7565117953961409"><ele>78.0</ele><time>2026-04-12T16:13:57Z</time></trkpt><trkpt lat="47.77932406783008" lon="-1.7564462364820534"><ele>78.0</ele><time>2026-04-12T16:13:58Z</time></trkpt><trkpt lat="47.77923488507167" lon="-1.7563815345370324"><ele>78.0</ele><time>2026-04-12T16:13:59Z</time></trkpt><trkpt lat="47.779138048374385" lon="-1.7563112513767993"><ele>78.0</ele><time>2026-04-12T16:14:00Z</time></trkpt><trkpt lat="47.77904721327464" lon="-1.756239557310017"><ele>78.0</ele><time>2026-04-12T16:14:01Z</time></trkpt><trkpt lat="47.77896866460499" lon="-1.7561824238674633"><ele>78.0</ele><time>2026-04-12T16:14:02Z</time></trkpt><trkpt lat="47.778904810603144" lon="-1.7561329803505834"><ele>78.0</ele><time>2026-04-12T16:14:03Z</time></trkpt><trkpt lat="47.77880989645676" lon="-1.7560546728123096"><ele>78.0</ele><time>2026-04-12T16:14:05Z</time></trkpt><trkpt lat="47.77874349087218" lon="-1.7560176173040163"><ele>78.0</ele><time>2026-04-12T16:14:06.999Z</time></trkpt><trkpt lat="47.7786687344895" lon="-1.755974764957028"><ele>77.8</ele><time>2026-04-12T16:14:10.999Z</time></trkpt><trkpt lat="47.77858882324899" lon="-1.755893463212659"><ele>77.6</ele><time>2026-04-12T16:14:12.999Z</time></trkpt><trkpt lat="47.778532934718626" lon="-1.75583166242365"><ele>77.4</ele><time>2026-04-12T16:14:13.999Z</time></trkpt><trkpt lat="47.778463924780134" lon="-1.7557800515109128"><ele>77.2</ele><time>2026-04-12T16:14:14.999Z</time></trkpt><trkpt lat="47.7784021001851" lon="-1.7557271354467374"><ele>77.0</ele><time>2026-04-12T16:14:15.999Z</time></trkpt><trkpt lat="47.778277996224425" lon="-1.755620425044601"><ele>77.0</ele><time>2026-04-12T16:14:16.999Z</time></trkpt><trkpt lat="47.77815941337876" lon="-1.7555237181877164"><ele>77.0</ele><time>2026-04-12T16:14:17.999Z</time></trkpt><trkpt lat="47.778039708377754" lon="-1.7554347000333586"><ele>77.0</ele><time>2026-04-12T16:14:18.999Z</time></trkpt><trkpt lat="47.77791969296504" lon="-1.755361137049273"><ele>77.0</ele><time>2026-04-12T16:14:19.999Z</time></trkpt><trkpt lat="47.777790498207345" lon="-1.7552611525875887"><ele>76.5</ele><time>2026-04-12T16:14:20.999Z</time></trkpt><trkpt lat="47.77767002528388" lon="-1.7551419129608525"><ele>76.0</ele><time>2026-04-12T16:14:21.999Z</time></trkpt><trkpt lat="47.77754468340556" lon="-1.7550487637662098"><ele>75.5</ele><time>2026-04-12T16:14:22.999Z</time></trkpt><trkpt lat="47.77742239062313" lon="-1.7549366982186465"><ele>75.0</ele><time>2026-04-12T16:14:23.999Z</time></trkpt><trkpt lat="47.7773023083386" lon="-1.754780549364666"><ele>75.0</ele><time>2026-04-12T16:14:24.999Z</time></trkpt><trkpt lat="47.77716626145422" lon="-1.7546508281287938"><ele>75.0</ele><time>2026-04-12T16:14:25.999Z</time></trkpt><trkpt lat="47.7770317962902" lon="-1.7545040912824372"><ele>75.0</ele><time>2026-04-12T16:14:26.999Z</time></trkpt><trkpt lat="47.77690085488146" lon="-1.7543646459997841"><ele>76.33333333333333</ele><time>2026-04-12T16:14:27.999Z</time></trkpt><trkpt lat="47.7767681186226" lon="-1.7542180148971287"><ele>77.66666666666666</ele><time>2026-04-12T16:14:28.999Z</time></trkpt><trkpt lat="47.77664239809023" lon="-1.7540793106048176"><ele>79.0</ele><time>2026-04-12T16:14:29.999Z</time></trkpt><trkpt lat="47.776527998353664" lon="-1.7539578866007393"><ele>79.0</ele><time>2026-04-12T16:14:30.999Z</time></trkpt><trkpt lat="47.77643298625384" lon="-1.75386260392722"><ele>79.0</ele><time>2026-04-12T16:14:31.999Z</time></trkpt><trkpt lat="47.77632626534483" lon="-1.753782179457839"><ele>79.0</ele><time>2026-04-12T16:14:32.999Z</time></trkpt><trkpt lat="47.77621964923882" lon="-1.7537333647692501"><ele>79.0</ele><time>2026-04-12T16:14:33.999Z</time></trkpt><trkpt lat="47.776101426343565" lon="-1.7537086755143858"><ele>79.66666666666666</ele><time>2026-04-12T16:14:34.999Z</time></trkpt><trkpt lat="47.77594924296384" lon="-1.7537560624535076"><ele>80.33333333333333</ele><time>2026-04-12T16:14:35.999Z</time></trkpt><trkpt lat="47.775777007689165" lon="-1.7537963612288223"><ele>81.0</ele><time>2026-04-12T16:14:36.999Z</time></trkpt><trkpt lat="47.775569471390995" lon="-1.753824818977951"><ele>81.0</ele><time>2026-04-12T16:14:37.999Z</time></trkpt><trkpt lat="47.77537774025312" lon="-1.753876411983121"><ele>81.0</ele><time>2026-04-12T16:14:38.999Z</time></trkpt><trkpt lat="47.77519118277557" lon="-1.7539228448267583"><ele>81.0</ele><time>2026-04-12T16:14:39.999Z</time></trkpt><trkpt lat="47.77500925069408" lon="-1.7539628526502604"><ele>82.0</ele><time>2026-04-12T16:14:40.999Z</time></trkpt><trkpt lat="47.77485690361892" lon="-1.7539927696304516"><ele>83.0</ele><time>2026-04-12T16:14:41.999Z</time></trkpt><trkpt lat="47.77471401081221" lon="-1.7540196085963835"><ele>84.0</ele><time>2026-04-12T16:14:42.999Z</time></trkpt><trkpt lat="47.7745725094978" lon="-1.75405818396091"><ele>85.0</ele><time>2026-04-12T16:14:43.999Z</time></trkpt><trkpt lat="47.77441880464998" lon="-1.7540925750046719"><ele>85.75</ele><time>2026-04-12T16:14:44.999Z</time></trkpt><trkpt lat="47.77427550924796" lon="-1.7541201754104743"><ele>86.5</ele><time>2026-04-12T16:14:45.999Z</time></trkpt><trkpt lat="47.77414473603529" lon="-1.7541449539883258"><ele>87.25</ele><time>2026-04-12T16:14:46.999Z</time></trkpt><trkpt lat="47.7740333441682" lon="-1.7541705034124269"><ele>88.0</ele><time>2026-04-12T16:14:47.999Z</time></trkpt><trkpt lat="47.773930229689775" lon="-1.7541871704140173"><ele>88.0</ele><time>2026-04-12T16:14:48.999Z</time></trkpt><trkpt lat="47.77382304271102" lon="-1.7542065779106768"><ele>88.0</ele><time>2026-04-12T16:14:49.999Z</time></trkpt><trkpt lat="47.77372147845048" lon="-1.7542276103095824"><ele>88.0</ele><time>2026-04-12T16:14:50.999Z</time></trkpt><trkpt lat="47.773621455239514" lon="-1.7542445689327868"><ele>88.0</ele><time>2026-04-12T16:14:51.999Z</time></trkpt><trkpt lat="47.773534069156234" lon="-1.7542662907592683"><ele>88.0</ele><time>2026-04-12T16:14:52.999Z</time></trkpt><trkpt lat="47.77346657131958" lon="-1.754281215177444"><ele>88.0</ele><time>2026-04-12T16:14:53.999Z</time></trkpt><trkpt lat="47.77340289931892" lon="-1.754277845794717"><ele>88.0</ele><time>2026-04-12T16:14:54.999Z</time></trkpt><trkpt lat="47.773306595473386" lon="-1.754261521540764"><ele>88.0</ele><time>2026-04-12T16:14:56.999Z</time></trkpt><trkpt lat="47.773218155004685" lon="-1.754222044584869"><ele>88.0</ele><time>2026-04-12T16:14:58.999Z</time></trkpt><trkpt lat="47.7731517110585" lon="-1.7542005427292566"><ele>88.0</ele><time>2026-04-12T16:14:59.999Z</time></trkpt><trkpt lat="47.77307203362885" lon="-1.7541782466685774"><ele>88.0</ele><time>2026-04-12T16:15:00.999Z</time></trkpt><trkpt lat="47.77297492935529" lon="-1.7541407906569124"><ele>88.0</ele><time>2026-04-12T16:15:01.999Z</time></trkpt><trkpt lat="47.772853516838275" lon="-1.7541248169209787"><ele>88.0</ele><time>2026-04-12T16:15:02.999Z</time></trkpt><trkpt lat="47.77274984624299" lon="-1.754092218813731"><ele>88.0</ele><time>2026-04-12T16:15:03.999Z</time></trkpt><trkpt lat="47.772634314535104" lon="-1.7540558911001443"><ele>88.0</ele><time>2026-04-12T16:15:04.999Z</time></trkpt><trkpt lat="47.77251293821418" lon="-1.753991580849957"><ele>88.0</ele><time>2026-04-12T16:15:05.999Z</time></trkpt><trkpt lat="47.77238932667256" lon="-1.7539526590191772"><ele>88.0</ele><time>2026-04-12T16:15:06.999Z</time></trkpt><trkpt lat="47.772255299721095" lon="-1.7539144838893352"><ele>88.0</ele><time>2026-04-12T16:15:07.999Z</time></trkpt><trkpt lat="47.77211451866535" lon="-1.7538628590492673"><ele>88.0</ele><time>2026-04-12T16:15:08.999Z</time></trkpt><trkpt lat="47.77196606158984" lon="-1.7538189438985134"><ele>88.0</ele><time>2026-04-12T16:15:09.999Z</time></trkpt><trkpt lat="47.771824849110274" lon="-1.7537735211811234"><ele>88.0</ele><time>2026-04-12T16:15:10.999Z</time></trkpt><trkpt lat="47.77167844768229" lon="-1.7537289271894054"><ele>88.0</ele><time>2026-04-12T16:15:11.999Z</time></trkpt><trkpt lat="47.77153380987466" lon="-1.7536772095034825"><ele>88.0</ele><time>2026-04-12T16:15:12.999Z</time></trkpt><trkpt lat="47.77138903488134" lon="-1.7536278989112069"><ele>88.0</ele><time>2026-04-12T16:15:13.999Z</time></trkpt><trkpt lat="47.77124094253585" lon="-1.753568594242036"><ele>88.0</ele><time>2026-04-12T16:15:14.999Z</time></trkpt><trkpt lat="47.77109177578275" lon="-1.7535082614815651"><ele>88.0</ele><time>2026-04-12T16:15:15.999Z</time></trkpt><trkpt lat="47.77094323117322" lon="-1.7534525407610542"><ele>88.0</ele><time>2026-04-12T16:15:16.999Z</time></trkpt><trkpt lat="47.770789382611625" lon="-1.7533869966198425"><ele>88.0</ele><time>2026-04-12T16:15:17.999Z</time></trkpt><trkpt lat="47.77066966234318" lon="-1.7533583374423005"><ele>88.0</ele><time>2026-04-12T16:15:18.999Z</time></trkpt><trkpt lat="47.77056896455689" lon="-1.753301100333706"><ele>88.0</ele><time>2026-04-12T16:15:19.999Z</time></trkpt><trkpt lat="47.77047448828187" lon="-1.7533087869129682"><ele>88.0</ele><time>2026-04-12T16:15:20.998Z</time></trkpt><trkpt lat="47.770374623047665" lon="-1.7533071266722149"><ele>88.0</ele><time>2026-04-12T16:15:21.998Z</time></trkpt><trkpt lat="47.77024781563278" lon="-1.7533130494412723"><ele>88.0</ele><time>2026-04-12T16:15:22.998Z</time></trkpt><trkpt lat="47.77012935857212" lon="-1.7533033974383339"><ele>88.0</ele><time>2026-04-12T16:15:23.998Z</time></trkpt><trkpt lat="47.76998456446847" lon="-1.7533000791907696"><ele>87.5</ele><time>2026-04-12T16:15:24.998Z</time></trkpt><trkpt lat="47.76984268922959" lon="-1.7532963401777295"><ele>87.0</ele><time>2026-04-12T16:15:25.998Z</time></trkpt><trkpt lat="47.769699384703166" lon="-1.7532857448271282"><ele>86.5</ele><time>2026-04-12T16:15:27Z</time></trkpt><trkpt lat="47.769541856833804" lon="-1.7533009806882982"><ele>86.0</ele><time>2026-04-12T16:15:28Z</time></trkpt><trkpt lat="47.76937755257608" lon="-1.7533068023882896"><ele>85.33333333333334</ele><time>2026-04-12T16:15:29Z</time></trkpt><trkpt lat="47.769204098081055" lon="-1.7533138149027914"><ele>84.66666666666667</ele><time>2026-04-12T16:15:30Z</time></trkpt><trkpt lat="47.769026543356986" lon="-1.753301805298763"><ele>84.0</ele><time>2026-04-12T16:15:31Z</time></trkpt><trkpt lat="47.768872454655394" lon="-1.7533475063697226"><ele>84.0</ele><time>2026-04-12T16:15:32Z</time></trkpt><trkpt lat="47.76872449077782" lon="-1.7533708159995776"><ele>84.0</ele><time>2026-04-12T16:15:33Z</time></trkpt><trkpt lat="47.768591724951676" lon="-1.7533729003688077"><ele>84.0</ele><time>2026-04-12T16:15:34Z</time></trkpt><trkpt lat="47.76846517249907" lon="-1.7533940453267745"><ele>84.0</ele><time>2026-04-12T16:15:35Z</time></trkpt><trkpt lat="47.768347976420415" lon="-1.7534100444202305"><ele>83.25</ele><time>2026-04-12T16:15:36Z</time></trkpt><trkpt lat="47.76821554031085" lon="-1.7534572303243645"><ele>82.5</ele><time>2026-04-12T16:15:37Z</time></trkpt><trkpt lat="47.768089426672105" lon="-1.7534562236576008"><ele>81.75</ele><time>2026-04-12T16:15:38Z</time></trkpt><trkpt lat="47.76797153223058" lon="-1.753487853826129"><ele>81.0</ele><time>2026-04-12T16:15:39Z</time></trkpt><trkpt lat="47.7678572665245" lon="-1.75352716670513"><ele>80.8</ele><time>2026-04-12T16:15:40Z</time></trkpt><trkpt lat="47.767752216025855" lon="-1.753556447854349"><ele>80.6</ele><time>2026-04-12T16:15:41Z</time></trkpt><trkpt lat="47.76765607138422" lon="-1.7535858092545407"><ele>80.4</ele><time>2026-04-12T16:15:42Z</time></trkpt><trkpt lat="47.76757018852066" lon="-1.7536120368209502"><ele>80.2</ele><time>2026-04-12T16:15:43Z</time></trkpt><trkpt lat="47.76748256908587" lon="-1.7536140444653179"><ele>80.0</ele><time>2026-04-12T16:15:44Z</time></trkpt><trkpt lat="47.7674042149413" lon="-1.7536484796443372"><ele>79.57142857142857</ele><time>2026-04-12T16:15:45Z</time></trkpt><trkpt lat="47.76732710297833" lon="-1.7536670361870401"><ele>79.14285714285714</ele><time>2026-04-12T16:15:46Z</time></trkpt><trkpt lat="47.767258555187766" lon="-1.7536919604485635"><ele>78.71428571428572</ele><time>2026-04-12T16:15:47Z</time></trkpt><trkpt lat="47.767195541677445" lon="-1.7537129137365168"><ele>78.28571428571428</ele><time>2026-04-12T16:15:48Z</time></trkpt><trkpt lat="47.76713339386768" lon="-1.7537356024290007"><ele>77.85714285714286</ele><time>2026-04-12T16:15:49Z</time></trkpt><trkpt lat="47.76704992768089" lon="-1.7538024914210175"><ele>77.42857142857143</ele><time>2026-04-12T16:15:51Z</time></trkpt><trkpt lat="47.766978891613014" lon="-1.7538424011695264"><ele>77.0</ele><time>2026-04-12T16:15:55Z</time></trkpt><trkpt lat="47.766873826522044" lon="-1.7536773320265213"><ele>76.0</ele><time>2026-04-12T16:15:57Z</time></trkpt><trkpt lat="47.76682950399401" lon="-1.7535960461349474"><ele>75.0</ele><time>2026-04-12T16:15:58Z</time></trkpt><trkpt lat="47.7667421555909" lon="-1.7534343122575171"><ele>74.0</ele><time>2026-04-12T16:16:00Z</time></trkpt><trkpt lat="47.76667575837253" lon="-1.753333950719253"><ele>73.0</ele><time>2026-04-12T16:16:01Z</time></trkpt><trkpt lat="47.76661295250315" lon="-1.7532240956679441"><ele>72.0</ele><time>2026-04-12T16:16:02Z</time></trkpt><trkpt lat="47.76653913210195" lon="-1.7531042200312146"><ele>72.0</ele><time>2026-04-12T16:16:03Z</time></trkpt><trkpt lat="47.766466850782315" lon="-1.7529761883658315"><ele>72.0</ele><time>2026-04-12T16:16:04Z</time></trkpt><trkpt lat="47.766393505677755" lon="-1.752885613255868"><ele>72.0</ele><time>2026-04-12T16:16:05Z</time></trkpt><trkpt lat="47.76633546417967" lon="-1.7527625029830793"><ele>72.0</ele><time>2026-04-12T16:16:06Z</time></trkpt><trkpt lat="47.76625180702864" lon="-1.752679486041832"><ele>72.0</ele><time>2026-04-12T16:16:07Z</time></trkpt><trkpt lat="47.76618000455858" lon="-1.7525760319539299"><ele>72.25</ele><time>2026-04-12T16:16:08Z</time></trkpt><trkpt lat="47.76611615522895" lon="-1.7524581578467249"><ele>72.5</ele><time>2026-04-12T16:16:09Z</time></trkpt><trkpt lat="47.76604044863192" lon="-1.7523225114752456"><ele>72.75</ele><time>2026-04-12T16:16:10Z</time></trkpt><trkpt lat="47.76596820602109" lon="-1.7521903560456076"><ele>73.0</ele><time>2026-04-12T16:16:11Z</time></trkpt><trkpt lat="47.76588256083616" lon="-1.7520497401500725"><ele>71.75</ele><time>2026-04-12T16:16:12Z</time></trkpt><trkpt lat="47.765795148028985" lon="-1.7518983436272373"><ele>70.5</ele><time>2026-04-12T16:16:13Z</time></trkpt><trkpt lat="47.76570287143965" lon="-1.7517450493428137"><ele>69.25</ele><time>2026-04-12T16:16:14Z</time></trkpt><trkpt lat="47.765600789691824" lon="-1.75157970043186"><ele>68.0</ele><time>2026-04-12T16:16:15Z</time></trkpt><trkpt lat="47.76550293746166" lon="-1.7514188528120238"><ele>68.0</ele><time>2026-04-12T16:16:16Z</time></trkpt><trkpt lat="47.76539924813237" lon="-1.751251562633222"><ele>68.0</ele><time>2026-04-12T16:16:17Z</time></trkpt><trkpt lat="47.76531117930168" lon="-1.751107991884648"><ele>68.0</ele><time>2026-04-12T16:16:18Z</time></trkpt><trkpt lat="47.76523468391026" lon="-1.7509581636514384"><ele>68.0</ele><time>2026-04-12T16:16:19Z</time></trkpt><trkpt lat="47.765169620276104" lon="-1.7508605518921394"><ele>67.2</ele><time>2026-04-12T16:16:20Z</time></trkpt><trkpt lat="47.765087187518354" lon="-1.7507386122413926"><ele>66.4</ele><time>2026-04-12T16:16:21Z</time></trkpt><trkpt lat="47.76501019271494" lon="-1.7506226693964557"><ele>65.60000000000001</ele><time>2026-04-12T16:16:22Z</time></trkpt><trkpt lat="47.76494240226252" lon="-1.750512925785527"><ele>64.8</ele><time>2026-04-12T16:16:23Z</time></trkpt><trkpt lat="47.764879982929905" lon="-1.7504115863502026"><ele>64.0</ele><time>2026-04-12T16:16:24Z</time></trkpt><trkpt lat="47.76482939032067" lon="-1.750305328465132"><ele>63.99999999999999</ele><time>2026-04-12T16:16:25Z</time></trkpt><trkpt lat="47.76476782517625" lon="-1.7502392523239922"><ele>64.0</ele><time>2026-04-12T16:16:25.999Z</time></trkpt><trkpt lat="47.76470988888838" lon="-1.7501498117938188"><ele>64.0</ele><time>2026-04-12T16:16:26.999Z</time></trkpt><trkpt lat="47.7646528959575" lon="-1.750052367254056"><ele>64.0</ele><time>2026-04-12T16:16:27.999Z</time></trkpt><trkpt lat="47.764607659915264" lon="-1.7499689123154614"><ele>63.99999999999999</ele><time>2026-04-12T16:16:28.999Z</time></trkpt><trkpt lat="47.76455353954247" lon="-1.7498741082446354"><ele>64.0</ele><time>2026-04-12T16:16:29.999Z</time></trkpt><trkpt lat="47.7645081142576" lon="-1.7497866323979423"><ele>63.400000000000006</ele><time>2026-04-12T16:16:30.999Z</time></trkpt><trkpt lat="47.764455409721634" lon="-1.7496893642665718"><ele>62.800000000000004</ele><time>2026-04-12T16:16:31.999Z</time></trkpt><trkpt lat="47.76439743046617" lon="-1.7495901906394657"><ele>62.199999999999996</ele><time>2026-04-12T16:16:32.999Z</time></trkpt><trkpt lat="47.76433155042881" lon="-1.7494844584832092"><ele>61.599999999999994</ele><time>2026-04-12T16:16:33.999Z</time></trkpt><trkpt lat="47.76425407560317" lon="-1.7493671402885531"><ele>61.0</ele><time>2026-04-12T16:16:34.999Z</time></trkpt><trkpt lat="47.7641716367316" lon="-1.7492433366871851"><ele>60.0</ele><time>2026-04-12T16:16:35.999Z</time></trkpt><trkpt lat="47.76408980981292" lon="-1.749116578726797"><ele>58.99999999999999</ele><time>2026-04-12T16:16:36.999Z</time></trkpt><trkpt lat="47.764016114872696" lon="-1.749006582046486"><ele>57.99999999999999</ele><time>2026-04-12T16:16:37.999Z</time></trkpt><trkpt lat="47.76395002352363" lon="-1.7489095091177775"><ele>57.0</ele><time>2026-04-12T16:16:38.999Z</time></trkpt><trkpt lat="47.76389250594069" lon="-1.74883239274102"><ele>56.0</ele><time>2026-04-12T16:16:39.999Z</time></trkpt><trkpt lat="47.76379996206077" lon="-1.7487338274433872"><ele>56.0</ele><time>2026-04-12T16:16:41.999Z</time></trkpt><trkpt lat="47.76370420958891" lon="-1.7486910098887292"><ele>56.0</ele><time>2026-04-12T16:16:43.999Z</time></trkpt><trkpt lat="47.76363172423796" lon="-1.7486476112835603"><ele>56.0</ele><time>2026-04-12T16:16:45.999Z</time></trkpt><trkpt lat="47.763676541147596" lon="-1.7484192960636171"><ele>56.0</ele><time>2026-04-12T16:16:47.999Z</time></trkpt><trkpt lat="47.7636666716991" lon="-1.7482352051671717"><ele>55.25</ele><time>2026-04-12T16:16:48.999Z</time></trkpt><trkpt lat="47.76369366445673" lon="-1.7480884996690442"><ele>54.5</ele><time>2026-04-12T16:16:49.999Z</time></trkpt><trkpt lat="47.76372327246962" lon="-1.7479443005195108"><ele>53.75</ele><time>2026-04-12T16:16:50.999Z</time></trkpt><trkpt lat="47.76376052231439" lon="-1.747765510150839"><ele>53.0</ele><time>2026-04-12T16:16:51.999Z</time></trkpt><trkpt lat="47.763784254487405" lon="-1.7475708342846923"><ele>53.0</ele><time>2026-04-12T16:16:52.999Z</time></trkpt><trkpt lat="47.763830639977456" lon="-1.7473857537872144"><ele>53.0</ele><time>2026-04-12T16:16:53.999Z</time></trkpt><trkpt lat="47.763864221665955" lon="-1.747193087629051"><ele>53.0</ele><time>2026-04-12T16:16:54.999Z</time></trkpt><trkpt lat="47.763910133274" lon="-1.746986352028107"><ele>53.0</ele><time>2026-04-12T16:16:55.999Z</time></trkpt><trkpt lat="47.76395079063399" lon="-1.7467921874792123"><ele>53.333333333333336</ele><time>2026-04-12T16:16:56.999Z</time></trkpt><trkpt lat="47.76397691780241" lon="-1.746657718450942"><ele>53.66666666666667</ele><time>2026-04-12T16:16:57.999Z</time></trkpt><trkpt lat="47.7640025969724" lon="-1.7465217670436113"><ele>54.0</ele><time>2026-04-12T16:16:58.999Z</time></trkpt><trkpt lat="47.76401976936001" lon="-1.7464054466672017"><ele>54.33333333333333</ele><time>2026-04-12T16:16:59.999Z</time></trkpt><trkpt lat="47.76400438144519" lon="-1.7463043079611247"><ele>54.666666666666664</ele><time>2026-04-12T16:17:00.999Z</time></trkpt><trkpt lat="47.76399411052748" lon="-1.7462103334760695"><ele>55.0</ele><time>2026-04-12T16:17:01.999Z</time></trkpt><trkpt lat="47.763959728466936" lon="-1.7460852678961276"><ele>55.8</ele><time>2026-04-12T16:17:02.999Z</time></trkpt><trkpt lat="47.76388554443682" lon="-1.745998092740595"><ele>56.6</ele><time>2026-04-12T16:17:03.999Z</time></trkpt><trkpt lat="47.763803759406045" lon="-1.7459008451690836"><ele>57.400000000000006</ele><time>2026-04-12T16:17:04.999Z</time></trkpt><trkpt lat="47.76372135652228" lon="-1.745810080863331"><ele>58.2</ele><time>2026-04-12T16:17:05.999Z</time></trkpt><trkpt lat="47.76362960869409" lon="-1.7457272947914844"><ele>59.0</ele><time>2026-04-12T16:17:06.999Z</time></trkpt><trkpt lat="47.76353931301465" lon="-1.7456363109783475"><ele>59.16666666666667</ele><time>2026-04-12T16:17:07.999Z</time></trkpt><trkpt lat="47.76347129789543" lon="-1.7455577083098934"><ele>59.333333333333336</ele><time>2026-04-12T16:17:08.999Z</time></trkpt><trkpt lat="47.763404019766654" lon="-1.7454785478398536"><ele>59.5</ele><time>2026-04-12T16:17:09.999Z</time></trkpt><trkpt lat="47.763341595917254" lon="-1.745418262264424"><ele>59.66666666666667</ele><time>2026-04-12T16:17:10.999Z</time></trkpt><trkpt lat="47.76328470155714" lon="-1.7453489446861579"><ele>59.833333333333336</ele><time>2026-04-12T16:17:11.999Z</time></trkpt><trkpt lat="47.763231457480764" lon="-1.7452891273071445"><ele>60.0</ele><time>2026-04-12T16:17:12.999Z</time></trkpt><trkpt lat="47.76312914634288" lon="-1.7451989835281498"><ele>60.0</ele><time>2026-04-12T16:17:14.999Z</time></trkpt><trkpt lat="47.763020196648505" lon="-1.7451526245654703"><ele>60.0</ele><time>2026-04-12T16:17:16.999Z</time></trkpt><trkpt lat="47.7629267866792" lon="-1.7450981166149722"><ele>60.0</ele><time>2026-04-12T16:17:18.999Z</time></trkpt><trkpt lat="47.762849763199185" lon="-1.7451035428382804"><ele>60.0</ele><time>2026-04-12T16:17:19.999Z</time></trkpt><trkpt lat="47.76278625069749" lon="-1.7450970110366129"><ele>60.0</ele><time>2026-04-12T16:17:20.999Z</time></trkpt><trkpt lat="47.762674738704526" lon="-1.745079479671427"><ele>58.666666666666664</ele><time>2026-04-12T16:17:22.999Z</time></trkpt><trkpt lat="47.762605800668254" lon="-1.7450999697546943"><ele>57.33333333333333</ele><time>2026-04-12T16:17:23.999Z</time></trkpt><trkpt lat="47.76254183780531" lon="-1.745113876426468"><ele>56.0</ele><time>2026-04-12T16:17:24.999Z</time></trkpt><trkpt lat="47.76247971581025" lon="-1.7451452658285753"><ele>54.666666666666664</ele><time>2026-04-12T16:17:25.999Z</time></trkpt><trkpt lat="47.76236029054683" lon="-1.7452084176333442"><ele>53.33333333333333</ele><time>2026-04-12T16:17:27.999Z</time></trkpt><trkpt lat="47.76228997837932" lon="-1.745248051194436"><ele>52.0</ele><time>2026-04-12T16:17:28.999Z</time></trkpt><trkpt lat="47.762211731063275" lon="-1.7452906496886826"><ele>51.49999999999999</ele><time>2026-04-12T16:17:29.999Z</time></trkpt><trkpt lat="47.76212987821947" lon="-1.7453097065061025"><ele>51.0</ele><time>2026-04-12T16:17:30.999Z</time></trkpt><trkpt lat="47.762041682243506" lon="-1.7453439697715623"><ele>50.5</ele><time>2026-04-12T16:17:31.999Z</time></trkpt><trkpt lat="47.76195828318099" lon="-1.7453745455227478"><ele>50.0</ele><time>2026-04-12T16:17:33Z</time></trkpt><trkpt lat="47.76187739703673" lon="-1.745399282756358"><ele>49.49999999999999</ele><time>2026-04-12T16:17:34Z</time></trkpt><trkpt lat="47.76179045867264" lon="-1.7453781900677137"><ele>49.0</ele><time>2026-04-12T16:17:35Z</time></trkpt><trkpt lat="47.76171828833141" lon="-1.7453397107648376"><ele>48.2</ele><time>2026-04-12T16:17:36Z</time></trkpt><trkpt lat="47.761629460204766" lon="-1.7452127736211815"><ele>47.400000000000006</ele><time>2026-04-12T16:17:38Z</time></trkpt><trkpt lat="47.76159020852664" lon="-1.7451382970794171"><ele>46.6</ele><time>2026-04-12T16:17:39Z</time></trkpt><trkpt lat="47.76153033824092" lon="-1.745026766010432"><ele>45.8</ele><time>2026-04-12T16:17:40Z</time></trkpt><trkpt lat="47.761484903308855" lon="-1.7449508672750103"><ele>45.0</ele><time>2026-04-12T16:17:41Z</time></trkpt><trkpt lat="47.76138679072211" lon="-1.7448148935165453"><ele>45.0</ele><time>2026-04-12T16:17:43Z</time></trkpt><trkpt lat="47.76132624808223" lon="-1.7446825868883655"><ele>45.0</ele><time>2026-04-12T16:17:45Z</time></trkpt><trkpt lat="47.761267206662126" lon="-1.7446032123146595"><ele>45.0</ele><time>2026-04-12T16:17:46Z</time></trkpt><trkpt lat="47.76120347687137" lon="-1.7445326370163274"><ele>45.0</ele><time>2026-04-12T16:17:47Z</time></trkpt><trkpt lat="47.761121783096264" lon="-1.7444410954846299"><ele>45.0</ele><time>2026-04-12T16:17:48Z</time></trkpt><trkpt lat="47.7610584382613" lon="-1.7443147827575392"><ele>44.8</ele><time>2026-04-12T16:17:49Z</time></trkpt><trkpt lat="47.76099766556551" lon="-1.7442046184298141"><ele>44.6</ele><time>2026-04-12T16:17:50Z</time></trkpt><trkpt lat="47.76094504664264" lon="-1.744111549509767"><ele>44.400000000000006</ele><time>2026-04-12T16:17:51Z</time></trkpt><trkpt lat="47.760907560918305" lon="-1.7439893600313932"><ele>44.2</ele><time>2026-04-12T16:17:52Z</time></trkpt><trkpt lat="47.760882987859446" lon="-1.7438667521379436"><ele>44.0</ele><time>2026-04-12T16:17:53Z</time></trkpt><trkpt lat="47.760867440959046" lon="-1.7437174249945706"><ele>44.25</ele><time>2026-04-12T16:17:54Z</time></trkpt><trkpt lat="47.760877143855716" lon="-1.7435469983418084"><ele>44.5</ele><time>2026-04-12T16:17:55Z</time></trkpt><trkpt lat="47.7609039846072" lon="-1.743364974687644"><ele>44.75</ele><time>2026-04-12T16:17:56Z</time></trkpt><trkpt lat="47.76094363136295" lon="-1.7431511856084776"><ele>45.0</ele><time>2026-04-12T16:17:57Z</time></trkpt><trkpt lat="47.76097754104871" lon="-1.7429531991180327"><ele>45.0</ele><time>2026-04-12T16:17:58Z</time></trkpt><trkpt lat="47.7609935521227" lon="-1.7427777219424536"><ele>45.0</ele><time>2026-04-12T16:17:59Z</time></trkpt><trkpt lat="47.76102114942665" lon="-1.7425987326915993"><ele>45.0</ele><time>2026-04-12T16:18:00Z</time></trkpt><trkpt lat="47.761065008935574" lon="-1.7423901015755188"><ele>45.0</ele><time>2026-04-12T16:18:01Z</time></trkpt><trkpt lat="47.761092243444836" lon="-1.7421635205162196"><ele>47.0</ele><time>2026-04-12T16:18:02Z</time></trkpt><trkpt lat="47.761119903574645" lon="-1.7419634003953959"><ele>49.0</ele><time>2026-04-12T16:18:03Z</time></trkpt><trkpt lat="47.76114882818868" lon="-1.7417962569231447"><ele>51.0</ele><time>2026-04-12T16:18:04Z</time></trkpt><trkpt lat="47.7611799997055" lon="-1.7416503001837245"><ele>53.0</ele><time>2026-04-12T16:18:05Z</time></trkpt><trkpt lat="47.76121541069061" lon="-1.7415164793208064"><ele>52.8</ele><time>2026-04-12T16:18:06Z</time></trkpt><trkpt lat="47.761259741402824" lon="-1.7413812952271972"><ele>52.599999999999994</ele><time>2026-04-12T16:18:07Z</time></trkpt><trkpt lat="47.761292198703224" lon="-1.741251396697132"><ele>52.400000000000006</ele><time>2026-04-12T16:18:08Z</time></trkpt><trkpt lat="47.7613183089918" lon="-1.7411453192518624"><ele>52.2</ele><time>2026-04-12T16:18:09Z</time></trkpt><trkpt lat="47.76134740781972" lon="-1.7409786433912566"><ele>52.0</ele><time>2026-04-12T16:18:11Z</time></trkpt><trkpt lat="47.76138025470647" lon="-1.7407632880750044"><ele>52.0</ele><time>2026-04-12T16:18:13Z</time></trkpt><trkpt lat="47.761403210999774" lon="-1.7406356739850277"><ele>52.0</ele><time>2026-04-12T16:18:14Z</time></trkpt><trkpt lat="47.7614311687207" lon="-1.7404906562789821"><ele>52.0</ele><time>2026-04-12T16:18:15Z</time></trkpt><trkpt lat="47.76145888781703" lon="-1.7403322726801453"><ele>52.0</ele><time>2026-04-12T16:18:16Z</time></trkpt><trkpt lat="47.76147788235368" lon="-1.7402044722854593"><ele>52.0</ele><time>2026-04-12T16:18:17Z</time></trkpt><trkpt lat="47.76149008234013" lon="-1.7400999287671413"><ele>51.99999999999999</ele><time>2026-04-12T16:18:18Z</time></trkpt><trkpt lat="47.761512736052104" lon="-1.7400012307424637"><ele>52.0</ele><time>2026-04-12T16:18:19Z</time></trkpt><trkpt lat="47.761544523231" lon="-1.7398867702478749"><ele>52.0</ele><time>2026-04-12T16:18:21Z</time></trkpt><trkpt lat="47.76150414567977" lon="-1.7399657818850844"><ele>52.0</ele><time>2026-04-12T16:19:10.999Z</time></trkpt><trkpt lat="47.76148948556075" lon="-1.7401104844298305"><ele>51.99999999999999</ele><time>2026-04-12T16:19:12.999Z</time></trkpt><trkpt lat="47.7614928701987" lon="-1.740208164070981"><ele>52.0</ele><time>2026-04-12T16:19:13.999Z</time></trkpt><trkpt lat="47.7614570397196" lon="-1.7403525918848022"><ele>52.0</ele><time>2026-04-12T16:19:15.999Z</time></trkpt><trkpt lat="47.76142613698538" lon="-1.7405092557396913"><ele>52.0</ele><time>2026-04-12T16:19:16.999Z</time></trkpt><trkpt lat="47.76140251038719" lon="-1.7407233940445581"><ele>52.0</ele><time>2026-04-12T16:19:18.999Z</time></trkpt><trkpt lat="47.76138077836217" lon="-1.7408490178314935"><ele>52.0</ele><time>2026-04-12T16:19:19.999Z</time></trkpt><trkpt lat="47.76135653956098" lon="-1.7409651038435237"><ele>52.0</ele><time>2026-04-12T16:19:20.999Z</time></trkpt><trkpt lat="47.76133838773557" lon="-1.7410695676391816"><ele>52.49999999999999</ele><time>2026-04-12T16:19:21.999Z</time></trkpt><trkpt lat="47.76131808286509" lon="-1.7411716254786072"><ele>53.0</ele><time>2026-04-12T16:19:22.999Z</time></trkpt><trkpt lat="47.76129472512766" lon="-1.7412720714932985"><ele>53.5</ele><time>2026-04-12T16:19:23.999Z</time></trkpt><trkpt lat="47.76127015689523" lon="-1.7413774867505538"><ele>54.0</ele><time>2026-04-12T16:19:24.999Z</time></trkpt><trkpt lat="47.761226442534735" lon="-1.7414765653832984"><ele>54.49999999999999</ele><time>2026-04-12T16:19:25.999Z</time></trkpt><trkpt lat="47.761166606490896" lon="-1.7416747094457308"><ele>55.0</ele><time>2026-04-12T16:19:27.999Z</time></trkpt><trkpt lat="47.761130358033526" lon="-1.7418214919844188"><ele>54.6</ele><time>2026-04-12T16:19:28.999Z</time></trkpt><trkpt lat="47.76110421661656" lon="-1.741957908015982"><ele>54.2</ele><time>2026-04-12T16:19:29.999Z</time></trkpt><trkpt lat="47.761082820878805" lon="-1.742106191803055"><ele>53.8</ele><time>2026-04-12T16:19:30.999Z</time></trkpt><trkpt lat="47.76107606238669" lon="-1.7422271119040855"><ele>53.4</ele><time>2026-04-12T16:19:31.999Z</time></trkpt><trkpt lat="47.76105137956538" lon="-1.7424218897848738"><ele>53.0</ele><time>2026-04-12T16:19:32.999Z</time></trkpt><trkpt lat="47.7610256385949" lon="-1.7425808754806482"><ele>51.0</ele><time>2026-04-12T16:19:33.999Z</time></trkpt><trkpt lat="47.76100097136721" lon="-1.7427793299570857"><ele>49.0</ele><time>2026-04-12T16:19:34.998Z</time></trkpt><trkpt lat="47.760975214270594" lon="-1.742973054267647"><ele>47.0</ele><time>2026-04-12T16:19:35.998Z</time></trkpt><trkpt lat="47.760954068184446" lon="-1.743119169717976"><ele>45.0</ele><time>2026-04-12T16:19:36.998Z</time></trkpt><trkpt lat="47.76093323554357" lon="-1.7432510629063012"><ele>45.0</ele><time>2026-04-12T16:19:37.998Z</time></trkpt><trkpt lat="47.76091762554374" lon="-1.7433874655029178"><ele>45.0</ele><time>2026-04-12T16:19:39Z</time></trkpt><trkpt lat="47.76088548698307" lon="-1.7435445795961606"><ele>45.0</ele><time>2026-04-12T16:19:41Z</time></trkpt><trkpt lat="47.760874829942615" lon="-1.7436604563133062"><ele>45.0</ele><time>2026-04-12T16:19:43Z</time></trkpt><trkpt lat="47.76086887382072" lon="-1.7437770904865817"><ele>45.0</ele><time>2026-04-12T16:19:45Z</time></trkpt><trkpt lat="47.76086745877483" lon="-1.7439020135800731"><ele>45.0</ele><time>2026-04-12T16:19:47Z</time></trkpt><trkpt lat="47.76091703582335" lon="-1.7440522842992028"><ele>45.0</ele><time>2026-04-12T16:19:49Z</time></trkpt><trkpt lat="47.760978085512846" lon="-1.7442254980132137"><ele>45.0</ele><time>2026-04-12T16:19:51Z</time></trkpt><trkpt lat="47.76102107031179" lon="-1.7443120019159561"><ele>45.0</ele><time>2026-04-12T16:19:52Z</time></trkpt><trkpt lat="47.76107755786344" lon="-1.7444083784819293"><ele>45.0</ele><time>2026-04-12T16:19:53Z</time></trkpt><trkpt lat="47.76115945848404" lon="-1.7445037561444199"><ele>45.0</ele><time>2026-04-12T16:19:54Z</time></trkpt><trkpt lat="47.76124467737285" lon="-1.744584631344216"><ele>45.0</ele><time>2026-04-12T16:19:55Z</time></trkpt><trkpt lat="47.7613082023896" lon="-1.7446525386203346"><ele>45.0</ele><time>2026-04-12T16:19:56Z</time></trkpt><trkpt lat="47.76134897633752" lon="-1.7447317016859838"><ele>45.0</ele><time>2026-04-12T16:19:57Z</time></trkpt><trkpt lat="47.76137461499034" lon="-1.7448402057810752"><ele>45.0</ele><time>2026-04-12T16:19:58Z</time></trkpt><trkpt lat="47.76137839593311" lon="-1.7449855506514218"><ele>45.0</ele><time>2026-04-12T16:19:59Z</time></trkpt><trkpt lat="47.761346249392666" lon="-1.745173069686509"><ele>44.333333333333336</ele><time>2026-04-12T16:20:00Z</time></trkpt><trkpt lat="47.761341845198494" lon="-1.7454097143177232"><ele>43.66666666666667</ele><time>2026-04-12T16:20:01Z</time></trkpt><trkpt lat="47.76131778330821" lon="-1.7456260045476428"><ele>43.0</ele><time>2026-04-12T16:20:02Z</time></trkpt><trkpt lat="47.76129235248612" lon="-1.7458674371995428"><ele>42.75</ele><time>2026-04-12T16:20:03Z</time></trkpt><trkpt lat="47.761271478267176" lon="-1.746094506981279"><ele>42.5</ele><time>2026-04-12T16:20:04Z</time></trkpt><trkpt lat="47.76125757617947" lon="-1.7462953807711767"><ele>42.25</ele><time>2026-04-12T16:20:05Z</time></trkpt><trkpt lat="47.761249802959014" lon="-1.7464846573829444"><ele>42.0</ele><time>2026-04-12T16:20:06Z</time></trkpt><trkpt lat="47.76124543582453" lon="-1.7466572591957024"><ele>42.0</ele><time>2026-04-12T16:20:07Z</time></trkpt><trkpt lat="47.7612468282757" lon="-1.746807172642807"><ele>42.0</ele><time>2026-04-12T16:20:08Z</time></trkpt><trkpt lat="47.76124904164635" lon="-1.746970194048129"><ele>42.0</ele><time>2026-04-12T16:20:09Z</time></trkpt><trkpt lat="47.76125167983193" lon="-1.7471601924338656"><ele>42.0</ele><time>2026-04-12T16:20:10Z</time></trkpt><trkpt lat="47.761255081269155" lon="-1.747360292796236"><ele>42.25</ele><time>2026-04-12T16:20:11Z</time></trkpt><trkpt lat="47.761256467660516" lon="-1.7475813596883751"><ele>42.5</ele><time>2026-04-12T16:20:12Z</time></trkpt><trkpt lat="47.76126219641926" lon="-1.7478253668560833"><ele>42.75</ele><time>2026-04-12T16:20:13Z</time></trkpt><trkpt lat="47.76127116843836" lon="-1.74801268160778"><ele>43.0</ele><time>2026-04-12T16:20:14Z</time></trkpt><trkpt lat="47.761296852597816" lon="-1.7481644302292108"><ele>43.8</ele><time>2026-04-12T16:20:15Z</time></trkpt><trkpt lat="47.761298177176805" lon="-1.7482902761286"><ele>44.599999999999994</ele><time>2026-04-12T16:20:16Z</time></trkpt><trkpt lat="47.76129539434523" lon="-1.7483952505525069"><ele>45.400000000000006</ele><time>2026-04-12T16:20:17Z</time></trkpt><trkpt lat="47.76129239349117" lon="-1.7485223263596945"><ele>46.2</ele><time>2026-04-12T16:20:19Z</time></trkpt><trkpt lat="47.761293959261785" lon="-1.7486362855392283"><ele>47.0</ele><time>2026-04-12T16:21:00.999Z</time></trkpt><trkpt lat="47.7611548251126" lon="-1.7487350260203287"><ele>47.400000000000006</ele><time>2026-04-12T16:21:16.999Z</time></trkpt><trkpt lat="47.7610782832841" lon="-1.7487566471099587"><ele>47.800000000000004</ele><time>2026-04-12T16:21:17.999Z</time></trkpt><trkpt lat="47.760985743475395" lon="-1.7487660850379343"><ele>48.2</ele><time>2026-04-12T16:21:18.999Z</time></trkpt><trkpt lat="47.76090639748147" lon="-1.7487636129163142"><ele>48.6</ele><time>2026-04-12T16:21:19.999Z</time></trkpt><trkpt lat="47.76080155300713" lon="-1.7487773059112475"><ele>49.0</ele><time>2026-04-12T16:21:20.999Z</time></trkpt><trkpt lat="47.76067562781421" lon="-1.7487889293834902"><ele>47.0</ele><time>2026-04-12T16:21:21.999Z</time></trkpt><trkpt lat="47.760540779518735" lon="-1.7487999485701744"><ele>45.0</ele><time>2026-04-12T16:21:22.999Z</time></trkpt><trkpt lat="47.76040978702033" lon="-1.7488134030563545"><ele>43.0</ele><time>2026-04-12T16:21:23.999Z</time></trkpt><trkpt lat="47.76027468667899" lon="-1.7488280200308155"><ele>41.0</ele><time>2026-04-12T16:21:24.999Z</time></trkpt><trkpt lat="47.76013240445255" lon="-1.7488382655823316"><ele>38.666666666666664</ele><time>2026-04-12T16:21:25.999Z</time></trkpt><trkpt lat="47.75998651483986" lon="-1.748852512932244"><ele>36.333333333333336</ele><time>2026-04-12T16:21:26.999Z</time></trkpt><trkpt lat="47.75983178148419" lon="-1.74887105927232"><ele>34.0</ele><time>2026-04-12T16:21:27.999Z</time></trkpt><trkpt lat="47.75967740732528" lon="-1.7488768315949117"><ele>34.0</ele><time>2026-04-12T16:21:28.999Z</time></trkpt><trkpt lat="47.75952208979908" lon="-1.748887488245653"><ele>34.0</ele><time>2026-04-12T16:21:29.999Z</time></trkpt><trkpt lat="47.75935352920998" lon="-1.748907611289119"><ele>34.0</ele><time>2026-04-12T16:21:30.999Z</time></trkpt><trkpt lat="47.75917588969515" lon="-1.7489251423625767"><ele>32.333333333333336</ele><time>2026-04-12T16:21:31.999Z</time></trkpt><trkpt lat="47.75899609915732" lon="-1.7489394626551233"><ele>30.666666666666664</ele><time>2026-04-12T16:21:32.999Z</time></trkpt><trkpt lat="47.75881335496466" lon="-1.7489606288192945"><ele>29.0</ele><time>2026-04-12T16:21:33.999Z</time></trkpt><trkpt lat="47.75862507833779" lon="-1.7489843580308464"><ele>28.0</ele><time>2026-04-12T16:21:34.999Z</time></trkpt><trkpt lat="47.75843205782278" lon="-1.7489975245688134"><ele>27.0</ele><time>2026-04-12T16:21:35.998Z</time></trkpt><trkpt lat="47.7582449902206" lon="-1.7490201771067813"><ele>26.0</ele><time>2026-04-12T16:21:36.998Z</time></trkpt><trkpt lat="47.75806583869539" lon="-1.7490364592270196"><ele>26.0</ele><time>2026-04-12T16:21:37.998Z</time></trkpt><trkpt lat="47.7578806957502" lon="-1.749047381336042"><ele>26.0</ele><time>2026-04-12T16:21:38.998Z</time></trkpt><trkpt lat="47.75769327125191" lon="-1.7490589191379715"><ele>26.0</ele><time>2026-04-12T16:21:39.998Z</time></trkpt><trkpt lat="47.757506661452844" lon="-1.7490748034030217"><ele>25.0</ele><time>2026-04-12T16:21:40.998Z</time></trkpt><trkpt lat="47.75731803377714" lon="-1.749079282036519"><ele>24.0</ele><time>2026-04-12T16:21:41.998Z</time></trkpt><trkpt lat="47.75712784536212" lon="-1.749076328749759"><ele>23.0</ele><time>2026-04-12T16:21:42.998Z</time></trkpt><trkpt lat="47.756940714175784" lon="-1.7490502970226856"><ele>23.333333333333336</ele><time>2026-04-12T16:21:43.998Z</time></trkpt><trkpt lat="47.756754363864744" lon="-1.7490152264264116"><ele>23.666666666666668</ele><time>2026-04-12T16:21:45Z</time></trkpt><trkpt lat="47.75657598622877" lon="-1.7489598834455107"><ele>24.0</ele><time>2026-04-12T16:21:46Z</time></trkpt><trkpt lat="47.75640747201157" lon="-1.7489030222485045"><ele>24.0</ele><time>2026-04-12T16:21:47Z</time></trkpt><trkpt lat="47.756226220956314" lon="-1.7488184448725632"><ele>24.0</ele><time>2026-04-12T16:21:48Z</time></trkpt><trkpt lat="47.756051317848026" lon="-1.74875571417265"><ele>24.0</ele><time>2026-04-12T16:21:49Z</time></trkpt><trkpt lat="47.755879987750724" lon="-1.7486738585171417"><ele>24.333333333333336</ele><time>2026-04-12T16:21:50Z</time></trkpt><trkpt lat="47.755694406860194" lon="-1.748598132219185"><ele>24.666666666666668</ele><time>2026-04-12T16:21:51Z</time></trkpt><trkpt lat="47.75550679851063" lon="-1.7485426060024374"><ele>25.0</ele><time>2026-04-12T16:21:52Z</time></trkpt><trkpt lat="47.75532515053807" lon="-1.7484729444716978"><ele>25.333333333333336</ele><time>2026-04-12T16:21:53Z</time></trkpt><trkpt lat="47.755145594228495" lon="-1.7484067380766763"><ele>25.666666666666664</ele><time>2026-04-12T16:21:54Z</time></trkpt><trkpt lat="47.754969586513916" lon="-1.748338801702655"><ele>26.0</ele><time>2026-04-12T16:21:55Z</time></trkpt><trkpt lat="47.754788588286075" lon="-1.7482680226366663"><ele>26.0</ele><time>2026-04-12T16:21:56Z</time></trkpt><trkpt lat="47.75461067102282" lon="-1.7481959888231955"><ele>26.0</ele><time>2026-04-12T16:21:57Z</time></trkpt><trkpt lat="47.754437448612" lon="-1.748137582020031"><ele>26.0</ele><time>2026-04-12T16:21:58Z</time></trkpt><trkpt lat="47.75426659366023" lon="-1.7480680456510294"><ele>26.666666666666664</ele><time>2026-04-12T16:21:59Z</time></trkpt><trkpt lat="47.75409350770189" lon="-1.7480002356808213"><ele>27.333333333333336</ele><time>2026-04-12T16:22:00Z</time></trkpt><trkpt lat="47.75392559675061" lon="-1.747935669555623"><ele>28.0</ele><time>2026-04-12T16:22:01Z</time></trkpt><trkpt lat="47.75376406725211" lon="-1.7478780865522217"><ele>28.0</ele><time>2026-04-12T16:22:02Z</time></trkpt><trkpt lat="47.75361893534135" lon="-1.7478242121149548"><ele>28.0</ele><time>2026-04-12T16:22:03Z</time></trkpt><trkpt lat="47.753488270518076" lon="-1.747772535751268"><ele>28.0</ele><time>2026-04-12T16:22:04Z</time></trkpt><trkpt lat="47.75337426536193" lon="-1.7477310550004321"><ele>28.0</ele><time>2026-04-12T16:22:05Z</time></trkpt><trkpt lat="47.75326947201416" lon="-1.747690142793329"><ele>28.333333333333336</ele><time>2026-04-12T16:22:06Z</time></trkpt><trkpt lat="47.75317570637501" lon="-1.7476553275601012"><ele>28.666666666666668</ele><time>2026-04-12T16:22:07Z</time></trkpt><trkpt lat="47.753097127427175" lon="-1.7476334812329413"><ele>29.0</ele><time>2026-04-12T16:22:08Z</time></trkpt><trkpt lat="47.7530213168847" lon="-1.747614307262595"><ele>29.333333333333336</ele><time>2026-04-12T16:22:09Z</time></trkpt><trkpt lat="47.75294996874526" lon="-1.7476217907444296"><ele>29.666666666666668</ele><time>2026-04-12T16:22:10Z</time></trkpt><trkpt lat="47.752847431928075" lon="-1.7476338094840376"><ele>30.0</ele><time>2026-04-12T16:22:12Z</time></trkpt><trkpt lat="47.75280796770979" lon="-1.7478429315362223"><ele>30.4</ele><time>2026-04-12T16:22:13Z</time></trkpt><trkpt lat="47.75278482830153" lon="-1.7479700106333829"><ele>30.8</ele><time>2026-04-12T16:22:14Z</time></trkpt><trkpt lat="47.75276060803768" lon="-1.7481030256887282"><ele>31.200000000000003</ele><time>2026-04-12T16:22:15Z</time></trkpt><trkpt lat="47.75273307304493" lon="-1.7482494773009594"><ele>31.6</ele><time>2026-04-12T16:22:16Z</time></trkpt><trkpt lat="47.752702312902805" lon="-1.7484094222759556"><ele>32.0</ele><time>2026-04-12T16:22:17Z</time></trkpt><trkpt lat="47.75266305207238" lon="-1.7485819073298159"><ele>32.25</ele><time>2026-04-12T16:22:18Z</time></trkpt><trkpt lat="47.75262009834271" lon="-1.748776495654818"><ele>32.5</ele><time>2026-04-12T16:22:19Z</time></trkpt><trkpt lat="47.752576342347304" lon="-1.7489897123797258"><ele>32.75</ele><time>2026-04-12T16:22:20Z</time></trkpt><trkpt lat="47.75254133521268" lon="-1.7491805508557308"><ele>33.0</ele><time>2026-04-12T16:22:21Z</time></trkpt><trkpt lat="47.75250606779731" lon="-1.749364878575675"><ele>32.75</ele><time>2026-04-12T16:22:22Z</time></trkpt><trkpt lat="47.75246599454374" lon="-1.7495692037322546"><ele>32.5</ele><time>2026-04-12T16:22:23Z</time></trkpt><trkpt lat="47.752437888478745" lon="-1.7497928983574094"><ele>32.25</ele><time>2026-04-12T16:22:24Z</time></trkpt><trkpt lat="47.75239681636402" lon="-1.750007812240526"><ele>32.0</ele><time>2026-04-12T16:22:25Z</time></trkpt><trkpt lat="47.75234970879575" lon="-1.7502260129128433"><ele>31.666666666666664</ele><time>2026-04-12T16:22:26Z</time></trkpt><trkpt lat="47.752310766140035" lon="-1.750439508529489"><ele>31.333333333333336</ele><time>2026-04-12T16:22:27Z</time></trkpt><trkpt lat="47.75228270491473" lon="-1.750669295087398"><ele>31.0</ele><time>2026-04-12T16:22:28Z</time></trkpt><trkpt lat="47.75227304787045" lon="-1.7509012183288273"><ele>31.333333333333336</ele><time>2026-04-12T16:22:29Z</time></trkpt><trkpt lat="47.752280874319936" lon="-1.7511350520042572"><ele>31.666666666666664</ele><time>2026-04-12T16:22:30Z</time></trkpt><trkpt lat="47.75232088932619" lon="-1.7513643821905367"><ele>32.0</ele><time>2026-04-12T16:22:31Z</time></trkpt><trkpt lat="47.75235640676697" lon="-1.7515803599661863"><ele>32.0</ele><time>2026-04-12T16:22:32Z</time></trkpt><trkpt lat="47.75240607767217" lon="-1.7517925426535932"><ele>32.0</ele><time>2026-04-12T16:22:32.999Z</time></trkpt><trkpt lat="47.75246497725207" lon="-1.7520107812208072"><ele>32.0</ele><time>2026-04-12T16:22:33.999Z</time></trkpt><trkpt lat="47.752530655408144" lon="-1.7522456866386549"><ele>32.0</ele><time>2026-04-12T16:22:34.999Z</time></trkpt><trkpt lat="47.75260155342316" lon="-1.7524972672947232"><ele>32.0</ele><time>2026-04-12T16:22:35.999Z</time></trkpt><trkpt lat="47.75267031022786" lon="-1.752752140340912"><ele>32.0</ele><time>2026-04-12T16:22:36.999Z</time></trkpt><trkpt lat="47.75272705287845" lon="-1.7530257560855897"><ele>31.666666666666664</ele><time>2026-04-12T16:22:37.999Z</time></trkpt><trkpt lat="47.75279667997731" lon="-1.7532822892247841"><ele>31.333333333333336</ele><time>2026-04-12T16:22:38.999Z</time></trkpt><trkpt lat="47.75286937713182" lon="-1.753556384836851"><ele>31.0</ele><time>2026-04-12T16:22:39.999Z</time></trkpt><trkpt lat="47.75294210480952" lon="-1.7538133784292278"><ele>31.0</ele><time>2026-04-12T16:22:40.999Z</time></trkpt><trkpt lat="47.753010635135766" lon="-1.7540777229891835"><ele>31.0</ele><time>2026-04-12T16:22:41.999Z</time></trkpt><trkpt lat="47.753077465926204" lon="-1.7543318706214241"><ele>31.0</ele><time>2026-04-12T16:22:42.999Z</time></trkpt><trkpt lat="47.75314984147725" lon="-1.7545807919053358"><ele>31.333333333333336</ele><time>2026-04-12T16:22:43.999Z</time></trkpt><trkpt lat="47.753215544916785" lon="-1.7548169684491421"><ele>31.666666666666664</ele><time>2026-04-12T16:22:44.999Z</time></trkpt><trkpt lat="47.75327302806877" lon="-1.7550291855905218"><ele>32.0</ele><time>2026-04-12T16:22:45.999Z</time></trkpt><trkpt lat="47.7533259972536" lon="-1.7552115872756466"><ele>32.75</ele><time>2026-04-12T16:22:46.999Z</time></trkpt><trkpt lat="47.753364733438936" lon="-1.755393135531287"><ele>33.5</ele><time>2026-04-12T16:22:47.999Z</time></trkpt><trkpt lat="47.75338983403129" lon="-1.7555718715058155"><ele>34.25</ele><time>2026-04-12T16:22:48.999Z</time></trkpt><trkpt lat="47.753402240671576" lon="-1.7557514007585888"><ele>35.0</ele><time>2026-04-12T16:22:49.999Z</time></trkpt><trkpt lat="47.75340470223275" lon="-1.755924649646819"><ele>36.0</ele><time>2026-04-12T16:22:50.999Z</time></trkpt><trkpt lat="47.753410348217166" lon="-1.7560992732733303"><ele>37.0</ele><time>2026-04-12T16:22:51.999Z</time></trkpt><trkpt lat="47.75339163001364" lon="-1.7562510902732607"><ele>38.0</ele><time>2026-04-12T16:22:52.999Z</time></trkpt><trkpt lat="47.75338347262495" lon="-1.7564185484527952"><ele>39.0</ele><time>2026-04-12T16:22:53.999Z</time></trkpt><trkpt lat="47.75336254897938" lon="-1.7565949142682535"><ele>39.0</ele><time>2026-04-12T16:22:54.999Z</time></trkpt><trkpt lat="47.753324294577396" lon="-1.756770409153072"><ele>39.0</ele><time>2026-04-12T16:22:55.999Z</time></trkpt><trkpt lat="47.75328302051153" lon="-1.7569657648983248"><ele>39.0</ele><time>2026-04-12T16:22:56.999Z</time></trkpt><trkpt lat="47.75325826509407" lon="-1.757176732020561"><ele>39.0</ele><time>2026-04-12T16:22:57.999Z</time></trkpt><trkpt lat="47.7532250980531" lon="-1.757381516122218"><ele>38.25</ele><time>2026-04-12T16:22:58.999Z</time></trkpt><trkpt lat="47.75319146855362" lon="-1.7575875570651098"><ele>37.5</ele><time>2026-04-12T16:22:59.999Z</time></trkpt><trkpt lat="47.75315923032082" lon="-1.7577829825090001"><ele>36.75</ele><time>2026-04-12T16:23:00.999Z</time></trkpt><trkpt lat="47.753127537193194" lon="-1.7579672062955942"><ele>36.0</ele><time>2026-04-12T16:23:01.999Z</time></trkpt><trkpt lat="47.75309549100894" lon="-1.7581435434187636"><ele>35.6</ele><time>2026-04-12T16:23:02.999Z</time></trkpt><trkpt lat="47.753072597878905" lon="-1.7582990869039026"><ele>35.2</ele><time>2026-04-12T16:23:03.999Z</time></trkpt><trkpt lat="47.75304639851155" lon="-1.7584369417179915"><ele>34.8</ele><time>2026-04-12T16:23:04.999Z</time></trkpt><trkpt lat="47.75302426076452" lon="-1.7585658715766515"><ele>34.4</ele><time>2026-04-12T16:23:05.999Z</time></trkpt><trkpt lat="47.75300830897984" lon="-1.758684194772957"><ele>34.0</ele><time>2026-04-12T16:23:06.999Z</time></trkpt><trkpt lat="47.75299933874162" lon="-1.758797850279581"><ele>34.0</ele><time>2026-04-12T16:23:07.999Z</time></trkpt><trkpt lat="47.75295903062039" lon="-1.7588843214519019"><ele>34.0</ele><time>2026-04-12T16:23:08.999Z</time></trkpt><trkpt lat="47.75291142605861" lon="-1.7590595209030986"><ele>34.0</ele><time>2026-04-12T16:23:10.999Z</time></trkpt><trkpt lat="47.75288726341417" lon="-1.7591484463937896"><ele>34.0</ele><time>2026-04-12T16:23:11.999Z</time></trkpt><trkpt lat="47.752970184601146" lon="-1.7592937880997337"><ele>34.0</ele><time>2026-04-12T16:23:12.999Z</time></trkpt><trkpt lat="47.75294308990621" lon="-1.7593822671577442"><ele>33.833333333333336</ele><time>2026-04-12T16:23:13.999Z</time></trkpt><trkpt lat="47.752914711317715" lon="-1.7594699946118475"><ele>33.66666666666667</ele><time>2026-04-12T16:23:14.999Z</time></trkpt><trkpt lat="47.75287919005551" lon="-1.7595641617521909"><ele>33.5</ele><time>2026-04-12T16:23:15.999Z</time></trkpt><trkpt lat="47.752846364098616" lon="-1.7596633092940532"><ele>33.333333333333336</ele><time>2026-04-12T16:23:16.999Z</time></trkpt><trkpt lat="47.75280418262605" lon="-1.7598078026357418"><ele>33.166666666666664</ele><time>2026-04-12T16:23:17.999Z</time></trkpt><trkpt lat="47.752756125501136" lon="-1.7599306978653972"><ele>33.0</ele><time>2026-04-12T16:23:18.999Z</time></trkpt><trkpt lat="47.752704131482915" lon="-1.7600868753566545"><ele>33.0</ele><time>2026-04-12T16:23:19.999Z</time></trkpt><trkpt lat="47.75266178520776" lon="-1.760257651833711"><ele>33.0</ele><time>2026-04-12T16:23:20.999Z</time></trkpt><trkpt lat="47.752628755935326" lon="-1.7604484595605556"><ele>33.0</ele><time>2026-04-12T16:23:21.999Z</time></trkpt><trkpt lat="47.75259600086045" lon="-1.7606585827576544"><ele>33.0</ele><time>2026-04-12T16:23:22.999Z</time></trkpt><trkpt lat="47.75258286576596" lon="-1.7608604871885298"><ele>33.25</ele><time>2026-04-12T16:23:23.999Z</time></trkpt><trkpt lat="47.752558594606775" lon="-1.761040792713864"><ele>33.5</ele><time>2026-04-12T16:23:24.999Z</time></trkpt><trkpt lat="47.752537994343655" lon="-1.7612316568549402"><ele>33.75</ele><time>2026-04-12T16:23:25.999Z</time></trkpt><trkpt lat="47.75250892479817" lon="-1.761432031436529"><ele>34.0</ele><time>2026-04-12T16:23:26.999Z</time></trkpt><trkpt lat="47.75248860375724" lon="-1.761641807962817"><ele>34.0</ele><time>2026-04-12T16:23:27.999Z</time></trkpt><trkpt lat="47.75247780066236" lon="-1.7618451693838981"><ele>34.0</ele><time>2026-04-12T16:23:28.999Z</time></trkpt><trkpt lat="47.75246713881339" lon="-1.762060606749869"><ele>34.0</ele><time>2026-04-12T16:23:29.999Z</time></trkpt><trkpt lat="47.75246711381376" lon="-1.762290273810163"><ele>34.0</ele><time>2026-04-12T16:23:30.999Z</time></trkpt><trkpt lat="47.75246131765927" lon="-1.7625150770047198"><ele>33.25</ele><time>2026-04-12T16:23:31.999Z</time></trkpt><trkpt lat="47.752452916407776" lon="-1.7627472339749288"><ele>32.5</ele><time>2026-04-12T16:23:32.999Z</time></trkpt><trkpt lat="47.75245173632122" lon="-1.7629626911031733"><ele>31.75</ele><time>2026-04-12T16:23:33.999Z</time></trkpt><trkpt lat="47.75246325602659" lon="-1.763161772494595"><ele>31.0</ele><time>2026-04-12T16:23:34.999Z</time></trkpt><trkpt lat="47.752472398146324" lon="-1.7633631359559871"><ele>31.0</ele><time>2026-04-12T16:23:35.999Z</time></trkpt><trkpt lat="47.75246633953429" lon="-1.7635434526465483"><ele>31.0</ele><time>2026-04-12T16:23:36.998Z</time></trkpt><trkpt lat="47.752454463737024" lon="-1.7637205979252961"><ele>31.0</ele><time>2026-04-12T16:23:37.998Z</time></trkpt><trkpt lat="47.75243689109308" lon="-1.7638916105123434"><ele>31.0</ele><time>2026-04-12T16:23:38.998Z</time></trkpt><trkpt lat="47.75239130824384" lon="-1.7640390060579765"><ele>31.0</ele><time>2026-04-12T16:23:39.998Z</time></trkpt><trkpt lat="47.75231109239052" lon="-1.7641635596611454"><ele>31.0</ele><time>2026-04-12T16:23:40.998Z</time></trkpt><trkpt lat="47.752232627814166" lon="-1.7642919980115463"><ele>31.0</ele><time>2026-04-12T16:23:41.998Z</time></trkpt><trkpt lat="47.7521300895236" lon="-1.7644071372347514"><ele>31.0</ele><time>2026-04-12T16:23:42.998Z</time></trkpt><trkpt lat="47.75200742989682" lon="-1.7645210255880217"><ele>31.333333333333336</ele><time>2026-04-12T16:23:43.998Z</time></trkpt><trkpt lat="47.751863380081254" lon="-1.7646126059967133"><ele>31.666666666666664</ele><time>2026-04-12T16:23:44.998Z</time></trkpt><trkpt lat="47.75175400912402" lon="-1.7647534117195913"><ele>32.0</ele><time>2026-04-12T16:23:45.998Z</time></trkpt><trkpt lat="47.751654739633615" lon="-1.764945303588611"><ele>32.0</ele><time>2026-04-12T16:23:46.998Z</time></trkpt><trkpt lat="47.75157736646873" lon="-1.7651762213930589"><ele>32.0</ele><time>2026-04-12T16:23:47.998Z</time></trkpt><trkpt lat="47.751518923299685" lon="-1.765439601555465"><ele>32.0</ele><time>2026-04-12T16:23:48.998Z</time></trkpt><trkpt lat="47.7514849966701" lon="-1.7657022887585156"><ele>32.0</ele><time>2026-04-12T16:23:49.998Z</time></trkpt><trkpt lat="47.7514608431611" lon="-1.7659613489708237"><ele>32.0</ele><time>2026-04-12T16:23:51Z</time></trkpt><trkpt lat="47.75144539157714" lon="-1.7662288491103146"><ele>32.0</ele><time>2026-04-12T16:23:52Z</time></trkpt><trkpt lat="47.751435194272126" lon="-1.7665008285379094"><ele>32.666666666666664</ele><time>2026-04-12T16:23:53Z</time></trkpt><trkpt lat="47.75142842538329" lon="-1.766780653274914"><ele>33.333333333333336</ele><time>2026-04-12T16:23:54Z</time></trkpt><trkpt lat="47.75142285712925" lon="-1.7670594785395084"><ele>34.0</ele><time>2026-04-12T16:23:55Z</time></trkpt><trkpt lat="47.75141829421614" lon="-1.7673365977748983"><ele>34.25</ele><time>2026-04-12T16:23:56Z</time></trkpt><trkpt lat="47.7514157749256" lon="-1.7675929655161702"><ele>34.5</ele><time>2026-04-12T16:23:57Z</time></trkpt><trkpt lat="47.75141373635935" lon="-1.7678004145804573"><ele>34.75</ele><time>2026-04-12T16:23:58Z</time></trkpt><trkpt lat="47.75141228283866" lon="-1.7679802749707092"><ele>35.0</ele><time>2026-04-12T16:23:59Z</time></trkpt><trkpt lat="47.75140417469193" lon="-1.7681293486477507"><ele>34.5</ele><time>2026-04-12T16:24:00Z</time></trkpt><trkpt lat="47.75137237307497" lon="-1.7682394570997853"><ele>34.0</ele><time>2026-04-12T16:24:01Z</time></trkpt><trkpt lat="47.751347888597145" lon="-1.7683493970052424"><ele>33.5</ele><time>2026-04-12T16:24:03Z</time></trkpt><trkpt lat="47.751298787045265" lon="-1.7684327150034502"><ele>33.0</ele><time>2026-04-12T16:24:06Z</time></trkpt><trkpt lat="47.751166254194544" lon="-1.7684275668901543"><ele>32.5</ele><time>2026-04-12T16:24:09Z</time></trkpt><trkpt lat="47.75109821560688" lon="-1.7683741516472653"><ele>32.0</ele><time>2026-04-12T16:24:10Z</time></trkpt><trkpt lat="47.75099929918356" lon="-1.7682763436864264"><ele>31.6</ele><time>2026-04-12T16:24:12Z</time></trkpt><trkpt lat="47.75093259239004" lon="-1.7682108444180333"><ele>31.200000000000003</ele><time>2026-04-12T16:24:13Z</time></trkpt><trkpt lat="47.750842575918114" lon="-1.7681441712687467"><ele>30.8</ele><time>2026-04-12T16:24:14Z</time></trkpt><trkpt lat="47.75075409588171" lon="-1.7680875391695487"><ele>30.4</ele><time>2026-04-12T16:24:15Z</time></trkpt><trkpt lat="47.75066363164701" lon="-1.768038689186697"><ele>30.0</ele><time>2026-04-12T16:24:16Z</time></trkpt><trkpt lat="47.750570113422484" lon="-1.767998619773586"><ele>30.0</ele><time>2026-04-12T16:24:17Z</time></trkpt><trkpt lat="47.75047677870375" lon="-1.7679675788598415"><ele>30.0</ele><time>2026-04-12T16:24:18Z</time></trkpt><trkpt lat="47.750370831464416" lon="-1.7679600445062684"><ele>30.0</ele><time>2026-04-12T16:24:19Z</time></trkpt><trkpt lat="47.75025206991859" lon="-1.7679360388006702"><ele>30.0</ele><time>2026-04-12T16:24:20Z</time></trkpt><trkpt lat="47.75014203693417" lon="-1.7679253978403888"><ele>30.0</ele><time>2026-04-12T16:24:21Z</time></trkpt><trkpt lat="47.75001630443453" lon="-1.7679157733620894"><ele>31.0</ele><time>2026-04-12T16:24:22Z</time></trkpt><trkpt lat="47.74987993377693" lon="-1.7679075743178059"><ele>32.0</ele><time>2026-04-12T16:24:23Z</time></trkpt><trkpt lat="47.74973841722352" lon="-1.7678916659725294"><ele>33.0</ele><time>2026-04-12T16:24:24Z</time></trkpt><trkpt lat="47.74958896589853" lon="-1.76788212885417"><ele>34.0</ele><time>2026-04-12T16:24:25Z</time></trkpt><trkpt lat="47.74946373740167" lon="-1.7678794559126725"><ele>35.0</ele><time>2026-04-12T16:24:26Z</time></trkpt><trkpt lat="47.74933990274265" lon="-1.767863007275466"><ele>36.0</ele><time>2026-04-12T16:24:27Z</time></trkpt><trkpt lat="47.749194372531974" lon="-1.7678517631548503"><ele>37.0</ele><time>2026-04-12T16:24:28Z</time></trkpt><trkpt lat="47.74903774990888" lon="-1.7678525614240683"><ele>38.0</ele><time>2026-04-12T16:24:29Z</time></trkpt><trkpt lat="47.748908809895745" lon="-1.7678234182047863"><ele>38.0</ele><time>2026-04-12T16:24:30Z</time></trkpt><trkpt lat="47.74879794423237" lon="-1.767788300978417"><ele>38.0</ele><time>2026-04-12T16:24:31Z</time></trkpt><trkpt lat="47.74870378955232" lon="-1.7677475506007678"><ele>38.0</ele><time>2026-04-12T16:24:32Z</time></trkpt><trkpt lat="47.74859485851194" lon="-1.7676875390676245"><ele>38.0</ele><time>2026-04-12T16:24:33Z</time></trkpt><trkpt lat="47.748516018744475" lon="-1.7676364086426073"><ele>38.0</ele><time>2026-04-12T16:24:34Z</time></trkpt><trkpt lat="47.748444663038356" lon="-1.7676019733885582"><ele>39.166666666666664</ele><time>2026-04-12T16:24:35Z</time></trkpt><trkpt lat="47.74837784423513" lon="-1.7675768685223296"><ele>40.33333333333333</ele><time>2026-04-12T16:24:36Z</time></trkpt><trkpt lat="47.748306207046944" lon="-1.7675636810081892"><ele>41.5</ele><time>2026-04-12T16:24:37Z</time></trkpt><trkpt lat="47.74822276204122" lon="-1.7675745969908827"><ele>42.666666666666664</ele><time>2026-04-12T16:24:38Z</time></trkpt><trkpt lat="47.74812533033332" lon="-1.7676055096386276"><ele>43.833333333333336</ele><time>2026-04-12T16:24:39Z</time></trkpt><trkpt lat="47.74802237493752" lon="-1.7676591138416107"><ele>45.0</ele><time>2026-04-12T16:24:39.999Z</time></trkpt><trkpt lat="47.74791294391273" lon="-1.767732044878008"><ele>45.25</ele><time>2026-04-12T16:24:40.999Z</time></trkpt><trkpt lat="47.747800915203115" lon="-1.7678429258208834"><ele>45.5</ele><time>2026-04-12T16:24:41.999Z</time></trkpt><trkpt lat="47.74768663733845" lon="-1.767966332481478"><ele>45.75</ele><time>2026-04-12T16:24:42.999Z</time></trkpt><trkpt lat="47.747557033975866" lon="-1.7680897831465188"><ele>46.0</ele><time>2026-04-12T16:24:43.999Z</time></trkpt><trkpt lat="47.74743589970693" lon="-1.768198175681521"><ele>46.5</ele><time>2026-04-12T16:24:44.999Z</time></trkpt><trkpt lat="47.74733522440972" lon="-1.7682893776454094"><ele>47.0</ele><time>2026-04-12T16:24:45.999Z</time></trkpt><trkpt lat="47.74722498027739" lon="-1.768374330831344"><ele>47.5</ele><time>2026-04-12T16:24:46.999Z</time></trkpt><trkpt lat="47.74712101065534" lon="-1.7684956032514099"><ele>48.0</ele><time>2026-04-12T16:24:47.999Z</time></trkpt><trkpt lat="47.74700733456642" lon="-1.7686072651884848"><ele>48.0</ele><time>2026-04-12T16:24:48.999Z</time></trkpt><trkpt lat="47.74688766091527" lon="-1.7686955317263673"><ele>48.0</ele><time>2026-04-12T16:24:49.999Z</time></trkpt><trkpt lat="47.74677278403019" lon="-1.7687678842071737"><ele>48.0</ele><time>2026-04-12T16:24:50.999Z</time></trkpt><trkpt lat="47.746671848039874" lon="-1.768790617727319"><ele>48.0</ele><time>2026-04-12T16:24:51.999Z</time></trkpt><trkpt lat="47.746558509404785" lon="-1.7687676180710388"><ele>50.25</ele><time>2026-04-12T16:24:52.999Z</time></trkpt><trkpt lat="47.74644402187578" lon="-1.7687469236664959"><ele>52.5</ele><time>2026-04-12T16:24:53.999Z</time></trkpt><trkpt lat="47.7463270206021" lon="-1.76868164063737"><ele>54.75</ele><time>2026-04-12T16:24:54.999Z</time></trkpt><trkpt lat="47.74621001654102" lon="-1.7686180593129164"><ele>57.0</ele><time>2026-04-12T16:24:55.999Z</time></trkpt><trkpt lat="47.74609796232389" lon="-1.7685057331979543"><ele>59.33333333333333</ele><time>2026-04-12T16:24:56.999Z</time></trkpt><trkpt lat="47.74597246705012" lon="-1.7683575204607325"><ele>61.666666666666664</ele><time>2026-04-12T16:24:57.999Z</time></trkpt><trkpt lat="47.74586952980828" lon="-1.7681764682158796"><ele>64.0</ele><time>2026-04-12T16:24:58.999Z</time></trkpt><trkpt lat="47.74576109752813" lon="-1.7679648514655595"><ele>64.0</ele><time>2026-04-12T16:24:59.999Z</time></trkpt><trkpt lat="47.745671952761484" lon="-1.7677511262743602"><ele>64.0</ele><time>2026-04-12T16:25:00.999Z</time></trkpt><trkpt lat="47.745596854558805" lon="-1.7675969939055078"><ele>64.0</ele><time>2026-04-12T16:25:01.999Z</time></trkpt><trkpt lat="47.74552953729028" lon="-1.767455271853427"><ele>64.0</ele><time>2026-04-12T16:25:02.999Z</time></trkpt><trkpt lat="47.74547031691683" lon="-1.767332005203839"><ele>64.33333333333333</ele><time>2026-04-12T16:25:03.999Z</time></trkpt><trkpt lat="47.74541834990374" lon="-1.7672346421244556"><ele>64.66666666666666</ele><time>2026-04-12T16:25:04.999Z</time></trkpt><trkpt lat="47.74538564923631" lon="-1.7671383577287327"><ele>65.0</ele><time>2026-04-12T16:25:05.999Z</time></trkpt><trkpt lat="47.74532325508084" lon="-1.767085534889451"><ele>65.33333333333333</ele><time>2026-04-12T16:25:06.999Z</time></trkpt><trkpt lat="47.745275268516394" lon="-1.7670246778875538"><ele>65.66666666666667</ele><time>2026-04-12T16:25:07.999Z</time></trkpt><trkpt lat="47.74516421288538" lon="-1.766919863626487"><ele>66.0</ele><time>2026-04-12T16:25:09.999Z</time></trkpt><trkpt lat="47.74509799651754" lon="-1.766878499363705"><ele>66.6</ele><time>2026-04-12T16:25:10.999Z</time></trkpt><trkpt lat="47.74502518235509" lon="-1.7668397278426589"><ele>67.19999999999999</ele><time>2026-04-12T16:25:11.999Z</time></trkpt><trkpt lat="47.744940664558065" lon="-1.7668126637057424"><ele>67.80000000000001</ele><time>2026-04-12T16:25:12.999Z</time></trkpt><trkpt lat="47.74485204399243" lon="-1.7667779565119874"><ele>68.4</ele><time>2026-04-12T16:25:13.999Z</time></trkpt><trkpt lat="47.744748467698585" lon="-1.7667673490677505"><ele>69.0</ele><time>2026-04-12T16:25:14.999Z</time></trkpt><trkpt lat="47.74463877565077" lon="-1.766748626688845"><ele>69.0</ele><time>2026-04-12T16:25:15.999Z</time></trkpt><trkpt lat="47.74452685854562" lon="-1.766738127063881"><ele>69.0</ele><time>2026-04-12T16:25:16.999Z</time></trkpt><trkpt lat="47.74440671336203" lon="-1.7667260686545307"><ele>69.0</ele><time>2026-04-12T16:25:17.999Z</time></trkpt><trkpt lat="47.74428249079295" lon="-1.7667087048964791"><ele>69.0</ele><time>2026-04-12T16:25:18.999Z</time></trkpt><trkpt lat="47.74413891261483" lon="-1.7666917111354443"><ele>69.25</ele><time>2026-04-12T16:25:19.999Z</time></trkpt><trkpt lat="47.74400778235059" lon="-1.7666838264114888"><ele>69.5</ele><time>2026-04-12T16:25:20.999Z</time></trkpt><trkpt lat="47.74388009916513" lon="-1.7666775528097138"><ele>69.75</ele><time>2026-04-12T16:25:21.999Z</time></trkpt><trkpt lat="47.743717550955814" lon="-1.7666958204187155"><ele>70.0</ele><time>2026-04-12T16:25:22.999Z</time></trkpt><trkpt lat="47.74356432865864" lon="-1.7667065217163407"><ele>69.66666666666666</ele><time>2026-04-12T16:25:23.999Z</time></trkpt><trkpt lat="47.74339155867165" lon="-1.766711259280772"><ele>69.33333333333333</ele><time>2026-04-12T16:25:24.999Z</time></trkpt><trkpt lat="47.74321647737967" lon="-1.7667294618073228"><ele>69.0</ele><time>2026-04-12T16:25:25.999Z</time></trkpt><trkpt lat="47.743049576040335" lon="-1.7667424952973185"><ele>69.0</ele><time>2026-04-12T16:25:26.999Z</time></trkpt><trkpt lat="47.74288964497295" lon="-1.766748675365513"><ele>69.0</ele><time>2026-04-12T16:25:27.999Z</time></trkpt><trkpt lat="47.742728466991124" lon="-1.7667723812031026"><ele>69.0</ele><time>2026-04-12T16:25:28.999Z</time></trkpt><trkpt lat="47.742570932313875" lon="-1.7667817021691574"><ele>68.0</ele><time>2026-04-12T16:25:29.999Z</time></trkpt><trkpt lat="47.742409575681954" lon="-1.7667959236942676"><ele>67.0</ele><time>2026-04-12T16:25:30.999Z</time></trkpt><trkpt lat="47.74224081084145" lon="-1.7668036833055332"><ele>66.0</ele><time>2026-04-12T16:25:31.999Z</time></trkpt><trkpt lat="47.74207412439007" lon="-1.766813764908936"><ele>66.0</ele><time>2026-04-12T16:25:32.999Z</time></trkpt><trkpt lat="47.741916124385796" lon="-1.766817091868687"><ele>66.0</ele><time>2026-04-12T16:25:33.999Z</time></trkpt><trkpt lat="47.74178629008075" lon="-1.7668189796324785"><ele>66.0</ele><time>2026-04-12T16:25:34.999Z</time></trkpt><trkpt lat="47.741661848729514" lon="-1.7668034171326708"><ele>66.0</ele><time>2026-04-12T16:25:35.999Z</time></trkpt><trkpt lat="47.74152324174041" lon="-1.7667656686645812"><ele>65.33333333333333</ele><time>2026-04-12T16:25:36.999Z</time></trkpt><trkpt lat="47.74139547395621" lon="-1.7666831707732544"><ele>64.66666666666666</ele><time>2026-04-12T16:25:37.999Z</time></trkpt><trkpt lat="47.74125065809828" lon="-1.7666286808410685"><ele>64.0</ele><time>2026-04-12T16:25:38.999Z</time></trkpt><trkpt lat="47.74110159840531" lon="-1.7665299391071374"><ele>65.33333333333333</ele><time>2026-04-12T16:25:39.999Z</time></trkpt><trkpt lat="47.74095467527858" lon="-1.76643150139854"><ele>66.66666666666667</ele><time>2026-04-12T16:25:40.999Z</time></trkpt><trkpt lat="47.740800576266075" lon="-1.766336066307585"><ele>68.0</ele><time>2026-04-12T16:25:41.999Z</time></trkpt><trkpt lat="47.740648305306266" lon="-1.7662475420416084"><ele>68.0</ele><time>2026-04-12T16:25:42.999Z</time></trkpt><trkpt lat="47.740513521894506" lon="-1.7661677059928995"><ele>68.0</ele><time>2026-04-12T16:25:43.999Z</time></trkpt><trkpt lat="47.74036067470512" lon="-1.7660732209141476"><ele>68.0</ele><time>2026-04-12T16:25:44.998Z</time></trkpt><trkpt lat="47.74021246576175" lon="-1.765990544867996"><ele>69.0</ele><time>2026-04-12T16:25:45.998Z</time></trkpt><trkpt lat="47.7400754262915" lon="-1.765914947952048"><ele>70.0</ele><time>2026-04-12T16:25:46.998Z</time></trkpt><trkpt lat="47.73994939625119" lon="-1.7658556886634262"><ele>71.0</ele><time>2026-04-12T16:25:47.998Z</time></trkpt><trkpt lat="47.7398456558032" lon="-1.765756236080998"><ele>72.0</ele><time>2026-04-12T16:25:48.998Z</time></trkpt><trkpt lat="47.73978156675237" lon="-1.7656422949657944"><ele>72.0</ele><time>2026-04-12T16:25:49.998Z</time></trkpt><trkpt lat="47.739724534229126" lon="-1.7655153625921407"><ele>72.0</ele><time>2026-04-12T16:25:50.998Z</time></trkpt><trkpt lat="47.73971549123527" lon="-1.7653961034206958"><ele>72.0</ele><time>2026-04-12T16:25:51.998Z</time></trkpt><trkpt lat="47.739669684987454" lon="-1.7652424948283822"><ele>72.0</ele><time>2026-04-12T16:25:53.998Z</time></trkpt><trkpt lat="47.73963772481675" lon="-1.7651480549983767"><ele>72.0</ele><time>2026-04-12T16:26:25Z</time></trkpt><trkpt lat="47.739615108652345" lon="-1.7650486421547347"><ele>72.0</ele><time>2026-04-12T16:26:27Z</time></trkpt><trkpt lat="47.73956599803917" lon="-1.7649896541952534"><ele>72.33333333333333</ele><time>2026-04-12T16:26:28Z</time></trkpt><trkpt lat="47.73921730921111" lon="-1.7649984909510061"><ele>72.66666666666666</ele><time>2026-04-12T16:26:29Z</time></trkpt><trkpt lat="47.739134297290654" lon="-1.764958034482549"><ele>73.0</ele><time>2026-04-12T16:26:30Z</time></trkpt><trkpt lat="47.73902411334867" lon="-1.7649089063565013"><ele>73.0</ele><time>2026-04-12T16:26:31Z</time></trkpt><trkpt lat="47.73893879418401" lon="-1.7648899685605561"><ele>73.0</ele><time>2026-04-12T16:26:32Z</time></trkpt><trkpt lat="47.73885946285454" lon="-1.764850916117165"><ele>73.0</ele><time>2026-04-12T16:26:33Z</time></trkpt><trkpt lat="47.738790738451904" lon="-1.7648830542366785"><ele>73.0</ele><time>2026-04-12T16:26:35Z</time></trkpt><trkpt lat="47.73878607665854" lon="-1.765009886890559"><ele>73.0</ele><time>2026-04-12T16:26:36Z</time></trkpt><trkpt lat="47.73886293601412" lon="-1.7651310344913929"><ele>73.0</ele><time>2026-04-12T16:26:37Z</time></trkpt><trkpt lat="47.73832790670595" lon="-1.7647973287309628"><ele>72.83333333333333</ele><time>2026-04-12T16:26:38Z</time></trkpt><trkpt lat="47.738245027856614" lon="-1.7648010471053759"><ele>72.66666666666666</ele><time>2026-04-12T16:26:39Z</time></trkpt><trkpt lat="47.7381753483125" lon="-1.76479993481314"><ele>72.5</ele><time>2026-04-12T16:26:40Z</time></trkpt><trkpt lat="47.7381066296059" lon="-1.7648013909547817"><ele>72.33333333333333</ele><time>2026-04-12T16:26:40.999Z</time></trkpt><trkpt lat="47.738029421266454" lon="-1.7648229074516237"><ele>72.16666666666667</ele><time>2026-04-12T16:26:41.999Z</time></trkpt><trkpt lat="47.73795011753261" lon="-1.764829529947324"><ele>72.0</ele><time>2026-04-12T16:26:42.999Z</time></trkpt><trkpt lat="47.73787505455544" lon="-1.764844928320117"><ele>72.0</ele><time>2026-04-12T16:26:43.999Z</time></trkpt><trkpt lat="47.73779577570839" lon="-1.764872696361236"><ele>72.0</ele><time>2026-04-12T16:26:45.999Z</time></trkpt><trkpt lat="47.737758457862306" lon="-1.7649867187988573"><ele>72.0</ele><time>2026-04-12T16:26:55.999Z</time></trkpt><trkpt lat="47.73771390270065" lon="-1.7650569281479254"><ele>72.0</ele><time>2026-04-12T16:26:57.999Z</time></trkpt><trkpt lat="47.73762307758928" lon="-1.7651365602833657"><ele>72.0</ele><time>2026-04-12T16:26:59.999Z</time></trkpt><trkpt lat="47.73752465098195" lon="-1.7652074539645375"><ele>72.0</ele><time>2026-04-12T16:27:01.999Z</time></trkpt><trkpt lat="47.73744356946802" lon="-1.7652466276728673"><ele>72.25</ele><time>2026-04-12T16:27:03.999Z</time></trkpt><trkpt lat="47.737351834176344" lon="-1.7653301653888331"><ele>72.5</ele><time>2026-04-12T16:27:05.999Z</time></trkpt><trkpt lat="47.737248291886864" lon="-1.765401459107831"><ele>72.75</ele><time>2026-04-12T16:27:07.999Z</time></trkpt><trkpt lat="47.73714151864414" lon="-1.7654650549256705"><ele>73.0</ele><time>2026-04-12T16:27:09.999Z</time></trkpt><trkpt lat="47.737043472463476" lon="-1.7655558328855196"><ele>73.0</ele><time>2026-04-12T16:27:11.999Z</time></trkpt><trkpt lat="47.736950629075984" lon="-1.7656183867144184"><ele>73.0</ele><time>2026-04-12T16:27:13.999Z</time></trkpt><trkpt lat="47.73684856214427" lon="-1.7656764809461392"><ele>73.0</ele><time>2026-04-12T16:27:15.999Z</time></trkpt><trkpt lat="47.736756159098086" lon="-1.765739256753628"><ele>73.0</ele><time>2026-04-12T16:27:17.999Z</time></trkpt><trkpt lat="47.73668169999278" lon="-1.7657941552723069"><ele>73.0</ele><time>2026-04-12T16:27:19.999Z</time></trkpt><trkpt lat="47.73660915354843" lon="-1.7657765139463175"><ele>72.85714285714286</ele><time>2026-04-12T16:27:22.999Z</time></trkpt><trkpt lat="47.73657182514605" lon="-1.7656908588752362"><ele>72.71428571428572</ele><time>2026-04-12T16:27:24.999Z</time></trkpt><trkpt lat="47.736560086424326" lon="-1.7655888622374607"><ele>72.57142857142858</ele><time>2026-04-12T16:27:25.999Z</time></trkpt><trkpt lat="47.736565872369134" lon="-1.7654910947554312"><ele>72.42857142857143</ele><time>2026-04-12T16:27:26.999Z</time></trkpt><trkpt lat="47.73655571776691" lon="-1.765396516364759"><ele>72.28571428571429</ele><time>2026-04-12T16:27:27.999Z</time></trkpt><trkpt lat="47.73653676278689" lon="-1.76530528998639"><ele>72.14285714285715</ele><time>2026-04-12T16:27:28.999Z</time></trkpt><trkpt lat="47.736530142497216" lon="-1.7652028516045624"><ele>72.0</ele><time>2026-04-12T16:27:29.999Z</time></trkpt><trkpt lat="47.7364826691686" lon="-1.7650302522841217"><ele>72.0</ele><time>2026-04-12T16:27:31.999Z</time></trkpt><trkpt lat="47.736461780676294" lon="-1.7649216520036701"><ele>72.0</ele><time>2026-04-12T16:27:32.999Z</time></trkpt><trkpt lat="47.73644601406839" lon="-1.76483013191905"><ele>72.0</ele><time>2026-04-12T16:27:33.999Z</time></trkpt><trkpt lat="47.736419319284785" lon="-1.7647015554762282"><ele>72.0</ele><time>2026-04-12T16:27:34.999Z</time></trkpt><trkpt lat="47.73639491928454" lon="-1.7645677725448137"><ele>72.0</ele><time>2026-04-12T16:27:35.999Z</time></trkpt><trkpt lat="47.73636952473698" lon="-1.7644791382598353"><ele>72.0</ele><time>2026-04-12T16:27:36.999Z</time></trkpt><trkpt lat="47.73633028210177" lon="-1.7643420263614302"><ele>72.0</ele><time>2026-04-12T16:27:37.999Z</time></trkpt><trkpt lat="47.73629843046439" lon="-1.764141688006005"><ele>72.0</ele><time>2026-04-12T16:27:39.999Z</time></trkpt><trkpt lat="47.736277005216124" lon="-1.7640357975882555"><ele>72.0</ele><time>2026-04-12T16:27:40.999Z</time></trkpt><trkpt lat="47.73625809730399" lon="-1.7639104103991996"><ele>72.0</ele><time>2026-04-12T16:27:41.999Z</time></trkpt><trkpt lat="47.73623766201924" lon="-1.763803935696448"><ele>72.0</ele><time>2026-04-12T16:27:42.999Z</time></trkpt><trkpt lat="47.736209503546824" lon="-1.7636790201686885"><ele>72.0</ele><time>2026-04-12T16:27:43.999Z</time></trkpt><trkpt lat="47.73619151406872" lon="-1.7635681376719718"><ele>72.0</ele><time>2026-04-12T16:27:44.998Z</time></trkpt><trkpt lat="47.7361767920958" lon="-1.7634434569967052"><ele>72.0</ele><time>2026-04-12T16:27:45.998Z</time></trkpt><trkpt lat="47.7361448671069" lon="-1.7633293211851484"><ele>72.0</ele><time>2026-04-12T16:27:46.998Z</time></trkpt><trkpt lat="47.73611852662829" lon="-1.7632277532765641"><ele>72.0</ele><time>2026-04-12T16:27:47.998Z</time></trkpt><trkpt lat="47.73609370315103" lon="-1.763109148806211"><ele>72.0</ele><time>2026-04-12T16:27:48.998Z</time></trkpt><trkpt lat="47.73606472492827" lon="-1.762998037635453"><ele>72.5</ele><time>2026-04-12T16:27:49.998Z</time></trkpt><trkpt lat="47.736040595821066" lon="-1.7628890261138437"><ele>73.0</ele><time>2026-04-12T16:27:50.998Z</time></trkpt><trkpt lat="47.73602172743945" lon="-1.762763282091221"><ele>73.5</ele><time>2026-04-12T16:27:51.998Z</time></trkpt><trkpt lat="47.735992813876834" lon="-1.7626396144263932"><ele>74.0</ele><time>2026-04-12T16:27:52.998Z</time></trkpt><trkpt lat="47.73596590167318" lon="-1.7625145063182877"><ele>74.5</ele><time>2026-04-12T16:27:53.998Z</time></trkpt><trkpt lat="47.73594630890069" lon="-1.7623842473030031"><ele>75.0</ele><time>2026-04-12T16:27:54.998Z</time></trkpt><trkpt lat="47.73593224936533" lon="-1.7622810224740242"><ele>75.2</ele><time>2026-04-12T16:27:55.998Z</time></trkpt><trkpt lat="47.7359076595947" lon="-1.7621338275643248"><ele>75.4</ele><time>2026-04-12T16:27:57.998Z</time></trkpt><trkpt lat="47.735869270546104" lon="-1.7620199858534027"><ele>75.6</ele><time>2026-04-12T16:27:59.998Z</time></trkpt><trkpt lat="47.73579755726145" lon="-1.7619918220664237"><ele>75.8</ele><time>2026-04-12T16:28:01.998Z</time></trkpt><trkpt lat="47.73565562863637" lon="-1.7620031455154266"><ele>76.0</ele><time>2026-04-12T16:28:04Z</time></trkpt><trkpt lat="47.73558572833356" lon="-1.7619547577603374"><ele>76.0</ele><time>2026-04-12T16:28:05Z</time></trkpt><trkpt lat="47.735525910567326" lon="-1.7618682837905195"><ele>76.0</ele><time>2026-04-12T16:28:06Z</time></trkpt><trkpt lat="47.735464349956295" lon="-1.7617605748036818"><ele>76.0</ele><time>2026-04-12T16:28:07Z</time></trkpt><trkpt lat="47.735384337149306" lon="-1.7616557474194683"><ele>76.0</ele><time>2026-04-12T16:28:08Z</time></trkpt><trkpt lat="47.73530294241443" lon="-1.7615228445002091"><ele>76.0</ele><time>2026-04-12T16:28:09Z</time></trkpt><trkpt lat="47.73521844666152" lon="-1.7613832234193898"><ele>75.66666666666666</ele><time>2026-04-12T16:28:10Z</time></trkpt><trkpt lat="47.73510642593656" lon="-1.761230766834685"><ele>75.33333333333333</ele><time>2026-04-12T16:28:11Z</time></trkpt><trkpt lat="47.73497984831933" lon="-1.7610655305895768"><ele>75.0</ele><time>2026-04-12T16:28:12Z</time></trkpt><trkpt lat="47.73484234773058" lon="-1.7609097309960182"><ele>75.0</ele><time>2026-04-12T16:28:13Z</time></trkpt><trkpt lat="47.734719942377225" lon="-1.760752469413889"><ele>75.0</ele><time>2026-04-12T16:28:14Z</time></trkpt><trkpt lat="47.73459392955919" lon="-1.7605632395610222"><ele>75.0</ele><time>2026-04-12T16:28:15Z</time></trkpt><trkpt lat="47.73445329846506" lon="-1.7603757273556515"><ele>76.0</ele><time>2026-04-12T16:28:16Z</time></trkpt><trkpt lat="47.7342983032951" lon="-1.7601693712563815"><ele>77.0</ele><time>2026-04-12T16:28:17Z</time></trkpt><trkpt lat="47.734140774445734" lon="-1.7599898696802514"><ele>78.0</ele><time>2026-04-12T16:28:18Z</time></trkpt><trkpt lat="47.73401580353348" lon="-1.7598420598196765"><ele>78.0</ele><time>2026-04-12T16:28:19Z</time></trkpt><trkpt lat="47.733900877250484" lon="-1.7597064619949478"><ele>78.0</ele><time>2026-04-12T16:28:20Z</time></trkpt><trkpt lat="47.73382298916852" lon="-1.759613884335774"><ele>78.0</ele><time>2026-04-12T16:28:21Z</time></trkpt><trkpt lat="47.733747515253896" lon="-1.7595329191080986"><ele>78.0</ele><time>2026-04-12T16:28:22Z</time></trkpt><trkpt lat="47.73368206009574" lon="-1.759442660444615"><ele>78.0</ele><time>2026-04-12T16:28:23Z</time></trkpt><trkpt lat="47.73361569007342" lon="-1.7593674912912884"><ele>78.0</ele><time>2026-04-12T16:28:25Z</time></trkpt><trkpt lat="47.733484582910656" lon="-1.7593494026983576"><ele>78.0</ele><time>2026-04-12T16:28:27Z</time></trkpt><trkpt lat="47.73340663721297" lon="-1.7594048584673818"><ele>78.0</ele><time>2026-04-12T16:28:28Z</time></trkpt><trkpt lat="47.733326921359065" lon="-1.7594756419877762"><ele>78.0</ele><time>2026-04-12T16:28:29Z</time></trkpt><trkpt lat="47.73322919085182" lon="-1.759528175104272"><ele>78.0</ele><time>2026-04-12T16:28:30Z</time></trkpt><trkpt lat="47.733123778674106" lon="-1.7595848373500749"><ele>78.0</ele><time>2026-04-12T16:28:31Z</time></trkpt><trkpt lat="47.73299408342451" lon="-1.759625319402812"><ele>78.0</ele><time>2026-04-12T16:28:32Z</time></trkpt><trkpt lat="47.73287649841251" lon="-1.7597095705779198"><ele>78.0</ele><time>2026-04-12T16:28:33Z</time></trkpt><trkpt lat="47.73277061065798" lon="-1.759754135261488"><ele>78.0</ele><time>2026-04-12T16:28:34Z</time></trkpt><trkpt lat="47.73265910993024" lon="-1.7598208259409835"><ele>77.25</ele><time>2026-04-12T16:28:35Z</time></trkpt><trkpt lat="47.7325428612704" lon="-1.7599029292161583"><ele>76.5</ele><time>2026-04-12T16:28:36Z</time></trkpt><trkpt lat="47.732426766145494" lon="-1.760016210031086"><ele>75.75</ele><time>2026-04-12T16:28:37Z</time></trkpt><trkpt lat="47.73232944292774" lon="-1.7601228817861092"><ele>75.0</ele><time>2026-04-12T16:28:38Z</time></trkpt><trkpt lat="47.73222144477829" lon="-1.7602413569838538"><ele>74.75</ele><time>2026-04-12T16:28:39Z</time></trkpt><trkpt lat="47.73211806579746" lon="-1.760367354248167"><ele>74.5</ele><time>2026-04-12T16:28:40Z</time></trkpt><trkpt lat="47.73200808022081" lon="-1.7604874796073318"><ele>74.25</ele><time>2026-04-12T16:28:41Z</time></trkpt><trkpt lat="47.731884858539814" lon="-1.760568277989013"><ele>74.0</ele><time>2026-04-12T16:28:42Z</time></trkpt><trkpt lat="47.73176190303508" lon="-1.760652283128316"><ele>73.75</ele><time>2026-04-12T16:28:43Z</time></trkpt><trkpt lat="47.731623895057616" lon="-1.7607406512218786"><ele>73.5</ele><time>2026-04-12T16:28:44Z</time></trkpt><trkpt lat="47.731505744872635" lon="-1.760821739701758"><ele>73.25</ele><time>2026-04-12T16:28:45Z</time></trkpt><trkpt lat="47.73138269147818" lon="-1.760908450687269"><ele>73.0</ele><time>2026-04-12T16:28:46Z</time></trkpt><trkpt lat="47.731267300772025" lon="-1.7609816202015547"><ele>73.0</ele><time>2026-04-12T16:28:47Z</time></trkpt><trkpt lat="47.731162338610275" lon="-1.761038127962237"><ele>73.0</ele><time>2026-04-12T16:28:48Z</time></trkpt><trkpt lat="47.73106422237221" lon="-1.7610963139680662"><ele>73.0</ele><time>2026-04-12T16:28:49Z</time></trkpt><trkpt lat="47.730976398165794" lon="-1.7611486647258856"><ele>73.0</ele><time>2026-04-12T16:28:49.999Z</time></trkpt><trkpt lat="47.73089386508128" lon="-1.7612027374305952"><ele>73.0</ele><time>2026-04-12T16:28:50.999Z</time></trkpt><trkpt lat="47.73082177746771" lon="-1.7612397003816807"><ele>73.0</ele><time>2026-04-12T16:28:51.999Z</time></trkpt><trkpt lat="47.730758554421264" lon="-1.7612700772473935"><ele>73.0</ele><time>2026-04-12T16:28:52.999Z</time></trkpt><trkpt lat="47.73067966261509" lon="-1.7613244736729516"><ele>73.0</ele><time>2026-04-12T16:28:54.999Z</time></trkpt><trkpt lat="47.73062883357719" lon="-1.7614045944472778"><ele>73.0</ele><time>2026-04-12T16:29:01.999Z</time></trkpt><trkpt lat="47.730630675425104" lon="-1.7615193840213512"><ele>73.0</ele><time>2026-04-12T16:29:02.999Z</time></trkpt><trkpt lat="47.73058318829489" lon="-1.7615810304224542"><ele>73.0</ele><time>2026-04-12T16:29:03.999Z</time></trkpt><trkpt lat="47.73047883662041" lon="-1.7616904294641065"><ele>73.0</ele><time>2026-04-12T16:29:05.999Z</time></trkpt><trkpt lat="47.730424953482554" lon="-1.7617671259025869"><ele>73.0</ele><time>2026-04-12T16:29:06.999Z</time></trkpt><trkpt lat="47.730349618079785" lon="-1.7618649842641683"><ele>73.0</ele><time>2026-04-12T16:29:07.999Z</time></trkpt><trkpt lat="47.73027622542923" lon="-1.761958390616151"><ele>73.0</ele><time>2026-04-12T16:29:08.999Z</time></trkpt><trkpt lat="47.73019165893987" lon="-1.7620548594570982"><ele>73.0</ele><time>2026-04-12T16:29:09.999Z</time></trkpt><trkpt lat="47.730096821826685" lon="-1.7621617909362948"><ele>72.25</ele><time>2026-04-12T16:29:10.999Z</time></trkpt><trkpt lat="47.730016688333386" lon="-1.7622886112750094"><ele>71.5</ele><time>2026-04-12T16:29:11.999Z</time></trkpt><trkpt lat="47.729918396145024" lon="-1.7623856505948208"><ele>70.75</ele><time>2026-04-12T16:29:12.999Z</time></trkpt><trkpt lat="47.72983543918606" lon="-1.7625395073689036"><ele>70.0</ele><time>2026-04-12T16:29:13.999Z</time></trkpt><trkpt lat="47.72972583844753" lon="-1.7626863648420306"><ele>70.25</ele><time>2026-04-12T16:29:14.999Z</time></trkpt><trkpt lat="47.7296137504973" lon="-1.7628357987585253"><ele>70.5</ele><time>2026-04-12T16:29:15.999Z</time></trkpt><trkpt lat="47.729504637169136" lon="-1.7629562550850417"><ele>70.75</ele><time>2026-04-12T16:29:16.999Z</time></trkpt><trkpt lat="47.72938769891805" lon="-1.763084336512292"><ele>71.0</ele><time>2026-04-12T16:29:17.999Z</time></trkpt><trkpt lat="47.72928218940151" lon="-1.763231930841541"><ele>70.5</ele><time>2026-04-12T16:29:18.999Z</time></trkpt><trkpt lat="47.729177647541746" lon="-1.7633890625529567"><ele>70.0</ele><time>2026-04-12T16:29:19.999Z</time></trkpt><trkpt lat="47.72908208702352" lon="-1.7635410397436513"><ele>69.5</ele><time>2026-04-12T16:29:20.999Z</time></trkpt><trkpt lat="47.72899362026955" lon="-1.763673784152796"><ele>69.0</ele><time>2026-04-12T16:29:21.999Z</time></trkpt><trkpt lat="47.728910123189486" lon="-1.7638099080635004"><ele>69.0</ele><time>2026-04-12T16:29:22.999Z</time></trkpt><trkpt lat="47.728825692985886" lon="-1.7639487412493822"><ele>69.0</ele><time>2026-04-12T16:29:23.999Z</time></trkpt><trkpt lat="47.72874485801462" lon="-1.764100790171588"><ele>69.0</ele><time>2026-04-12T16:29:24.999Z</time></trkpt><trkpt lat="47.728651666295825" lon="-1.764285036652373"><ele>69.0</ele><time>2026-04-12T16:29:25.999Z</time></trkpt><trkpt lat="47.72855435423343" lon="-1.7644791946378717"><ele>68.33333333333333</ele><time>2026-04-12T16:29:26.999Z</time></trkpt><trkpt lat="47.72845075389354" lon="-1.764670705018919"><ele>67.66666666666666</ele><time>2026-04-12T16:29:27.999Z</time></trkpt><trkpt lat="47.72835137105665" lon="-1.764898716326902"><ele>67.0</ele><time>2026-04-12T16:29:28.999Z</time></trkpt><trkpt lat="47.728250732675676" lon="-1.7651041597153265"><ele>67.33333333333333</ele><time>2026-04-12T16:29:29.999Z</time></trkpt><trkpt lat="47.7281400965385" lon="-1.7652988148285227"><ele>67.66666666666667</ele><time>2026-04-12T16:29:30.999Z</time></trkpt><trkpt lat="47.72805384203881" lon="-1.7654987661824537"><ele>68.0</ele><time>2026-04-12T16:29:31.999Z</time></trkpt><trkpt lat="47.72795830723502" lon="-1.7656960740664358"><ele>68.0</ele><time>2026-04-12T16:29:32.999Z</time></trkpt><trkpt lat="47.7278657256137" lon="-1.765886374069148"><ele>68.0</ele><time>2026-04-12T16:29:33.999Z</time></trkpt><trkpt lat="47.72776998388779" lon="-1.766065673303726"><ele>68.0</ele><time>2026-04-12T16:29:34.999Z</time></trkpt><trkpt lat="47.727690462034076" lon="-1.766236831842936"><ele>68.25</ele><time>2026-04-12T16:29:35.999Z</time></trkpt><trkpt lat="47.72761241721087" lon="-1.7663850067343219"><ele>68.5</ele><time>2026-04-12T16:29:36.999Z</time></trkpt><trkpt lat="47.72752368316871" lon="-1.7665152633852064"><ele>68.75</ele><time>2026-04-12T16:29:37.999Z</time></trkpt><trkpt lat="47.72743372063366" lon="-1.766640682987757"><ele>69.0</ele><time>2026-04-12T16:29:38.999Z</time></trkpt><trkpt lat="47.727337063436394" lon="-1.766757064862446"><ele>69.0</ele><time>2026-04-12T16:29:39.999Z</time></trkpt><trkpt lat="47.727232676900755" lon="-1.7668819292376072"><ele>69.0</ele><time>2026-04-12T16:29:40.999Z</time></trkpt><trkpt lat="47.727131554442266" lon="-1.767017109239394"><ele>69.0</ele><time>2026-04-12T16:29:41.999Z</time></trkpt><trkpt lat="47.72700843740928" lon="-1.7671731373302566"><ele>69.0</ele><time>2026-04-12T16:29:42.999Z</time></trkpt><trkpt lat="47.72688871731914" lon="-1.7673353805271341"><ele>69.0</ele><time>2026-04-12T16:29:43.999Z</time></trkpt><trkpt lat="47.72678719312042" lon="-1.7674752968881422"><ele>69.0</ele><time>2026-04-12T16:29:44.999Z</time></trkpt><trkpt lat="47.72670601309253" lon="-1.7676049113434487"><ele>69.0</ele><time>2026-04-12T16:29:45.999Z</time></trkpt><trkpt lat="47.7266281719243" lon="-1.7677099630698945"><ele>69.0</ele><time>2026-04-12T16:29:46.999Z</time></trkpt><trkpt lat="47.726553583679845" lon="-1.7677831874986034"><ele>69.0</ele><time>2026-04-12T16:29:47.999Z</time></trkpt><trkpt lat="47.72649241213862" lon="-1.7678666549090167"><ele>69.0</ele><time>2026-04-12T16:29:48.999Z</time></trkpt><trkpt lat="47.7264444788254" lon="-1.7679305101181755"><ele>69.0</ele><time>2026-04-12T16:29:49.999Z</time></trkpt><trkpt lat="47.72636965771226" lon="-1.7680036350477113"><ele>69.0</ele><time>2026-04-12T16:29:51.999Z</time></trkpt><trkpt lat="47.72630576492905" lon="-1.7680083704050193"><ele>69.0</ele><time>2026-04-12T16:29:54.998Z</time></trkpt><trkpt lat="47.72627880206399" lon="-1.7676605207530205"><ele>69.0</ele><time>2026-04-12T16:29:58.998Z</time></trkpt><trkpt lat="47.72629718235231" lon="-1.7675533739013891"><ele>69.0</ele><time>2026-04-12T16:29:59.998Z</time></trkpt><trkpt lat="47.72630067225664" lon="-1.7673993305371163"><ele>69.0</ele><time>2026-04-12T16:30:01.998Z</time></trkpt><trkpt lat="47.72629544500273" lon="-1.7672573837066794"><ele>69.0</ele><time>2026-04-12T16:30:03.998Z</time></trkpt><trkpt lat="47.726304068167224" lon="-1.7671589256014446"><ele>69.0</ele><time>2026-04-12T16:30:04.998Z</time></trkpt><trkpt lat="47.726327310543795" lon="-1.7670356085028307"><ele>69.0</ele><time>2026-04-12T16:30:05.998Z</time></trkpt><trkpt lat="47.72634399313393" lon="-1.7668740115766612"><ele>69.0</ele><time>2026-04-12T16:30:06.998Z</time></trkpt><trkpt lat="47.72636311051098" lon="-1.7666991310150786"><ele>69.0</ele><time>2026-04-12T16:30:07.998Z</time></trkpt><trkpt lat="47.72637907629673" lon="-1.7665435735889097"><ele>69.0</ele><time>2026-04-12T16:30:09Z</time></trkpt><trkpt lat="47.726393910846255" lon="-1.766375678547611"><ele>69.0</ele><time>2026-04-12T16:30:10Z</time></trkpt><trkpt lat="47.72640682544688" lon="-1.7661880273502173"><ele>69.0</ele><time>2026-04-12T16:30:11Z</time></trkpt><trkpt lat="47.72642576476086" lon="-1.7660047384569244"><ele>69.0</ele><time>2026-04-12T16:30:12Z</time></trkpt><trkpt lat="47.726444327610544" lon="-1.7658132279916767"><ele>69.0</ele><time>2026-04-12T16:30:13Z</time></trkpt><trkpt lat="47.72647230408392" lon="-1.7656033072150832"><ele>69.0</ele><time>2026-04-12T16:30:14Z</time></trkpt><trkpt lat="47.72648402110297" lon="-1.7653914390182914"><ele>69.0</ele><time>2026-04-12T16:30:15Z</time></trkpt><trkpt lat="47.72650671526961" lon="-1.765167163741975"><ele>69.0</ele><time>2026-04-12T16:30:16Z</time></trkpt><trkpt lat="47.72651695694546" lon="-1.7649535071106008"><ele>69.0</ele><time>2026-04-12T16:30:17Z</time></trkpt><trkpt lat="47.726535395014636" lon="-1.764735460824831"><ele>69.0</ele><time>2026-04-12T16:30:18Z</time></trkpt><trkpt lat="47.7265682040177" lon="-1.764485676292236"><ele>68.33333333333333</ele><time>2026-04-12T16:30:19Z</time></trkpt><trkpt lat="47.72659852731408" lon="-1.7642125298472475"><ele>67.66666666666666</ele><time>2026-04-12T16:30:20Z</time></trkpt><trkpt lat="47.72663761613747" lon="-1.7639333141375548"><ele>67.0</ele><time>2026-04-12T16:30:21Z</time></trkpt><trkpt lat="47.726666684200595" lon="-1.763636194645798"><ele>66.66666666666666</ele><time>2026-04-12T16:30:22Z</time></trkpt><trkpt lat="47.7266835599226" lon="-1.7633318873610193"><ele>66.33333333333333</ele><time>2026-04-12T16:30:23Z</time></trkpt><trkpt lat="47.72671126462437" lon="-1.763042679071496"><ele>66.0</ele><time>2026-04-12T16:30:24Z</time></trkpt><trkpt lat="47.72674548555685" lon="-1.762741885801592"><ele>65.5</ele><time>2026-04-12T16:30:25Z</time></trkpt><trkpt lat="47.726782697219676" lon="-1.7624049376342854"><ele>65.0</ele><time>2026-04-12T16:30:26Z</time></trkpt><trkpt lat="47.726808913329975" lon="-1.762064495733904"><ele>66.0</ele><time>2026-04-12T16:30:27Z</time></trkpt><trkpt lat="47.72684139410375" lon="-1.7617024085018596"><ele>67.0</ele><time>2026-04-12T16:30:28Z</time></trkpt><trkpt lat="47.72687969491826" lon="-1.7613673772744385"><ele>66.66666666666666</ele><time>2026-04-12T16:30:29Z</time></trkpt><trkpt lat="47.726902859528536" lon="-1.7610674800334025"><ele>66.33333333333333</ele><time>2026-04-12T16:30:30Z</time></trkpt><trkpt lat="47.72693374457932" lon="-1.7607684326955628"><ele>66.0</ele><time>2026-04-12T16:30:31Z</time></trkpt><trkpt lat="47.72695990915191" lon="-1.760474832911773"><ele>66.66666666666667</ele><time>2026-04-12T16:30:32Z</time></trkpt><trkpt lat="47.72698750061514" lon="-1.7601803154023792"><ele>67.33333333333334</ele><time>2026-04-12T16:30:33Z</time></trkpt><trkpt lat="47.72701803478485" lon="-1.7598841199518167"><ele>68.0</ele><time>2026-04-12T16:30:34Z</time></trkpt><trkpt lat="47.72704419784264" lon="-1.7596053659829174"><ele>68.0</ele><time>2026-04-12T16:30:35Z</time></trkpt><trkpt lat="47.7270711238137" lon="-1.7593176600325602"><ele>68.0</ele><time>2026-04-12T16:30:36Z</time></trkpt><trkpt lat="47.727099836234515" lon="-1.7590312374291917"><ele>68.0</ele><time>2026-04-12T16:30:37Z</time></trkpt><trkpt lat="47.72712740005015" lon="-1.758743106024712"><ele>68.0</ele><time>2026-04-12T16:30:38Z</time></trkpt><trkpt lat="47.72715483217874" lon="-1.7584384334341154"><ele>68.0</ele><time>2026-04-12T16:30:39Z</time></trkpt><trkpt lat="47.727175531809536" lon="-1.7581437229674954"><ele>68.0</ele><time>2026-04-12T16:30:40Z</time></trkpt><trkpt lat="47.727195794942226" lon="-1.7578454394711733"><ele>67.66666666666667</ele><time>2026-04-12T16:30:41Z</time></trkpt><trkpt lat="47.72720675002942" lon="-1.7575451690034727"><ele>67.33333333333333</ele><time>2026-04-12T16:30:42Z</time></trkpt><trkpt lat="47.72721396611912" lon="-1.7572410645940022"><ele>67.0</ele><time>2026-04-12T16:30:43Z</time></trkpt><trkpt lat="47.72722004668762" lon="-1.7569270581277863"><ele>67.33333333333333</ele><time>2026-04-12T16:30:44Z</time></trkpt><trkpt lat="47.727210491772496" lon="-1.756606645991133"><ele>67.66666666666667</ele><time>2026-04-12T16:30:45Z</time></trkpt><trkpt lat="47.727209713194874" lon="-1.756289852335025"><ele>68.0</ele><time>2026-04-12T16:30:46Z</time></trkpt><trkpt lat="47.727223353958294" lon="-1.7559729595629483"><ele>68.0</ele><time>2026-04-12T16:30:47Z</time></trkpt><trkpt lat="47.72721763545319" lon="-1.7556549998982993"><ele>68.0</ele><time>2026-04-12T16:30:48Z</time></trkpt><trkpt lat="47.727220969405565" lon="-1.7553379573768735"><ele>68.0</ele><time>2026-04-12T16:30:49Z</time></trkpt><trkpt lat="47.72721646550398" lon="-1.755030246055678"><ele>68.0</ele><time>2026-04-12T16:30:50Z</time></trkpt><trkpt lat="47.72721078172966" lon="-1.7547260737393258"><ele>68.0</ele><time>2026-04-12T16:30:51Z</time></trkpt><trkpt lat="47.72719704647805" lon="-1.7544174517693825"><ele>68.0</ele><time>2026-04-12T16:30:52Z</time></trkpt><trkpt lat="47.72719852699385" lon="-1.7541163084665057"><ele>67.66666666666667</ele><time>2026-04-12T16:30:53Z</time></trkpt><trkpt lat="47.72720113524852" lon="-1.7538205082049856"><ele>67.33333333333333</ele><time>2026-04-12T16:30:54Z</time></trkpt><trkpt lat="47.72720423229021" lon="-1.7535154387421665"><ele>67.0</ele><time>2026-04-12T16:30:55Z</time></trkpt><trkpt lat="47.727216441814534" lon="-1.7532182214913696"><ele>67.0</ele><time>2026-04-12T16:30:56Z</time></trkpt><trkpt lat="47.72720961918109" lon="-1.752917853985875"><ele>67.0</ele><time>2026-04-12T16:30:56.999Z</time></trkpt><trkpt lat="47.727202667636185" lon="-1.7526162900473032"><ele>67.0</ele><time>2026-04-12T16:30:57.999Z</time></trkpt><trkpt lat="47.72720826280782" lon="-1.7523057794140764"><ele>67.0</ele><time>2026-04-12T16:30:58.999Z</time></trkpt><trkpt lat="47.727203733267615" lon="-1.7520099929050823"><ele>67.0</ele><time>2026-04-12T16:30:59.999Z</time></trkpt><trkpt lat="47.72720168854816" lon="-1.7517095941601117"><ele>67.0</ele><time>2026-04-12T16:31:00.999Z</time></trkpt><trkpt lat="47.7272054606306" lon="-1.7514406877668962"><ele>67.0</ele><time>2026-04-12T16:31:01.999Z</time></trkpt><trkpt lat="47.72720925250289" lon="-1.75121222890466"><ele>67.0</ele><time>2026-04-12T16:31:02.999Z</time></trkpt><trkpt lat="47.72721102441616" lon="-1.7510140295738081"><ele>67.0</ele><time>2026-04-12T16:31:03.999Z</time></trkpt><trkpt lat="47.72719649165224" lon="-1.7508169369734645"><ele>67.0</ele><time>2026-04-12T16:31:04.999Z</time></trkpt><trkpt lat="47.727210559097536" lon="-1.7506316529921895"><ele>67.33333333333333</ele><time>2026-04-12T16:31:05.999Z</time></trkpt><trkpt lat="47.72720807924319" lon="-1.750419867232806"><ele>67.66666666666667</ele><time>2026-04-12T16:31:06.999Z</time></trkpt><trkpt lat="47.72719453291736" lon="-1.7501898101658215"><ele>68.0</ele><time>2026-04-12T16:31:07.999Z</time></trkpt><trkpt lat="47.72719367408583" lon="-1.749916223843421"><ele>68.66666666666667</ele><time>2026-04-12T16:31:08.999Z</time></trkpt><trkpt lat="47.72719249099365" lon="-1.7496270374201501"><ele>69.33333333333333</ele><time>2026-04-12T16:31:09.999Z</time></trkpt><trkpt lat="47.727190955852215" lon="-1.7493387723971296"><ele>70.0</ele><time>2026-04-12T16:31:10.999Z</time></trkpt><trkpt lat="47.72718979206199" lon="-1.7491202378319952"><ele>70.0</ele><time>2026-04-12T16:31:11.999Z</time></trkpt><trkpt lat="47.72718956124893" lon="-1.7489425300486874"><ele>70.0</ele><time>2026-04-12T16:31:12.999Z</time></trkpt><trkpt lat="47.72720563109063" lon="-1.7488065445214314"><ele>70.0</ele><time>2026-04-12T16:31:13.999Z</time></trkpt><trkpt lat="47.72719553716076" lon="-1.748713931599204"><ele>70.0</ele><time>2026-04-12T16:31:14.999Z</time></trkpt><trkpt lat="47.727194264610716" lon="-1.7485859160247066"><ele>70.0</ele><time>2026-04-12T16:31:16.999Z</time></trkpt><trkpt lat="47.7271826404465" lon="-1.7484020906029145"><ele>69.8</ele><time>2026-04-12T16:31:25.999Z</time></trkpt><trkpt lat="47.72715072942772" lon="-1.7482974263622932"><ele>69.6</ele><time>2026-04-12T16:31:26.999Z</time></trkpt><trkpt lat="47.72712221835952" lon="-1.74818706478678"><ele>69.4</ele><time>2026-04-12T16:31:27.999Z</time></trkpt><trkpt lat="47.727096359295956" lon="-1.7480866457250885"><ele>69.2</ele><time>2026-04-12T16:31:28.999Z</time></trkpt><trkpt lat="47.72706038870676" lon="-1.7479446305667259"><ele>69.0</ele><time>2026-04-12T16:31:29.999Z</time></trkpt><trkpt lat="47.727012838027946" lon="-1.7477532725737543"><ele>69.25</ele><time>2026-04-12T16:31:30.999Z</time></trkpt><trkpt lat="47.7269878411623" lon="-1.747585227418945"><ele>69.5</ele><time>2026-04-12T16:31:31.999Z</time></trkpt><trkpt lat="47.726937351615184" lon="-1.747433013803584"><ele>69.75</ele><time>2026-04-12T16:31:32.999Z</time></trkpt><trkpt lat="47.72688351834041" lon="-1.7472203819008236"><ele>70.0</ele><time>2026-04-12T16:31:33.999Z</time></trkpt><trkpt lat="47.726826346931915" lon="-1.7469948262092865"><ele>70.0</ele><time>2026-04-12T16:31:34.999Z</time></trkpt><trkpt lat="47.726771280150984" lon="-1.746803267701011"><ele>70.0</ele><time>2026-04-12T16:31:35.999Z</time></trkpt><trkpt lat="47.726727366708346" lon="-1.7466016834862808"><ele>70.0</ele><time>2026-04-12T16:31:36.999Z</time></trkpt><trkpt lat="47.72667485690135" lon="-1.7463700257701382"><ele>70.0</ele><time>2026-04-12T16:31:37.999Z</time></trkpt><trkpt lat="47.72661614340847" lon="-1.7461328383968588"><ele>70.0</ele><time>2026-04-12T16:31:38.999Z</time></trkpt><trkpt lat="47.726555564964926" lon="-1.7458775357487273"><ele>70.0</ele><time>2026-04-12T16:31:39.999Z</time></trkpt><trkpt lat="47.72649671806098" lon="-1.7456129050909226"><ele>70.0</ele><time>2026-04-12T16:31:40.999Z</time></trkpt><trkpt lat="47.72642441241403" lon="-1.7453725722916351"><ele>69.66666666666666</ele><time>2026-04-12T16:31:41.999Z</time></trkpt><trkpt lat="47.72637525992517" lon="-1.7451744375620006"><ele>69.33333333333333</ele><time>2026-04-12T16:31:42.999Z</time></trkpt><trkpt lat="47.726323450051666" lon="-1.744959221468375"><ele>69.0</ele><time>2026-04-12T16:31:43.999Z</time></trkpt><trkpt lat="47.726264492634094" lon="-1.7447213194336648"><ele>69.0</ele><time>2026-04-12T16:31:44.999Z</time></trkpt><trkpt lat="47.72620764597212" lon="-1.7444888626872412"><ele>69.0</ele><time>2026-04-12T16:31:45.999Z</time></trkpt><trkpt lat="47.726150986631616" lon="-1.744254223392767"><ele>69.0</ele><time>2026-04-12T16:31:46.999Z</time></trkpt><trkpt lat="47.726095012582995" lon="-1.7440245159099137"><ele>69.0</ele><time>2026-04-12T16:31:47.999Z</time></trkpt><trkpt lat="47.72605395992011" lon="-1.7437840393319557"><ele>69.0</ele><time>2026-04-12T16:31:48.999Z</time></trkpt><trkpt lat="47.725994365997735" lon="-1.7435409304667744"><ele>69.0</ele><time>2026-04-12T16:31:49.999Z</time></trkpt><trkpt lat="47.72591896001662" lon="-1.7432912664521814"><ele>69.0</ele><time>2026-04-12T16:31:50.999Z</time></trkpt><trkpt lat="47.725852358798136" lon="-1.7430362305866614"><ele>69.0</ele><time>2026-04-12T16:31:51.999Z</time></trkpt><trkpt lat="47.725785173150115" lon="-1.742777707839744"><ele>69.0</ele><time>2026-04-12T16:31:52.999Z</time></trkpt><trkpt lat="47.725716196868404" lon="-1.7425262854429076"><ele>68.66666666666667</ele><time>2026-04-12T16:31:53.999Z</time></trkpt><trkpt lat="47.72564482800711" lon="-1.7422632307350472"><ele>68.33333333333334</ele><time>2026-04-12T16:31:54.999Z</time></trkpt><trkpt lat="47.7255827519003" lon="-1.7419916504721507"><ele>68.0</ele><time>2026-04-12T16:31:55.999Z</time></trkpt><trkpt lat="47.72551124038331" lon="-1.7417302906101442"><ele>67.33333333333334</ele><time>2026-04-12T16:31:56.999Z</time></trkpt><trkpt lat="47.72543095630503" lon="-1.7414566295980671"><ele>66.66666666666667</ele><time>2026-04-12T16:31:57.999Z</time></trkpt><trkpt lat="47.725349176363366" lon="-1.7411800911633641"><ele>66.0</ele><time>2026-04-12T16:31:58.999Z</time></trkpt><trkpt lat="47.72528236214944" lon="-1.740901563788602"><ele>64.66666666666667</ele><time>2026-04-12T16:31:59.999Z</time></trkpt><trkpt lat="47.72521937888022" lon="-1.7405862010669193"><ele>63.333333333333336</ele><time>2026-04-12T16:32:00.998Z</time></trkpt><trkpt lat="47.72517692005993" lon="-1.7402897361684417"><ele>62.0</ele><time>2026-04-12T16:32:01.998Z</time></trkpt><trkpt lat="47.725154410196836" lon="-1.7400190884871891"><ele>60.5</ele><time>2026-04-12T16:32:02.998Z</time></trkpt><trkpt lat="47.72513913790705" lon="-1.739792842483411"><ele>59.0</ele><time>2026-04-12T16:32:03.998Z</time></trkpt><trkpt lat="47.72482826550798" lon="-1.7396123210844314"><ele>59.0</ele><time>2026-04-12T16:32:04.998Z</time></trkpt><trkpt lat="47.7247258166406" lon="-1.7394256065710707"><ele>59.0</ele><time>2026-04-12T16:32:05.998Z</time></trkpt><trkpt lat="47.72463671444371" lon="-1.7392325099283636"><ele>59.0</ele><time>2026-04-12T16:32:06.998Z</time></trkpt><trkpt lat="47.72514046927519" lon="-1.7389747703485952"><ele>58.6</ele><time>2026-04-12T16:32:07.998Z</time></trkpt><trkpt lat="47.725139229992756" lon="-1.7388678327576679"><ele>58.2</ele><time>2026-04-12T16:32:08.998Z</time></trkpt><trkpt lat="47.72512113370028" lon="-1.7387185788608366"><ele>57.800000000000004</ele><time>2026-04-12T16:32:10.998Z</time></trkpt><trkpt lat="47.72512359183504" lon="-1.7385513477654884"><ele>57.400000000000006</ele><time>2026-04-12T16:32:12.998Z</time></trkpt><trkpt lat="47.72512475640495" lon="-1.7384430285935666"><ele>57.0</ele><time>2026-04-12T16:32:13.998Z</time></trkpt><trkpt lat="47.725125746823736" lon="-1.738306438685917"><ele>56.25</ele><time>2026-04-12T16:32:15Z</time></trkpt><trkpt lat="47.72510299629722" lon="-1.7381429938630526"><ele>55.5</ele><time>2026-04-12T16:32:16Z</time></trkpt><trkpt lat="47.725095708242165" lon="-1.7379454571683717"><ele>54.75</ele><time>2026-04-12T16:32:17Z</time></trkpt><trkpt lat="47.72508672975287" lon="-1.7377296754612954"><ele>54.0</ele><time>2026-04-12T16:32:18Z</time></trkpt><trkpt lat="47.72507769951475" lon="-1.737535303489773"><ele>53.33333333333333</ele><time>2026-04-12T16:32:19Z</time></trkpt><trkpt lat="47.725077829759165" lon="-1.7373202371282384"><ele>52.666666666666664</ele><time>2026-04-12T16:32:20Z</time></trkpt><trkpt lat="47.72504875742745" lon="-1.7370878228147522"><ele>52.0</ele><time>2026-04-12T16:32:21Z</time></trkpt><trkpt lat="47.72499327832602" lon="-1.7368522757384746"><ele>52.0</ele><time>2026-04-12T16:32:22Z</time></trkpt><trkpt lat="47.72494141449839" lon="-1.7366013130377176"><ele>52.0</ele><time>2026-04-12T16:32:23Z</time></trkpt><trkpt lat="47.724893410352834" lon="-1.7363776727407545"><ele>52.0</ele><time>2026-04-12T16:32:24Z</time></trkpt><trkpt lat="47.72484966768122" lon="-1.7361717280923485"><ele>52.0</ele><time>2026-04-12T16:32:25Z</time></trkpt><trkpt lat="47.72481036738751" lon="-1.7359771603286187"><ele>52.0</ele><time>2026-04-12T16:32:26Z</time></trkpt><trkpt lat="47.72476896638282" lon="-1.7357875346384728"><ele>52.0</ele><time>2026-04-12T16:32:27Z</time></trkpt><trkpt lat="47.724723087615" lon="-1.735594106701669"><ele>52.0</ele><time>2026-04-12T16:32:28Z</time></trkpt><trkpt lat="47.724694004969045" lon="-1.7353902206746568"><ele>52.0</ele><time>2026-04-12T16:32:29Z</time></trkpt><trkpt lat="47.72465676750575" lon="-1.735231213808331"><ele>52.0</ele><time>2026-04-12T16:32:30Z</time></trkpt><trkpt lat="47.72462045143012" lon="-1.7350766870722278"><ele>52.0</ele><time>2026-04-12T16:32:31Z</time></trkpt><trkpt lat="47.724563401252084" lon="-1.734958927891258"><ele>52.0</ele><time>2026-04-12T16:32:32Z</time></trkpt><trkpt lat="47.72453463059454" lon="-1.7348521411755984"><ele>52.0</ele><time>2026-04-12T16:32:33Z</time></trkpt><trkpt lat="47.724518218470145" lon="-1.7347603727343401"><ele>52.33333333333333</ele><time>2026-04-12T16:32:34Z</time></trkpt><trkpt lat="47.72450748999078" lon="-1.734657751921682"><ele>52.666666666666664</ele><time>2026-04-12T16:32:35Z</time></trkpt><trkpt lat="47.724485281134335" lon="-1.7345419674356495"><ele>53.0</ele><time>2026-04-12T16:32:36Z</time></trkpt><trkpt lat="47.72445535636689" lon="-1.7343985771670267"><ele>53.33333333333333</ele><time>2026-04-12T16:32:37Z</time></trkpt><trkpt lat="47.72442539613779" lon="-1.7342814515706715"><ele>53.666666666666664</ele><time>2026-04-12T16:32:38Z</time></trkpt><trkpt lat="47.724402163083255" lon="-1.734192010615513"><ele>54.0</ele><time>2026-04-12T16:32:39Z</time></trkpt><trkpt lat="47.72437400478726" lon="-1.7341012571071812"><ele>54.6</ele><time>2026-04-12T16:32:40Z</time></trkpt><trkpt lat="47.724350806673314" lon="-1.733994855763609"><ele>55.2</ele><time>2026-04-12T16:32:41Z</time></trkpt><trkpt lat="47.72432722333982" lon="-1.7338735949407893"><ele>55.800000000000004</ele><time>2026-04-12T16:32:42Z</time></trkpt><trkpt lat="47.7243053323963" lon="-1.7337595474109186"><ele>56.400000000000006</ele><time>2026-04-12T16:32:43Z</time></trkpt><trkpt lat="47.724290233903524" lon="-1.7335985450279436"><ele>57.0</ele><time>2026-04-12T16:32:45Z</time></trkpt><trkpt lat="47.72424947981953" lon="-1.7334166206089212"><ele>57.5</ele><time>2026-04-12T16:32:47Z</time></trkpt><trkpt lat="47.72423814029761" lon="-1.7333210183229526"><ele>58.0</ele><time>2026-04-12T16:32:48Z</time></trkpt><trkpt lat="47.72422531235707" lon="-1.733215524522182"><ele>58.5</ele><time>2026-04-12T16:32:49Z</time></trkpt><trkpt lat="47.72422132889487" lon="-1.7331055844523737"><ele>59.0</ele><time>2026-04-12T16:32:50Z</time></trkpt><trkpt lat="47.72422548461262" lon="-1.732989970486595"><ele>59.5</ele><time>2026-04-12T16:32:51Z</time></trkpt><trkpt lat="47.724215666637335" lon="-1.7328512926666864"><ele>60.0</ele><time>2026-04-12T16:32:53Z</time></trkpt><trkpt lat="47.72434980848311" lon="-1.7327850317662281"><ele>60.4</ele><time>2026-04-12T16:32:59Z</time></trkpt><trkpt lat="47.72445741803376" lon="-1.7328091625936781"><ele>60.8</ele><time>2026-04-12T16:33:00.999Z</time></trkpt><trkpt lat="47.72452940595783" lon="-1.7328257629252917"><ele>61.2</ele><time>2026-04-12T16:33:01.999Z</time></trkpt><trkpt lat="47.72462024600626" lon="-1.7328469788361465"><ele>61.6</ele><time>2026-04-12T16:33:02.999Z</time></trkpt><trkpt lat="47.72470715419294" lon="-1.7328651215643325"><ele>62.0</ele><time>2026-04-12T16:33:03.999Z</time></trkpt><trkpt lat="47.724827308938806" lon="-1.7328989422947452"><ele>62.0</ele><time>2026-04-12T16:33:04.999Z</time></trkpt><trkpt lat="47.724899488614895" lon="-1.73293186749557"><ele>62.0</ele><time>2026-04-12T16:33:05.999Z</time></trkpt><trkpt lat="47.72496663373208" lon="-1.7329671319398239"><ele>62.0</ele><time>2026-04-12T16:33:06.999Z</time></trkpt><trkpt lat="47.72509795433106" lon="-1.7330425709595665"><ele>62.0</ele><time>2026-04-12T16:33:08.999Z</time></trkpt><trkpt lat="47.72517463908565" lon="-1.7330865888090485"><ele>62.0</ele><time>2026-04-12T16:33:09.999Z</time></trkpt><trkpt lat="47.72527684232483" lon="-1.7331407110680757"><ele>62.333333333333336</ele><time>2026-04-12T16:33:10.999Z</time></trkpt><trkpt lat="47.72534354363059" lon="-1.7331767315851059"><ele>62.66666666666667</ele><time>2026-04-12T16:33:11.999Z</time></trkpt><trkpt lat="47.72541030850365" lon="-1.733212786465298"><ele>63.0</ele><time>2026-04-12T16:33:12.999Z</time></trkpt><trkpt lat="47.72546136006656" lon="-1.7333291035478582"><ele>63.33333333333333</ele><time>2026-04-12T16:33:13.999Z</time></trkpt><trkpt lat="47.72552495170544" lon="-1.7333436189214622"><ele>63.666666666666664</ele><time>2026-04-12T16:33:14.999Z</time></trkpt><trkpt lat="47.72559399481717" lon="-1.7333681858983525"><ele>64.0</ele><time>2026-04-12T16:33:15.999Z</time></trkpt><trkpt lat="47.725675471007264" lon="-1.7334002909764141"><ele>64.0</ele><time>2026-04-12T16:33:16.999Z</time></trkpt><trkpt lat="47.72575525542177" lon="-1.733398772513399"><ele>64.0</ele><time>2026-04-12T16:33:17.999Z</time></trkpt><trkpt lat="47.72589113382545" lon="-1.73347192817829"><ele>64.0</ele><time>2026-04-12T16:33:18.999Z</time></trkpt><trkpt lat="47.7259840482555" lon="-1.733539296327978"><ele>64.0</ele><time>2026-04-12T16:33:19.999Z</time></trkpt><trkpt lat="47.72605081397655" lon="-1.7335756772025779"><ele>64.0</ele><time>2026-04-12T16:33:20.999Z</time></trkpt><trkpt lat="47.72611697450971" lon="-1.7335935187249787"><ele>64.33333333333333</ele><time>2026-04-12T16:33:21.999Z</time></trkpt><trkpt lat="47.72616800121481" lon="-1.7336619508812365"><ele>64.66666666666666</ele><time>2026-04-12T16:33:22.999Z</time></trkpt><trkpt lat="47.726240507859714" lon="-1.7337105004181437"><ele>65.0</ele><time>2026-04-12T16:33:23.999Z</time></trkpt><trkpt lat="47.72633336185985" lon="-1.733732946827497"><ele>65.33333333333333</ele><time>2026-04-12T16:33:24.999Z</time></trkpt><trkpt lat="47.726398076752574" lon="-1.7337667782830621"><ele>65.66666666666667</ele><time>2026-04-12T16:33:25.999Z</time></trkpt><trkpt lat="47.72649868954545" lon="-1.7338448316933732"><ele>66.0</ele><time>2026-04-12T16:33:27.999Z</time></trkpt><trkpt lat="47.72656529654749" lon="-1.7338779009808318"><ele>66.0</ele><time>2026-04-12T16:33:28.999Z</time></trkpt><trkpt lat="47.726675604046235" lon="-1.73392282562134"><ele>66.0</ele><time>2026-04-12T16:33:29.999Z</time></trkpt><trkpt lat="47.72677054709602" lon="-1.7339861679607529"><ele>66.0</ele><time>2026-04-12T16:33:30.999Z</time></trkpt><trkpt lat="47.72683993020149" lon="-1.7340372854071795"><ele>66.0</ele><time>2026-04-12T16:33:31.999Z</time></trkpt><trkpt lat="47.72692151288083" lon="-1.734104151782219"><ele>66.0</ele><time>2026-04-12T16:33:33.999Z</time></trkpt><trkpt lat="47.7269976232257" lon="-1.7337968982881942"><ele>66.39999999999999</ele><time>2026-04-12T16:33:36.999Z</time></trkpt><trkpt lat="47.72706362316485" lon="-1.7337365420268345"><ele>66.8</ele><time>2026-04-12T16:33:37.999Z</time></trkpt><trkpt lat="47.727136661740474" lon="-1.733686719788087"><ele>67.19999999999999</ele><time>2026-04-12T16:33:38.999Z</time></trkpt><trkpt lat="47.72725413064104" lon="-1.733744041643441"><ele>67.6</ele><time>2026-04-12T16:33:39.999Z</time></trkpt><trkpt lat="47.72736754307785" lon="-1.7337686562920327"><ele>68.0</ele><time>2026-04-12T16:33:40.999Z</time></trkpt><trkpt lat="47.72745735870484" lon="-1.7337966699204415"><ele>68.0</ele><time>2026-04-12T16:33:41.999Z</time></trkpt><trkpt lat="47.72754565178104" lon="-1.733824208780731"><ele>68.0</ele><time>2026-04-12T16:33:42.999Z</time></trkpt><trkpt lat="47.727645417452564" lon="-1.7338578087495409"><ele>68.0</ele><time>2026-04-12T16:33:43.999Z</time></trkpt><trkpt lat="47.72774828736396" lon="-1.7339197411492795"><ele>68.0</ele><time>2026-04-12T16:33:44.999Z</time></trkpt><trkpt lat="47.72785364528854" lon="-1.733936095460267"><ele>68.0</ele><time>2026-04-12T16:33:45.999Z</time></trkpt><trkpt lat="47.72796642512734" lon="-1.7339717824809753"><ele>67.75</ele><time>2026-04-12T16:33:46.999Z</time></trkpt><trkpt lat="47.72807230199555" lon="-1.734005285147854"><ele>67.5</ele><time>2026-04-12T16:33:47.999Z</time></trkpt><trkpt lat="47.72818785040354" lon="-1.7340435670915835"><ele>67.25</ele><time>2026-04-12T16:33:48.999Z</time></trkpt><trkpt lat="47.72831527248363" lon="-1.7340559284644428"><ele>67.0</ele><time>2026-04-12T16:33:49.999Z</time></trkpt><trkpt lat="47.7284447398969" lon="-1.7340668988831371"><ele>66.75</ele><time>2026-04-12T16:33:50.999Z</time></trkpt><trkpt lat="47.728570239047826" lon="-1.7340730433682865"><ele>66.5</ele><time>2026-04-12T16:33:51.999Z</time></trkpt><trkpt lat="47.72869885791413" lon="-1.7340762527540847"><ele>66.25</ele><time>2026-04-12T16:33:52.999Z</time></trkpt><trkpt lat="47.728831692865455" lon="-1.7340612771212212"><ele>66.0</ele><time>2026-04-12T16:33:53.999Z</time></trkpt><trkpt lat="47.728951646138924" lon="-1.734087061741277"><ele>66.0</ele><time>2026-04-12T16:33:54.999Z</time></trkpt><trkpt lat="47.72907972910919" lon="-1.7340854626070665"><ele>66.0</ele><time>2026-04-12T16:33:55.999Z</time></trkpt><trkpt lat="47.72921341094837" lon="-1.7340735043879527"><ele>66.0</ele><time>2026-04-12T16:33:56.999Z</time></trkpt><trkpt lat="47.72933894812991" lon="-1.7340481243730494"><ele>66.0</ele><time>2026-04-12T16:33:57.999Z</time></trkpt><trkpt lat="47.729459744392415" lon="-1.7340124816645757"><ele>65.75</ele><time>2026-04-12T16:33:58.999Z</time></trkpt><trkpt lat="47.72957625545217" lon="-1.7339667223004875"><ele>65.5</ele><time>2026-04-12T16:33:59.999Z</time></trkpt><trkpt lat="47.72971206582478" lon="-1.733911910126233"><ele>65.25</ele><time>2026-04-12T16:34:00.999Z</time></trkpt><trkpt lat="47.729853483029615" lon="-1.7338499790155746"><ele>65.0</ele><time>2026-04-12T16:34:01.999Z</time></trkpt><trkpt lat="47.73000359395382" lon="-1.7338249837766073"><ele>65.0</ele><time>2026-04-12T16:34:02.998Z</time></trkpt><trkpt lat="47.73014494809929" lon="-1.7338085161314025"><ele>65.0</ele><time>2026-04-12T16:34:03.998Z</time></trkpt><trkpt lat="47.73028078095292" lon="-1.7337892151722099"><ele>65.0</ele><time>2026-04-12T16:34:04.998Z</time></trkpt><trkpt lat="47.73041200369331" lon="-1.7337610681997901"><ele>65.0</ele><time>2026-04-12T16:34:05.998Z</time></trkpt><trkpt lat="47.730532493752634" lon="-1.7337323576800934"><ele>64.66666666666667</ele><time>2026-04-12T16:34:06.998Z</time></trkpt><trkpt lat="47.73063790178268" lon="-1.7337163104235407"><ele>64.33333333333334</ele><time>2026-04-12T16:34:07.998Z</time></trkpt><trkpt lat="47.730726559530424" lon="-1.7336832799578097"><ele>64.0</ele><time>2026-04-12T16:34:08.998Z</time></trkpt><trkpt lat="47.73080460189555" lon="-1.7336534704445548"><ele>63.66666666666667</ele><time>2026-04-12T16:34:09.998Z</time></trkpt><trkpt lat="47.73088315806855" lon="-1.7336309487046369"><ele>63.333333333333336</ele><time>2026-04-12T16:34:10.998Z</time></trkpt><trkpt lat="47.73094262057379" lon="-1.7335891230772067"><ele>63.0</ele><time>2026-04-12T16:34:11.998Z</time></trkpt><trkpt lat="47.73100752331724" lon="-1.7334639641821765"><ele>62.8</ele><time>2026-04-12T16:34:13.998Z</time></trkpt><trkpt lat="47.73095935019897" lon="-1.7333258086023544"><ele>62.599999999999994</ele><time>2026-04-12T16:34:14.998Z</time></trkpt><trkpt lat="47.73089848494091" lon="-1.7332392517140158"><ele>62.400000000000006</ele><time>2026-04-12T16:34:15.998Z</time></trkpt><trkpt lat="47.73085249330323" lon="-1.733137796873458"><ele>62.2</ele><time>2026-04-12T16:34:16.998Z</time></trkpt><trkpt lat="47.730802321034574" lon="-1.7330286814141136"><ele>62.0</ele><time>2026-04-12T16:34:17.998Z</time></trkpt><trkpt lat="47.7307558038054" lon="-1.7328994014741115"><ele>62.0</ele><time>2026-04-12T16:34:18.998Z</time></trkpt><trkpt lat="47.730695802318714" lon="-1.7327765819494838"><ele>62.0</ele><time>2026-04-12T16:34:19.998Z</time></trkpt><trkpt lat="47.73062963880537" lon="-1.7326404494780587"><ele>62.0</ele><time>2026-04-12T16:34:21Z</time></trkpt><trkpt lat="47.730559332650586" lon="-1.732482130937655"><ele>62.0</ele><time>2026-04-12T16:34:22Z</time></trkpt><trkpt lat="47.730488098546324" lon="-1.7323170739701859"><ele>61.5</ele><time>2026-04-12T16:34:23Z</time></trkpt><trkpt lat="47.730426705701035" lon="-1.7321872108070024"><ele>61.0</ele><time>2026-04-12T16:34:24Z</time></trkpt><trkpt lat="47.73037232767385" lon="-1.7320476407650816"><ele>60.5</ele><time>2026-04-12T16:34:25Z</time></trkpt><trkpt lat="47.73030756249887" lon="-1.7318991692690364"><ele>60.0</ele><time>2026-04-12T16:34:26Z</time></trkpt><trkpt lat="47.73023537758006" lon="-1.7317425894698648"><ele>60.25</ele><time>2026-04-12T16:34:27Z</time></trkpt><trkpt lat="47.73016261381498" lon="-1.731583939606152"><ele>60.5</ele><time>2026-04-12T16:34:28Z</time></trkpt><trkpt lat="47.73009524071735" lon="-1.7314049695995628"><ele>60.75</ele><time>2026-04-12T16:34:29Z</time></trkpt><trkpt lat="47.730050755728136" lon="-1.731242676184836"><ele>61.0</ele><time>2026-04-12T16:34:30Z</time></trkpt><trkpt lat="47.73000381242511" lon="-1.7310617688830678"><ele>60.5</ele><time>2026-04-12T16:34:31Z</time></trkpt><trkpt lat="47.72994657850662" lon="-1.7308838742858617"><ele>60.0</ele><time>2026-04-12T16:34:32Z</time></trkpt><trkpt lat="47.72989489855737" lon="-1.7307337997312324"><ele>59.5</ele><time>2026-04-12T16:34:33Z</time></trkpt><trkpt lat="47.7298426920991" lon="-1.7305798911827524"><ele>59.0</ele><time>2026-04-12T16:34:34Z</time></trkpt><trkpt lat="47.7297943311711" lon="-1.7304348772245879"><ele>59.0</ele><time>2026-04-12T16:34:35Z</time></trkpt><trkpt lat="47.72975935442629" lon="-1.7302973922092615"><ele>59.00000000000001</ele><time>2026-04-12T16:34:36Z</time></trkpt><trkpt lat="47.72971514731934" lon="-1.7301802243021742"><ele>59.00000000000001</ele><time>2026-04-12T16:34:37Z</time></trkpt><trkpt lat="47.729683434306764" lon="-1.7300821693077482"><ele>59.0</ele><time>2026-04-12T16:34:38Z</time></trkpt><trkpt lat="47.729660991520326" lon="-1.729959267609385"><ele>59.0</ele><time>2026-04-12T16:34:40Z</time></trkpt><trkpt lat="47.72953730780463" lon="-1.7299533976876613"><ele>58.6</ele><time>2026-04-12T16:34:42Z</time></trkpt><trkpt lat="47.72939088560045" lon="-1.7299392836684508"><ele>58.2</ele><time>2026-04-12T16:34:44Z</time></trkpt><trkpt lat="47.72929747784047" lon="-1.7299264997251316"><ele>57.800000000000004</ele><time>2026-04-12T16:34:45Z</time></trkpt><trkpt lat="47.72920745418798" lon="-1.7298882416206516"><ele>57.400000000000006</ele><time>2026-04-12T16:34:46Z</time></trkpt><trkpt lat="47.729102186220246" lon="-1.7299036162468049"><ele>57.0</ele><time>2026-04-12T16:34:47Z</time></trkpt><trkpt lat="47.729012135979715" lon="-1.729889123120928"><ele>57.0</ele><time>2026-04-12T16:34:48Z</time></trkpt><trkpt lat="47.72891161189966" lon="-1.7298718765744778"><ele>57.0</ele><time>2026-04-12T16:34:49Z</time></trkpt><trkpt lat="47.728809517930344" lon="-1.7298802519418148"><ele>57.0</ele><time>2026-04-12T16:34:50Z</time></trkpt><trkpt lat="47.72872235557325" lon="-1.7299136402451503"><ele>57.0</ele><time>2026-04-12T16:34:51Z</time></trkpt><trkpt lat="47.72863962832095" lon="-1.7299568124306501"><ele>57.0</ele><time>2026-04-12T16:34:52Z</time></trkpt><trkpt lat="47.72857093224139" lon="-1.7299883294467988"><ele>57.0</ele><time>2026-04-12T16:34:53Z</time></trkpt><trkpt lat="47.728462558776265" lon="-1.7300128767371155"><ele>57.0</ele><time>2026-04-12T16:34:55Z</time></trkpt><trkpt lat="47.72839242161571" lon="-1.7300463946665008"><ele>57.0</ele><time>2026-04-12T16:34:57Z</time></trkpt><trkpt lat="47.728347347304776" lon="-1.7296874005729823"><ele>57.0</ele><time>2026-04-12T16:34:59Z</time></trkpt><trkpt lat="47.7283251822099" lon="-1.7295832831909412"><ele>57.0</ele><time>2026-04-12T16:35:01Z</time></trkpt><trkpt lat="47.72815763055858" lon="-1.7296389237248504"><ele>57.0</ele><time>2026-04-12T16:35:03.999Z</time></trkpt><trkpt lat="47.72807586389531" lon="-1.7296603634400827"><ele>57.0</ele><time>2026-04-12T16:35:05.999Z</time></trkpt><trkpt lat="47.72799587212981" lon="-1.7296813375970255"><ele>57.0</ele><time>2026-04-12T16:35:07.999Z</time></trkpt><trkpt lat="47.72789273133925" lon="-1.7296846556085366"><ele>57.0</ele><time>2026-04-12T16:35:09.999Z</time></trkpt><trkpt lat="47.72782143274515" lon="-1.7297004765056254"><ele>57.0</ele><time>2026-04-12T16:35:11.999Z</time></trkpt><trkpt lat="47.72775560246323" lon="-1.7297044209802364"><ele>57.0</ele><time>2026-04-12T16:35:14.999Z</time></trkpt><trkpt lat="47.7276885406223" lon="-1.729658093763169"><ele>54.0</ele><time>2026-04-12T16:35:20.999Z</time></trkpt></trkseg></trk></gpx>